<?xml version="1.0" encoding="UTF-8" standalone="no" ?>
<gpx xmlns="http://www.topografix.com/GPX/1/1" xmlns:xsi="http://www.w3.org/2001/XMLSchema-instance" xsi:schemaLocation="http://www.topografix.com/GPX/1/1 http://www.topografix.com/GPX/1/1/gpx.xsd" version="1.1" creator="VisuGPX - https://www.visugpx.com">
  <metadata>
    <name>Tour du mont Viso. Jour 02. Du petit Belvédère du Viso au refuge Vallanta</name>
    <desc><![CDATA[Trace AlpineQuest 31/08/2026 08:02:46]]></desc>
  </metadata>
  <trk>
    <name><![CDATA[visugpx_2oSuOXpmha_1]]></name>
    <extensions>
      <line xmlns="http://www.topografix.com/GPX/gpx_style/0/2">
        <color>0000FF</color>
        <width>4</width>
      </line>
    </extensions>
    <trkseg>
      <trkpt lat="44.73206" lon="6.99929">
        <ele>1905.1</ele>
        <time>2026-08-31T06:02:45Z</time>
      </trkpt>
      <trkpt lat="44.73219" lon="6.99927">
        <ele>1903.9</ele>
        <time>2026-08-31T06:02:46Z</time>
      </trkpt>
      <trkpt lat="44.73204" lon="6.99917">
        <ele>1907.5</ele>
        <time>2026-08-31T06:02:52Z</time>
      </trkpt>
      <trkpt lat="44.73203" lon="6.99923">
        <ele>1906.5</ele>
        <time>2026-08-31T06:02:57Z</time>
      </trkpt>
      <trkpt lat="44.73203" lon="6.99927">
        <ele>1905.8</ele>
        <time>2026-08-31T06:03:02Z</time>
      </trkpt>
      <trkpt lat="44.73201" lon="6.99929">
        <ele>1905.7</ele>
        <time>2026-08-31T06:03:08Z</time>
      </trkpt>
      <trkpt lat="44.73199" lon="6.99931">
        <ele>1905.6</ele>
        <time>2026-08-31T06:03:13Z</time>
      </trkpt>
      <trkpt lat="44.73199" lon="6.99933">
        <ele>1905.3</ele>
        <time>2026-08-31T06:03:18Z</time>
      </trkpt>
      <trkpt lat="44.73199" lon="6.99934">
        <ele>1905.1</ele>
        <time>2026-08-31T06:03:24Z</time>
      </trkpt>
      <trkpt lat="44.73199" lon="6.99934">
        <ele>1905.1</ele>
        <time>2026-08-31T06:03:29Z</time>
      </trkpt>
      <trkpt lat="44.73196" lon="6.9994">
        <ele>1904.4</ele>
        <time>2026-08-31T06:03:34Z</time>
      </trkpt>
      <trkpt lat="44.73196" lon="6.9994">
        <ele>1904.4</ele>
        <time>2026-08-31T06:03:40Z</time>
      </trkpt>
      <trkpt lat="44.73196" lon="6.9994">
        <ele>1904.4</ele>
        <time>2026-08-31T06:03:45Z</time>
      </trkpt>
      <trkpt lat="44.73196" lon="6.9994">
        <ele>1904.4</ele>
        <time>2026-08-31T06:03:50Z</time>
      </trkpt>
      <trkpt lat="44.73196" lon="6.9994">
        <ele>1904.4</ele>
        <time>2026-08-31T06:03:56Z</time>
      </trkpt>
      <trkpt lat="44.73196" lon="6.9994">
        <ele>1904.4</ele>
        <time>2026-08-31T06:04:01Z</time>
      </trkpt>
      <trkpt lat="44.73196" lon="6.9994">
        <ele>1904.4</ele>
        <time>2026-08-31T06:04:06Z</time>
      </trkpt>
      <trkpt lat="44.73196" lon="6.9994">
        <ele>1904.4</ele>
        <time>2026-08-31T06:04:12Z</time>
      </trkpt>
      <trkpt lat="44.73196" lon="6.9994">
        <ele>1904.4</ele>
        <time>2026-08-31T06:04:17Z</time>
      </trkpt>
      <trkpt lat="44.73196" lon="6.9994">
        <ele>1904.4</ele>
        <time>2026-08-31T06:04:22Z</time>
      </trkpt>
      <trkpt lat="44.73186" lon="6.99938">
        <ele>1905.9</ele>
        <time>2026-08-31T06:04:28Z</time>
      </trkpt>
      <trkpt lat="44.73181" lon="6.99937">
        <ele>1906.7</ele>
        <time>2026-08-31T06:04:33Z</time>
      </trkpt>
      <trkpt lat="44.73178" lon="6.99936">
        <ele>1907.2</ele>
        <time>2026-08-31T06:04:38Z</time>
      </trkpt>
      <trkpt lat="44.73178" lon="6.99935">
        <ele>1907.4</ele>
        <time>2026-08-31T06:04:44Z</time>
      </trkpt>
      <trkpt lat="44.73172" lon="6.99934">
        <ele>1908.3</ele>
        <time>2026-08-31T06:04:49Z</time>
      </trkpt>
      <trkpt lat="44.73171" lon="6.99935">
        <ele>1908.2</ele>
        <time>2026-08-31T06:04:54Z</time>
      </trkpt>
      <trkpt lat="44.73169" lon="6.99939">
        <ele>1907.7</ele>
        <time>2026-08-31T06:05:00Z</time>
      </trkpt>
      <trkpt lat="44.73165" lon="6.99944">
        <ele>1907.4</ele>
        <time>2026-08-31T06:05:05Z</time>
      </trkpt>
      <trkpt lat="44.73159" lon="6.99951">
        <ele>1907.2</ele>
        <time>2026-08-31T06:05:10Z</time>
      </trkpt>
      <trkpt lat="44.73153" lon="6.99956">
        <ele>1907.4</ele>
        <time>2026-08-31T06:05:16Z</time>
      </trkpt>
      <trkpt lat="44.73148" lon="6.99961">
        <ele>1907.4</ele>
        <time>2026-08-31T06:05:21Z</time>
      </trkpt>
      <trkpt lat="44.73143" lon="6.99966">
        <ele>1907.4</ele>
        <time>2026-08-31T06:05:26Z</time>
      </trkpt>
      <trkpt lat="44.73135" lon="6.99968">
        <ele>1908.5</ele>
        <time>2026-08-31T06:05:32Z</time>
      </trkpt>
      <trkpt lat="44.73128" lon="6.99972">
        <ele>1909</ele>
        <time>2026-08-31T06:05:37Z</time>
      </trkpt>
      <trkpt lat="44.7312" lon="6.99971">
        <ele>1910.6</ele>
        <time>2026-08-31T06:05:42Z</time>
      </trkpt>
      <trkpt lat="44.73114" lon="6.99975">
        <ele>1911</ele>
        <time>2026-08-31T06:05:48Z</time>
      </trkpt>
      <trkpt lat="44.73109" lon="6.99983">
        <ele>1910.4</ele>
        <time>2026-08-31T06:05:53Z</time>
      </trkpt>
      <trkpt lat="44.73102" lon="6.99985">
        <ele>1911.3</ele>
        <time>2026-08-31T06:05:58Z</time>
      </trkpt>
      <trkpt lat="44.73094" lon="6.99989">
        <ele>1912.1</ele>
        <time>2026-08-31T06:06:04Z</time>
      </trkpt>
      <trkpt lat="44.73088" lon="6.99995">
        <ele>1912.1</ele>
        <time>2026-08-31T06:06:09Z</time>
      </trkpt>
      <trkpt lat="44.73081" lon="7.00001">
        <ele>1912.6</ele>
        <time>2026-08-31T06:06:14Z</time>
      </trkpt>
      <trkpt lat="44.73074" lon="7.00008">
        <ele>1914</ele>
        <time>2026-08-31T06:06:20Z</time>
      </trkpt>
      <trkpt lat="44.7307" lon="7.00013">
        <ele>1914.7</ele>
        <time>2026-08-31T06:06:25Z</time>
      </trkpt>
      <trkpt lat="44.73064" lon="7.00018">
        <ele>1915.9</ele>
        <time>2026-08-31T06:06:30Z</time>
      </trkpt>
      <trkpt lat="44.73059" lon="7.00024">
        <ele>1916.7</ele>
        <time>2026-08-31T06:06:36Z</time>
      </trkpt>
      <trkpt lat="44.73055" lon="7.0003">
        <ele>1917.2</ele>
        <time>2026-08-31T06:06:41Z</time>
      </trkpt>
      <trkpt lat="44.7305" lon="7.00035">
        <ele>1918.1</ele>
        <time>2026-08-31T06:06:46Z</time>
      </trkpt>
      <trkpt lat="44.73047" lon="7.00045">
        <ele>1917.8</ele>
        <time>2026-08-31T06:06:52Z</time>
      </trkpt>
      <trkpt lat="44.73046" lon="7.00053">
        <ele>1917.1</ele>
        <time>2026-08-31T06:06:57Z</time>
      </trkpt>
      <trkpt lat="44.73044" lon="7.0006">
        <ele>1916.8</ele>
        <time>2026-08-31T06:07:02Z</time>
      </trkpt>
      <trkpt lat="44.73042" lon="7.00068">
        <ele>1916.3</ele>
        <time>2026-08-31T06:07:08Z</time>
      </trkpt>
      <trkpt lat="44.73041" lon="7.00076">
        <ele>1915.6</ele>
        <time>2026-08-31T06:07:13Z</time>
      </trkpt>
      <trkpt lat="44.73039" lon="7.00083">
        <ele>1915.3</ele>
        <time>2026-08-31T06:07:18Z</time>
      </trkpt>
      <trkpt lat="44.73035" lon="7.00089">
        <ele>1916</ele>
        <time>2026-08-31T06:07:24Z</time>
      </trkpt>
      <trkpt lat="44.73031" lon="7.00095">
        <ele>1916.5</ele>
        <time>2026-08-31T06:07:29Z</time>
      </trkpt>
      <trkpt lat="44.73026" lon="7.00101">
        <ele>1917.2</ele>
        <time>2026-08-31T06:07:34Z</time>
      </trkpt>
      <trkpt lat="44.7302" lon="7.00104">
        <ele>1918.2</ele>
        <time>2026-08-31T06:07:40Z</time>
      </trkpt>
      <trkpt lat="44.73017" lon="7.00105">
        <ele>1918.7</ele>
        <time>2026-08-31T06:07:45Z</time>
      </trkpt>
      <trkpt lat="44.73011" lon="7.00106">
        <ele>1919.9</ele>
        <time>2026-08-31T06:07:50Z</time>
      </trkpt>
      <trkpt lat="44.73006" lon="7.00107">
        <ele>1920.8</ele>
        <time>2026-08-31T06:07:56Z</time>
      </trkpt>
      <trkpt lat="44.73004" lon="7.00107">
        <ele>1921.2</ele>
        <time>2026-08-31T06:08:01Z</time>
      </trkpt>
      <trkpt lat="44.72997" lon="7.0011">
        <ele>1922.3</ele>
        <time>2026-08-31T06:08:06Z</time>
      </trkpt>
      <trkpt lat="44.7299" lon="7.00112">
        <ele>1923.9</ele>
        <time>2026-08-31T06:08:12Z</time>
      </trkpt>
      <trkpt lat="44.72986" lon="7.00116">
        <ele>1924.2</ele>
        <time>2026-08-31T06:08:17Z</time>
      </trkpt>
      <trkpt lat="44.72981" lon="7.00116">
        <ele>1925.5</ele>
        <time>2026-08-31T06:08:22Z</time>
      </trkpt>
      <trkpt lat="44.72977" lon="7.00121">
        <ele>1925.7</ele>
        <time>2026-08-31T06:08:28Z</time>
      </trkpt>
      <trkpt lat="44.72976" lon="7.00127">
        <ele>1924.8</ele>
        <time>2026-08-31T06:08:33Z</time>
      </trkpt>
      <trkpt lat="44.72978" lon="7.00129">
        <ele>1923.9</ele>
        <time>2026-08-31T06:08:38Z</time>
      </trkpt>
      <trkpt lat="44.7298" lon="7.0013">
        <ele>1923.2</ele>
        <time>2026-08-31T06:08:44Z</time>
      </trkpt>
      <trkpt lat="44.7298" lon="7.0013">
        <ele>1923.2</ele>
        <time>2026-08-31T06:08:49Z</time>
      </trkpt>
      <trkpt lat="44.72987" lon="7.00141">
        <ele>1919.5</ele>
        <time>2026-08-31T06:08:54Z</time>
      </trkpt>
      <trkpt lat="44.72993" lon="7.00146">
        <ele>1917.2</ele>
        <time>2026-08-31T06:09:00Z</time>
      </trkpt>
      <trkpt lat="44.72994" lon="7.0015">
        <ele>1916.2</ele>
        <time>2026-08-31T06:09:05Z</time>
      </trkpt>
      <trkpt lat="44.72994" lon="7.0015">
        <ele>1916.2</ele>
        <time>2026-08-31T06:09:10Z</time>
      </trkpt>
      <trkpt lat="44.72994" lon="7.0015">
        <ele>1916.2</ele>
        <time>2026-08-31T06:09:16Z</time>
      </trkpt>
      <trkpt lat="44.72994" lon="7.0015">
        <ele>1916.2</ele>
        <time>2026-08-31T06:09:21Z</time>
      </trkpt>
      <trkpt lat="44.72993" lon="7.00154">
        <ele>1915.8</ele>
        <time>2026-08-31T06:09:26Z</time>
      </trkpt>
      <trkpt lat="44.72997" lon="7.00161">
        <ele>1913.6</ele>
        <time>2026-08-31T06:09:32Z</time>
      </trkpt>
      <trkpt lat="44.72999" lon="7.00163">
        <ele>1912.8</ele>
        <time>2026-08-31T06:09:37Z</time>
      </trkpt>
      <trkpt lat="44.73" lon="7.00164">
        <ele>1912.4</ele>
        <time>2026-08-31T06:09:42Z</time>
      </trkpt>
      <trkpt lat="44.72996" lon="7.00164">
        <ele>1913.4</ele>
        <time>2026-08-31T06:09:48Z</time>
      </trkpt>
      <trkpt lat="44.7299" lon="7.00163">
        <ele>1914.9</ele>
        <time>2026-08-31T06:09:53Z</time>
      </trkpt>
      <trkpt lat="44.72984" lon="7.00162">
        <ele>1916.5</ele>
        <time>2026-08-31T06:09:58Z</time>
      </trkpt>
      <trkpt lat="44.72978" lon="7.00165">
        <ele>1917.3</ele>
        <time>2026-08-31T06:10:04Z</time>
      </trkpt>
      <trkpt lat="44.72972" lon="7.00168">
        <ele>1918.3</ele>
        <time>2026-08-31T06:10:09Z</time>
      </trkpt>
      <trkpt lat="44.72968" lon="7.00167">
        <ele>1919.3</ele>
        <time>2026-08-31T06:10:14Z</time>
      </trkpt>
      <trkpt lat="44.72962" lon="7.0017">
        <ele>1920.4</ele>
        <time>2026-08-31T06:10:20Z</time>
      </trkpt>
      <trkpt lat="44.72957" lon="7.00171">
        <ele>1921.4</ele>
        <time>2026-08-31T06:10:25Z</time>
      </trkpt>
      <trkpt lat="44.72952" lon="7.00171">
        <ele>1922.5</ele>
        <time>2026-08-31T06:10:30Z</time>
      </trkpt>
      <trkpt lat="44.72949" lon="7.00171">
        <ele>1923.2</ele>
        <time>2026-08-31T06:10:36Z</time>
      </trkpt>
      <trkpt lat="44.72947" lon="7.00176">
        <ele>1923.1</ele>
        <time>2026-08-31T06:10:41Z</time>
      </trkpt>
      <trkpt lat="44.72947" lon="7.00179">
        <ele>1922.8</ele>
        <time>2026-08-31T06:10:46Z</time>
      </trkpt>
      <trkpt lat="44.72949" lon="7.00179">
        <ele>1922.4</ele>
        <time>2026-08-31T06:10:52Z</time>
      </trkpt>
      <trkpt lat="44.72949" lon="7.0018">
        <ele>1922.3</ele>
        <time>2026-08-31T06:10:57Z</time>
      </trkpt>
      <trkpt lat="44.72949" lon="7.0018">
        <ele>1922.3</ele>
        <time>2026-08-31T06:11:02Z</time>
      </trkpt>
      <trkpt lat="44.72949" lon="7.0018">
        <ele>1922.3</ele>
        <time>2026-08-31T06:11:08Z</time>
      </trkpt>
      <trkpt lat="44.72944" lon="7.00177">
        <ele>1923.6</ele>
        <time>2026-08-31T06:11:13Z</time>
      </trkpt>
      <trkpt lat="44.72943" lon="7.00177">
        <ele>1923.9</ele>
        <time>2026-08-31T06:11:18Z</time>
      </trkpt>
      <trkpt lat="44.72939" lon="7.00183">
        <ele>1924</ele>
        <time>2026-08-31T06:11:24Z</time>
      </trkpt>
      <trkpt lat="44.72938" lon="7.00188">
        <ele>1923.6</ele>
        <time>2026-08-31T06:11:29Z</time>
      </trkpt>
      <trkpt lat="44.72938" lon="7.00194">
        <ele>1922.9</ele>
        <time>2026-08-31T06:11:34Z</time>
      </trkpt>
      <trkpt lat="44.72936" lon="7.00198">
        <ele>1922.8</ele>
        <time>2026-08-31T06:11:40Z</time>
      </trkpt>
      <trkpt lat="44.72936" lon="7.00202">
        <ele>1922.3</ele>
        <time>2026-08-31T06:11:45Z</time>
      </trkpt>
      <trkpt lat="44.72934" lon="7.00205">
        <ele>1922.2</ele>
        <time>2026-08-31T06:11:50Z</time>
      </trkpt>
      <trkpt lat="44.72933" lon="7.00209">
        <ele>1921.9</ele>
        <time>2026-08-31T06:11:56Z</time>
      </trkpt>
      <trkpt lat="44.72932" lon="7.00212">
        <ele>1921.6</ele>
        <time>2026-08-31T06:12:01Z</time>
      </trkpt>
      <trkpt lat="44.72931" lon="7.00216">
        <ele>1921.3</ele>
        <time>2026-08-31T06:12:06Z</time>
      </trkpt>
      <trkpt lat="44.72929" lon="7.0022">
        <ele>1921</ele>
        <time>2026-08-31T06:12:12Z</time>
      </trkpt>
      <trkpt lat="44.72928" lon="7.00222">
        <ele>1920.9</ele>
        <time>2026-08-31T06:12:17Z</time>
      </trkpt>
      <trkpt lat="44.72926" lon="7.00225">
        <ele>1920.7</ele>
        <time>2026-08-31T06:12:22Z</time>
      </trkpt>
      <trkpt lat="44.72927" lon="7.00226">
        <ele>1920.4</ele>
        <time>2026-08-31T06:12:28Z</time>
      </trkpt>
      <trkpt lat="44.7293" lon="7.00227">
        <ele>1919.9</ele>
        <time>2026-08-31T06:12:33Z</time>
      </trkpt>
      <trkpt lat="44.72932" lon="7.00226">
        <ele>1919.8</ele>
        <time>2026-08-31T06:12:38Z</time>
      </trkpt>
      <trkpt lat="44.72933" lon="7.0023">
        <ele>1919.2</ele>
        <time>2026-08-31T06:12:44Z</time>
      </trkpt>
      <trkpt lat="44.72932" lon="7.00234">
        <ele>1918.8</ele>
        <time>2026-08-31T06:12:49Z</time>
      </trkpt>
      <trkpt lat="44.72929" lon="7.00238">
        <ele>1918.6</ele>
        <time>2026-08-31T06:12:54Z</time>
      </trkpt>
      <trkpt lat="44.72926" lon="7.00244">
        <ele>1918.1</ele>
        <time>2026-08-31T06:13:00Z</time>
      </trkpt>
      <trkpt lat="44.72925" lon="7.00249">
        <ele>1917.4</ele>
        <time>2026-08-31T06:13:05Z</time>
      </trkpt>
      <trkpt lat="44.72923" lon="7.00253">
        <ele>1917.4</ele>
        <time>2026-08-31T06:13:10Z</time>
      </trkpt>
      <trkpt lat="44.72919" lon="7.00257">
        <ele>1917.7</ele>
        <time>2026-08-31T06:13:16Z</time>
      </trkpt>
      <trkpt lat="44.72917" lon="7.00262">
        <ele>1917.7</ele>
        <time>2026-08-31T06:13:21Z</time>
      </trkpt>
      <trkpt lat="44.72914" lon="7.00264">
        <ele>1918.3</ele>
        <time>2026-08-31T06:13:26Z</time>
      </trkpt>
      <trkpt lat="44.72913" lon="7.0027">
        <ele>1918.4</ele>
        <time>2026-08-31T06:13:32Z</time>
      </trkpt>
      <trkpt lat="44.72911" lon="7.00275">
        <ele>1918.7</ele>
        <time>2026-08-31T06:13:37Z</time>
      </trkpt>
      <trkpt lat="44.72909" lon="7.0028">
        <ele>1919</ele>
        <time>2026-08-31T06:13:42Z</time>
      </trkpt>
      <trkpt lat="44.72907" lon="7.00284">
        <ele>1919.3</ele>
        <time>2026-08-31T06:13:48Z</time>
      </trkpt>
      <trkpt lat="44.72905" lon="7.00287">
        <ele>1919.6</ele>
        <time>2026-08-31T06:13:53Z</time>
      </trkpt>
      <trkpt lat="44.72903" lon="7.00291">
        <ele>1919.9</ele>
        <time>2026-08-31T06:13:58Z</time>
      </trkpt>
      <trkpt lat="44.72903" lon="7.00294">
        <ele>1919.8</ele>
        <time>2026-08-31T06:14:04Z</time>
      </trkpt>
      <trkpt lat="44.72903" lon="7.00298">
        <ele>1919.6</ele>
        <time>2026-08-31T06:14:09Z</time>
      </trkpt>
      <trkpt lat="44.72903" lon="7.00302">
        <ele>1919.4</ele>
        <time>2026-08-31T06:14:14Z</time>
      </trkpt>
      <trkpt lat="44.72903" lon="7.00306">
        <ele>1919.2</ele>
        <time>2026-08-31T06:14:20Z</time>
      </trkpt>
      <trkpt lat="44.72903" lon="7.00307">
        <ele>1919.2</ele>
        <time>2026-08-31T06:14:25Z</time>
      </trkpt>
      <trkpt lat="44.72904" lon="7.0031">
        <ele>1918.9</ele>
        <time>2026-08-31T06:14:30Z</time>
      </trkpt>
      <trkpt lat="44.72904" lon="7.00315">
        <ele>1918.6</ele>
        <time>2026-08-31T06:14:36Z</time>
      </trkpt>
      <trkpt lat="44.72908" lon="7.00316">
        <ele>1917.9</ele>
        <time>2026-08-31T06:14:41Z</time>
      </trkpt>
      <trkpt lat="44.72911" lon="7.00321">
        <ele>1917.2</ele>
        <time>2026-08-31T06:14:46Z</time>
      </trkpt>
      <trkpt lat="44.72912" lon="7.00326">
        <ele>1916.9</ele>
        <time>2026-08-31T06:14:52Z</time>
      </trkpt>
      <trkpt lat="44.72913" lon="7.00332">
        <ele>1916.6</ele>
        <time>2026-08-31T06:14:57Z</time>
      </trkpt>
      <trkpt lat="44.72915" lon="7.00336">
        <ele>1916.7</ele>
        <time>2026-08-31T06:15:02Z</time>
      </trkpt>
      <trkpt lat="44.72916" lon="7.0034">
        <ele>1917.4</ele>
        <time>2026-08-31T06:15:08Z</time>
      </trkpt>
      <trkpt lat="44.72916" lon="7.0034">
        <ele>1917.4</ele>
        <time>2026-08-31T06:15:13Z</time>
      </trkpt>
      <trkpt lat="44.72915" lon="7.0034">
        <ele>1917.5</ele>
        <time>2026-08-31T06:15:18Z</time>
      </trkpt>
      <trkpt lat="44.72915" lon="7.0034">
        <ele>1917.5</ele>
        <time>2026-08-31T06:15:24Z</time>
      </trkpt>
      <trkpt lat="44.72915" lon="7.0034">
        <ele>1917.5</ele>
        <time>2026-08-31T06:15:29Z</time>
      </trkpt>
      <trkpt lat="44.72913" lon="7.00343">
        <ele>1918.3</ele>
        <time>2026-08-31T06:15:34Z</time>
      </trkpt>
      <trkpt lat="44.72914" lon="7.00345">
        <ele>1918.5</ele>
        <time>2026-08-31T06:15:40Z</time>
      </trkpt>
      <trkpt lat="44.72914" lon="7.00345">
        <ele>1918.5</ele>
        <time>2026-08-31T06:15:45Z</time>
      </trkpt>
      <trkpt lat="44.72912" lon="7.00353">
        <ele>1920.1</ele>
        <time>2026-08-31T06:15:50Z</time>
      </trkpt>
      <trkpt lat="44.72912" lon="7.00353">
        <ele>1920.1</ele>
        <time>2026-08-31T06:15:56Z</time>
      </trkpt>
      <trkpt lat="44.72912" lon="7.00353">
        <ele>1920.1</ele>
        <time>2026-08-31T06:16:01Z</time>
      </trkpt>
      <trkpt lat="44.72912" lon="7.00353">
        <ele>1920.1</ele>
        <time>2026-08-31T06:16:06Z</time>
      </trkpt>
      <trkpt lat="44.72917" lon="7.00361">
        <ele>1921.4</ele>
        <time>2026-08-31T06:16:12Z</time>
      </trkpt>
      <trkpt lat="44.72917" lon="7.00361">
        <ele>1921.4</ele>
        <time>2026-08-31T06:16:17Z</time>
      </trkpt>
      <trkpt lat="44.72917" lon="7.00361">
        <ele>1921.4</ele>
        <time>2026-08-31T06:16:22Z</time>
      </trkpt>
      <trkpt lat="44.7291" lon="7.00368">
        <ele>1922.9</ele>
        <time>2026-08-31T06:16:28Z</time>
      </trkpt>
      <trkpt lat="44.7291" lon="7.00368">
        <ele>1922.9</ele>
        <time>2026-08-31T06:16:33Z</time>
      </trkpt>
      <trkpt lat="44.7291" lon="7.00368">
        <ele>1922.9</ele>
        <time>2026-08-31T06:16:38Z</time>
      </trkpt>
      <trkpt lat="44.7291" lon="7.00368">
        <ele>1922.9</ele>
        <time>2026-08-31T06:16:44Z</time>
      </trkpt>
      <trkpt lat="44.72904" lon="7.00363">
        <ele>1922.3</ele>
        <time>2026-08-31T06:16:49Z</time>
      </trkpt>
      <trkpt lat="44.72901" lon="7.00369">
        <ele>1923.3</ele>
        <time>2026-08-31T06:16:54Z</time>
      </trkpt>
      <trkpt lat="44.72897" lon="7.00378">
        <ele>1924.5</ele>
        <time>2026-08-31T06:17:00Z</time>
      </trkpt>
      <trkpt lat="44.72893" lon="7.00383">
        <ele>1925.1</ele>
        <time>2026-08-31T06:17:05Z</time>
      </trkpt>
      <trkpt lat="44.72891" lon="7.0039">
        <ele>1925.8</ele>
        <time>2026-08-31T06:17:10Z</time>
      </trkpt>
      <trkpt lat="44.72887" lon="7.00397">
        <ele>1926.2</ele>
        <time>2026-08-31T06:17:16Z</time>
      </trkpt>
      <trkpt lat="44.72883" lon="7.00403">
        <ele>1926.5</ele>
        <time>2026-08-31T06:17:21Z</time>
      </trkpt>
      <trkpt lat="44.72879" lon="7.0041">
        <ele>1926.6</ele>
        <time>2026-08-31T06:17:26Z</time>
      </trkpt>
      <trkpt lat="44.72873" lon="7.00418">
        <ele>1926.6</ele>
        <time>2026-08-31T06:17:32Z</time>
      </trkpt>
      <trkpt lat="44.7287" lon="7.00424">
        <ele>1927.7</ele>
        <time>2026-08-31T06:17:37Z</time>
      </trkpt>
      <trkpt lat="44.72865" lon="7.00429">
        <ele>1928.1</ele>
        <time>2026-08-31T06:17:42Z</time>
      </trkpt>
      <trkpt lat="44.72861" lon="7.00434">
        <ele>1928.7</ele>
        <time>2026-08-31T06:17:48Z</time>
      </trkpt>
      <trkpt lat="44.72857" lon="7.00439">
        <ele>1929.1</ele>
        <time>2026-08-31T06:17:53Z</time>
      </trkpt>
      <trkpt lat="44.72852" lon="7.00443">
        <ele>1929.1</ele>
        <time>2026-08-31T06:17:58Z</time>
      </trkpt>
      <trkpt lat="44.72845" lon="7.00449">
        <ele>1929.1</ele>
        <time>2026-08-31T06:18:04Z</time>
      </trkpt>
      <trkpt lat="44.72842" lon="7.00453">
        <ele>1929.3</ele>
        <time>2026-08-31T06:18:09Z</time>
      </trkpt>
      <trkpt lat="44.72838" lon="7.00458">
        <ele>1929.4</ele>
        <time>2026-08-31T06:18:14Z</time>
      </trkpt>
      <trkpt lat="44.72833" lon="7.00465">
        <ele>1929.7</ele>
        <time>2026-08-31T06:18:20Z</time>
      </trkpt>
      <trkpt lat="44.7283" lon="7.00471">
        <ele>1930.7</ele>
        <time>2026-08-31T06:18:25Z</time>
      </trkpt>
      <trkpt lat="44.72828" lon="7.00477">
        <ele>1931.7</ele>
        <time>2026-08-31T06:18:30Z</time>
      </trkpt>
      <trkpt lat="44.72825" lon="7.00485">
        <ele>1932.8</ele>
        <time>2026-08-31T06:18:36Z</time>
      </trkpt>
      <trkpt lat="44.72823" lon="7.00492">
        <ele>1933.8</ele>
        <time>2026-08-31T06:18:41Z</time>
      </trkpt>
      <trkpt lat="44.7282" lon="7.00498">
        <ele>1934.4</ele>
        <time>2026-08-31T06:18:46Z</time>
      </trkpt>
      <trkpt lat="44.72819" lon="7.00503">
        <ele>1935.4</ele>
        <time>2026-08-31T06:18:52Z</time>
      </trkpt>
      <trkpt lat="44.72816" lon="7.00504">
        <ele>1935.3</ele>
        <time>2026-08-31T06:18:57Z</time>
      </trkpt>
      <trkpt lat="44.72813" lon="7.0051">
        <ele>1936.5</ele>
        <time>2026-08-31T06:19:02Z</time>
      </trkpt>
      <trkpt lat="44.72807" lon="7.00515">
        <ele>1937.1</ele>
        <time>2026-08-31T06:19:08Z</time>
      </trkpt>
      <trkpt lat="44.72803" lon="7.0052">
        <ele>1937.9</ele>
        <time>2026-08-31T06:19:13Z</time>
      </trkpt>
      <trkpt lat="44.72799" lon="7.00525">
        <ele>1938.7</ele>
        <time>2026-08-31T06:19:18Z</time>
      </trkpt>
      <trkpt lat="44.72794" lon="7.00532">
        <ele>1939.8</ele>
        <time>2026-08-31T06:19:24Z</time>
      </trkpt>
      <trkpt lat="44.72789" lon="7.00535">
        <ele>1939.9</ele>
        <time>2026-08-31T06:19:29Z</time>
      </trkpt>
      <trkpt lat="44.72784" lon="7.00539">
        <ele>1940.2</ele>
        <time>2026-08-31T06:19:34Z</time>
      </trkpt>
      <trkpt lat="44.72778" lon="7.00546">
        <ele>1941</ele>
        <time>2026-08-31T06:19:40Z</time>
      </trkpt>
      <trkpt lat="44.72774" lon="7.00552">
        <ele>1941.8</ele>
        <time>2026-08-31T06:19:45Z</time>
      </trkpt>
      <trkpt lat="44.72771" lon="7.00555">
        <ele>1942.1</ele>
        <time>2026-08-31T06:19:50Z</time>
      </trkpt>
      <trkpt lat="44.72771" lon="7.00557">
        <ele>1942.5</ele>
        <time>2026-08-31T06:19:56Z</time>
      </trkpt>
      <trkpt lat="44.72771" lon="7.00557">
        <ele>1942.5</ele>
        <time>2026-08-31T06:20:01Z</time>
      </trkpt>
      <trkpt lat="44.72771" lon="7.00557">
        <ele>1942.5</ele>
        <time>2026-08-31T06:20:06Z</time>
      </trkpt>
      <trkpt lat="44.72771" lon="7.00557">
        <ele>1942.5</ele>
        <time>2026-08-31T06:20:12Z</time>
      </trkpt>
      <trkpt lat="44.72771" lon="7.00557">
        <ele>1942.5</ele>
        <time>2026-08-31T06:20:17Z</time>
      </trkpt>
      <trkpt lat="44.72771" lon="7.00557">
        <ele>1942.5</ele>
        <time>2026-08-31T06:20:22Z</time>
      </trkpt>
      <trkpt lat="44.72771" lon="7.00557">
        <ele>1942.5</ele>
        <time>2026-08-31T06:20:28Z</time>
      </trkpt>
      <trkpt lat="44.72771" lon="7.00557">
        <ele>1942.5</ele>
        <time>2026-08-31T06:20:33Z</time>
      </trkpt>
      <trkpt lat="44.72771" lon="7.00557">
        <ele>1942.5</ele>
        <time>2026-08-31T06:20:38Z</time>
      </trkpt>
      <trkpt lat="44.72771" lon="7.00557">
        <ele>1942.5</ele>
        <time>2026-08-31T06:20:44Z</time>
      </trkpt>
      <trkpt lat="44.72771" lon="7.00557">
        <ele>1942.5</ele>
        <time>2026-08-31T06:20:49Z</time>
      </trkpt>
      <trkpt lat="44.72771" lon="7.00557">
        <ele>1942.5</ele>
        <time>2026-08-31T06:20:54Z</time>
      </trkpt>
      <trkpt lat="44.72771" lon="7.00557">
        <ele>1942.5</ele>
        <time>2026-08-31T06:21:00Z</time>
      </trkpt>
      <trkpt lat="44.72771" lon="7.00557">
        <ele>1942.5</ele>
        <time>2026-08-31T06:21:05Z</time>
      </trkpt>
      <trkpt lat="44.72771" lon="7.00557">
        <ele>1942.5</ele>
        <time>2026-08-31T06:21:10Z</time>
      </trkpt>
      <trkpt lat="44.72771" lon="7.00557">
        <ele>1942.5</ele>
        <time>2026-08-31T06:21:16Z</time>
      </trkpt>
      <trkpt lat="44.72771" lon="7.00557">
        <ele>1942.5</ele>
        <time>2026-08-31T06:21:21Z</time>
      </trkpt>
      <trkpt lat="44.72771" lon="7.00557">
        <ele>1942.5</ele>
        <time>2026-08-31T06:21:26Z</time>
      </trkpt>
      <trkpt lat="44.72771" lon="7.00557">
        <ele>1942.5</ele>
        <time>2026-08-31T06:21:32Z</time>
      </trkpt>
      <trkpt lat="44.72771" lon="7.00557">
        <ele>1942.5</ele>
        <time>2026-08-31T06:21:37Z</time>
      </trkpt>
      <trkpt lat="44.72771" lon="7.00557">
        <ele>1942.5</ele>
        <time>2026-08-31T06:21:42Z</time>
      </trkpt>
      <trkpt lat="44.72771" lon="7.00557">
        <ele>1942.5</ele>
        <time>2026-08-31T06:21:48Z</time>
      </trkpt>
      <trkpt lat="44.72771" lon="7.00557">
        <ele>1942.5</ele>
        <time>2026-08-31T06:21:53Z</time>
      </trkpt>
      <trkpt lat="44.72771" lon="7.00557">
        <ele>1942.5</ele>
        <time>2026-08-31T06:21:58Z</time>
      </trkpt>
      <trkpt lat="44.72771" lon="7.00557">
        <ele>1942.5</ele>
        <time>2026-08-31T06:22:04Z</time>
      </trkpt>
      <trkpt lat="44.72771" lon="7.00557">
        <ele>1942.5</ele>
        <time>2026-08-31T06:22:09Z</time>
      </trkpt>
      <trkpt lat="44.72771" lon="7.00557">
        <ele>1942.5</ele>
        <time>2026-08-31T06:22:14Z</time>
      </trkpt>
      <trkpt lat="44.72771" lon="7.00557">
        <ele>1942.5</ele>
        <time>2026-08-31T06:22:20Z</time>
      </trkpt>
      <trkpt lat="44.72771" lon="7.00557">
        <ele>1942.5</ele>
        <time>2026-08-31T06:22:25Z</time>
      </trkpt>
      <trkpt lat="44.72771" lon="7.00557">
        <ele>1942.5</ele>
        <time>2026-08-31T06:22:30Z</time>
      </trkpt>
      <trkpt lat="44.72771" lon="7.00557">
        <ele>1942.5</ele>
        <time>2026-08-31T06:22:36Z</time>
      </trkpt>
      <trkpt lat="44.72771" lon="7.00557">
        <ele>1942.5</ele>
        <time>2026-08-31T06:22:41Z</time>
      </trkpt>
      <trkpt lat="44.72771" lon="7.00557">
        <ele>1942.5</ele>
        <time>2026-08-31T06:22:46Z</time>
      </trkpt>
      <trkpt lat="44.72771" lon="7.00557">
        <ele>1942.5</ele>
        <time>2026-08-31T06:22:52Z</time>
      </trkpt>
      <trkpt lat="44.72771" lon="7.00557">
        <ele>1942.5</ele>
        <time>2026-08-31T06:22:57Z</time>
      </trkpt>
      <trkpt lat="44.72771" lon="7.00557">
        <ele>1942.5</ele>
        <time>2026-08-31T06:23:02Z</time>
      </trkpt>
      <trkpt lat="44.72771" lon="7.00557">
        <ele>1942.5</ele>
        <time>2026-08-31T06:23:08Z</time>
      </trkpt>
      <trkpt lat="44.72771" lon="7.00557">
        <ele>1942.5</ele>
        <time>2026-08-31T06:23:13Z</time>
      </trkpt>
      <trkpt lat="44.72771" lon="7.00557">
        <ele>1942.5</ele>
        <time>2026-08-31T06:23:18Z</time>
      </trkpt>
      <trkpt lat="44.72771" lon="7.00557">
        <ele>1942.5</ele>
        <time>2026-08-31T06:23:24Z</time>
      </trkpt>
      <trkpt lat="44.72771" lon="7.00557">
        <ele>1942.5</ele>
        <time>2026-08-31T06:23:29Z</time>
      </trkpt>
      <trkpt lat="44.72771" lon="7.00557">
        <ele>1942.5</ele>
        <time>2026-08-31T06:23:34Z</time>
      </trkpt>
      <trkpt lat="44.72771" lon="7.00557">
        <ele>1942.5</ele>
        <time>2026-08-31T06:23:40Z</time>
      </trkpt>
      <trkpt lat="44.72771" lon="7.00557">
        <ele>1942.5</ele>
        <time>2026-08-31T06:23:45Z</time>
      </trkpt>
      <trkpt lat="44.72771" lon="7.00557">
        <ele>1942.5</ele>
        <time>2026-08-31T06:23:50Z</time>
      </trkpt>
      <trkpt lat="44.72771" lon="7.00557">
        <ele>1942.5</ele>
        <time>2026-08-31T06:23:56Z</time>
      </trkpt>
      <trkpt lat="44.72771" lon="7.00557">
        <ele>1942.5</ele>
        <time>2026-08-31T06:24:01Z</time>
      </trkpt>
      <trkpt lat="44.72771" lon="7.00557">
        <ele>1942.5</ele>
        <time>2026-08-31T06:24:06Z</time>
      </trkpt>
      <trkpt lat="44.72771" lon="7.00557">
        <ele>1942.5</ele>
        <time>2026-08-31T06:24:12Z</time>
      </trkpt>
      <trkpt lat="44.72771" lon="7.00557">
        <ele>1942.5</ele>
        <time>2026-08-31T06:24:17Z</time>
      </trkpt>
      <trkpt lat="44.72771" lon="7.00557">
        <ele>1942.5</ele>
        <time>2026-08-31T06:24:22Z</time>
      </trkpt>
      <trkpt lat="44.72771" lon="7.00557">
        <ele>1942.5</ele>
        <time>2026-08-31T06:24:28Z</time>
      </trkpt>
      <trkpt lat="44.72771" lon="7.00557">
        <ele>1942.5</ele>
        <time>2026-08-31T06:24:33Z</time>
      </trkpt>
      <trkpt lat="44.72771" lon="7.00557">
        <ele>1942.5</ele>
        <time>2026-08-31T06:24:38Z</time>
      </trkpt>
      <trkpt lat="44.72771" lon="7.00557">
        <ele>1942.5</ele>
        <time>2026-08-31T06:24:44Z</time>
      </trkpt>
      <trkpt lat="44.72771" lon="7.00557">
        <ele>1942.5</ele>
        <time>2026-08-31T06:24:49Z</time>
      </trkpt>
      <trkpt lat="44.72771" lon="7.00557">
        <ele>1942.5</ele>
        <time>2026-08-31T06:24:54Z</time>
      </trkpt>
      <trkpt lat="44.72771" lon="7.00557">
        <ele>1942.5</ele>
        <time>2026-08-31T06:25:00Z</time>
      </trkpt>
      <trkpt lat="44.72771" lon="7.00557">
        <ele>1942.5</ele>
        <time>2026-08-31T06:25:05Z</time>
      </trkpt>
      <trkpt lat="44.72771" lon="7.00557">
        <ele>1942.5</ele>
        <time>2026-08-31T06:25:10Z</time>
      </trkpt>
      <trkpt lat="44.72771" lon="7.00557">
        <ele>1942.5</ele>
        <time>2026-08-31T06:25:16Z</time>
      </trkpt>
      <trkpt lat="44.72771" lon="7.00557">
        <ele>1942.5</ele>
        <time>2026-08-31T06:25:21Z</time>
      </trkpt>
      <trkpt lat="44.72771" lon="7.00557">
        <ele>1942.5</ele>
        <time>2026-08-31T06:25:26Z</time>
      </trkpt>
      <trkpt lat="44.72771" lon="7.00557">
        <ele>1942.5</ele>
        <time>2026-08-31T06:25:32Z</time>
      </trkpt>
      <trkpt lat="44.72771" lon="7.00557">
        <ele>1942.5</ele>
        <time>2026-08-31T06:25:37Z</time>
      </trkpt>
      <trkpt lat="44.72771" lon="7.00557">
        <ele>1942.5</ele>
        <time>2026-08-31T06:25:42Z</time>
      </trkpt>
      <trkpt lat="44.72771" lon="7.00557">
        <ele>1942.5</ele>
        <time>2026-08-31T06:25:48Z</time>
      </trkpt>
      <trkpt lat="44.72771" lon="7.00557">
        <ele>1942.5</ele>
        <time>2026-08-31T06:25:53Z</time>
      </trkpt>
      <trkpt lat="44.72771" lon="7.00557">
        <ele>1942.5</ele>
        <time>2026-08-31T06:25:58Z</time>
      </trkpt>
      <trkpt lat="44.72771" lon="7.00557">
        <ele>1942.5</ele>
        <time>2026-08-31T06:26:04Z</time>
      </trkpt>
      <trkpt lat="44.72771" lon="7.00557">
        <ele>1942.5</ele>
        <time>2026-08-31T06:26:09Z</time>
      </trkpt>
      <trkpt lat="44.72771" lon="7.00557">
        <ele>1942.5</ele>
        <time>2026-08-31T06:26:14Z</time>
      </trkpt>
      <trkpt lat="44.72771" lon="7.00557">
        <ele>1942.5</ele>
        <time>2026-08-31T06:26:20Z</time>
      </trkpt>
      <trkpt lat="44.72771" lon="7.00557">
        <ele>1942.5</ele>
        <time>2026-08-31T06:26:25Z</time>
      </trkpt>
      <trkpt lat="44.72766" lon="7.00562">
        <ele>1942.9</ele>
        <time>2026-08-31T06:26:30Z</time>
      </trkpt>
      <trkpt lat="44.72762" lon="7.00566">
        <ele>1943.2</ele>
        <time>2026-08-31T06:26:36Z</time>
      </trkpt>
      <trkpt lat="44.7276" lon="7.0057">
        <ele>1943.7</ele>
        <time>2026-08-31T06:26:41Z</time>
      </trkpt>
      <trkpt lat="44.72759" lon="7.00575">
        <ele>1944.7</ele>
        <time>2026-08-31T06:26:46Z</time>
      </trkpt>
      <trkpt lat="44.72757" lon="7.00576">
        <ele>1944.6</ele>
        <time>2026-08-31T06:26:52Z</time>
      </trkpt>
      <trkpt lat="44.72757" lon="7.00576">
        <ele>1944.6</ele>
        <time>2026-08-31T06:26:57Z</time>
      </trkpt>
      <trkpt lat="44.72757" lon="7.00576">
        <ele>1944.6</ele>
        <time>2026-08-31T06:27:02Z</time>
      </trkpt>
      <trkpt lat="44.72757" lon="7.00576">
        <ele>1944.6</ele>
        <time>2026-08-31T06:27:08Z</time>
      </trkpt>
      <trkpt lat="44.72757" lon="7.00576">
        <ele>1944.6</ele>
        <time>2026-08-31T06:27:13Z</time>
      </trkpt>
      <trkpt lat="44.72757" lon="7.00576">
        <ele>1944.6</ele>
        <time>2026-08-31T06:27:18Z</time>
      </trkpt>
      <trkpt lat="44.72757" lon="7.00576">
        <ele>1944.6</ele>
        <time>2026-08-31T06:27:24Z</time>
      </trkpt>
      <trkpt lat="44.72757" lon="7.00576">
        <ele>1944.6</ele>
        <time>2026-08-31T06:27:29Z</time>
      </trkpt>
      <trkpt lat="44.72757" lon="7.00576">
        <ele>1944.6</ele>
        <time>2026-08-31T06:27:34Z</time>
      </trkpt>
      <trkpt lat="44.72757" lon="7.00576">
        <ele>1944.6</ele>
        <time>2026-08-31T06:27:40Z</time>
      </trkpt>
      <trkpt lat="44.72757" lon="7.00576">
        <ele>1944.6</ele>
        <time>2026-08-31T06:27:45Z</time>
      </trkpt>
      <trkpt lat="44.72757" lon="7.00576">
        <ele>1944.6</ele>
        <time>2026-08-31T06:27:50Z</time>
      </trkpt>
      <trkpt lat="44.72754" lon="7.00583">
        <ele>1945.6</ele>
        <time>2026-08-31T06:27:56Z</time>
      </trkpt>
      <trkpt lat="44.72752" lon="7.0059">
        <ele>1947.5</ele>
        <time>2026-08-31T06:28:01Z</time>
      </trkpt>
      <trkpt lat="44.7275" lon="7.00594">
        <ele>1948.5</ele>
        <time>2026-08-31T06:28:06Z</time>
      </trkpt>
      <trkpt lat="44.72745" lon="7.00601">
        <ele>1950.2</ele>
        <time>2026-08-31T06:28:12Z</time>
      </trkpt>
      <trkpt lat="44.72739" lon="7.00604">
        <ele>1950.5</ele>
        <time>2026-08-31T06:28:17Z</time>
      </trkpt>
      <trkpt lat="44.72732" lon="7.00605">
        <ele>1950</ele>
        <time>2026-08-31T06:28:22Z</time>
      </trkpt>
      <trkpt lat="44.72725" lon="7.00606">
        <ele>1949.5</ele>
        <time>2026-08-31T06:28:28Z</time>
      </trkpt>
      <trkpt lat="44.7272" lon="7.00611">
        <ele>1950.4</ele>
        <time>2026-08-31T06:28:33Z</time>
      </trkpt>
      <trkpt lat="44.72716" lon="7.00615">
        <ele>1951</ele>
        <time>2026-08-31T06:28:38Z</time>
      </trkpt>
      <trkpt lat="44.72709" lon="7.00621">
        <ele>1951.8</ele>
        <time>2026-08-31T06:28:44Z</time>
      </trkpt>
      <trkpt lat="44.72703" lon="7.00626">
        <ele>1952.3</ele>
        <time>2026-08-31T06:28:49Z</time>
      </trkpt>
      <trkpt lat="44.72697" lon="7.00631">
        <ele>1952.7</ele>
        <time>2026-08-31T06:28:54Z</time>
      </trkpt>
      <trkpt lat="44.7269" lon="7.00636">
        <ele>1952.9</ele>
        <time>2026-08-31T06:29:00Z</time>
      </trkpt>
      <trkpt lat="44.72684" lon="7.00636">
        <ele>1952</ele>
        <time>2026-08-31T06:29:05Z</time>
      </trkpt>
      <trkpt lat="44.72678" lon="7.00634">
        <ele>1950.6</ele>
        <time>2026-08-31T06:29:10Z</time>
      </trkpt>
      <trkpt lat="44.72672" lon="7.00632">
        <ele>1949.3</ele>
        <time>2026-08-31T06:29:16Z</time>
      </trkpt>
      <trkpt lat="44.72667" lon="7.00628">
        <ele>1947.7</ele>
        <time>2026-08-31T06:29:21Z</time>
      </trkpt>
      <trkpt lat="44.72662" lon="7.00626">
        <ele>1947.3</ele>
        <time>2026-08-31T06:29:26Z</time>
      </trkpt>
      <trkpt lat="44.72656" lon="7.00627">
        <ele>1947.6</ele>
        <time>2026-08-31T06:29:32Z</time>
      </trkpt>
      <trkpt lat="44.7265" lon="7.00627">
        <ele>1947.6</ele>
        <time>2026-08-31T06:29:37Z</time>
      </trkpt>
      <trkpt lat="44.72644" lon="7.00631">
        <ele>1948.3</ele>
        <time>2026-08-31T06:29:42Z</time>
      </trkpt>
      <trkpt lat="44.72639" lon="7.00638">
        <ele>1949.3</ele>
        <time>2026-08-31T06:29:48Z</time>
      </trkpt>
      <trkpt lat="44.72635" lon="7.0064">
        <ele>1949.5</ele>
        <time>2026-08-31T06:29:53Z</time>
      </trkpt>
      <trkpt lat="44.72631" lon="7.00648">
        <ele>1950.4</ele>
        <time>2026-08-31T06:29:58Z</time>
      </trkpt>
      <trkpt lat="44.72629" lon="7.00655">
        <ele>1951.1</ele>
        <time>2026-08-31T06:30:04Z</time>
      </trkpt>
      <trkpt lat="44.72626" lon="7.0066">
        <ele>1951.4</ele>
        <time>2026-08-31T06:30:09Z</time>
      </trkpt>
      <trkpt lat="44.72623" lon="7.00666">
        <ele>1951.7</ele>
        <time>2026-08-31T06:30:14Z</time>
      </trkpt>
      <trkpt lat="44.72621" lon="7.00674">
        <ele>1953.4</ele>
        <time>2026-08-31T06:30:20Z</time>
      </trkpt>
      <trkpt lat="44.72619" lon="7.0068">
        <ele>1954.6</ele>
        <time>2026-08-31T06:30:25Z</time>
      </trkpt>
      <trkpt lat="44.72616" lon="7.00685">
        <ele>1955.4</ele>
        <time>2026-08-31T06:30:30Z</time>
      </trkpt>
      <trkpt lat="44.72614" lon="7.00692">
        <ele>1956.7</ele>
        <time>2026-08-31T06:30:36Z</time>
      </trkpt>
      <trkpt lat="44.72612" lon="7.00699">
        <ele>1958</ele>
        <time>2026-08-31T06:30:41Z</time>
      </trkpt>
      <trkpt lat="44.72611" lon="7.00706">
        <ele>1959.5</ele>
        <time>2026-08-31T06:30:46Z</time>
      </trkpt>
      <trkpt lat="44.72609" lon="7.00714">
        <ele>1960.9</ele>
        <time>2026-08-31T06:30:52Z</time>
      </trkpt>
      <trkpt lat="44.72606" lon="7.00719">
        <ele>1961.5</ele>
        <time>2026-08-31T06:30:57Z</time>
      </trkpt>
      <trkpt lat="44.72603" lon="7.00722">
        <ele>1961.6</ele>
        <time>2026-08-31T06:31:02Z</time>
      </trkpt>
      <trkpt lat="44.72596" lon="7.00723">
        <ele>1960.5</ele>
        <time>2026-08-31T06:31:08Z</time>
      </trkpt>
      <trkpt lat="44.7259" lon="7.0072">
        <ele>1958.8</ele>
        <time>2026-08-31T06:31:13Z</time>
      </trkpt>
      <trkpt lat="44.72584" lon="7.00716">
        <ele>1957</ele>
        <time>2026-08-31T06:31:18Z</time>
      </trkpt>
      <trkpt lat="44.72579" lon="7.00714">
        <ele>1958.7</ele>
        <time>2026-08-31T06:31:24Z</time>
      </trkpt>
      <trkpt lat="44.72578" lon="7.00714">
        <ele>1959.2</ele>
        <time>2026-08-31T06:31:29Z</time>
      </trkpt>
      <trkpt lat="44.72573" lon="7.00711">
        <ele>1961.3</ele>
        <time>2026-08-31T06:31:34Z</time>
      </trkpt>
      <trkpt lat="44.72565" lon="7.00714">
        <ele>1965.8</ele>
        <time>2026-08-31T06:31:40Z</time>
      </trkpt>
      <trkpt lat="44.7256" lon="7.00719">
        <ele>1968.7</ele>
        <time>2026-08-31T06:31:45Z</time>
      </trkpt>
      <trkpt lat="44.72553" lon="7.00721">
        <ele>1972.1</ele>
        <time>2026-08-31T06:31:50Z</time>
      </trkpt>
      <trkpt lat="44.72546" lon="7.00727">
        <ele>1975.6</ele>
        <time>2026-08-31T06:31:56Z</time>
      </trkpt>
      <trkpt lat="44.7254" lon="7.00734">
        <ele>1978.2</ele>
        <time>2026-08-31T06:32:01Z</time>
      </trkpt>
      <trkpt lat="44.72537" lon="7.00741">
        <ele>1979.3</ele>
        <time>2026-08-31T06:32:06Z</time>
      </trkpt>
      <trkpt lat="44.72536" lon="7.00744">
        <ele>1979.6</ele>
        <time>2026-08-31T06:32:12Z</time>
      </trkpt>
      <trkpt lat="44.72531" lon="7.00751">
        <ele>1981.2</ele>
        <time>2026-08-31T06:32:17Z</time>
      </trkpt>
      <trkpt lat="44.72528" lon="7.00759">
        <ele>1981.7</ele>
        <time>2026-08-31T06:32:22Z</time>
      </trkpt>
      <trkpt lat="44.72523" lon="7.00769">
        <ele>1982.5</ele>
        <time>2026-08-31T06:32:28Z</time>
      </trkpt>
      <trkpt lat="44.72516" lon="7.00775">
        <ele>1983.8</ele>
        <time>2026-08-31T06:32:33Z</time>
      </trkpt>
      <trkpt lat="44.72512" lon="7.00778">
        <ele>1984.4</ele>
        <time>2026-08-31T06:32:38Z</time>
      </trkpt>
      <trkpt lat="44.72504" lon="7.00782">
        <ele>1985.7</ele>
        <time>2026-08-31T06:32:44Z</time>
      </trkpt>
      <trkpt lat="44.72497" lon="7.00782">
        <ele>1989.2</ele>
        <time>2026-08-31T06:32:49Z</time>
      </trkpt>
      <trkpt lat="44.72492" lon="7.00787">
        <ele>1992.5</ele>
        <time>2026-08-31T06:32:54Z</time>
      </trkpt>
      <trkpt lat="44.72487" lon="7.00793">
        <ele>1995.7</ele>
        <time>2026-08-31T06:33:00Z</time>
      </trkpt>
      <trkpt lat="44.72485" lon="7.00802">
        <ele>1995.7</ele>
        <time>2026-08-31T06:33:05Z</time>
      </trkpt>
      <trkpt lat="44.72483" lon="7.0081">
        <ele>1995.8</ele>
        <time>2026-08-31T06:33:10Z</time>
      </trkpt>
      <trkpt lat="44.72483" lon="7.00811">
        <ele>1995.7</ele>
        <time>2026-08-31T06:33:16Z</time>
      </trkpt>
      <trkpt lat="44.72483" lon="7.00817">
        <ele>1994.5</ele>
        <time>2026-08-31T06:33:21Z</time>
      </trkpt>
      <trkpt lat="44.72482" lon="7.00821">
        <ele>1994.6</ele>
        <time>2026-08-31T06:33:26Z</time>
      </trkpt>
      <trkpt lat="44.7248" lon="7.00819">
        <ele>1996.6</ele>
        <time>2026-08-31T06:33:32Z</time>
      </trkpt>
      <trkpt lat="44.7248" lon="7.00819">
        <ele>1996.6</ele>
        <time>2026-08-31T06:33:37Z</time>
      </trkpt>
      <trkpt lat="44.7248" lon="7.00819">
        <ele>1996.6</ele>
        <time>2026-08-31T06:33:42Z</time>
      </trkpt>
      <trkpt lat="44.7248" lon="7.00819">
        <ele>1996.6</ele>
        <time>2026-08-31T06:33:48Z</time>
      </trkpt>
      <trkpt lat="44.7248" lon="7.00819">
        <ele>1996.6</ele>
        <time>2026-08-31T06:33:53Z</time>
      </trkpt>
      <trkpt lat="44.7248" lon="7.00824">
        <ele>1995.6</ele>
        <time>2026-08-31T06:33:58Z</time>
      </trkpt>
      <trkpt lat="44.7248" lon="7.00836">
        <ele>1993.4</ele>
        <time>2026-08-31T06:34:04Z</time>
      </trkpt>
      <trkpt lat="44.72481" lon="7.00844">
        <ele>1991.4</ele>
        <time>2026-08-31T06:34:09Z</time>
      </trkpt>
      <trkpt lat="44.72482" lon="7.00852">
        <ele>1989.4</ele>
        <time>2026-08-31T06:34:14Z</time>
      </trkpt>
      <trkpt lat="44.72481" lon="7.00854">
        <ele>1989.8</ele>
        <time>2026-08-31T06:34:20Z</time>
      </trkpt>
      <trkpt lat="44.72481" lon="7.00863">
        <ele>1988.3</ele>
        <time>2026-08-31T06:34:25Z</time>
      </trkpt>
      <trkpt lat="44.7248" lon="7.00872">
        <ele>1987.6</ele>
        <time>2026-08-31T06:34:30Z</time>
      </trkpt>
      <trkpt lat="44.72478" lon="7.00882">
        <ele>1987.2</ele>
        <time>2026-08-31T06:34:36Z</time>
      </trkpt>
      <trkpt lat="44.72473" lon="7.00888">
        <ele>1989.2</ele>
        <time>2026-08-31T06:34:41Z</time>
      </trkpt>
      <trkpt lat="44.72469" lon="7.00894">
        <ele>1990.5</ele>
        <time>2026-08-31T06:34:46Z</time>
      </trkpt>
      <trkpt lat="44.72461" lon="7.009">
        <ele>1993.9</ele>
        <time>2026-08-31T06:34:52Z</time>
      </trkpt>
      <trkpt lat="44.72456" lon="7.00904">
        <ele>1995.8</ele>
        <time>2026-08-31T06:34:57Z</time>
      </trkpt>
      <trkpt lat="44.72453" lon="7.00912">
        <ele>1995.4</ele>
        <time>2026-08-31T06:35:02Z</time>
      </trkpt>
      <trkpt lat="44.7245" lon="7.0092">
        <ele>1995.3</ele>
        <time>2026-08-31T06:35:08Z</time>
      </trkpt>
      <trkpt lat="44.72446" lon="7.00929">
        <ele>1995.7</ele>
        <time>2026-08-31T06:35:13Z</time>
      </trkpt>
      <trkpt lat="44.72441" lon="7.00935">
        <ele>1996.7</ele>
        <time>2026-08-31T06:35:18Z</time>
      </trkpt>
      <trkpt lat="44.72437" lon="7.00946">
        <ele>1995.8</ele>
        <time>2026-08-31T06:35:24Z</time>
      </trkpt>
      <trkpt lat="44.72435" lon="7.00956">
        <ele>1994.1</ele>
        <time>2026-08-31T06:35:29Z</time>
      </trkpt>
      <trkpt lat="44.7243" lon="7.00964">
        <ele>1993.4</ele>
        <time>2026-08-31T06:35:34Z</time>
      </trkpt>
      <trkpt lat="44.72425" lon="7.00976">
        <ele>1991</ele>
        <time>2026-08-31T06:35:40Z</time>
      </trkpt>
      <trkpt lat="44.72421" lon="7.00986">
        <ele>1988.4</ele>
        <time>2026-08-31T06:35:45Z</time>
      </trkpt>
      <trkpt lat="44.72415" lon="7.00995">
        <ele>1986.7</ele>
        <time>2026-08-31T06:35:50Z</time>
      </trkpt>
      <trkpt lat="44.72412" lon="7.01002">
        <ele>1986.5</ele>
        <time>2026-08-31T06:35:56Z</time>
      </trkpt>
      <trkpt lat="44.72408" lon="7.01008">
        <ele>1987.7</ele>
        <time>2026-08-31T06:36:01Z</time>
      </trkpt>
      <trkpt lat="44.72408" lon="7.01011">
        <ele>1987.2</ele>
        <time>2026-08-31T06:36:06Z</time>
      </trkpt>
      <trkpt lat="44.72405" lon="7.01017">
        <ele>1987.7</ele>
        <time>2026-08-31T06:36:12Z</time>
      </trkpt>
      <trkpt lat="44.72402" lon="7.01026">
        <ele>1987.4</ele>
        <time>2026-08-31T06:36:17Z</time>
      </trkpt>
      <trkpt lat="44.72399" lon="7.01034">
        <ele>1987.2</ele>
        <time>2026-08-31T06:36:22Z</time>
      </trkpt>
      <trkpt lat="44.72397" lon="7.01047">
        <ele>1985.3</ele>
        <time>2026-08-31T06:36:28Z</time>
      </trkpt>
      <trkpt lat="44.72393" lon="7.01059">
        <ele>1984.2</ele>
        <time>2026-08-31T06:36:33Z</time>
      </trkpt>
      <trkpt lat="44.7239" lon="7.01067">
        <ele>1983.4</ele>
        <time>2026-08-31T06:36:38Z</time>
      </trkpt>
      <trkpt lat="44.72386" lon="7.01078">
        <ele>1982</ele>
        <time>2026-08-31T06:36:44Z</time>
      </trkpt>
      <trkpt lat="44.72384" lon="7.01087">
        <ele>1981.1</ele>
        <time>2026-08-31T06:36:49Z</time>
      </trkpt>
      <trkpt lat="44.7238" lon="7.01095">
        <ele>1981.9</ele>
        <time>2026-08-31T06:36:54Z</time>
      </trkpt>
      <trkpt lat="44.72375" lon="7.01105">
        <ele>1982.6</ele>
        <time>2026-08-31T06:37:00Z</time>
      </trkpt>
      <trkpt lat="44.72372" lon="7.01114">
        <ele>1982.5</ele>
        <time>2026-08-31T06:37:05Z</time>
      </trkpt>
      <trkpt lat="44.72369" lon="7.01122">
        <ele>1982.2</ele>
        <time>2026-08-31T06:37:10Z</time>
      </trkpt>
      <trkpt lat="44.72367" lon="7.01133">
        <ele>1981.3</ele>
        <time>2026-08-31T06:37:16Z</time>
      </trkpt>
      <trkpt lat="44.72365" lon="7.01142">
        <ele>1980.5</ele>
        <time>2026-08-31T06:37:21Z</time>
      </trkpt>
      <trkpt lat="44.72364" lon="7.01149">
        <ele>1979.7</ele>
        <time>2026-08-31T06:37:26Z</time>
      </trkpt>
      <trkpt lat="44.7236" lon="7.01157">
        <ele>1978.6</ele>
        <time>2026-08-31T06:37:32Z</time>
      </trkpt>
      <trkpt lat="44.72359" lon="7.01161">
        <ele>1978</ele>
        <time>2026-08-31T06:37:37Z</time>
      </trkpt>
      <trkpt lat="44.72359" lon="7.01161">
        <ele>1978</ele>
        <time>2026-08-31T06:37:42Z</time>
      </trkpt>
      <trkpt lat="44.72356" lon="7.01162">
        <ele>1977.6</ele>
        <time>2026-08-31T06:37:48Z</time>
      </trkpt>
      <trkpt lat="44.72351" lon="7.01167">
        <ele>1976.5</ele>
        <time>2026-08-31T06:37:53Z</time>
      </trkpt>
      <trkpt lat="44.72346" lon="7.01173">
        <ele>1976.9</ele>
        <time>2026-08-31T06:37:58Z</time>
      </trkpt>
      <trkpt lat="44.72338" lon="7.01176">
        <ele>1976.6</ele>
        <time>2026-08-31T06:38:04Z</time>
      </trkpt>
      <trkpt lat="44.72331" lon="7.01181">
        <ele>1977.2</ele>
        <time>2026-08-31T06:38:09Z</time>
      </trkpt>
      <trkpt lat="44.72325" lon="7.01187">
        <ele>1979.1</ele>
        <time>2026-08-31T06:38:14Z</time>
      </trkpt>
      <trkpt lat="44.72319" lon="7.01194">
        <ele>1980.9</ele>
        <time>2026-08-31T06:38:20Z</time>
      </trkpt>
      <trkpt lat="44.72313" lon="7.012">
        <ele>1982.3</ele>
        <time>2026-08-31T06:38:25Z</time>
      </trkpt>
      <trkpt lat="44.72308" lon="7.01207">
        <ele>1983.4</ele>
        <time>2026-08-31T06:38:30Z</time>
      </trkpt>
      <trkpt lat="44.723" lon="7.01214">
        <ele>1984.7</ele>
        <time>2026-08-31T06:38:36Z</time>
      </trkpt>
      <trkpt lat="44.72295" lon="7.01218">
        <ele>1985.3</ele>
        <time>2026-08-31T06:38:41Z</time>
      </trkpt>
      <trkpt lat="44.72289" lon="7.01223">
        <ele>1985.9</ele>
        <time>2026-08-31T06:38:46Z</time>
      </trkpt>
      <trkpt lat="44.72285" lon="7.01232">
        <ele>1986.1</ele>
        <time>2026-08-31T06:38:52Z</time>
      </trkpt>
      <trkpt lat="44.7228" lon="7.01239">
        <ele>1986.1</ele>
        <time>2026-08-31T06:38:57Z</time>
      </trkpt>
      <trkpt lat="44.72275" lon="7.01243">
        <ele>1986.1</ele>
        <time>2026-08-31T06:39:02Z</time>
      </trkpt>
      <trkpt lat="44.72269" lon="7.01248">
        <ele>1985.9</ele>
        <time>2026-08-31T06:39:08Z</time>
      </trkpt>
      <trkpt lat="44.72263" lon="7.01254">
        <ele>1986.2</ele>
        <time>2026-08-31T06:39:13Z</time>
      </trkpt>
      <trkpt lat="44.72259" lon="7.01258">
        <ele>1986.5</ele>
        <time>2026-08-31T06:39:18Z</time>
      </trkpt>
      <trkpt lat="44.72259" lon="7.01258">
        <ele>1986.5</ele>
        <time>2026-08-31T06:39:24Z</time>
      </trkpt>
      <trkpt lat="44.72259" lon="7.01258">
        <ele>1986.5</ele>
        <time>2026-08-31T06:39:29Z</time>
      </trkpt>
      <trkpt lat="44.72259" lon="7.01258">
        <ele>1986.5</ele>
        <time>2026-08-31T06:39:34Z</time>
      </trkpt>
      <trkpt lat="44.72259" lon="7.01258">
        <ele>1986.5</ele>
        <time>2026-08-31T06:39:40Z</time>
      </trkpt>
      <trkpt lat="44.72252" lon="7.0126">
        <ele>1986.7</ele>
        <time>2026-08-31T06:39:45Z</time>
      </trkpt>
      <trkpt lat="44.72248" lon="7.01266">
        <ele>1987.5</ele>
        <time>2026-08-31T06:39:50Z</time>
      </trkpt>
      <trkpt lat="44.72242" lon="7.01272">
        <ele>1988.7</ele>
        <time>2026-08-31T06:39:56Z</time>
      </trkpt>
      <trkpt lat="44.72237" lon="7.01274">
        <ele>1989.5</ele>
        <time>2026-08-31T06:40:01Z</time>
      </trkpt>
      <trkpt lat="44.72233" lon="7.0128">
        <ele>1990.2</ele>
        <time>2026-08-31T06:40:06Z</time>
      </trkpt>
      <trkpt lat="44.72226" lon="7.01285">
        <ele>1991</ele>
        <time>2026-08-31T06:40:12Z</time>
      </trkpt>
      <trkpt lat="44.7222" lon="7.01289">
        <ele>1991.6</ele>
        <time>2026-08-31T06:40:17Z</time>
      </trkpt>
      <trkpt lat="44.72216" lon="7.01293">
        <ele>1991.8</ele>
        <time>2026-08-31T06:40:22Z</time>
      </trkpt>
      <trkpt lat="44.7221" lon="7.01298">
        <ele>1992.1</ele>
        <time>2026-08-31T06:40:28Z</time>
      </trkpt>
      <trkpt lat="44.72205" lon="7.013">
        <ele>1992.3</ele>
        <time>2026-08-31T06:40:33Z</time>
      </trkpt>
      <trkpt lat="44.72198" lon="7.01302">
        <ele>1992.6</ele>
        <time>2026-08-31T06:40:38Z</time>
      </trkpt>
      <trkpt lat="44.72192" lon="7.01305">
        <ele>1992.6</ele>
        <time>2026-08-31T06:40:44Z</time>
      </trkpt>
      <trkpt lat="44.72185" lon="7.01309">
        <ele>1992.5</ele>
        <time>2026-08-31T06:40:49Z</time>
      </trkpt>
      <trkpt lat="44.72179" lon="7.01313">
        <ele>1992.1</ele>
        <time>2026-08-31T06:40:54Z</time>
      </trkpt>
      <trkpt lat="44.72174" lon="7.01317">
        <ele>1991.7</ele>
        <time>2026-08-31T06:41:00Z</time>
      </trkpt>
      <trkpt lat="44.72167" lon="7.01321">
        <ele>1991.1</ele>
        <time>2026-08-31T06:41:05Z</time>
      </trkpt>
      <trkpt lat="44.72162" lon="7.01325">
        <ele>1991.6</ele>
        <time>2026-08-31T06:41:10Z</time>
      </trkpt>
      <trkpt lat="44.72156" lon="7.01334">
        <ele>1991.6</ele>
        <time>2026-08-31T06:41:16Z</time>
      </trkpt>
      <trkpt lat="44.72151" lon="7.01343">
        <ele>1993.1</ele>
        <time>2026-08-31T06:41:21Z</time>
      </trkpt>
      <trkpt lat="44.72145" lon="7.01347">
        <ele>1994.4</ele>
        <time>2026-08-31T06:41:26Z</time>
      </trkpt>
      <trkpt lat="44.72138" lon="7.01354">
        <ele>1995.7</ele>
        <time>2026-08-31T06:41:32Z</time>
      </trkpt>
      <trkpt lat="44.72134" lon="7.0136">
        <ele>1996.3</ele>
        <time>2026-08-31T06:41:37Z</time>
      </trkpt>
      <trkpt lat="44.72129" lon="7.01366">
        <ele>1996.7</ele>
        <time>2026-08-31T06:41:42Z</time>
      </trkpt>
      <trkpt lat="44.72121" lon="7.01368">
        <ele>1997.6</ele>
        <time>2026-08-31T06:41:48Z</time>
      </trkpt>
      <trkpt lat="44.72116" lon="7.01374">
        <ele>1997.6</ele>
        <time>2026-08-31T06:41:53Z</time>
      </trkpt>
      <trkpt lat="44.72114" lon="7.01378">
        <ele>1997.5</ele>
        <time>2026-08-31T06:41:58Z</time>
      </trkpt>
      <trkpt lat="44.72113" lon="7.01376">
        <ele>1997.7</ele>
        <time>2026-08-31T06:42:04Z</time>
      </trkpt>
      <trkpt lat="44.72112" lon="7.01376">
        <ele>1997.8</ele>
        <time>2026-08-31T06:42:09Z</time>
      </trkpt>
      <trkpt lat="44.72112" lon="7.01376">
        <ele>1997.8</ele>
        <time>2026-08-31T06:42:14Z</time>
      </trkpt>
      <trkpt lat="44.72112" lon="7.01376">
        <ele>1997.8</ele>
        <time>2026-08-31T06:42:20Z</time>
      </trkpt>
      <trkpt lat="44.72112" lon="7.01376">
        <ele>1997.8</ele>
        <time>2026-08-31T06:42:25Z</time>
      </trkpt>
      <trkpt lat="44.72112" lon="7.01376">
        <ele>1997.8</ele>
        <time>2026-08-31T06:42:30Z</time>
      </trkpt>
      <trkpt lat="44.72112" lon="7.01376">
        <ele>1997.8</ele>
        <time>2026-08-31T06:42:36Z</time>
      </trkpt>
      <trkpt lat="44.72112" lon="7.01376">
        <ele>1997.8</ele>
        <time>2026-08-31T06:42:41Z</time>
      </trkpt>
      <trkpt lat="44.72112" lon="7.01376">
        <ele>1997.8</ele>
        <time>2026-08-31T06:42:46Z</time>
      </trkpt>
      <trkpt lat="44.72112" lon="7.01376">
        <ele>1997.8</ele>
        <time>2026-08-31T06:42:52Z</time>
      </trkpt>
      <trkpt lat="44.72112" lon="7.01376">
        <ele>1997.8</ele>
        <time>2026-08-31T06:42:57Z</time>
      </trkpt>
      <trkpt lat="44.72112" lon="7.01376">
        <ele>1997.8</ele>
        <time>2026-08-31T06:43:02Z</time>
      </trkpt>
      <trkpt lat="44.72112" lon="7.01376">
        <ele>1997.8</ele>
        <time>2026-08-31T06:43:08Z</time>
      </trkpt>
      <trkpt lat="44.72112" lon="7.01376">
        <ele>1997.8</ele>
        <time>2026-08-31T06:43:13Z</time>
      </trkpt>
      <trkpt lat="44.72112" lon="7.01376">
        <ele>1997.8</ele>
        <time>2026-08-31T06:43:18Z</time>
      </trkpt>
      <trkpt lat="44.72112" lon="7.01376">
        <ele>1997.8</ele>
        <time>2026-08-31T06:43:24Z</time>
      </trkpt>
      <trkpt lat="44.72112" lon="7.01376">
        <ele>1997.8</ele>
        <time>2026-08-31T06:43:29Z</time>
      </trkpt>
      <trkpt lat="44.72112" lon="7.01376">
        <ele>1997.8</ele>
        <time>2026-08-31T06:43:34Z</time>
      </trkpt>
      <trkpt lat="44.72112" lon="7.01376">
        <ele>1997.8</ele>
        <time>2026-08-31T06:43:40Z</time>
      </trkpt>
      <trkpt lat="44.72112" lon="7.01376">
        <ele>1997.8</ele>
        <time>2026-08-31T06:43:45Z</time>
      </trkpt>
      <trkpt lat="44.72112" lon="7.01376">
        <ele>1997.8</ele>
        <time>2026-08-31T06:43:50Z</time>
      </trkpt>
      <trkpt lat="44.72112" lon="7.01376">
        <ele>1997.8</ele>
        <time>2026-08-31T06:43:56Z</time>
      </trkpt>
      <trkpt lat="44.72112" lon="7.01376">
        <ele>1997.8</ele>
        <time>2026-08-31T06:44:01Z</time>
      </trkpt>
      <trkpt lat="44.72112" lon="7.01376">
        <ele>1997.8</ele>
        <time>2026-08-31T06:44:06Z</time>
      </trkpt>
      <trkpt lat="44.72112" lon="7.01376">
        <ele>1997.8</ele>
        <time>2026-08-31T06:44:12Z</time>
      </trkpt>
      <trkpt lat="44.72112" lon="7.01376">
        <ele>1997.8</ele>
        <time>2026-08-31T06:44:17Z</time>
      </trkpt>
      <trkpt lat="44.72112" lon="7.01376">
        <ele>1997.8</ele>
        <time>2026-08-31T06:44:22Z</time>
      </trkpt>
      <trkpt lat="44.72107" lon="7.01378">
        <ele>1998</ele>
        <time>2026-08-31T06:44:28Z</time>
      </trkpt>
      <trkpt lat="44.72103" lon="7.01383">
        <ele>1997.7</ele>
        <time>2026-08-31T06:44:33Z</time>
      </trkpt>
      <trkpt lat="44.721" lon="7.01385">
        <ele>1997.6</ele>
        <time>2026-08-31T06:44:38Z</time>
      </trkpt>
      <trkpt lat="44.72098" lon="7.01389">
        <ele>1997.1</ele>
        <time>2026-08-31T06:44:44Z</time>
      </trkpt>
      <trkpt lat="44.72092" lon="7.01396">
        <ele>1996.1</ele>
        <time>2026-08-31T06:44:49Z</time>
      </trkpt>
      <trkpt lat="44.72086" lon="7.014">
        <ele>1995.4</ele>
        <time>2026-08-31T06:44:54Z</time>
      </trkpt>
      <trkpt lat="44.72077" lon="7.01403">
        <ele>1997</ele>
        <time>2026-08-31T06:45:00Z</time>
      </trkpt>
      <trkpt lat="44.7207" lon="7.01408">
        <ele>1998.2</ele>
        <time>2026-08-31T06:45:05Z</time>
      </trkpt>
      <trkpt lat="44.72063" lon="7.01415">
        <ele>1998.8</ele>
        <time>2026-08-31T06:45:10Z</time>
      </trkpt>
      <trkpt lat="44.72055" lon="7.01421">
        <ele>2000.7</ele>
        <time>2026-08-31T06:45:16Z</time>
      </trkpt>
      <trkpt lat="44.72049" lon="7.01427">
        <ele>2002.2</ele>
        <time>2026-08-31T06:45:21Z</time>
      </trkpt>
      <trkpt lat="44.72043" lon="7.01434">
        <ele>2003.2</ele>
        <time>2026-08-31T06:45:26Z</time>
      </trkpt>
      <trkpt lat="44.72035" lon="7.01439">
        <ele>2004.6</ele>
        <time>2026-08-31T06:45:32Z</time>
      </trkpt>
      <trkpt lat="44.72027" lon="7.01444">
        <ele>2005.5</ele>
        <time>2026-08-31T06:45:37Z</time>
      </trkpt>
      <trkpt lat="44.7202" lon="7.01448">
        <ele>2006.2</ele>
        <time>2026-08-31T06:45:42Z</time>
      </trkpt>
      <trkpt lat="44.72011" lon="7.01449">
        <ele>2007.6</ele>
        <time>2026-08-31T06:45:48Z</time>
      </trkpt>
      <trkpt lat="44.72005" lon="7.01452">
        <ele>2007.9</ele>
        <time>2026-08-31T06:45:53Z</time>
      </trkpt>
      <trkpt lat="44.71998" lon="7.01457">
        <ele>2008.1</ele>
        <time>2026-08-31T06:45:58Z</time>
      </trkpt>
      <trkpt lat="44.71989" lon="7.01461">
        <ele>2010.3</ele>
        <time>2026-08-31T06:46:04Z</time>
      </trkpt>
      <trkpt lat="44.71981" lon="7.01463">
        <ele>2012.6</ele>
        <time>2026-08-31T06:46:09Z</time>
      </trkpt>
      <trkpt lat="44.71974" lon="7.01465">
        <ele>2014.5</ele>
        <time>2026-08-31T06:46:14Z</time>
      </trkpt>
      <trkpt lat="44.71967" lon="7.0147">
        <ele>2015.2</ele>
        <time>2026-08-31T06:46:20Z</time>
      </trkpt>
      <trkpt lat="44.7196" lon="7.01476">
        <ele>2015.4</ele>
        <time>2026-08-31T06:46:25Z</time>
      </trkpt>
      <trkpt lat="44.71954" lon="7.01479">
        <ele>2016.2</ele>
        <time>2026-08-31T06:46:30Z</time>
      </trkpt>
      <trkpt lat="44.71946" lon="7.01487">
        <ele>2015.5</ele>
        <time>2026-08-31T06:46:36Z</time>
      </trkpt>
      <trkpt lat="44.71939" lon="7.01491">
        <ele>2015.9</ele>
        <time>2026-08-31T06:46:41Z</time>
      </trkpt>
      <trkpt lat="44.71936" lon="7.01497">
        <ele>2014.2</ele>
        <time>2026-08-31T06:46:46Z</time>
      </trkpt>
      <trkpt lat="44.71932" lon="7.01504">
        <ele>2013.2</ele>
        <time>2026-08-31T06:46:52Z</time>
      </trkpt>
      <trkpt lat="44.71927" lon="7.0151">
        <ele>2013.3</ele>
        <time>2026-08-31T06:46:57Z</time>
      </trkpt>
      <trkpt lat="44.71923" lon="7.01516">
        <ele>2012.9</ele>
        <time>2026-08-31T06:47:02Z</time>
      </trkpt>
      <trkpt lat="44.71919" lon="7.01522">
        <ele>2012.3</ele>
        <time>2026-08-31T06:47:08Z</time>
      </trkpt>
      <trkpt lat="44.71915" lon="7.01531">
        <ele>2011.3</ele>
        <time>2026-08-31T06:47:13Z</time>
      </trkpt>
      <trkpt lat="44.71913" lon="7.01539">
        <ele>2010.3</ele>
        <time>2026-08-31T06:47:18Z</time>
      </trkpt>
      <trkpt lat="44.71909" lon="7.01547">
        <ele>2009.9</ele>
        <time>2026-08-31T06:47:24Z</time>
      </trkpt>
      <trkpt lat="44.71906" lon="7.01553">
        <ele>2009.5</ele>
        <time>2026-08-31T06:47:29Z</time>
      </trkpt>
      <trkpt lat="44.71903" lon="7.01561">
        <ele>2008.4</ele>
        <time>2026-08-31T06:47:34Z</time>
      </trkpt>
      <trkpt lat="44.71898" lon="7.01567">
        <ele>2008.3</ele>
        <time>2026-08-31T06:47:40Z</time>
      </trkpt>
      <trkpt lat="44.71895" lon="7.01573">
        <ele>2007.5</ele>
        <time>2026-08-31T06:47:45Z</time>
      </trkpt>
      <trkpt lat="44.71891" lon="7.01578">
        <ele>2007.1</ele>
        <time>2026-08-31T06:47:50Z</time>
      </trkpt>
      <trkpt lat="44.71884" lon="7.0158">
        <ele>2008.6</ele>
        <time>2026-08-31T06:47:56Z</time>
      </trkpt>
      <trkpt lat="44.71879" lon="7.01584">
        <ele>2008.8</ele>
        <time>2026-08-31T06:48:01Z</time>
      </trkpt>
      <trkpt lat="44.71875" lon="7.0159">
        <ele>2009.4</ele>
        <time>2026-08-31T06:48:06Z</time>
      </trkpt>
      <trkpt lat="44.71868" lon="7.01595">
        <ele>2010.7</ele>
        <time>2026-08-31T06:48:12Z</time>
      </trkpt>
      <trkpt lat="44.71864" lon="7.016">
        <ele>2011.1</ele>
        <time>2026-08-31T06:48:17Z</time>
      </trkpt>
      <trkpt lat="44.71859" lon="7.01604">
        <ele>2011.6</ele>
        <time>2026-08-31T06:48:22Z</time>
      </trkpt>
      <trkpt lat="44.71854" lon="7.01611">
        <ele>2011.5</ele>
        <time>2026-08-31T06:48:28Z</time>
      </trkpt>
      <trkpt lat="44.7185" lon="7.01616">
        <ele>2011.4</ele>
        <time>2026-08-31T06:48:33Z</time>
      </trkpt>
      <trkpt lat="44.71846" lon="7.01618">
        <ele>2011.7</ele>
        <time>2026-08-31T06:48:38Z</time>
      </trkpt>
      <trkpt lat="44.7184" lon="7.01623">
        <ele>2011.6</ele>
        <time>2026-08-31T06:48:44Z</time>
      </trkpt>
      <trkpt lat="44.71836" lon="7.01627">
        <ele>2011.2</ele>
        <time>2026-08-31T06:48:49Z</time>
      </trkpt>
      <trkpt lat="44.71832" lon="7.01632">
        <ele>2011</ele>
        <time>2026-08-31T06:48:54Z</time>
      </trkpt>
      <trkpt lat="44.71829" lon="7.01639">
        <ele>2010.6</ele>
        <time>2026-08-31T06:49:00Z</time>
      </trkpt>
      <trkpt lat="44.71827" lon="7.01644">
        <ele>2010.2</ele>
        <time>2026-08-31T06:49:05Z</time>
      </trkpt>
      <trkpt lat="44.71825" lon="7.01647">
        <ele>2010.2</ele>
        <time>2026-08-31T06:49:10Z</time>
      </trkpt>
      <trkpt lat="44.71825" lon="7.0165">
        <ele>2009.3</ele>
        <time>2026-08-31T06:49:16Z</time>
      </trkpt>
      <trkpt lat="44.71824" lon="7.01652">
        <ele>2009.1</ele>
        <time>2026-08-31T06:49:21Z</time>
      </trkpt>
      <trkpt lat="44.71818" lon="7.01657">
        <ele>2009.8</ele>
        <time>2026-08-31T06:49:26Z</time>
      </trkpt>
      <trkpt lat="44.71813" lon="7.01662">
        <ele>2009.8</ele>
        <time>2026-08-31T06:49:32Z</time>
      </trkpt>
      <trkpt lat="44.7181" lon="7.01667">
        <ele>2009</ele>
        <time>2026-08-31T06:49:37Z</time>
      </trkpt>
      <trkpt lat="44.71806" lon="7.01671">
        <ele>2010.2</ele>
        <time>2026-08-31T06:49:42Z</time>
      </trkpt>
      <trkpt lat="44.71804" lon="7.01679">
        <ele>2010.6</ele>
        <time>2026-08-31T06:49:48Z</time>
      </trkpt>
      <trkpt lat="44.71801" lon="7.01684">
        <ele>2011.2</ele>
        <time>2026-08-31T06:49:53Z</time>
      </trkpt>
      <trkpt lat="44.71798" lon="7.0169">
        <ele>2011.6</ele>
        <time>2026-08-31T06:49:58Z</time>
      </trkpt>
      <trkpt lat="44.71793" lon="7.01696">
        <ele>2012.2</ele>
        <time>2026-08-31T06:50:04Z</time>
      </trkpt>
      <trkpt lat="44.7179" lon="7.01701">
        <ele>2012.3</ele>
        <time>2026-08-31T06:50:09Z</time>
      </trkpt>
      <trkpt lat="44.71786" lon="7.01703">
        <ele>2012.7</ele>
        <time>2026-08-31T06:50:14Z</time>
      </trkpt>
      <trkpt lat="44.7178" lon="7.01707">
        <ele>2013.1</ele>
        <time>2026-08-31T06:50:20Z</time>
      </trkpt>
      <trkpt lat="44.71776" lon="7.01712">
        <ele>2012.9</ele>
        <time>2026-08-31T06:50:25Z</time>
      </trkpt>
      <trkpt lat="44.71771" lon="7.01716">
        <ele>2012.7</ele>
        <time>2026-08-31T06:50:30Z</time>
      </trkpt>
      <trkpt lat="44.71766" lon="7.01719">
        <ele>2012.6</ele>
        <time>2026-08-31T06:50:36Z</time>
      </trkpt>
      <trkpt lat="44.71762" lon="7.01725">
        <ele>2011.7</ele>
        <time>2026-08-31T06:50:41Z</time>
      </trkpt>
      <trkpt lat="44.71757" lon="7.01728">
        <ele>2011.3</ele>
        <time>2026-08-31T06:50:46Z</time>
      </trkpt>
      <trkpt lat="44.71752" lon="7.01735">
        <ele>2009.8</ele>
        <time>2026-08-31T06:50:52Z</time>
      </trkpt>
      <trkpt lat="44.71747" lon="7.0174">
        <ele>2009.4</ele>
        <time>2026-08-31T06:50:57Z</time>
      </trkpt>
      <trkpt lat="44.71743" lon="7.01744">
        <ele>2009.4</ele>
        <time>2026-08-31T06:51:02Z</time>
      </trkpt>
      <trkpt lat="44.71736" lon="7.0175">
        <ele>2009.4</ele>
        <time>2026-08-31T06:51:08Z</time>
      </trkpt>
      <trkpt lat="44.71731" lon="7.01757">
        <ele>2010.6</ele>
        <time>2026-08-31T06:51:13Z</time>
      </trkpt>
      <trkpt lat="44.71729" lon="7.01765">
        <ele>2011</ele>
        <time>2026-08-31T06:51:18Z</time>
      </trkpt>
      <trkpt lat="44.71722" lon="7.01771">
        <ele>2012.4</ele>
        <time>2026-08-31T06:51:24Z</time>
      </trkpt>
      <trkpt lat="44.71717" lon="7.01778">
        <ele>2013.2</ele>
        <time>2026-08-31T06:51:29Z</time>
      </trkpt>
      <trkpt lat="44.71712" lon="7.01784">
        <ele>2013.9</ele>
        <time>2026-08-31T06:51:34Z</time>
      </trkpt>
      <trkpt lat="44.71706" lon="7.0179">
        <ele>2014.7</ele>
        <time>2026-08-31T06:51:40Z</time>
      </trkpt>
      <trkpt lat="44.71702" lon="7.01799">
        <ele>2014.9</ele>
        <time>2026-08-31T06:51:45Z</time>
      </trkpt>
      <trkpt lat="44.71697" lon="7.01806">
        <ele>2015.2</ele>
        <time>2026-08-31T06:51:50Z</time>
      </trkpt>
      <trkpt lat="44.71693" lon="7.01817">
        <ele>2014.9</ele>
        <time>2026-08-31T06:51:56Z</time>
      </trkpt>
      <trkpt lat="44.71692" lon="7.01827">
        <ele>2014.3</ele>
        <time>2026-08-31T06:52:01Z</time>
      </trkpt>
      <trkpt lat="44.71688" lon="7.01835">
        <ele>2014.2</ele>
        <time>2026-08-31T06:52:06Z</time>
      </trkpt>
      <trkpt lat="44.71683" lon="7.01845">
        <ele>2014.4</ele>
        <time>2026-08-31T06:52:12Z</time>
      </trkpt>
      <trkpt lat="44.71682" lon="7.01854">
        <ele>2014.2</ele>
        <time>2026-08-31T06:52:17Z</time>
      </trkpt>
      <trkpt lat="44.7168" lon="7.01864">
        <ele>2014.1</ele>
        <time>2026-08-31T06:52:22Z</time>
      </trkpt>
      <trkpt lat="44.71674" lon="7.01875">
        <ele>2013.9</ele>
        <time>2026-08-31T06:52:28Z</time>
      </trkpt>
      <trkpt lat="44.71671" lon="7.01883">
        <ele>2013.6</ele>
        <time>2026-08-31T06:52:33Z</time>
      </trkpt>
      <trkpt lat="44.71666" lon="7.0189">
        <ele>2013.5</ele>
        <time>2026-08-31T06:52:38Z</time>
      </trkpt>
      <trkpt lat="44.71661" lon="7.019">
        <ele>2014.5</ele>
        <time>2026-08-31T06:52:44Z</time>
      </trkpt>
      <trkpt lat="44.71656" lon="7.01909">
        <ele>2015.4</ele>
        <time>2026-08-31T06:52:49Z</time>
      </trkpt>
      <trkpt lat="44.71652" lon="7.01918">
        <ele>2016</ele>
        <time>2026-08-31T06:52:54Z</time>
      </trkpt>
      <trkpt lat="44.71645" lon="7.01925">
        <ele>2017.7</ele>
        <time>2026-08-31T06:53:00Z</time>
      </trkpt>
      <trkpt lat="44.71641" lon="7.01931">
        <ele>2018.5</ele>
        <time>2026-08-31T06:53:05Z</time>
      </trkpt>
      <trkpt lat="44.71637" lon="7.01939">
        <ele>2019</ele>
        <time>2026-08-31T06:53:10Z</time>
      </trkpt>
      <trkpt lat="44.7163" lon="7.01948">
        <ele>2020</ele>
        <time>2026-08-31T06:53:16Z</time>
      </trkpt>
      <trkpt lat="44.71625" lon="7.01956">
        <ele>2020.4</ele>
        <time>2026-08-31T06:53:21Z</time>
      </trkpt>
      <trkpt lat="44.7162" lon="7.01965">
        <ele>2020.6</ele>
        <time>2026-08-31T06:53:26Z</time>
      </trkpt>
      <trkpt lat="44.71613" lon="7.01975">
        <ele>2020.7</ele>
        <time>2026-08-31T06:53:32Z</time>
      </trkpt>
      <trkpt lat="44.71608" lon="7.01982">
        <ele>2020.7</ele>
        <time>2026-08-31T06:53:37Z</time>
      </trkpt>
      <trkpt lat="44.71603" lon="7.0199">
        <ele>2020.4</ele>
        <time>2026-08-31T06:53:42Z</time>
      </trkpt>
      <trkpt lat="44.71597" lon="7.01994">
        <ele>2020.5</ele>
        <time>2026-08-31T06:53:48Z</time>
      </trkpt>
      <trkpt lat="44.71596" lon="7.02003">
        <ele>2019.7</ele>
        <time>2026-08-31T06:53:53Z</time>
      </trkpt>
      <trkpt lat="44.71594" lon="7.02009">
        <ele>2019.6</ele>
        <time>2026-08-31T06:53:58Z</time>
      </trkpt>
      <trkpt lat="44.71591" lon="7.02021">
        <ele>2019.1</ele>
        <time>2026-08-31T06:54:04Z</time>
      </trkpt>
      <trkpt lat="44.7159" lon="7.0203">
        <ele>2018.6</ele>
        <time>2026-08-31T06:54:09Z</time>
      </trkpt>
      <trkpt lat="44.71586" lon="7.02037">
        <ele>2018</ele>
        <time>2026-08-31T06:54:14Z</time>
      </trkpt>
      <trkpt lat="44.71585" lon="7.02039">
        <ele>2017.8</ele>
        <time>2026-08-31T06:54:20Z</time>
      </trkpt>
      <trkpt lat="44.71584" lon="7.02038">
        <ele>2017.8</ele>
        <time>2026-08-31T06:54:25Z</time>
      </trkpt>
      <trkpt lat="44.71584" lon="7.02038">
        <ele>2017.8</ele>
        <time>2026-08-31T06:54:30Z</time>
      </trkpt>
      <trkpt lat="44.71578" lon="7.02048">
        <ele>2017.4</ele>
        <time>2026-08-31T06:54:36Z</time>
      </trkpt>
      <trkpt lat="44.71574" lon="7.02054">
        <ele>2017.1</ele>
        <time>2026-08-31T06:54:41Z</time>
      </trkpt>
      <trkpt lat="44.71567" lon="7.0206">
        <ele>2017.1</ele>
        <time>2026-08-31T06:54:46Z</time>
      </trkpt>
      <trkpt lat="44.71561" lon="7.02068">
        <ele>2016.8</ele>
        <time>2026-08-31T06:54:52Z</time>
      </trkpt>
      <trkpt lat="44.71554" lon="7.02072">
        <ele>2016.9</ele>
        <time>2026-08-31T06:54:57Z</time>
      </trkpt>
      <trkpt lat="44.71546" lon="7.02075">
        <ele>2017.1</ele>
        <time>2026-08-31T06:55:02Z</time>
      </trkpt>
      <trkpt lat="44.71539" lon="7.0208">
        <ele>2017</ele>
        <time>2026-08-31T06:55:08Z</time>
      </trkpt>
      <trkpt lat="44.71531" lon="7.02082">
        <ele>2017.3</ele>
        <time>2026-08-31T06:55:13Z</time>
      </trkpt>
      <trkpt lat="44.71524" lon="7.02085">
        <ele>2017.7</ele>
        <time>2026-08-31T06:55:18Z</time>
      </trkpt>
      <trkpt lat="44.71517" lon="7.02088">
        <ele>2018.2</ele>
        <time>2026-08-31T06:55:24Z</time>
      </trkpt>
      <trkpt lat="44.7151" lon="7.02089">
        <ele>2018.6</ele>
        <time>2026-08-31T06:55:29Z</time>
      </trkpt>
      <trkpt lat="44.71503" lon="7.02094">
        <ele>2018.9</ele>
        <time>2026-08-31T06:55:34Z</time>
      </trkpt>
      <trkpt lat="44.71496" lon="7.021">
        <ele>2019.1</ele>
        <time>2026-08-31T06:55:40Z</time>
      </trkpt>
      <trkpt lat="44.71491" lon="7.02106">
        <ele>2019.3</ele>
        <time>2026-08-31T06:55:45Z</time>
      </trkpt>
      <trkpt lat="44.71485" lon="7.02111">
        <ele>2019.4</ele>
        <time>2026-08-31T06:55:50Z</time>
      </trkpt>
      <trkpt lat="44.71479" lon="7.02118">
        <ele>2019.5</ele>
        <time>2026-08-31T06:55:56Z</time>
      </trkpt>
      <trkpt lat="44.71475" lon="7.02124">
        <ele>2019.5</ele>
        <time>2026-08-31T06:56:01Z</time>
      </trkpt>
      <trkpt lat="44.71473" lon="7.02125">
        <ele>2019.5</ele>
        <time>2026-08-31T06:56:06Z</time>
      </trkpt>
      <trkpt lat="44.71473" lon="7.02125">
        <ele>2019.5</ele>
        <time>2026-08-31T06:56:12Z</time>
      </trkpt>
      <trkpt lat="44.71473" lon="7.02127">
        <ele>2019.4</ele>
        <time>2026-08-31T06:56:17Z</time>
      </trkpt>
      <trkpt lat="44.71473" lon="7.02127">
        <ele>2019.4</ele>
        <time>2026-08-31T06:56:22Z</time>
      </trkpt>
      <trkpt lat="44.71473" lon="7.02127">
        <ele>2019.4</ele>
        <time>2026-08-31T06:56:28Z</time>
      </trkpt>
      <trkpt lat="44.71473" lon="7.02127">
        <ele>2019.4</ele>
        <time>2026-08-31T06:56:33Z</time>
      </trkpt>
      <trkpt lat="44.71473" lon="7.02127">
        <ele>2019.4</ele>
        <time>2026-08-31T06:56:38Z</time>
      </trkpt>
      <trkpt lat="44.71473" lon="7.02127">
        <ele>2019.4</ele>
        <time>2026-08-31T06:56:44Z</time>
      </trkpt>
      <trkpt lat="44.71473" lon="7.02127">
        <ele>2019.4</ele>
        <time>2026-08-31T06:56:49Z</time>
      </trkpt>
      <trkpt lat="44.71473" lon="7.02127">
        <ele>2019.4</ele>
        <time>2026-08-31T06:56:54Z</time>
      </trkpt>
      <trkpt lat="44.71473" lon="7.02127">
        <ele>2019.4</ele>
        <time>2026-08-31T06:57:00Z</time>
      </trkpt>
      <trkpt lat="44.71473" lon="7.02127">
        <ele>2019.4</ele>
        <time>2026-08-31T06:57:05Z</time>
      </trkpt>
      <trkpt lat="44.71473" lon="7.02127">
        <ele>2019.4</ele>
        <time>2026-08-31T06:57:10Z</time>
      </trkpt>
      <trkpt lat="44.71473" lon="7.02127">
        <ele>2019.4</ele>
        <time>2026-08-31T06:57:16Z</time>
      </trkpt>
      <trkpt lat="44.71471" lon="7.02135">
        <ele>2019.3</ele>
        <time>2026-08-31T06:57:21Z</time>
      </trkpt>
      <trkpt lat="44.71468" lon="7.02143">
        <ele>2019.2</ele>
        <time>2026-08-31T06:57:26Z</time>
      </trkpt>
      <trkpt lat="44.71462" lon="7.02149">
        <ele>2019</ele>
        <time>2026-08-31T06:57:32Z</time>
      </trkpt>
      <trkpt lat="44.71455" lon="7.02154">
        <ele>2018.9</ele>
        <time>2026-08-31T06:57:37Z</time>
      </trkpt>
      <trkpt lat="44.71451" lon="7.0216">
        <ele>2018.6</ele>
        <time>2026-08-31T06:57:42Z</time>
      </trkpt>
      <trkpt lat="44.71446" lon="7.02165">
        <ele>2018.4</ele>
        <time>2026-08-31T06:57:48Z</time>
      </trkpt>
      <trkpt lat="44.7144" lon="7.0217">
        <ele>2018.9</ele>
        <time>2026-08-31T06:57:53Z</time>
      </trkpt>
      <trkpt lat="44.71436" lon="7.02174">
        <ele>2019.5</ele>
        <time>2026-08-31T06:57:58Z</time>
      </trkpt>
      <trkpt lat="44.7143" lon="7.02178">
        <ele>2020</ele>
        <time>2026-08-31T06:58:04Z</time>
      </trkpt>
      <trkpt lat="44.71424" lon="7.02181">
        <ele>2020.3</ele>
        <time>2026-08-31T06:58:09Z</time>
      </trkpt>
      <trkpt lat="44.71419" lon="7.02183">
        <ele>2020.4</ele>
        <time>2026-08-31T06:58:14Z</time>
      </trkpt>
      <trkpt lat="44.71413" lon="7.02187">
        <ele>2020.8</ele>
        <time>2026-08-31T06:58:20Z</time>
      </trkpt>
      <trkpt lat="44.71409" lon="7.0219">
        <ele>2021.1</ele>
        <time>2026-08-31T06:58:25Z</time>
      </trkpt>
      <trkpt lat="44.71409" lon="7.02192">
        <ele>2021.4</ele>
        <time>2026-08-31T06:58:30Z</time>
      </trkpt>
      <trkpt lat="44.7141" lon="7.02193">
        <ele>2021.5</ele>
        <time>2026-08-31T06:58:36Z</time>
      </trkpt>
      <trkpt lat="44.7141" lon="7.02193">
        <ele>2021.5</ele>
        <time>2026-08-31T06:58:41Z</time>
      </trkpt>
      <trkpt lat="44.7141" lon="7.02193">
        <ele>2021.5</ele>
        <time>2026-08-31T06:58:46Z</time>
      </trkpt>
      <trkpt lat="44.71401" lon="7.02194">
        <ele>2021.3</ele>
        <time>2026-08-31T06:58:52Z</time>
      </trkpt>
      <trkpt lat="44.71396" lon="7.02197">
        <ele>2021.5</ele>
        <time>2026-08-31T06:58:57Z</time>
      </trkpt>
      <trkpt lat="44.7139" lon="7.02197">
        <ele>2021.2</ele>
        <time>2026-08-31T06:59:02Z</time>
      </trkpt>
      <trkpt lat="44.71384" lon="7.02197">
        <ele>2020.9</ele>
        <time>2026-08-31T06:59:08Z</time>
      </trkpt>
      <trkpt lat="44.71377" lon="7.02201">
        <ele>2021</ele>
        <time>2026-08-31T06:59:13Z</time>
      </trkpt>
      <trkpt lat="44.71372" lon="7.02203">
        <ele>2020.9</ele>
        <time>2026-08-31T06:59:18Z</time>
      </trkpt>
      <trkpt lat="44.71363" lon="7.02205">
        <ele>2020.6</ele>
        <time>2026-08-31T06:59:24Z</time>
      </trkpt>
      <trkpt lat="44.71356" lon="7.02207">
        <ele>2020.3</ele>
        <time>2026-08-31T06:59:29Z</time>
      </trkpt>
      <trkpt lat="44.7135" lon="7.02209">
        <ele>2020</ele>
        <time>2026-08-31T06:59:34Z</time>
      </trkpt>
      <trkpt lat="44.71342" lon="7.02211">
        <ele>2019.6</ele>
        <time>2026-08-31T06:59:40Z</time>
      </trkpt>
      <trkpt lat="44.71335" lon="7.0221">
        <ele>2019.1</ele>
        <time>2026-08-31T06:59:45Z</time>
      </trkpt>
      <trkpt lat="44.71328" lon="7.0221">
        <ele>2019.5</ele>
        <time>2026-08-31T06:59:50Z</time>
      </trkpt>
      <trkpt lat="44.7132" lon="7.02209">
        <ele>2020.2</ele>
        <time>2026-08-31T06:59:56Z</time>
      </trkpt>
      <trkpt lat="44.71315" lon="7.02209">
        <ele>2020.7</ele>
        <time>2026-08-31T07:00:01Z</time>
      </trkpt>
      <trkpt lat="44.71308" lon="7.02211">
        <ele>2021.3</ele>
        <time>2026-08-31T07:00:06Z</time>
      </trkpt>
      <trkpt lat="44.71304" lon="7.02216">
        <ele>2021.5</ele>
        <time>2026-08-31T07:00:12Z</time>
      </trkpt>
      <trkpt lat="44.71303" lon="7.02218">
        <ele>2021.6</ele>
        <time>2026-08-31T07:00:17Z</time>
      </trkpt>
      <trkpt lat="44.71297" lon="7.02223">
        <ele>2021.9</ele>
        <time>2026-08-31T07:00:22Z</time>
      </trkpt>
      <trkpt lat="44.7129" lon="7.02229">
        <ele>2022.2</ele>
        <time>2026-08-31T07:00:28Z</time>
      </trkpt>
      <trkpt lat="44.71287" lon="7.02237">
        <ele>2022.1</ele>
        <time>2026-08-31T07:00:33Z</time>
      </trkpt>
      <trkpt lat="44.71284" lon="7.02242">
        <ele>2022.1</ele>
        <time>2026-08-31T07:00:38Z</time>
      </trkpt>
      <trkpt lat="44.7128" lon="7.02252">
        <ele>2022.1</ele>
        <time>2026-08-31T07:00:44Z</time>
      </trkpt>
      <trkpt lat="44.71275" lon="7.02261">
        <ele>2022.8</ele>
        <time>2026-08-31T07:00:49Z</time>
      </trkpt>
      <trkpt lat="44.71271" lon="7.02268">
        <ele>2023.3</ele>
        <time>2026-08-31T07:00:54Z</time>
      </trkpt>
      <trkpt lat="44.71268" lon="7.02279">
        <ele>2024</ele>
        <time>2026-08-31T07:01:00Z</time>
      </trkpt>
      <trkpt lat="44.71267" lon="7.02289">
        <ele>2024.6</ele>
        <time>2026-08-31T07:01:05Z</time>
      </trkpt>
      <trkpt lat="44.71264" lon="7.02295">
        <ele>2024.8</ele>
        <time>2026-08-31T07:01:10Z</time>
      </trkpt>
      <trkpt lat="44.71259" lon="7.02304">
        <ele>2025.2</ele>
        <time>2026-08-31T07:01:16Z</time>
      </trkpt>
      <trkpt lat="44.71254" lon="7.02311">
        <ele>2025.3</ele>
        <time>2026-08-31T07:01:21Z</time>
      </trkpt>
      <trkpt lat="44.71251" lon="7.02318">
        <ele>2025.5</ele>
        <time>2026-08-31T07:01:26Z</time>
      </trkpt>
      <trkpt lat="44.71248" lon="7.02328">
        <ele>2026.4</ele>
        <time>2026-08-31T07:01:32Z</time>
      </trkpt>
      <trkpt lat="44.71244" lon="7.02335">
        <ele>2027.8</ele>
        <time>2026-08-31T07:01:37Z</time>
      </trkpt>
      <trkpt lat="44.7124" lon="7.02341">
        <ele>2029.2</ele>
        <time>2026-08-31T07:01:42Z</time>
      </trkpt>
      <trkpt lat="44.71234" lon="7.02349">
        <ele>2031</ele>
        <time>2026-08-31T07:01:48Z</time>
      </trkpt>
      <trkpt lat="44.7123" lon="7.02356">
        <ele>2032.1</ele>
        <time>2026-08-31T07:01:53Z</time>
      </trkpt>
      <trkpt lat="44.71226" lon="7.02365">
        <ele>2033.1</ele>
        <time>2026-08-31T07:01:58Z</time>
      </trkpt>
      <trkpt lat="44.71223" lon="7.02375">
        <ele>2033.8</ele>
        <time>2026-08-31T07:02:04Z</time>
      </trkpt>
      <trkpt lat="44.71219" lon="7.02381">
        <ele>2034.7</ele>
        <time>2026-08-31T07:02:09Z</time>
      </trkpt>
      <trkpt lat="44.71215" lon="7.02389">
        <ele>2035.4</ele>
        <time>2026-08-31T07:02:14Z</time>
      </trkpt>
      <trkpt lat="44.71211" lon="7.02399">
        <ele>2036</ele>
        <time>2026-08-31T07:02:20Z</time>
      </trkpt>
      <trkpt lat="44.71207" lon="7.02405">
        <ele>2036.6</ele>
        <time>2026-08-31T07:02:25Z</time>
      </trkpt>
      <trkpt lat="44.71207" lon="7.02407">
        <ele>2036.5</ele>
        <time>2026-08-31T07:02:30Z</time>
      </trkpt>
      <trkpt lat="44.71208" lon="7.02406">
        <ele>2036.4</ele>
        <time>2026-08-31T07:02:36Z</time>
      </trkpt>
      <trkpt lat="44.71208" lon="7.02406">
        <ele>2036.4</ele>
        <time>2026-08-31T07:02:41Z</time>
      </trkpt>
      <trkpt lat="44.71208" lon="7.02406">
        <ele>2036.4</ele>
        <time>2026-08-31T07:02:46Z</time>
      </trkpt>
      <trkpt lat="44.71208" lon="7.02406">
        <ele>2036.4</ele>
        <time>2026-08-31T07:02:52Z</time>
      </trkpt>
      <trkpt lat="44.71204" lon="7.0241">
        <ele>2037</ele>
        <time>2026-08-31T07:02:57Z</time>
      </trkpt>
      <trkpt lat="44.71201" lon="7.02418">
        <ele>2037.2</ele>
        <time>2026-08-31T07:03:02Z</time>
      </trkpt>
      <trkpt lat="44.71198" lon="7.02427">
        <ele>2037.6</ele>
        <time>2026-08-31T07:03:08Z</time>
      </trkpt>
      <trkpt lat="44.71197" lon="7.02436">
        <ele>2037.7</ele>
        <time>2026-08-31T07:03:13Z</time>
      </trkpt>
      <trkpt lat="44.71195" lon="7.02443">
        <ele>2037.8</ele>
        <time>2026-08-31T07:03:18Z</time>
      </trkpt>
      <trkpt lat="44.71193" lon="7.02452">
        <ele>2038</ele>
        <time>2026-08-31T07:03:24Z</time>
      </trkpt>
      <trkpt lat="44.71193" lon="7.02461">
        <ele>2037.8</ele>
        <time>2026-08-31T07:03:29Z</time>
      </trkpt>
      <trkpt lat="44.71191" lon="7.02469">
        <ele>2037.9</ele>
        <time>2026-08-31T07:03:34Z</time>
      </trkpt>
      <trkpt lat="44.71191" lon="7.02479">
        <ele>2037.7</ele>
        <time>2026-08-31T07:03:40Z</time>
      </trkpt>
      <trkpt lat="44.71191" lon="7.02489">
        <ele>2037.5</ele>
        <time>2026-08-31T07:03:45Z</time>
      </trkpt>
      <trkpt lat="44.7119" lon="7.02499">
        <ele>2037.3</ele>
        <time>2026-08-31T07:03:50Z</time>
      </trkpt>
      <trkpt lat="44.71187" lon="7.02509">
        <ele>2038.1</ele>
        <time>2026-08-31T07:03:56Z</time>
      </trkpt>
      <trkpt lat="44.71184" lon="7.02518">
        <ele>2038.7</ele>
        <time>2026-08-31T07:04:01Z</time>
      </trkpt>
      <trkpt lat="44.71181" lon="7.02525">
        <ele>2039.1</ele>
        <time>2026-08-31T07:04:06Z</time>
      </trkpt>
      <trkpt lat="44.71178" lon="7.02534">
        <ele>2039.5</ele>
        <time>2026-08-31T07:04:12Z</time>
      </trkpt>
      <trkpt lat="44.71175" lon="7.02541">
        <ele>2039.7</ele>
        <time>2026-08-31T07:04:17Z</time>
      </trkpt>
      <trkpt lat="44.71172" lon="7.02547">
        <ele>2039.8</ele>
        <time>2026-08-31T07:04:22Z</time>
      </trkpt>
      <trkpt lat="44.71165" lon="7.02549">
        <ele>2039.8</ele>
        <time>2026-08-31T07:04:28Z</time>
      </trkpt>
      <trkpt lat="44.7116" lon="7.0255">
        <ele>2040.6</ele>
        <time>2026-08-31T07:04:33Z</time>
      </trkpt>
      <trkpt lat="44.71156" lon="7.02553">
        <ele>2041.1</ele>
        <time>2026-08-31T07:04:38Z</time>
      </trkpt>
      <trkpt lat="44.71148" lon="7.02556">
        <ele>2042.2</ele>
        <time>2026-08-31T07:04:44Z</time>
      </trkpt>
      <trkpt lat="44.71142" lon="7.02559">
        <ele>2042.9</ele>
        <time>2026-08-31T07:04:49Z</time>
      </trkpt>
      <trkpt lat="44.71136" lon="7.0256">
        <ele>2043.6</ele>
        <time>2026-08-31T07:04:54Z</time>
      </trkpt>
      <trkpt lat="44.71129" lon="7.02563">
        <ele>2044.2</ele>
        <time>2026-08-31T07:05:00Z</time>
      </trkpt>
      <trkpt lat="44.71124" lon="7.02566">
        <ele>2044.6</ele>
        <time>2026-08-31T07:05:05Z</time>
      </trkpt>
      <trkpt lat="44.7112" lon="7.02572">
        <ele>2044.4</ele>
        <time>2026-08-31T07:05:10Z</time>
      </trkpt>
      <trkpt lat="44.71121" lon="7.02583">
        <ele>2043.3</ele>
        <time>2026-08-31T07:05:16Z</time>
      </trkpt>
      <trkpt lat="44.71125" lon="7.02587">
        <ele>2043.9</ele>
        <time>2026-08-31T07:05:21Z</time>
      </trkpt>
      <trkpt lat="44.7113" lon="7.02589">
        <ele>2044</ele>
        <time>2026-08-31T07:05:26Z</time>
      </trkpt>
      <trkpt lat="44.71138" lon="7.02588">
        <ele>2043.3</ele>
        <time>2026-08-31T07:05:32Z</time>
      </trkpt>
      <trkpt lat="44.71145" lon="7.02589">
        <ele>2043.2</ele>
        <time>2026-08-31T07:05:37Z</time>
      </trkpt>
      <trkpt lat="44.7115" lon="7.02587">
        <ele>2042.3</ele>
        <time>2026-08-31T07:05:42Z</time>
      </trkpt>
      <trkpt lat="44.71155" lon="7.02589">
        <ele>2042.6</ele>
        <time>2026-08-31T07:05:48Z</time>
      </trkpt>
      <trkpt lat="44.71159" lon="7.02589">
        <ele>2042.3</ele>
        <time>2026-08-31T07:05:53Z</time>
      </trkpt>
      <trkpt lat="44.71159" lon="7.02595">
        <ele>2044.3</ele>
        <time>2026-08-31T07:05:58Z</time>
      </trkpt>
      <trkpt lat="44.71158" lon="7.02601">
        <ele>2046.2</ele>
        <time>2026-08-31T07:06:04Z</time>
      </trkpt>
      <trkpt lat="44.71158" lon="7.02602">
        <ele>2046.5</ele>
        <time>2026-08-31T07:06:09Z</time>
      </trkpt>
      <trkpt lat="44.71158" lon="7.02602">
        <ele>2046.5</ele>
        <time>2026-08-31T07:06:14Z</time>
      </trkpt>
      <trkpt lat="44.71155" lon="7.02605">
        <ele>2047.5</ele>
        <time>2026-08-31T07:06:20Z</time>
      </trkpt>
      <trkpt lat="44.71151" lon="7.02604">
        <ele>2047.3</ele>
        <time>2026-08-31T07:06:25Z</time>
      </trkpt>
      <trkpt lat="44.71146" lon="7.02604">
        <ele>2047.4</ele>
        <time>2026-08-31T07:06:30Z</time>
      </trkpt>
      <trkpt lat="44.71142" lon="7.02605">
        <ele>2047.7</ele>
        <time>2026-08-31T07:06:36Z</time>
      </trkpt>
      <trkpt lat="44.71138" lon="7.02608">
        <ele>2048.6</ele>
        <time>2026-08-31T07:06:41Z</time>
      </trkpt>
      <trkpt lat="44.71134" lon="7.02611">
        <ele>2049.4</ele>
        <time>2026-08-31T07:06:46Z</time>
      </trkpt>
      <trkpt lat="44.71129" lon="7.02616">
        <ele>2050.7</ele>
        <time>2026-08-31T07:06:52Z</time>
      </trkpt>
      <trkpt lat="44.71126" lon="7.02617">
        <ele>2050.9</ele>
        <time>2026-08-31T07:06:57Z</time>
      </trkpt>
      <trkpt lat="44.71122" lon="7.02619">
        <ele>2051.3</ele>
        <time>2026-08-31T07:07:02Z</time>
      </trkpt>
      <trkpt lat="44.71116" lon="7.0262">
        <ele>2051.4</ele>
        <time>2026-08-31T07:07:08Z</time>
      </trkpt>
      <trkpt lat="44.71113" lon="7.0262">
        <ele>2051.4</ele>
        <time>2026-08-31T07:07:13Z</time>
      </trkpt>
      <trkpt lat="44.71108" lon="7.02622">
        <ele>2051.7</ele>
        <time>2026-08-31T07:07:18Z</time>
      </trkpt>
      <trkpt lat="44.71104" lon="7.02621">
        <ele>2051.4</ele>
        <time>2026-08-31T07:07:24Z</time>
      </trkpt>
      <trkpt lat="44.711" lon="7.02621">
        <ele>2051.3</ele>
        <time>2026-08-31T07:07:29Z</time>
      </trkpt>
      <trkpt lat="44.71097" lon="7.02621">
        <ele>2051.2</ele>
        <time>2026-08-31T07:07:34Z</time>
      </trkpt>
      <trkpt lat="44.71093" lon="7.02623">
        <ele>2051.5</ele>
        <time>2026-08-31T07:07:40Z</time>
      </trkpt>
      <trkpt lat="44.71089" lon="7.02623">
        <ele>2051.4</ele>
        <time>2026-08-31T07:07:45Z</time>
      </trkpt>
      <trkpt lat="44.71086" lon="7.02623">
        <ele>2051.3</ele>
        <time>2026-08-31T07:07:50Z</time>
      </trkpt>
      <trkpt lat="44.71081" lon="7.02624">
        <ele>2052.4</ele>
        <time>2026-08-31T07:07:56Z</time>
      </trkpt>
      <trkpt lat="44.7108" lon="7.02623">
        <ele>2052.7</ele>
        <time>2026-08-31T07:08:01Z</time>
      </trkpt>
      <trkpt lat="44.71077" lon="7.0262">
        <ele>2053.7</ele>
        <time>2026-08-31T07:08:06Z</time>
      </trkpt>
      <trkpt lat="44.71072" lon="7.02621">
        <ele>2056</ele>
        <time>2026-08-31T07:08:12Z</time>
      </trkpt>
      <trkpt lat="44.71069" lon="7.02624">
        <ele>2057.6</ele>
        <time>2026-08-31T07:08:17Z</time>
      </trkpt>
      <trkpt lat="44.71066" lon="7.02625">
        <ele>2059</ele>
        <time>2026-08-31T07:08:22Z</time>
      </trkpt>
      <trkpt lat="44.71061" lon="7.02629">
        <ele>2061.4</ele>
        <time>2026-08-31T07:08:28Z</time>
      </trkpt>
      <trkpt lat="44.71056" lon="7.02632">
        <ele>2063.6</ele>
        <time>2026-08-31T07:08:33Z</time>
      </trkpt>
      <trkpt lat="44.71053" lon="7.02636">
        <ele>2065</ele>
        <time>2026-08-31T07:08:38Z</time>
      </trkpt>
      <trkpt lat="44.71051" lon="7.02642">
        <ele>2066</ele>
        <time>2026-08-31T07:08:44Z</time>
      </trkpt>
      <trkpt lat="44.71048" lon="7.02646">
        <ele>2067.2</ele>
        <time>2026-08-31T07:08:49Z</time>
      </trkpt>
      <trkpt lat="44.71045" lon="7.02649">
        <ele>2068.3</ele>
        <time>2026-08-31T07:08:54Z</time>
      </trkpt>
      <trkpt lat="44.71045" lon="7.02649">
        <ele>2068.3</ele>
        <time>2026-08-31T07:09:00Z</time>
      </trkpt>
      <trkpt lat="44.71045" lon="7.02649">
        <ele>2068.3</ele>
        <time>2026-08-31T07:09:05Z</time>
      </trkpt>
      <trkpt lat="44.71045" lon="7.02649">
        <ele>2068.3</ele>
        <time>2026-08-31T07:09:10Z</time>
      </trkpt>
      <trkpt lat="44.71053" lon="7.02647">
        <ele>2065.4</ele>
        <time>2026-08-31T07:09:16Z</time>
      </trkpt>
      <trkpt lat="44.7106" lon="7.02648">
        <ele>2062.9</ele>
        <time>2026-08-31T07:09:21Z</time>
      </trkpt>
      <trkpt lat="44.71065" lon="7.0265">
        <ele>2061.3</ele>
        <time>2026-08-31T07:09:26Z</time>
      </trkpt>
      <trkpt lat="44.71068" lon="7.0265">
        <ele>2060.2</ele>
        <time>2026-08-31T07:09:32Z</time>
      </trkpt>
      <trkpt lat="44.71069" lon="7.0265">
        <ele>2059.9</ele>
        <time>2026-08-31T07:09:37Z</time>
      </trkpt>
      <trkpt lat="44.71069" lon="7.02651">
        <ele>2059.9</ele>
        <time>2026-08-31T07:09:42Z</time>
      </trkpt>
      <trkpt lat="44.71069" lon="7.02651">
        <ele>2059.9</ele>
        <time>2026-08-31T07:09:48Z</time>
      </trkpt>
      <trkpt lat="44.71069" lon="7.02651">
        <ele>2059.9</ele>
        <time>2026-08-31T07:09:53Z</time>
      </trkpt>
      <trkpt lat="44.71069" lon="7.02651">
        <ele>2059.9</ele>
        <time>2026-08-31T07:09:58Z</time>
      </trkpt>
      <trkpt lat="44.71069" lon="7.02651">
        <ele>2059.9</ele>
        <time>2026-08-31T07:10:04Z</time>
      </trkpt>
      <trkpt lat="44.71069" lon="7.02651">
        <ele>2059.9</ele>
        <time>2026-08-31T07:10:09Z</time>
      </trkpt>
      <trkpt lat="44.71069" lon="7.02651">
        <ele>2059.9</ele>
        <time>2026-08-31T07:10:14Z</time>
      </trkpt>
      <trkpt lat="44.71075" lon="7.02643">
        <ele>2057</ele>
        <time>2026-08-31T07:10:20Z</time>
      </trkpt>
      <trkpt lat="44.71078" lon="7.02648">
        <ele>2056.5</ele>
        <time>2026-08-31T07:10:25Z</time>
      </trkpt>
      <trkpt lat="44.71084" lon="7.0265">
        <ele>2054.9</ele>
        <time>2026-08-31T07:10:30Z</time>
      </trkpt>
      <trkpt lat="44.71089" lon="7.02653">
        <ele>2055.8</ele>
        <time>2026-08-31T07:10:36Z</time>
      </trkpt>
      <trkpt lat="44.71092" lon="7.02656">
        <ele>2056.5</ele>
        <time>2026-08-31T07:10:41Z</time>
      </trkpt>
      <trkpt lat="44.71098" lon="7.0266">
        <ele>2057.8</ele>
        <time>2026-08-31T07:10:46Z</time>
      </trkpt>
      <trkpt lat="44.71103" lon="7.02667">
        <ele>2059.7</ele>
        <time>2026-08-31T07:10:52Z</time>
      </trkpt>
      <trkpt lat="44.71106" lon="7.0267">
        <ele>2061.1</ele>
        <time>2026-08-31T07:10:57Z</time>
      </trkpt>
      <trkpt lat="44.71107" lon="7.02669">
        <ele>2060.9</ele>
        <time>2026-08-31T07:11:02Z</time>
      </trkpt>
      <trkpt lat="44.71111" lon="7.02672">
        <ele>2062.4</ele>
        <time>2026-08-31T07:11:08Z</time>
      </trkpt>
      <trkpt lat="44.71116" lon="7.02674">
        <ele>2063.8</ele>
        <time>2026-08-31T07:11:13Z</time>
      </trkpt>
      <trkpt lat="44.71121" lon="7.0268">
        <ele>2066.6</ele>
        <time>2026-08-31T07:11:18Z</time>
      </trkpt>
      <trkpt lat="44.71126" lon="7.02684">
        <ele>2068.7</ele>
        <time>2026-08-31T07:11:24Z</time>
      </trkpt>
      <trkpt lat="44.71132" lon="7.02686">
        <ele>2070.3</ele>
        <time>2026-08-31T07:11:29Z</time>
      </trkpt>
      <trkpt lat="44.71136" lon="7.02687">
        <ele>2071.3</ele>
        <time>2026-08-31T07:11:34Z</time>
      </trkpt>
      <trkpt lat="44.71142" lon="7.02689">
        <ele>2073</ele>
        <time>2026-08-31T07:11:40Z</time>
      </trkpt>
      <trkpt lat="44.71146" lon="7.02691">
        <ele>2074.3</ele>
        <time>2026-08-31T07:11:45Z</time>
      </trkpt>
      <trkpt lat="44.7115" lon="7.02692">
        <ele>2075.3</ele>
        <time>2026-08-31T07:11:50Z</time>
      </trkpt>
      <trkpt lat="44.71155" lon="7.02692">
        <ele>2076.2</ele>
        <time>2026-08-31T07:11:56Z</time>
      </trkpt>
      <trkpt lat="44.7116" lon="7.02691">
        <ele>2076.6</ele>
        <time>2026-08-31T07:12:01Z</time>
      </trkpt>
      <trkpt lat="44.71164" lon="7.02689">
        <ele>2076.4</ele>
        <time>2026-08-31T07:12:06Z</time>
      </trkpt>
      <trkpt lat="44.71169" lon="7.02689">
        <ele>2077.2</ele>
        <time>2026-08-31T07:12:12Z</time>
      </trkpt>
      <trkpt lat="44.71171" lon="7.02685">
        <ele>2076</ele>
        <time>2026-08-31T07:12:17Z</time>
      </trkpt>
      <trkpt lat="44.71173" lon="7.02684">
        <ele>2075.9</ele>
        <time>2026-08-31T07:12:22Z</time>
      </trkpt>
      <trkpt lat="44.71175" lon="7.02689">
        <ele>2078.2</ele>
        <time>2026-08-31T07:12:28Z</time>
      </trkpt>
      <trkpt lat="44.71174" lon="7.02695">
        <ele>2080.4</ele>
        <time>2026-08-31T07:12:33Z</time>
      </trkpt>
      <trkpt lat="44.71172" lon="7.02699">
        <ele>2081.7</ele>
        <time>2026-08-31T07:12:38Z</time>
      </trkpt>
      <trkpt lat="44.71169" lon="7.02703">
        <ele>2082.8</ele>
        <time>2026-08-31T07:12:44Z</time>
      </trkpt>
      <trkpt lat="44.71166" lon="7.02706">
        <ele>2083.5</ele>
        <time>2026-08-31T07:12:49Z</time>
      </trkpt>
      <trkpt lat="44.7116" lon="7.0271">
        <ele>2083.9</ele>
        <time>2026-08-31T07:12:54Z</time>
      </trkpt>
      <trkpt lat="44.71156" lon="7.02713">
        <ele>2084.4</ele>
        <time>2026-08-31T07:13:00Z</time>
      </trkpt>
      <trkpt lat="44.71154" lon="7.02713">
        <ele>2084</ele>
        <time>2026-08-31T07:13:05Z</time>
      </trkpt>
      <trkpt lat="44.7115" lon="7.02711">
        <ele>2082.5</ele>
        <time>2026-08-31T07:13:10Z</time>
      </trkpt>
      <trkpt lat="44.71146" lon="7.02712">
        <ele>2082.1</ele>
        <time>2026-08-31T07:13:16Z</time>
      </trkpt>
      <trkpt lat="44.71143" lon="7.02714">
        <ele>2082.3</ele>
        <time>2026-08-31T07:13:21Z</time>
      </trkpt>
      <trkpt lat="44.71139" lon="7.02715">
        <ele>2081.9</ele>
        <time>2026-08-31T07:13:26Z</time>
      </trkpt>
      <trkpt lat="44.71136" lon="7.02712">
        <ele>2080.3</ele>
        <time>2026-08-31T07:13:32Z</time>
      </trkpt>
      <trkpt lat="44.71135" lon="7.0271">
        <ele>2079.4</ele>
        <time>2026-08-31T07:13:37Z</time>
      </trkpt>
      <trkpt lat="44.71135" lon="7.0271">
        <ele>2079.4</ele>
        <time>2026-08-31T07:13:42Z</time>
      </trkpt>
      <trkpt lat="44.71133" lon="7.02714">
        <ele>2080.5</ele>
        <time>2026-08-31T07:13:48Z</time>
      </trkpt>
      <trkpt lat="44.71129" lon="7.02719">
        <ele>2081.5</ele>
        <time>2026-08-31T07:13:53Z</time>
      </trkpt>
      <trkpt lat="44.71126" lon="7.02723">
        <ele>2082.3</ele>
        <time>2026-08-31T07:13:58Z</time>
      </trkpt>
      <trkpt lat="44.71121" lon="7.02722">
        <ele>2081</ele>
        <time>2026-08-31T07:14:04Z</time>
      </trkpt>
      <trkpt lat="44.71118" lon="7.0272">
        <ele>2079.7</ele>
        <time>2026-08-31T07:14:09Z</time>
      </trkpt>
      <trkpt lat="44.71113" lon="7.02718">
        <ele>2078.1</ele>
        <time>2026-08-31T07:14:14Z</time>
      </trkpt>
      <trkpt lat="44.7111" lon="7.02715">
        <ele>2076.5</ele>
        <time>2026-08-31T07:14:20Z</time>
      </trkpt>
      <trkpt lat="44.71108" lon="7.02714">
        <ele>2075.8</ele>
        <time>2026-08-31T07:14:25Z</time>
      </trkpt>
      <trkpt lat="44.71105" lon="7.02711">
        <ele>2074.3</ele>
        <time>2026-08-31T07:14:30Z</time>
      </trkpt>
      <trkpt lat="44.71101" lon="7.02708">
        <ele>2072.6</ele>
        <time>2026-08-31T07:14:36Z</time>
      </trkpt>
      <trkpt lat="44.71099" lon="7.02707">
        <ele>2071.9</ele>
        <time>2026-08-31T07:14:41Z</time>
      </trkpt>
      <trkpt lat="44.71096" lon="7.02708">
        <ele>2071.7</ele>
        <time>2026-08-31T07:14:46Z</time>
      </trkpt>
      <trkpt lat="44.71091" lon="7.0271">
        <ele>2071.4</ele>
        <time>2026-08-31T07:14:52Z</time>
      </trkpt>
      <trkpt lat="44.71088" lon="7.02712">
        <ele>2071.5</ele>
        <time>2026-08-31T07:14:57Z</time>
      </trkpt>
      <trkpt lat="44.71084" lon="7.02715">
        <ele>2071.6</ele>
        <time>2026-08-31T07:15:02Z</time>
      </trkpt>
      <trkpt lat="44.71079" lon="7.02719">
        <ele>2073.1</ele>
        <time>2026-08-31T07:15:08Z</time>
      </trkpt>
      <trkpt lat="44.71077" lon="7.02722">
        <ele>2074</ele>
        <time>2026-08-31T07:15:13Z</time>
      </trkpt>
      <trkpt lat="44.71074" lon="7.02724">
        <ele>2074.8</ele>
        <time>2026-08-31T07:15:18Z</time>
      </trkpt>
      <trkpt lat="44.7107" lon="7.02727">
        <ele>2075.7</ele>
        <time>2026-08-31T07:15:24Z</time>
      </trkpt>
      <trkpt lat="44.71068" lon="7.02729">
        <ele>2076.3</ele>
        <time>2026-08-31T07:15:29Z</time>
      </trkpt>
      <trkpt lat="44.71067" lon="7.02729">
        <ele>2076.3</ele>
        <time>2026-08-31T07:15:34Z</time>
      </trkpt>
      <trkpt lat="44.71067" lon="7.02729">
        <ele>2076.3</ele>
        <time>2026-08-31T07:15:40Z</time>
      </trkpt>
      <trkpt lat="44.71067" lon="7.02729">
        <ele>2076.3</ele>
        <time>2026-08-31T07:15:45Z</time>
      </trkpt>
      <trkpt lat="44.71067" lon="7.02729">
        <ele>2076.3</ele>
        <time>2026-08-31T07:15:50Z</time>
      </trkpt>
      <trkpt lat="44.71064" lon="7.02731">
        <ele>2076.9</ele>
        <time>2026-08-31T07:15:56Z</time>
      </trkpt>
      <trkpt lat="44.71062" lon="7.02735">
        <ele>2077.8</ele>
        <time>2026-08-31T07:16:01Z</time>
      </trkpt>
      <trkpt lat="44.7106" lon="7.02738">
        <ele>2078.4</ele>
        <time>2026-08-31T07:16:06Z</time>
      </trkpt>
      <trkpt lat="44.71059" lon="7.02738">
        <ele>2078.5</ele>
        <time>2026-08-31T07:16:12Z</time>
      </trkpt>
      <trkpt lat="44.71054" lon="7.02746">
        <ele>2079.9</ele>
        <time>2026-08-31T07:16:17Z</time>
      </trkpt>
      <trkpt lat="44.71052" lon="7.02749">
        <ele>2080.3</ele>
        <time>2026-08-31T07:16:22Z</time>
      </trkpt>
      <trkpt lat="44.7105" lon="7.02755">
        <ele>2081.6</ele>
        <time>2026-08-31T07:16:28Z</time>
      </trkpt>
      <trkpt lat="44.71046" lon="7.02759">
        <ele>2082.3</ele>
        <time>2026-08-31T07:16:33Z</time>
      </trkpt>
      <trkpt lat="44.71044" lon="7.02763">
        <ele>2083</ele>
        <time>2026-08-31T07:16:38Z</time>
      </trkpt>
      <trkpt lat="44.71041" lon="7.02769">
        <ele>2084</ele>
        <time>2026-08-31T07:16:44Z</time>
      </trkpt>
      <trkpt lat="44.7104" lon="7.02773">
        <ele>2084.8</ele>
        <time>2026-08-31T07:16:49Z</time>
      </trkpt>
      <trkpt lat="44.71038" lon="7.0278">
        <ele>2086</ele>
        <time>2026-08-31T07:16:54Z</time>
      </trkpt>
      <trkpt lat="44.71035" lon="7.02788">
        <ele>2087.1</ele>
        <time>2026-08-31T07:17:00Z</time>
      </trkpt>
      <trkpt lat="44.71033" lon="7.02792">
        <ele>2087.5</ele>
        <time>2026-08-31T07:17:05Z</time>
      </trkpt>
      <trkpt lat="44.71032" lon="7.02795">
        <ele>2087.9</ele>
        <time>2026-08-31T07:17:10Z</time>
      </trkpt>
      <trkpt lat="44.7103" lon="7.028">
        <ele>2088.4</ele>
        <time>2026-08-31T07:17:16Z</time>
      </trkpt>
      <trkpt lat="44.71028" lon="7.02804">
        <ele>2088.7</ele>
        <time>2026-08-31T07:17:21Z</time>
      </trkpt>
      <trkpt lat="44.71027" lon="7.02805">
        <ele>2088.6</ele>
        <time>2026-08-31T07:17:26Z</time>
      </trkpt>
      <trkpt lat="44.71027" lon="7.02807">
        <ele>2089</ele>
        <time>2026-08-31T07:17:32Z</time>
      </trkpt>
      <trkpt lat="44.71027" lon="7.02807">
        <ele>2089</ele>
        <time>2026-08-31T07:17:37Z</time>
      </trkpt>
      <trkpt lat="44.71022" lon="7.02811">
        <ele>2088.4</ele>
        <time>2026-08-31T07:17:42Z</time>
      </trkpt>
      <trkpt lat="44.71021" lon="7.02816">
        <ele>2088.9</ele>
        <time>2026-08-31T07:17:48Z</time>
      </trkpt>
      <trkpt lat="44.7102" lon="7.02819">
        <ele>2089.1</ele>
        <time>2026-08-31T07:17:53Z</time>
      </trkpt>
      <trkpt lat="44.71018" lon="7.02824">
        <ele>2089.3</ele>
        <time>2026-08-31T07:17:58Z</time>
      </trkpt>
      <trkpt lat="44.71013" lon="7.02828">
        <ele>2088.4</ele>
        <time>2026-08-31T07:18:04Z</time>
      </trkpt>
      <trkpt lat="44.71012" lon="7.0283">
        <ele>2088.3</ele>
        <time>2026-08-31T07:18:09Z</time>
      </trkpt>
      <trkpt lat="44.71009" lon="7.02834">
        <ele>2088</ele>
        <time>2026-08-31T07:18:14Z</time>
      </trkpt>
      <trkpt lat="44.71007" lon="7.02838">
        <ele>2088.4</ele>
        <time>2026-08-31T07:18:20Z</time>
      </trkpt>
      <trkpt lat="44.71004" lon="7.02843">
        <ele>2088.7</ele>
        <time>2026-08-31T07:18:25Z</time>
      </trkpt>
      <trkpt lat="44.71001" lon="7.02848">
        <ele>2089</ele>
        <time>2026-08-31T07:18:30Z</time>
      </trkpt>
      <trkpt lat="44.70998" lon="7.02852">
        <ele>2090.6</ele>
        <time>2026-08-31T07:18:36Z</time>
      </trkpt>
      <trkpt lat="44.70996" lon="7.02853">
        <ele>2091.8</ele>
        <time>2026-08-31T07:18:41Z</time>
      </trkpt>
      <trkpt lat="44.70992" lon="7.02857">
        <ele>2094.5</ele>
        <time>2026-08-31T07:18:46Z</time>
      </trkpt>
      <trkpt lat="44.7099" lon="7.02863">
        <ele>2096.5</ele>
        <time>2026-08-31T07:18:52Z</time>
      </trkpt>
      <trkpt lat="44.7099" lon="7.02863">
        <ele>2096.5</ele>
        <time>2026-08-31T07:18:57Z</time>
      </trkpt>
      <trkpt lat="44.7099" lon="7.02863">
        <ele>2096.5</ele>
        <time>2026-08-31T07:19:02Z</time>
      </trkpt>
      <trkpt lat="44.7099" lon="7.02863">
        <ele>2096.5</ele>
        <time>2026-08-31T07:19:08Z</time>
      </trkpt>
      <trkpt lat="44.7099" lon="7.02863">
        <ele>2096.5</ele>
        <time>2026-08-31T07:19:13Z</time>
      </trkpt>
      <trkpt lat="44.70987" lon="7.02867">
        <ele>2098.5</ele>
        <time>2026-08-31T07:19:18Z</time>
      </trkpt>
      <trkpt lat="44.70984" lon="7.02875">
        <ele>2100.9</ele>
        <time>2026-08-31T07:19:24Z</time>
      </trkpt>
      <trkpt lat="44.7098" lon="7.02881">
        <ele>2103</ele>
        <time>2026-08-31T07:19:29Z</time>
      </trkpt>
      <trkpt lat="44.70976" lon="7.02885">
        <ele>2104.7</ele>
        <time>2026-08-31T07:19:34Z</time>
      </trkpt>
      <trkpt lat="44.70974" lon="7.02889">
        <ele>2105.7</ele>
        <time>2026-08-31T07:19:40Z</time>
      </trkpt>
      <trkpt lat="44.70973" lon="7.02893">
        <ele>2106.3</ele>
        <time>2026-08-31T07:19:45Z</time>
      </trkpt>
      <trkpt lat="44.7097" lon="7.02896">
        <ele>2107.2</ele>
        <time>2026-08-31T07:19:50Z</time>
      </trkpt>
      <trkpt lat="44.70969" lon="7.02901">
        <ele>2107.8</ele>
        <time>2026-08-31T07:19:56Z</time>
      </trkpt>
      <trkpt lat="44.70966" lon="7.02906">
        <ele>2108.7</ele>
        <time>2026-08-31T07:20:01Z</time>
      </trkpt>
      <trkpt lat="44.70964" lon="7.02912">
        <ele>2109.2</ele>
        <time>2026-08-31T07:20:06Z</time>
      </trkpt>
      <trkpt lat="44.70961" lon="7.02919">
        <ele>2110</ele>
        <time>2026-08-31T07:20:12Z</time>
      </trkpt>
      <trkpt lat="44.70957" lon="7.02923">
        <ele>2110.8</ele>
        <time>2026-08-31T07:20:17Z</time>
      </trkpt>
      <trkpt lat="44.70955" lon="7.02928">
        <ele>2111.5</ele>
        <time>2026-08-31T07:20:22Z</time>
      </trkpt>
      <trkpt lat="44.70952" lon="7.02931">
        <ele>2112</ele>
        <time>2026-08-31T07:20:28Z</time>
      </trkpt>
      <trkpt lat="44.7095" lon="7.02933">
        <ele>2112.3</ele>
        <time>2026-08-31T07:20:33Z</time>
      </trkpt>
      <trkpt lat="44.7095" lon="7.02933">
        <ele>2112.3</ele>
        <time>2026-08-31T07:20:38Z</time>
      </trkpt>
      <trkpt lat="44.7095" lon="7.02933">
        <ele>2112.3</ele>
        <time>2026-08-31T07:20:44Z</time>
      </trkpt>
      <trkpt lat="44.7095" lon="7.02933">
        <ele>2112.3</ele>
        <time>2026-08-31T07:20:49Z</time>
      </trkpt>
      <trkpt lat="44.7095" lon="7.02933">
        <ele>2112.3</ele>
        <time>2026-08-31T07:20:54Z</time>
      </trkpt>
      <trkpt lat="44.7095" lon="7.02933">
        <ele>2112.3</ele>
        <time>2026-08-31T07:21:00Z</time>
      </trkpt>
      <trkpt lat="44.70947" lon="7.02933">
        <ele>2112.4</ele>
        <time>2026-08-31T07:21:05Z</time>
      </trkpt>
      <trkpt lat="44.70942" lon="7.02938">
        <ele>2112.9</ele>
        <time>2026-08-31T07:21:10Z</time>
      </trkpt>
      <trkpt lat="44.7094" lon="7.02945">
        <ele>2113.4</ele>
        <time>2026-08-31T07:21:16Z</time>
      </trkpt>
      <trkpt lat="44.70938" lon="7.02951">
        <ele>2113.8</ele>
        <time>2026-08-31T07:21:21Z</time>
      </trkpt>
      <trkpt lat="44.70938" lon="7.02956">
        <ele>2114</ele>
        <time>2026-08-31T07:21:26Z</time>
      </trkpt>
      <trkpt lat="44.70935" lon="7.02962">
        <ele>2114.2</ele>
        <time>2026-08-31T07:21:32Z</time>
      </trkpt>
      <trkpt lat="44.70934" lon="7.02967">
        <ele>2114.4</ele>
        <time>2026-08-31T07:21:37Z</time>
      </trkpt>
      <trkpt lat="44.70933" lon="7.02974">
        <ele>2114.6</ele>
        <time>2026-08-31T07:21:42Z</time>
      </trkpt>
      <trkpt lat="44.70931" lon="7.02982">
        <ele>2114.7</ele>
        <time>2026-08-31T07:21:48Z</time>
      </trkpt>
      <trkpt lat="44.70928" lon="7.02986">
        <ele>2114.5</ele>
        <time>2026-08-31T07:21:53Z</time>
      </trkpt>
      <trkpt lat="44.70927" lon="7.02992">
        <ele>2114.5</ele>
        <time>2026-08-31T07:21:58Z</time>
      </trkpt>
      <trkpt lat="44.70926" lon="7.02999">
        <ele>2114.4</ele>
        <time>2026-08-31T07:22:04Z</time>
      </trkpt>
      <trkpt lat="44.70924" lon="7.03006">
        <ele>2114.2</ele>
        <time>2026-08-31T07:22:09Z</time>
      </trkpt>
      <trkpt lat="44.70923" lon="7.0301">
        <ele>2114.1</ele>
        <time>2026-08-31T07:22:14Z</time>
      </trkpt>
      <trkpt lat="44.70922" lon="7.03016">
        <ele>2114</ele>
        <time>2026-08-31T07:22:20Z</time>
      </trkpt>
      <trkpt lat="44.70921" lon="7.03019">
        <ele>2113.9</ele>
        <time>2026-08-31T07:22:25Z</time>
      </trkpt>
      <trkpt lat="44.7092" lon="7.03023">
        <ele>2113.7</ele>
        <time>2026-08-31T07:22:30Z</time>
      </trkpt>
      <trkpt lat="44.7092" lon="7.0303">
        <ele>2113.8</ele>
        <time>2026-08-31T07:22:36Z</time>
      </trkpt>
      <trkpt lat="44.70921" lon="7.03036">
        <ele>2114</ele>
        <time>2026-08-31T07:22:41Z</time>
      </trkpt>
      <trkpt lat="44.70922" lon="7.0304">
        <ele>2114.3</ele>
        <time>2026-08-31T07:22:46Z</time>
      </trkpt>
      <trkpt lat="44.70923" lon="7.03048">
        <ele>2114.7</ele>
        <time>2026-08-31T07:22:52Z</time>
      </trkpt>
      <trkpt lat="44.70922" lon="7.03054">
        <ele>2114.5</ele>
        <time>2026-08-31T07:22:57Z</time>
      </trkpt>
      <trkpt lat="44.70922" lon="7.03058">
        <ele>2114.5</ele>
        <time>2026-08-31T07:23:02Z</time>
      </trkpt>
      <trkpt lat="44.7092" lon="7.03066">
        <ele>2114</ele>
        <time>2026-08-31T07:23:08Z</time>
      </trkpt>
      <trkpt lat="44.70918" lon="7.03073">
        <ele>2113.4</ele>
        <time>2026-08-31T07:23:13Z</time>
      </trkpt>
      <trkpt lat="44.70917" lon="7.03078">
        <ele>2113.1</ele>
        <time>2026-08-31T07:23:18Z</time>
      </trkpt>
      <trkpt lat="44.70916" lon="7.03085">
        <ele>2113.8</ele>
        <time>2026-08-31T07:23:24Z</time>
      </trkpt>
      <trkpt lat="44.70916" lon="7.0309">
        <ele>2114</ele>
        <time>2026-08-31T07:23:29Z</time>
      </trkpt>
      <trkpt lat="44.70916" lon="7.03093">
        <ele>2114.1</ele>
        <time>2026-08-31T07:23:34Z</time>
      </trkpt>
      <trkpt lat="44.70914" lon="7.03102">
        <ele>2116.5</ele>
        <time>2026-08-31T07:23:40Z</time>
      </trkpt>
      <trkpt lat="44.70914" lon="7.03107">
        <ele>2116.7</ele>
        <time>2026-08-31T07:23:45Z</time>
      </trkpt>
      <trkpt lat="44.70913" lon="7.03112">
        <ele>2117.8</ele>
        <time>2026-08-31T07:23:50Z</time>
      </trkpt>
      <trkpt lat="44.70913" lon="7.03117">
        <ele>2118</ele>
        <time>2026-08-31T07:23:56Z</time>
      </trkpt>
      <trkpt lat="44.70913" lon="7.03121">
        <ele>2118.1</ele>
        <time>2026-08-31T07:24:01Z</time>
      </trkpt>
      <trkpt lat="44.70913" lon="7.03126">
        <ele>2118.3</ele>
        <time>2026-08-31T07:24:06Z</time>
      </trkpt>
      <trkpt lat="44.70913" lon="7.03133">
        <ele>2118.5</ele>
        <time>2026-08-31T07:24:12Z</time>
      </trkpt>
      <trkpt lat="44.70913" lon="7.03138">
        <ele>2118.7</ele>
        <time>2026-08-31T07:24:17Z</time>
      </trkpt>
      <trkpt lat="44.70913" lon="7.03143">
        <ele>2118.8</ele>
        <time>2026-08-31T07:24:22Z</time>
      </trkpt>
      <trkpt lat="44.70917" lon="7.03145">
        <ele>2116.1</ele>
        <time>2026-08-31T07:24:28Z</time>
      </trkpt>
      <trkpt lat="44.70918" lon="7.03146">
        <ele>2116.6</ele>
        <time>2026-08-31T07:24:33Z</time>
      </trkpt>
      <trkpt lat="44.70918" lon="7.03146">
        <ele>2116.6</ele>
        <time>2026-08-31T07:24:38Z</time>
      </trkpt>
      <trkpt lat="44.70918" lon="7.03146">
        <ele>2116.6</ele>
        <time>2026-08-31T07:24:44Z</time>
      </trkpt>
      <trkpt lat="44.70918" lon="7.03146">
        <ele>2116.6</ele>
        <time>2026-08-31T07:24:49Z</time>
      </trkpt>
      <trkpt lat="44.70918" lon="7.03146">
        <ele>2116.6</ele>
        <time>2026-08-31T07:24:54Z</time>
      </trkpt>
      <trkpt lat="44.70918" lon="7.03146">
        <ele>2116.6</ele>
        <time>2026-08-31T07:25:00Z</time>
      </trkpt>
      <trkpt lat="44.70918" lon="7.03146">
        <ele>2116.6</ele>
        <time>2026-08-31T07:25:05Z</time>
      </trkpt>
      <trkpt lat="44.70918" lon="7.03146">
        <ele>2116.6</ele>
        <time>2026-08-31T07:25:10Z</time>
      </trkpt>
      <trkpt lat="44.70918" lon="7.03146">
        <ele>2116.6</ele>
        <time>2026-08-31T07:25:16Z</time>
      </trkpt>
      <trkpt lat="44.70918" lon="7.03146">
        <ele>2116.6</ele>
        <time>2026-08-31T07:25:21Z</time>
      </trkpt>
      <trkpt lat="44.70918" lon="7.03146">
        <ele>2116.6</ele>
        <time>2026-08-31T07:25:26Z</time>
      </trkpt>
      <trkpt lat="44.70918" lon="7.03146">
        <ele>2116.6</ele>
        <time>2026-08-31T07:25:32Z</time>
      </trkpt>
      <trkpt lat="44.70918" lon="7.03146">
        <ele>2116.6</ele>
        <time>2026-08-31T07:25:37Z</time>
      </trkpt>
      <trkpt lat="44.70918" lon="7.03146">
        <ele>2116.6</ele>
        <time>2026-08-31T07:25:42Z</time>
      </trkpt>
      <trkpt lat="44.70918" lon="7.03146">
        <ele>2116.6</ele>
        <time>2026-08-31T07:25:48Z</time>
      </trkpt>
      <trkpt lat="44.70918" lon="7.03146">
        <ele>2116.6</ele>
        <time>2026-08-31T07:25:53Z</time>
      </trkpt>
      <trkpt lat="44.70921" lon="7.03156">
        <ele>2118.3</ele>
        <time>2026-08-31T07:25:58Z</time>
      </trkpt>
      <trkpt lat="44.7092" lon="7.03159">
        <ele>2118</ele>
        <time>2026-08-31T07:26:04Z</time>
      </trkpt>
      <trkpt lat="44.7092" lon="7.03163">
        <ele>2118.3</ele>
        <time>2026-08-31T07:26:09Z</time>
      </trkpt>
      <trkpt lat="44.70921" lon="7.03165">
        <ele>2118.8</ele>
        <time>2026-08-31T07:26:14Z</time>
      </trkpt>
      <trkpt lat="44.7092" lon="7.03169">
        <ele>2118.9</ele>
        <time>2026-08-31T07:26:20Z</time>
      </trkpt>
      <trkpt lat="44.70919" lon="7.03172">
        <ele>2119</ele>
        <time>2026-08-31T07:26:25Z</time>
      </trkpt>
      <trkpt lat="44.70918" lon="7.03176">
        <ele>2119.3</ele>
        <time>2026-08-31T07:26:30Z</time>
      </trkpt>
      <trkpt lat="44.70917" lon="7.0318">
        <ele>2119.5</ele>
        <time>2026-08-31T07:26:36Z</time>
      </trkpt>
      <trkpt lat="44.70917" lon="7.0318">
        <ele>2119.5</ele>
        <time>2026-08-31T07:26:41Z</time>
      </trkpt>
      <trkpt lat="44.70917" lon="7.0318">
        <ele>2119.5</ele>
        <time>2026-08-31T07:26:46Z</time>
      </trkpt>
      <trkpt lat="44.70917" lon="7.0318">
        <ele>2119.5</ele>
        <time>2026-08-31T07:26:52Z</time>
      </trkpt>
      <trkpt lat="44.70917" lon="7.0318">
        <ele>2119.5</ele>
        <time>2026-08-31T07:26:57Z</time>
      </trkpt>
      <trkpt lat="44.70917" lon="7.0318">
        <ele>2119.5</ele>
        <time>2026-08-31T07:27:02Z</time>
      </trkpt>
      <trkpt lat="44.70917" lon="7.0318">
        <ele>2119.5</ele>
        <time>2026-08-31T07:27:08Z</time>
      </trkpt>
      <trkpt lat="44.70914" lon="7.03184">
        <ele>2121.8</ele>
        <time>2026-08-31T07:27:13Z</time>
      </trkpt>
      <trkpt lat="44.70911" lon="7.03188">
        <ele>2124.3</ele>
        <time>2026-08-31T07:27:18Z</time>
      </trkpt>
      <trkpt lat="44.70907" lon="7.03193">
        <ele>2127.4</ele>
        <time>2026-08-31T07:27:24Z</time>
      </trkpt>
      <trkpt lat="44.70904" lon="7.03198">
        <ele>2129.8</ele>
        <time>2026-08-31T07:27:29Z</time>
      </trkpt>
      <trkpt lat="44.70903" lon="7.03203">
        <ele>2130.9</ele>
        <time>2026-08-31T07:27:34Z</time>
      </trkpt>
      <trkpt lat="44.70901" lon="7.03208">
        <ele>2132.5</ele>
        <time>2026-08-31T07:27:40Z</time>
      </trkpt>
      <trkpt lat="44.709" lon="7.03212">
        <ele>2133.5</ele>
        <time>2026-08-31T07:27:45Z</time>
      </trkpt>
      <trkpt lat="44.70897" lon="7.03216">
        <ele>2135.3</ele>
        <time>2026-08-31T07:27:50Z</time>
      </trkpt>
      <trkpt lat="44.70896" lon="7.03221">
        <ele>2136.2</ele>
        <time>2026-08-31T07:27:56Z</time>
      </trkpt>
      <trkpt lat="44.70894" lon="7.03223">
        <ele>2137.3</ele>
        <time>2026-08-31T07:28:01Z</time>
      </trkpt>
      <trkpt lat="44.70891" lon="7.03227">
        <ele>2138.9</ele>
        <time>2026-08-31T07:28:06Z</time>
      </trkpt>
      <trkpt lat="44.70891" lon="7.0323">
        <ele>2139.1</ele>
        <time>2026-08-31T07:28:12Z</time>
      </trkpt>
      <trkpt lat="44.70894" lon="7.03231">
        <ele>2137.9</ele>
        <time>2026-08-31T07:28:17Z</time>
      </trkpt>
      <trkpt lat="44.70897" lon="7.03231">
        <ele>2136.7</ele>
        <time>2026-08-31T07:28:22Z</time>
      </trkpt>
      <trkpt lat="44.709" lon="7.03231">
        <ele>2135.4</ele>
        <time>2026-08-31T07:28:28Z</time>
      </trkpt>
      <trkpt lat="44.70903" lon="7.03231">
        <ele>2134.2</ele>
        <time>2026-08-31T07:28:33Z</time>
      </trkpt>
      <trkpt lat="44.70907" lon="7.03231">
        <ele>2132.6</ele>
        <time>2026-08-31T07:28:38Z</time>
      </trkpt>
      <trkpt lat="44.7091" lon="7.03231">
        <ele>2131.3</ele>
        <time>2026-08-31T07:28:44Z</time>
      </trkpt>
      <trkpt lat="44.70912" lon="7.03231">
        <ele>2130.5</ele>
        <time>2026-08-31T07:28:49Z</time>
      </trkpt>
      <trkpt lat="44.70912" lon="7.03231">
        <ele>2130.5</ele>
        <time>2026-08-31T07:28:54Z</time>
      </trkpt>
      <trkpt lat="44.70912" lon="7.03231">
        <ele>2130.5</ele>
        <time>2026-08-31T07:29:00Z</time>
      </trkpt>
      <trkpt lat="44.70912" lon="7.03231">
        <ele>2130.5</ele>
        <time>2026-08-31T07:29:05Z</time>
      </trkpt>
      <trkpt lat="44.70913" lon="7.03235">
        <ele>2130.7</ele>
        <time>2026-08-31T07:29:10Z</time>
      </trkpt>
      <trkpt lat="44.70911" lon="7.0324">
        <ele>2132.3</ele>
        <time>2026-08-31T07:29:16Z</time>
      </trkpt>
      <trkpt lat="44.7091" lon="7.03245">
        <ele>2133.4</ele>
        <time>2026-08-31T07:29:21Z</time>
      </trkpt>
      <trkpt lat="44.70907" lon="7.0325">
        <ele>2135.1</ele>
        <time>2026-08-31T07:29:26Z</time>
      </trkpt>
      <trkpt lat="44.70904" lon="7.03254">
        <ele>2137</ele>
        <time>2026-08-31T07:29:32Z</time>
      </trkpt>
      <trkpt lat="44.70902" lon="7.03258">
        <ele>2138.5</ele>
        <time>2026-08-31T07:29:37Z</time>
      </trkpt>
      <trkpt lat="44.70902" lon="7.03259">
        <ele>2138.8</ele>
        <time>2026-08-31T07:29:42Z</time>
      </trkpt>
      <trkpt lat="44.70902" lon="7.03259">
        <ele>2138.8</ele>
        <time>2026-08-31T07:29:48Z</time>
      </trkpt>
      <trkpt lat="44.70902" lon="7.03259">
        <ele>2138.8</ele>
        <time>2026-08-31T07:29:53Z</time>
      </trkpt>
      <trkpt lat="44.70902" lon="7.03259">
        <ele>2138.8</ele>
        <time>2026-08-31T07:29:58Z</time>
      </trkpt>
      <trkpt lat="44.70902" lon="7.03259">
        <ele>2138.8</ele>
        <time>2026-08-31T07:30:04Z</time>
      </trkpt>
      <trkpt lat="44.70902" lon="7.03259">
        <ele>2138.8</ele>
        <time>2026-08-31T07:30:09Z</time>
      </trkpt>
      <trkpt lat="44.70902" lon="7.03259">
        <ele>2138.8</ele>
        <time>2026-08-31T07:30:14Z</time>
      </trkpt>
      <trkpt lat="44.70902" lon="7.03259">
        <ele>2138.8</ele>
        <time>2026-08-31T07:30:20Z</time>
      </trkpt>
      <trkpt lat="44.70902" lon="7.03259">
        <ele>2138.8</ele>
        <time>2026-08-31T07:30:25Z</time>
      </trkpt>
      <trkpt lat="44.70902" lon="7.03259">
        <ele>2138.8</ele>
        <time>2026-08-31T07:30:30Z</time>
      </trkpt>
      <trkpt lat="44.70902" lon="7.03259">
        <ele>2138.8</ele>
        <time>2026-08-31T07:30:36Z</time>
      </trkpt>
      <trkpt lat="44.70902" lon="7.03259">
        <ele>2138.8</ele>
        <time>2026-08-31T07:30:41Z</time>
      </trkpt>
      <trkpt lat="44.70902" lon="7.03259">
        <ele>2138.8</ele>
        <time>2026-08-31T07:30:46Z</time>
      </trkpt>
      <trkpt lat="44.70902" lon="7.03259">
        <ele>2138.8</ele>
        <time>2026-08-31T07:30:52Z</time>
      </trkpt>
      <trkpt lat="44.70902" lon="7.03259">
        <ele>2138.8</ele>
        <time>2026-08-31T07:30:57Z</time>
      </trkpt>
      <trkpt lat="44.70902" lon="7.03259">
        <ele>2138.8</ele>
        <time>2026-08-31T07:31:02Z</time>
      </trkpt>
      <trkpt lat="44.70902" lon="7.03259">
        <ele>2138.8</ele>
        <time>2026-08-31T07:31:08Z</time>
      </trkpt>
      <trkpt lat="44.70902" lon="7.03259">
        <ele>2138.8</ele>
        <time>2026-08-31T07:31:13Z</time>
      </trkpt>
      <trkpt lat="44.70902" lon="7.03259">
        <ele>2138.8</ele>
        <time>2026-08-31T07:31:18Z</time>
      </trkpt>
      <trkpt lat="44.70902" lon="7.03259">
        <ele>2138.8</ele>
        <time>2026-08-31T07:31:24Z</time>
      </trkpt>
      <trkpt lat="44.70902" lon="7.03259">
        <ele>2138.8</ele>
        <time>2026-08-31T07:31:29Z</time>
      </trkpt>
      <trkpt lat="44.70902" lon="7.03259">
        <ele>2138.8</ele>
        <time>2026-08-31T07:31:34Z</time>
      </trkpt>
      <trkpt lat="44.70902" lon="7.03259">
        <ele>2138.8</ele>
        <time>2026-08-31T07:31:40Z</time>
      </trkpt>
      <trkpt lat="44.70902" lon="7.03259">
        <ele>2138.8</ele>
        <time>2026-08-31T07:31:45Z</time>
      </trkpt>
      <trkpt lat="44.70902" lon="7.03259">
        <ele>2138.8</ele>
        <time>2026-08-31T07:31:50Z</time>
      </trkpt>
      <trkpt lat="44.70902" lon="7.03259">
        <ele>2138.8</ele>
        <time>2026-08-31T07:31:56Z</time>
      </trkpt>
      <trkpt lat="44.70902" lon="7.03259">
        <ele>2138.8</ele>
        <time>2026-08-31T07:32:01Z</time>
      </trkpt>
      <trkpt lat="44.70902" lon="7.03259">
        <ele>2138.8</ele>
        <time>2026-08-31T07:32:06Z</time>
      </trkpt>
      <trkpt lat="44.70902" lon="7.03259">
        <ele>2138.8</ele>
        <time>2026-08-31T07:32:12Z</time>
      </trkpt>
      <trkpt lat="44.70902" lon="7.03259">
        <ele>2138.8</ele>
        <time>2026-08-31T07:32:17Z</time>
      </trkpt>
      <trkpt lat="44.70902" lon="7.03259">
        <ele>2138.8</ele>
        <time>2026-08-31T07:32:22Z</time>
      </trkpt>
      <trkpt lat="44.70902" lon="7.03259">
        <ele>2138.8</ele>
        <time>2026-08-31T07:32:28Z</time>
      </trkpt>
      <trkpt lat="44.70902" lon="7.03259">
        <ele>2138.8</ele>
        <time>2026-08-31T07:32:33Z</time>
      </trkpt>
      <trkpt lat="44.70902" lon="7.03259">
        <ele>2138.8</ele>
        <time>2026-08-31T07:32:38Z</time>
      </trkpt>
      <trkpt lat="44.70902" lon="7.03259">
        <ele>2138.8</ele>
        <time>2026-08-31T07:32:44Z</time>
      </trkpt>
      <trkpt lat="44.70902" lon="7.03259">
        <ele>2138.8</ele>
        <time>2026-08-31T07:32:49Z</time>
      </trkpt>
      <trkpt lat="44.70902" lon="7.03259">
        <ele>2138.8</ele>
        <time>2026-08-31T07:32:54Z</time>
      </trkpt>
      <trkpt lat="44.70902" lon="7.03259">
        <ele>2138.8</ele>
        <time>2026-08-31T07:33:00Z</time>
      </trkpt>
      <trkpt lat="44.70902" lon="7.03259">
        <ele>2138.8</ele>
        <time>2026-08-31T07:33:05Z</time>
      </trkpt>
      <trkpt lat="44.70902" lon="7.03259">
        <ele>2138.8</ele>
        <time>2026-08-31T07:33:10Z</time>
      </trkpt>
      <trkpt lat="44.70902" lon="7.03259">
        <ele>2138.8</ele>
        <time>2026-08-31T07:33:16Z</time>
      </trkpt>
      <trkpt lat="44.70902" lon="7.03259">
        <ele>2138.8</ele>
        <time>2026-08-31T07:33:21Z</time>
      </trkpt>
      <trkpt lat="44.70902" lon="7.03259">
        <ele>2138.8</ele>
        <time>2026-08-31T07:33:26Z</time>
      </trkpt>
      <trkpt lat="44.70902" lon="7.03259">
        <ele>2138.8</ele>
        <time>2026-08-31T07:33:32Z</time>
      </trkpt>
      <trkpt lat="44.70902" lon="7.03259">
        <ele>2138.8</ele>
        <time>2026-08-31T07:33:37Z</time>
      </trkpt>
      <trkpt lat="44.70902" lon="7.03259">
        <ele>2138.8</ele>
        <time>2026-08-31T07:33:42Z</time>
      </trkpt>
      <trkpt lat="44.70902" lon="7.03259">
        <ele>2138.8</ele>
        <time>2026-08-31T07:33:48Z</time>
      </trkpt>
      <trkpt lat="44.70902" lon="7.03259">
        <ele>2138.8</ele>
        <time>2026-08-31T07:33:53Z</time>
      </trkpt>
      <trkpt lat="44.70902" lon="7.03259">
        <ele>2138.8</ele>
        <time>2026-08-31T07:33:58Z</time>
      </trkpt>
      <trkpt lat="44.70902" lon="7.03259">
        <ele>2138.8</ele>
        <time>2026-08-31T07:34:04Z</time>
      </trkpt>
      <trkpt lat="44.70902" lon="7.03259">
        <ele>2138.8</ele>
        <time>2026-08-31T07:34:09Z</time>
      </trkpt>
      <trkpt lat="44.70902" lon="7.03259">
        <ele>2138.8</ele>
        <time>2026-08-31T07:34:14Z</time>
      </trkpt>
      <trkpt lat="44.70902" lon="7.03259">
        <ele>2138.8</ele>
        <time>2026-08-31T07:34:20Z</time>
      </trkpt>
      <trkpt lat="44.70902" lon="7.03259">
        <ele>2138.8</ele>
        <time>2026-08-31T07:34:25Z</time>
      </trkpt>
      <trkpt lat="44.70902" lon="7.03259">
        <ele>2138.8</ele>
        <time>2026-08-31T07:34:30Z</time>
      </trkpt>
      <trkpt lat="44.70902" lon="7.03259">
        <ele>2138.8</ele>
        <time>2026-08-31T07:34:36Z</time>
      </trkpt>
      <trkpt lat="44.70902" lon="7.03259">
        <ele>2138.8</ele>
        <time>2026-08-31T07:34:41Z</time>
      </trkpt>
      <trkpt lat="44.70902" lon="7.03259">
        <ele>2138.8</ele>
        <time>2026-08-31T07:34:46Z</time>
      </trkpt>
      <trkpt lat="44.70902" lon="7.03259">
        <ele>2138.8</ele>
        <time>2026-08-31T07:34:52Z</time>
      </trkpt>
      <trkpt lat="44.70902" lon="7.03259">
        <ele>2138.8</ele>
        <time>2026-08-31T07:34:57Z</time>
      </trkpt>
      <trkpt lat="44.70902" lon="7.03259">
        <ele>2138.8</ele>
        <time>2026-08-31T07:35:02Z</time>
      </trkpt>
      <trkpt lat="44.70902" lon="7.03259">
        <ele>2138.8</ele>
        <time>2026-08-31T07:35:08Z</time>
      </trkpt>
      <trkpt lat="44.70902" lon="7.03259">
        <ele>2138.8</ele>
        <time>2026-08-31T07:35:13Z</time>
      </trkpt>
      <trkpt lat="44.709" lon="7.03265">
        <ele>2140.6</ele>
        <time>2026-08-31T07:35:18Z</time>
      </trkpt>
      <trkpt lat="44.70898" lon="7.03273">
        <ele>2142.9</ele>
        <time>2026-08-31T07:35:24Z</time>
      </trkpt>
      <trkpt lat="44.70895" lon="7.03277">
        <ele>2144.4</ele>
        <time>2026-08-31T07:35:29Z</time>
      </trkpt>
      <trkpt lat="44.70894" lon="7.03282">
        <ele>2145.6</ele>
        <time>2026-08-31T07:35:34Z</time>
      </trkpt>
      <trkpt lat="44.70891" lon="7.03283">
        <ele>2146.4</ele>
        <time>2026-08-31T07:35:40Z</time>
      </trkpt>
      <trkpt lat="44.70891" lon="7.03283">
        <ele>2146.4</ele>
        <time>2026-08-31T07:35:45Z</time>
      </trkpt>
      <trkpt lat="44.70891" lon="7.03283">
        <ele>2146.4</ele>
        <time>2026-08-31T07:35:50Z</time>
      </trkpt>
      <trkpt lat="44.70891" lon="7.03283">
        <ele>2146.4</ele>
        <time>2026-08-31T07:35:56Z</time>
      </trkpt>
      <trkpt lat="44.70891" lon="7.03283">
        <ele>2146.4</ele>
        <time>2026-08-31T07:36:01Z</time>
      </trkpt>
      <trkpt lat="44.70891" lon="7.03283">
        <ele>2146.4</ele>
        <time>2026-08-31T07:36:06Z</time>
      </trkpt>
      <trkpt lat="44.70891" lon="7.03283">
        <ele>2146.4</ele>
        <time>2026-08-31T07:36:12Z</time>
      </trkpt>
      <trkpt lat="44.70891" lon="7.03283">
        <ele>2146.4</ele>
        <time>2026-08-31T07:36:17Z</time>
      </trkpt>
      <trkpt lat="44.70891" lon="7.03283">
        <ele>2146.4</ele>
        <time>2026-08-31T07:36:22Z</time>
      </trkpt>
      <trkpt lat="44.70891" lon="7.03283">
        <ele>2146.4</ele>
        <time>2026-08-31T07:36:28Z</time>
      </trkpt>
      <trkpt lat="44.70891" lon="7.03283">
        <ele>2146.4</ele>
        <time>2026-08-31T07:36:33Z</time>
      </trkpt>
      <trkpt lat="44.70891" lon="7.03283">
        <ele>2146.4</ele>
        <time>2026-08-31T07:36:38Z</time>
      </trkpt>
      <trkpt lat="44.70891" lon="7.03283">
        <ele>2146.4</ele>
        <time>2026-08-31T07:36:44Z</time>
      </trkpt>
      <trkpt lat="44.70891" lon="7.03283">
        <ele>2146.4</ele>
        <time>2026-08-31T07:36:49Z</time>
      </trkpt>
      <trkpt lat="44.70891" lon="7.03283">
        <ele>2146.4</ele>
        <time>2026-08-31T07:36:54Z</time>
      </trkpt>
      <trkpt lat="44.70891" lon="7.03283">
        <ele>2146.4</ele>
        <time>2026-08-31T07:37:00Z</time>
      </trkpt>
      <trkpt lat="44.70891" lon="7.03283">
        <ele>2146.4</ele>
        <time>2026-08-31T07:37:05Z</time>
      </trkpt>
      <trkpt lat="44.70891" lon="7.03283">
        <ele>2146.4</ele>
        <time>2026-08-31T07:37:10Z</time>
      </trkpt>
      <trkpt lat="44.70891" lon="7.03283">
        <ele>2146.4</ele>
        <time>2026-08-31T07:37:16Z</time>
      </trkpt>
      <trkpt lat="44.70891" lon="7.03283">
        <ele>2146.4</ele>
        <time>2026-08-31T07:37:21Z</time>
      </trkpt>
      <trkpt lat="44.70891" lon="7.03283">
        <ele>2146.4</ele>
        <time>2026-08-31T07:37:26Z</time>
      </trkpt>
      <trkpt lat="44.70894" lon="7.03297">
        <ele>2148.5</ele>
        <time>2026-08-31T07:37:32Z</time>
      </trkpt>
      <trkpt lat="44.70897" lon="7.03297">
        <ele>2148</ele>
        <time>2026-08-31T07:37:37Z</time>
      </trkpt>
      <trkpt lat="44.70898" lon="7.033">
        <ele>2148.5</ele>
        <time>2026-08-31T07:37:42Z</time>
      </trkpt>
      <trkpt lat="44.70897" lon="7.03306">
        <ele>2149.9</ele>
        <time>2026-08-31T07:37:48Z</time>
      </trkpt>
      <trkpt lat="44.70897" lon="7.03312">
        <ele>2151.1</ele>
        <time>2026-08-31T07:37:53Z</time>
      </trkpt>
      <trkpt lat="44.70896" lon="7.03315">
        <ele>2151.8</ele>
        <time>2026-08-31T07:37:58Z</time>
      </trkpt>
      <trkpt lat="44.70895" lon="7.03318">
        <ele>2152.5</ele>
        <time>2026-08-31T07:38:04Z</time>
      </trkpt>
      <trkpt lat="44.70896" lon="7.0332">
        <ele>2152.8</ele>
        <time>2026-08-31T07:38:09Z</time>
      </trkpt>
      <trkpt lat="44.70896" lon="7.03323">
        <ele>2153.4</ele>
        <time>2026-08-31T07:38:14Z</time>
      </trkpt>
      <trkpt lat="44.70896" lon="7.03326">
        <ele>2154</ele>
        <time>2026-08-31T07:38:20Z</time>
      </trkpt>
      <trkpt lat="44.70896" lon="7.03326">
        <ele>2154</ele>
        <time>2026-08-31T07:38:25Z</time>
      </trkpt>
      <trkpt lat="44.70898" lon="7.03326">
        <ele>2153.9</ele>
        <time>2026-08-31T07:38:30Z</time>
      </trkpt>
      <trkpt lat="44.70898" lon="7.03326">
        <ele>2153.9</ele>
        <time>2026-08-31T07:38:36Z</time>
      </trkpt>
      <trkpt lat="44.70898" lon="7.03326">
        <ele>2153.9</ele>
        <time>2026-08-31T07:38:41Z</time>
      </trkpt>
      <trkpt lat="44.70898" lon="7.03326">
        <ele>2153.9</ele>
        <time>2026-08-31T07:38:46Z</time>
      </trkpt>
      <trkpt lat="44.70898" lon="7.03326">
        <ele>2153.9</ele>
        <time>2026-08-31T07:38:52Z</time>
      </trkpt>
      <trkpt lat="44.70898" lon="7.03326">
        <ele>2153.9</ele>
        <time>2026-08-31T07:38:57Z</time>
      </trkpt>
      <trkpt lat="44.70898" lon="7.03326">
        <ele>2153.9</ele>
        <time>2026-08-31T07:39:02Z</time>
      </trkpt>
      <trkpt lat="44.70898" lon="7.03326">
        <ele>2153.9</ele>
        <time>2026-08-31T07:39:08Z</time>
      </trkpt>
      <trkpt lat="44.709" lon="7.03338">
        <ele>2156.3</ele>
        <time>2026-08-31T07:39:13Z</time>
      </trkpt>
      <trkpt lat="44.70901" lon="7.03343">
        <ele>2157.2</ele>
        <time>2026-08-31T07:39:18Z</time>
      </trkpt>
      <trkpt lat="44.70903" lon="7.0335">
        <ele>2158.5</ele>
        <time>2026-08-31T07:39:24Z</time>
      </trkpt>
      <trkpt lat="44.70903" lon="7.03357">
        <ele>2159.9</ele>
        <time>2026-08-31T07:39:29Z</time>
      </trkpt>
      <trkpt lat="44.70905" lon="7.03362">
        <ele>2161</ele>
        <time>2026-08-31T07:39:34Z</time>
      </trkpt>
      <trkpt lat="44.70904" lon="7.03367">
        <ele>2161.9</ele>
        <time>2026-08-31T07:39:40Z</time>
      </trkpt>
      <trkpt lat="44.70905" lon="7.03369">
        <ele>2162.4</ele>
        <time>2026-08-31T07:39:45Z</time>
      </trkpt>
      <trkpt lat="44.70905" lon="7.03369">
        <ele>2162.4</ele>
        <time>2026-08-31T07:39:50Z</time>
      </trkpt>
      <trkpt lat="44.70905" lon="7.03369">
        <ele>2162.4</ele>
        <time>2026-08-31T07:39:56Z</time>
      </trkpt>
      <trkpt lat="44.70905" lon="7.03369">
        <ele>2162.4</ele>
        <time>2026-08-31T07:40:01Z</time>
      </trkpt>
      <trkpt lat="44.70905" lon="7.03369">
        <ele>2162.4</ele>
        <time>2026-08-31T07:40:06Z</time>
      </trkpt>
      <trkpt lat="44.70905" lon="7.03369">
        <ele>2162.4</ele>
        <time>2026-08-31T07:40:12Z</time>
      </trkpt>
      <trkpt lat="44.70903" lon="7.0338">
        <ele>2164.3</ele>
        <time>2026-08-31T07:40:17Z</time>
      </trkpt>
      <trkpt lat="44.70904" lon="7.03387">
        <ele>2165.8</ele>
        <time>2026-08-31T07:40:22Z</time>
      </trkpt>
      <trkpt lat="44.70904" lon="7.03394">
        <ele>2167.2</ele>
        <time>2026-08-31T07:40:28Z</time>
      </trkpt>
      <trkpt lat="44.70904" lon="7.03398">
        <ele>2168</ele>
        <time>2026-08-31T07:40:33Z</time>
      </trkpt>
      <trkpt lat="44.70904" lon="7.03398">
        <ele>2168</ele>
        <time>2026-08-31T07:40:38Z</time>
      </trkpt>
      <trkpt lat="44.70904" lon="7.03398">
        <ele>2168</ele>
        <time>2026-08-31T07:40:44Z</time>
      </trkpt>
      <trkpt lat="44.70906" lon="7.03406">
        <ele>2170</ele>
        <time>2026-08-31T07:40:49Z</time>
      </trkpt>
      <trkpt lat="44.70906" lon="7.03414">
        <ele>2171.6</ele>
        <time>2026-08-31T07:40:54Z</time>
      </trkpt>
      <trkpt lat="44.70905" lon="7.03423">
        <ele>2172.8</ele>
        <time>2026-08-31T07:41:00Z</time>
      </trkpt>
      <trkpt lat="44.70904" lon="7.0343">
        <ele>2173.4</ele>
        <time>2026-08-31T07:41:05Z</time>
      </trkpt>
      <trkpt lat="44.70904" lon="7.03436">
        <ele>2174.2</ele>
        <time>2026-08-31T07:41:10Z</time>
      </trkpt>
      <trkpt lat="44.70905" lon="7.03442">
        <ele>2175.4</ele>
        <time>2026-08-31T07:41:16Z</time>
      </trkpt>
      <trkpt lat="44.70904" lon="7.03443">
        <ele>2175.2</ele>
        <time>2026-08-31T07:41:21Z</time>
      </trkpt>
      <trkpt lat="44.70904" lon="7.03444">
        <ele>2175.3</ele>
        <time>2026-08-31T07:41:26Z</time>
      </trkpt>
      <trkpt lat="44.70904" lon="7.03444">
        <ele>2175.3</ele>
        <time>2026-08-31T07:41:32Z</time>
      </trkpt>
      <trkpt lat="44.70904" lon="7.03444">
        <ele>2175.3</ele>
        <time>2026-08-31T07:41:37Z</time>
      </trkpt>
      <trkpt lat="44.70902" lon="7.0345">
        <ele>2175.5</ele>
        <time>2026-08-31T07:41:42Z</time>
      </trkpt>
      <trkpt lat="44.709" lon="7.03459">
        <ele>2176</ele>
        <time>2026-08-31T07:41:48Z</time>
      </trkpt>
      <trkpt lat="44.709" lon="7.03466">
        <ele>2176.9</ele>
        <time>2026-08-31T07:41:53Z</time>
      </trkpt>
      <trkpt lat="44.70899" lon="7.03474">
        <ele>2177.5</ele>
        <time>2026-08-31T07:41:58Z</time>
      </trkpt>
      <trkpt lat="44.70898" lon="7.03482">
        <ele>2178.2</ele>
        <time>2026-08-31T07:42:04Z</time>
      </trkpt>
      <trkpt lat="44.70894" lon="7.03486">
        <ele>2177.1</ele>
        <time>2026-08-31T07:42:09Z</time>
      </trkpt>
      <trkpt lat="44.70891" lon="7.03489">
        <ele>2176.3</ele>
        <time>2026-08-31T07:42:14Z</time>
      </trkpt>
      <trkpt lat="44.70889" lon="7.03494">
        <ele>2176.1</ele>
        <time>2026-08-31T07:42:20Z</time>
      </trkpt>
      <trkpt lat="44.70887" lon="7.035">
        <ele>2175.9</ele>
        <time>2026-08-31T07:42:25Z</time>
      </trkpt>
      <trkpt lat="44.70883" lon="7.03503">
        <ele>2174.6</ele>
        <time>2026-08-31T07:42:30Z</time>
      </trkpt>
      <trkpt lat="44.70879" lon="7.03509">
        <ele>2173.7</ele>
        <time>2026-08-31T07:42:36Z</time>
      </trkpt>
      <trkpt lat="44.70879" lon="7.03514">
        <ele>2174.2</ele>
        <time>2026-08-31T07:42:41Z</time>
      </trkpt>
      <trkpt lat="44.70877" lon="7.03517">
        <ele>2173.8</ele>
        <time>2026-08-31T07:42:46Z</time>
      </trkpt>
      <trkpt lat="44.70877" lon="7.03521">
        <ele>2174.2</ele>
        <time>2026-08-31T07:42:52Z</time>
      </trkpt>
      <trkpt lat="44.70878" lon="7.03522">
        <ele>2174.7</ele>
        <time>2026-08-31T07:42:57Z</time>
      </trkpt>
      <trkpt lat="44.70878" lon="7.03522">
        <ele>2174.7</ele>
        <time>2026-08-31T07:43:02Z</time>
      </trkpt>
      <trkpt lat="44.70877" lon="7.03527">
        <ele>2174.9</ele>
        <time>2026-08-31T07:43:08Z</time>
      </trkpt>
      <trkpt lat="44.70876" lon="7.03531">
        <ele>2174.9</ele>
        <time>2026-08-31T07:43:13Z</time>
      </trkpt>
      <trkpt lat="44.70877" lon="7.03535">
        <ele>2175.8</ele>
        <time>2026-08-31T07:43:18Z</time>
      </trkpt>
      <trkpt lat="44.70878" lon="7.03541">
        <ele>2176.9</ele>
        <time>2026-08-31T07:43:24Z</time>
      </trkpt>
      <trkpt lat="44.70879" lon="7.03546">
        <ele>2177.9</ele>
        <time>2026-08-31T07:43:29Z</time>
      </trkpt>
      <trkpt lat="44.70879" lon="7.03549">
        <ele>2178.2</ele>
        <time>2026-08-31T07:43:34Z</time>
      </trkpt>
      <trkpt lat="44.7088" lon="7.03554">
        <ele>2179.2</ele>
        <time>2026-08-31T07:43:40Z</time>
      </trkpt>
      <trkpt lat="44.70882" lon="7.03555">
        <ele>2180.2</ele>
        <time>2026-08-31T07:43:45Z</time>
      </trkpt>
      <trkpt lat="44.70882" lon="7.03555">
        <ele>2180.2</ele>
        <time>2026-08-31T07:43:50Z</time>
      </trkpt>
      <trkpt lat="44.70882" lon="7.03555">
        <ele>2180.2</ele>
        <time>2026-08-31T07:43:56Z</time>
      </trkpt>
      <trkpt lat="44.70882" lon="7.03555">
        <ele>2180.2</ele>
        <time>2026-08-31T07:44:01Z</time>
      </trkpt>
      <trkpt lat="44.70882" lon="7.03555">
        <ele>2180.2</ele>
        <time>2026-08-31T07:44:06Z</time>
      </trkpt>
      <trkpt lat="44.70882" lon="7.03555">
        <ele>2180.2</ele>
        <time>2026-08-31T07:44:12Z</time>
      </trkpt>
      <trkpt lat="44.70882" lon="7.03555">
        <ele>2180.2</ele>
        <time>2026-08-31T07:44:17Z</time>
      </trkpt>
      <trkpt lat="44.70882" lon="7.03555">
        <ele>2180.2</ele>
        <time>2026-08-31T07:44:22Z</time>
      </trkpt>
      <trkpt lat="44.70882" lon="7.03555">
        <ele>2180.2</ele>
        <time>2026-08-31T07:44:28Z</time>
      </trkpt>
      <trkpt lat="44.70882" lon="7.03555">
        <ele>2180.2</ele>
        <time>2026-08-31T07:44:33Z</time>
      </trkpt>
      <trkpt lat="44.70882" lon="7.03555">
        <ele>2180.2</ele>
        <time>2026-08-31T07:44:38Z</time>
      </trkpt>
      <trkpt lat="44.70882" lon="7.03555">
        <ele>2180.2</ele>
        <time>2026-08-31T07:44:44Z</time>
      </trkpt>
      <trkpt lat="44.70882" lon="7.03555">
        <ele>2180.2</ele>
        <time>2026-08-31T07:44:49Z</time>
      </trkpt>
      <trkpt lat="44.70882" lon="7.03555">
        <ele>2180.2</ele>
        <time>2026-08-31T07:44:54Z</time>
      </trkpt>
      <trkpt lat="44.70882" lon="7.03555">
        <ele>2180.2</ele>
        <time>2026-08-31T07:45:00Z</time>
      </trkpt>
      <trkpt lat="44.70882" lon="7.03555">
        <ele>2180.2</ele>
        <time>2026-08-31T07:45:05Z</time>
      </trkpt>
      <trkpt lat="44.70882" lon="7.03555">
        <ele>2180.2</ele>
        <time>2026-08-31T07:45:10Z</time>
      </trkpt>
      <trkpt lat="44.70882" lon="7.03555">
        <ele>2180.2</ele>
        <time>2026-08-31T07:45:16Z</time>
      </trkpt>
      <trkpt lat="44.70882" lon="7.03555">
        <ele>2180.2</ele>
        <time>2026-08-31T07:45:21Z</time>
      </trkpt>
      <trkpt lat="44.70882" lon="7.03555">
        <ele>2180.2</ele>
        <time>2026-08-31T07:45:26Z</time>
      </trkpt>
      <trkpt lat="44.70882" lon="7.03555">
        <ele>2180.2</ele>
        <time>2026-08-31T07:45:32Z</time>
      </trkpt>
      <trkpt lat="44.70882" lon="7.03555">
        <ele>2180.2</ele>
        <time>2026-08-31T07:45:37Z</time>
      </trkpt>
      <trkpt lat="44.70882" lon="7.03555">
        <ele>2180.2</ele>
        <time>2026-08-31T07:45:42Z</time>
      </trkpt>
      <trkpt lat="44.70882" lon="7.03555">
        <ele>2180.2</ele>
        <time>2026-08-31T07:45:48Z</time>
      </trkpt>
      <trkpt lat="44.70882" lon="7.03555">
        <ele>2180.2</ele>
        <time>2026-08-31T07:45:53Z</time>
      </trkpt>
      <trkpt lat="44.70882" lon="7.03555">
        <ele>2180.2</ele>
        <time>2026-08-31T07:45:58Z</time>
      </trkpt>
      <trkpt lat="44.70882" lon="7.03555">
        <ele>2180.2</ele>
        <time>2026-08-31T07:46:04Z</time>
      </trkpt>
      <trkpt lat="44.70882" lon="7.03555">
        <ele>2180.2</ele>
        <time>2026-08-31T07:46:09Z</time>
      </trkpt>
      <trkpt lat="44.70882" lon="7.03555">
        <ele>2180.2</ele>
        <time>2026-08-31T07:46:14Z</time>
      </trkpt>
      <trkpt lat="44.70882" lon="7.03555">
        <ele>2180.2</ele>
        <time>2026-08-31T07:46:20Z</time>
      </trkpt>
      <trkpt lat="44.70882" lon="7.03555">
        <ele>2180.2</ele>
        <time>2026-08-31T07:46:25Z</time>
      </trkpt>
      <trkpt lat="44.70882" lon="7.03555">
        <ele>2180.2</ele>
        <time>2026-08-31T07:46:30Z</time>
      </trkpt>
      <trkpt lat="44.70882" lon="7.03555">
        <ele>2180.2</ele>
        <time>2026-08-31T07:46:36Z</time>
      </trkpt>
      <trkpt lat="44.70882" lon="7.03555">
        <ele>2180.2</ele>
        <time>2026-08-31T07:46:41Z</time>
      </trkpt>
      <trkpt lat="44.70882" lon="7.03555">
        <ele>2180.2</ele>
        <time>2026-08-31T07:46:46Z</time>
      </trkpt>
      <trkpt lat="44.70882" lon="7.03555">
        <ele>2180.2</ele>
        <time>2026-08-31T07:46:52Z</time>
      </trkpt>
      <trkpt lat="44.70882" lon="7.03555">
        <ele>2180.2</ele>
        <time>2026-08-31T07:46:57Z</time>
      </trkpt>
      <trkpt lat="44.70882" lon="7.03555">
        <ele>2180.2</ele>
        <time>2026-08-31T07:47:02Z</time>
      </trkpt>
      <trkpt lat="44.70882" lon="7.03555">
        <ele>2180.2</ele>
        <time>2026-08-31T07:47:08Z</time>
      </trkpt>
      <trkpt lat="44.70882" lon="7.03555">
        <ele>2180.2</ele>
        <time>2026-08-31T07:47:13Z</time>
      </trkpt>
      <trkpt lat="44.70882" lon="7.03555">
        <ele>2180.2</ele>
        <time>2026-08-31T07:47:18Z</time>
      </trkpt>
      <trkpt lat="44.70882" lon="7.03555">
        <ele>2180.2</ele>
        <time>2026-08-31T07:47:24Z</time>
      </trkpt>
      <trkpt lat="44.70882" lon="7.03555">
        <ele>2180.2</ele>
        <time>2026-08-31T07:47:29Z</time>
      </trkpt>
      <trkpt lat="44.70882" lon="7.03555">
        <ele>2180.2</ele>
        <time>2026-08-31T07:47:34Z</time>
      </trkpt>
      <trkpt lat="44.70882" lon="7.03555">
        <ele>2180.2</ele>
        <time>2026-08-31T07:47:40Z</time>
      </trkpt>
      <trkpt lat="44.70882" lon="7.03555">
        <ele>2180.2</ele>
        <time>2026-08-31T07:47:45Z</time>
      </trkpt>
      <trkpt lat="44.70882" lon="7.03555">
        <ele>2180.2</ele>
        <time>2026-08-31T07:47:50Z</time>
      </trkpt>
      <trkpt lat="44.70882" lon="7.03555">
        <ele>2180.2</ele>
        <time>2026-08-31T07:47:56Z</time>
      </trkpt>
      <trkpt lat="44.70882" lon="7.03555">
        <ele>2180.2</ele>
        <time>2026-08-31T07:48:01Z</time>
      </trkpt>
      <trkpt lat="44.70882" lon="7.03555">
        <ele>2180.2</ele>
        <time>2026-08-31T07:48:06Z</time>
      </trkpt>
      <trkpt lat="44.70882" lon="7.03555">
        <ele>2180.2</ele>
        <time>2026-08-31T07:48:12Z</time>
      </trkpt>
      <trkpt lat="44.70882" lon="7.03555">
        <ele>2180.2</ele>
        <time>2026-08-31T07:48:17Z</time>
      </trkpt>
      <trkpt lat="44.70882" lon="7.03555">
        <ele>2180.2</ele>
        <time>2026-08-31T07:48:22Z</time>
      </trkpt>
      <trkpt lat="44.70882" lon="7.03555">
        <ele>2180.2</ele>
        <time>2026-08-31T07:48:28Z</time>
      </trkpt>
      <trkpt lat="44.70882" lon="7.03555">
        <ele>2180.2</ele>
        <time>2026-08-31T07:48:33Z</time>
      </trkpt>
      <trkpt lat="44.70882" lon="7.0356">
        <ele>2180.8</ele>
        <time>2026-08-31T07:48:38Z</time>
      </trkpt>
      <trkpt lat="44.70882" lon="7.03569">
        <ele>2181.8</ele>
        <time>2026-08-31T07:48:44Z</time>
      </trkpt>
      <trkpt lat="44.70883" lon="7.03575">
        <ele>2182.9</ele>
        <time>2026-08-31T07:48:49Z</time>
      </trkpt>
      <trkpt lat="44.70883" lon="7.03582">
        <ele>2183.7</ele>
        <time>2026-08-31T07:48:54Z</time>
      </trkpt>
      <trkpt lat="44.70881" lon="7.0359">
        <ele>2183.6</ele>
        <time>2026-08-31T07:49:00Z</time>
      </trkpt>
      <trkpt lat="44.7088" lon="7.03594">
        <ele>2183.6</ele>
        <time>2026-08-31T07:49:05Z</time>
      </trkpt>
      <trkpt lat="44.70879" lon="7.03599">
        <ele>2183.6</ele>
        <time>2026-08-31T07:49:10Z</time>
      </trkpt>
      <trkpt lat="44.70878" lon="7.03608">
        <ele>2184</ele>
        <time>2026-08-31T07:49:16Z</time>
      </trkpt>
      <trkpt lat="44.70877" lon="7.03613">
        <ele>2184</ele>
        <time>2026-08-31T07:49:21Z</time>
      </trkpt>
      <trkpt lat="44.70877" lon="7.03618">
        <ele>2184.5</ele>
        <time>2026-08-31T07:49:26Z</time>
      </trkpt>
      <trkpt lat="44.70878" lon="7.03625">
        <ele>2185.5</ele>
        <time>2026-08-31T07:49:32Z</time>
      </trkpt>
      <trkpt lat="44.70877" lon="7.0363">
        <ele>2185.5</ele>
        <time>2026-08-31T07:49:37Z</time>
      </trkpt>
      <trkpt lat="44.70876" lon="7.03635">
        <ele>2185.6</ele>
        <time>2026-08-31T07:49:42Z</time>
      </trkpt>
      <trkpt lat="44.70875" lon="7.03638">
        <ele>2185.4</ele>
        <time>2026-08-31T07:49:48Z</time>
      </trkpt>
      <trkpt lat="44.70876" lon="7.03641">
        <ele>2186.1</ele>
        <time>2026-08-31T07:49:53Z</time>
      </trkpt>
      <trkpt lat="44.70876" lon="7.03643">
        <ele>2186.3</ele>
        <time>2026-08-31T07:49:58Z</time>
      </trkpt>
      <trkpt lat="44.70876" lon="7.03643">
        <ele>2186.3</ele>
        <time>2026-08-31T07:50:04Z</time>
      </trkpt>
      <trkpt lat="44.70876" lon="7.03643">
        <ele>2186.3</ele>
        <time>2026-08-31T07:50:09Z</time>
      </trkpt>
      <trkpt lat="44.70876" lon="7.03643">
        <ele>2186.3</ele>
        <time>2026-08-31T07:50:14Z</time>
      </trkpt>
      <trkpt lat="44.70875" lon="7.0365">
        <ele>2186.5</ele>
        <time>2026-08-31T07:50:20Z</time>
      </trkpt>
      <trkpt lat="44.70874" lon="7.0365">
        <ele>2186.1</ele>
        <time>2026-08-31T07:50:25Z</time>
      </trkpt>
      <trkpt lat="44.70872" lon="7.03655">
        <ele>2185.7</ele>
        <time>2026-08-31T07:50:30Z</time>
      </trkpt>
      <trkpt lat="44.70873" lon="7.03659">
        <ele>2186.5</ele>
        <time>2026-08-31T07:50:36Z</time>
      </trkpt>
      <trkpt lat="44.70874" lon="7.03662">
        <ele>2187.2</ele>
        <time>2026-08-31T07:50:41Z</time>
      </trkpt>
      <trkpt lat="44.70874" lon="7.03666">
        <ele>2187.5</ele>
        <time>2026-08-31T07:50:46Z</time>
      </trkpt>
      <trkpt lat="44.70872" lon="7.03667">
        <ele>2186.8</ele>
        <time>2026-08-31T07:50:52Z</time>
      </trkpt>
      <trkpt lat="44.70872" lon="7.03671">
        <ele>2187.5</ele>
        <time>2026-08-31T07:50:57Z</time>
      </trkpt>
      <trkpt lat="44.70872" lon="7.03675">
        <ele>2188.3</ele>
        <time>2026-08-31T07:51:02Z</time>
      </trkpt>
      <trkpt lat="44.70872" lon="7.03675">
        <ele>2188.3</ele>
        <time>2026-08-31T07:51:08Z</time>
      </trkpt>
      <trkpt lat="44.70872" lon="7.03675">
        <ele>2188.3</ele>
        <time>2026-08-31T07:51:13Z</time>
      </trkpt>
      <trkpt lat="44.70872" lon="7.03675">
        <ele>2188.3</ele>
        <time>2026-08-31T07:51:18Z</time>
      </trkpt>
      <trkpt lat="44.70872" lon="7.03675">
        <ele>2188.3</ele>
        <time>2026-08-31T07:51:24Z</time>
      </trkpt>
      <trkpt lat="44.70872" lon="7.03675">
        <ele>2188.3</ele>
        <time>2026-08-31T07:51:29Z</time>
      </trkpt>
      <trkpt lat="44.70872" lon="7.03675">
        <ele>2188.3</ele>
        <time>2026-08-31T07:51:34Z</time>
      </trkpt>
      <trkpt lat="44.70872" lon="7.03675">
        <ele>2188.3</ele>
        <time>2026-08-31T07:51:40Z</time>
      </trkpt>
      <trkpt lat="44.7087" lon="7.03687">
        <ele>2189.6</ele>
        <time>2026-08-31T07:51:45Z</time>
      </trkpt>
      <trkpt lat="44.70869" lon="7.03692">
        <ele>2190</ele>
        <time>2026-08-31T07:51:50Z</time>
      </trkpt>
      <trkpt lat="44.70868" lon="7.03696">
        <ele>2190.3</ele>
        <time>2026-08-31T07:51:56Z</time>
      </trkpt>
      <trkpt lat="44.70868" lon="7.037">
        <ele>2191</ele>
        <time>2026-08-31T07:52:01Z</time>
      </trkpt>
      <trkpt lat="44.70869" lon="7.03702">
        <ele>2191.8</ele>
        <time>2026-08-31T07:52:06Z</time>
      </trkpt>
      <trkpt lat="44.70871" lon="7.03701">
        <ele>2192.5</ele>
        <time>2026-08-31T07:52:12Z</time>
      </trkpt>
      <trkpt lat="44.70876" lon="7.03695">
        <ele>2193.5</ele>
        <time>2026-08-31T07:52:17Z</time>
      </trkpt>
      <trkpt lat="44.70877" lon="7.03693">
        <ele>2193.6</ele>
        <time>2026-08-31T07:52:22Z</time>
      </trkpt>
      <trkpt lat="44.70877" lon="7.03693">
        <ele>2193.6</ele>
        <time>2026-08-31T07:52:28Z</time>
      </trkpt>
      <trkpt lat="44.7088" lon="7.03689">
        <ele>2194.1</ele>
        <time>2026-08-31T07:52:33Z</time>
      </trkpt>
      <trkpt lat="44.70882" lon="7.03687">
        <ele>2194.6</ele>
        <time>2026-08-31T07:52:38Z</time>
      </trkpt>
      <trkpt lat="44.70885" lon="7.03684">
        <ele>2195.3</ele>
        <time>2026-08-31T07:52:44Z</time>
      </trkpt>
      <trkpt lat="44.70888" lon="7.03679">
        <ele>2195.6</ele>
        <time>2026-08-31T07:52:49Z</time>
      </trkpt>
      <trkpt lat="44.70891" lon="7.03678">
        <ele>2196.7</ele>
        <time>2026-08-31T07:52:54Z</time>
      </trkpt>
      <trkpt lat="44.70892" lon="7.03677">
        <ele>2196.9</ele>
        <time>2026-08-31T07:53:00Z</time>
      </trkpt>
      <trkpt lat="44.70892" lon="7.03678">
        <ele>2197.1</ele>
        <time>2026-08-31T07:53:05Z</time>
      </trkpt>
      <trkpt lat="44.70891" lon="7.03681">
        <ele>2197.2</ele>
        <time>2026-08-31T07:53:10Z</time>
      </trkpt>
      <trkpt lat="44.70891" lon="7.03686">
        <ele>2198.2</ele>
        <time>2026-08-31T07:53:16Z</time>
      </trkpt>
      <trkpt lat="44.70891" lon="7.0369">
        <ele>2198.9</ele>
        <time>2026-08-31T07:53:21Z</time>
      </trkpt>
      <trkpt lat="44.7089" lon="7.03694">
        <ele>2199.3</ele>
        <time>2026-08-31T07:53:26Z</time>
      </trkpt>
      <trkpt lat="44.70888" lon="7.03699">
        <ele>2199.4</ele>
        <time>2026-08-31T07:53:32Z</time>
      </trkpt>
      <trkpt lat="44.70887" lon="7.03704">
        <ele>2199.9</ele>
        <time>2026-08-31T07:53:37Z</time>
      </trkpt>
      <trkpt lat="44.70885" lon="7.03707">
        <ele>2199.6</ele>
        <time>2026-08-31T07:53:42Z</time>
      </trkpt>
      <trkpt lat="44.70885" lon="7.03712">
        <ele>2200.5</ele>
        <time>2026-08-31T07:53:48Z</time>
      </trkpt>
      <trkpt lat="44.70883" lon="7.03715">
        <ele>2200.2</ele>
        <time>2026-08-31T07:53:53Z</time>
      </trkpt>
      <trkpt lat="44.70881" lon="7.03718">
        <ele>2199.9</ele>
        <time>2026-08-31T07:53:58Z</time>
      </trkpt>
      <trkpt lat="44.70878" lon="7.03721">
        <ele>2199.1</ele>
        <time>2026-08-31T07:54:04Z</time>
      </trkpt>
      <trkpt lat="44.70877" lon="7.03722">
        <ele>2198.8</ele>
        <time>2026-08-31T07:54:09Z</time>
      </trkpt>
      <trkpt lat="44.70876" lon="7.03724">
        <ele>2198.8</ele>
        <time>2026-08-31T07:54:14Z</time>
      </trkpt>
      <trkpt lat="44.70876" lon="7.03725">
        <ele>2198.9</ele>
        <time>2026-08-31T07:54:20Z</time>
      </trkpt>
      <trkpt lat="44.70876" lon="7.03725">
        <ele>2198.9</ele>
        <time>2026-08-31T07:54:25Z</time>
      </trkpt>
      <trkpt lat="44.70874" lon="7.03731">
        <ele>2199.1</ele>
        <time>2026-08-31T07:54:30Z</time>
      </trkpt>
      <trkpt lat="44.70873" lon="7.03735">
        <ele>2199.4</ele>
        <time>2026-08-31T07:54:36Z</time>
      </trkpt>
      <trkpt lat="44.70872" lon="7.03738">
        <ele>2199.5</ele>
        <time>2026-08-31T07:54:41Z</time>
      </trkpt>
      <trkpt lat="44.70871" lon="7.03739">
        <ele>2199.2</ele>
        <time>2026-08-31T07:54:46Z</time>
      </trkpt>
      <trkpt lat="44.7087" lon="7.0374">
        <ele>2198.9</ele>
        <time>2026-08-31T07:54:52Z</time>
      </trkpt>
      <trkpt lat="44.7087" lon="7.0374">
        <ele>2198.9</ele>
        <time>2026-08-31T07:54:57Z</time>
      </trkpt>
      <trkpt lat="44.70869" lon="7.03746">
        <ele>2199.6</ele>
        <time>2026-08-31T07:55:02Z</time>
      </trkpt>
      <trkpt lat="44.70869" lon="7.03746">
        <ele>2199.6</ele>
        <time>2026-08-31T07:55:08Z</time>
      </trkpt>
      <trkpt lat="44.70869" lon="7.03746">
        <ele>2199.6</ele>
        <time>2026-08-31T07:55:13Z</time>
      </trkpt>
      <trkpt lat="44.70869" lon="7.03746">
        <ele>2199.6</ele>
        <time>2026-08-31T07:55:18Z</time>
      </trkpt>
      <trkpt lat="44.70869" lon="7.03746">
        <ele>2199.6</ele>
        <time>2026-08-31T07:55:24Z</time>
      </trkpt>
      <trkpt lat="44.70869" lon="7.03746">
        <ele>2199.6</ele>
        <time>2026-08-31T07:55:29Z</time>
      </trkpt>
      <trkpt lat="44.70863" lon="7.03759">
        <ele>2200.9</ele>
        <time>2026-08-31T07:55:34Z</time>
      </trkpt>
      <trkpt lat="44.70861" lon="7.03762">
        <ele>2201.1</ele>
        <time>2026-08-31T07:55:40Z</time>
      </trkpt>
      <trkpt lat="44.70861" lon="7.03762">
        <ele>2201.1</ele>
        <time>2026-08-31T07:55:45Z</time>
      </trkpt>
      <trkpt lat="44.70861" lon="7.03762">
        <ele>2201.1</ele>
        <time>2026-08-31T07:55:50Z</time>
      </trkpt>
      <trkpt lat="44.70861" lon="7.03762">
        <ele>2201.1</ele>
        <time>2026-08-31T07:55:56Z</time>
      </trkpt>
      <trkpt lat="44.70861" lon="7.03762">
        <ele>2201.1</ele>
        <time>2026-08-31T07:56:01Z</time>
      </trkpt>
      <trkpt lat="44.70861" lon="7.03762">
        <ele>2201.1</ele>
        <time>2026-08-31T07:56:06Z</time>
      </trkpt>
      <trkpt lat="44.70861" lon="7.03762">
        <ele>2201.1</ele>
        <time>2026-08-31T07:56:12Z</time>
      </trkpt>
      <trkpt lat="44.70861" lon="7.03762">
        <ele>2201.1</ele>
        <time>2026-08-31T07:56:17Z</time>
      </trkpt>
      <trkpt lat="44.70861" lon="7.03762">
        <ele>2201.1</ele>
        <time>2026-08-31T07:56:22Z</time>
      </trkpt>
      <trkpt lat="44.70861" lon="7.03762">
        <ele>2201.1</ele>
        <time>2026-08-31T07:56:28Z</time>
      </trkpt>
      <trkpt lat="44.70861" lon="7.03762">
        <ele>2201.1</ele>
        <time>2026-08-31T07:56:33Z</time>
      </trkpt>
      <trkpt lat="44.70861" lon="7.03762">
        <ele>2201.1</ele>
        <time>2026-08-31T07:56:38Z</time>
      </trkpt>
      <trkpt lat="44.70861" lon="7.03762">
        <ele>2201.1</ele>
        <time>2026-08-31T07:56:44Z</time>
      </trkpt>
      <trkpt lat="44.70861" lon="7.03762">
        <ele>2201.1</ele>
        <time>2026-08-31T07:56:49Z</time>
      </trkpt>
      <trkpt lat="44.70861" lon="7.03762">
        <ele>2201.1</ele>
        <time>2026-08-31T07:56:54Z</time>
      </trkpt>
      <trkpt lat="44.70861" lon="7.03762">
        <ele>2201.1</ele>
        <time>2026-08-31T07:57:00Z</time>
      </trkpt>
      <trkpt lat="44.70861" lon="7.03762">
        <ele>2201.1</ele>
        <time>2026-08-31T07:57:05Z</time>
      </trkpt>
      <trkpt lat="44.70852" lon="7.03773">
        <ele>2201.2</ele>
        <time>2026-08-31T07:57:10Z</time>
      </trkpt>
      <trkpt lat="44.70852" lon="7.03773">
        <ele>2201.2</ele>
        <time>2026-08-31T07:57:16Z</time>
      </trkpt>
      <trkpt lat="44.70851" lon="7.03777">
        <ele>2202.3</ele>
        <time>2026-08-31T07:57:21Z</time>
      </trkpt>
      <trkpt lat="44.70855" lon="7.03782">
        <ele>2206</ele>
        <time>2026-08-31T07:57:26Z</time>
      </trkpt>
      <trkpt lat="44.70853" lon="7.03792">
        <ele>2208.9</ele>
        <time>2026-08-31T07:57:32Z</time>
      </trkpt>
      <trkpt lat="44.70849" lon="7.038">
        <ele>2210.3</ele>
        <time>2026-08-31T07:57:37Z</time>
      </trkpt>
      <trkpt lat="44.70847" lon="7.03806">
        <ele>2211.7</ele>
        <time>2026-08-31T07:57:42Z</time>
      </trkpt>
      <trkpt lat="44.70843" lon="7.03818">
        <ele>2214.8</ele>
        <time>2026-08-31T07:57:48Z</time>
      </trkpt>
      <trkpt lat="44.70843" lon="7.03827">
        <ele>2218.3</ele>
        <time>2026-08-31T07:57:53Z</time>
      </trkpt>
      <trkpt lat="44.70844" lon="7.03835">
        <ele>2221.6</ele>
        <time>2026-08-31T07:57:58Z</time>
      </trkpt>
      <trkpt lat="44.70841" lon="7.03841">
        <ele>2222.4</ele>
        <time>2026-08-31T07:58:04Z</time>
      </trkpt>
      <trkpt lat="44.70837" lon="7.03846">
        <ele>2222.5</ele>
        <time>2026-08-31T07:58:09Z</time>
      </trkpt>
      <trkpt lat="44.70834" lon="7.03853">
        <ele>2223.6</ele>
        <time>2026-08-31T07:58:14Z</time>
      </trkpt>
      <trkpt lat="44.70833" lon="7.03861">
        <ele>2225.8</ele>
        <time>2026-08-31T07:58:20Z</time>
      </trkpt>
      <trkpt lat="44.7083" lon="7.0387">
        <ele>2227.7</ele>
        <time>2026-08-31T07:58:25Z</time>
      </trkpt>
      <trkpt lat="44.70825" lon="7.03876">
        <ele>2227.9</ele>
        <time>2026-08-31T07:58:30Z</time>
      </trkpt>
      <trkpt lat="44.70821" lon="7.03882">
        <ele>2228.5</ele>
        <time>2026-08-31T07:58:36Z</time>
      </trkpt>
      <trkpt lat="44.70817" lon="7.03887">
        <ele>2228.8</ele>
        <time>2026-08-31T07:58:41Z</time>
      </trkpt>
      <trkpt lat="44.70813" lon="7.03893">
        <ele>2229.5</ele>
        <time>2026-08-31T07:58:46Z</time>
      </trkpt>
      <trkpt lat="44.70808" lon="7.03897">
        <ele>2229.2</ele>
        <time>2026-08-31T07:58:52Z</time>
      </trkpt>
      <trkpt lat="44.70806" lon="7.039">
        <ele>2229.6</ele>
        <time>2026-08-31T07:58:57Z</time>
      </trkpt>
      <trkpt lat="44.70804" lon="7.03903">
        <ele>2230</ele>
        <time>2026-08-31T07:59:02Z</time>
      </trkpt>
      <trkpt lat="44.708" lon="7.03908">
        <ele>2230.5</ele>
        <time>2026-08-31T07:59:08Z</time>
      </trkpt>
      <trkpt lat="44.70799" lon="7.03909">
        <ele>2230.5</ele>
        <time>2026-08-31T07:59:13Z</time>
      </trkpt>
      <trkpt lat="44.70799" lon="7.03909">
        <ele>2230.5</ele>
        <time>2026-08-31T07:59:18Z</time>
      </trkpt>
      <trkpt lat="44.70796" lon="7.03916">
        <ele>2232.1</ele>
        <time>2026-08-31T07:59:24Z</time>
      </trkpt>
      <trkpt lat="44.70794" lon="7.03921">
        <ele>2232.8</ele>
        <time>2026-08-31T07:59:29Z</time>
      </trkpt>
      <trkpt lat="44.70794" lon="7.03925">
        <ele>2233.8</ele>
        <time>2026-08-31T07:59:34Z</time>
      </trkpt>
      <trkpt lat="44.70793" lon="7.03928">
        <ele>2234.2</ele>
        <time>2026-08-31T07:59:40Z</time>
      </trkpt>
      <trkpt lat="44.70791" lon="7.03931">
        <ele>2234.3</ele>
        <time>2026-08-31T07:59:45Z</time>
      </trkpt>
      <trkpt lat="44.7079" lon="7.03936">
        <ele>2235.2</ele>
        <time>2026-08-31T07:59:50Z</time>
      </trkpt>
      <trkpt lat="44.70789" lon="7.0394">
        <ele>2235.9</ele>
        <time>2026-08-31T07:59:56Z</time>
      </trkpt>
      <trkpt lat="44.70788" lon="7.03942">
        <ele>2236</ele>
        <time>2026-08-31T08:00:01Z</time>
      </trkpt>
      <trkpt lat="44.70787" lon="7.03947">
        <ele>2236.9</ele>
        <time>2026-08-31T08:00:06Z</time>
      </trkpt>
      <trkpt lat="44.70785" lon="7.03951">
        <ele>2237.3</ele>
        <time>2026-08-31T08:00:12Z</time>
      </trkpt>
      <trkpt lat="44.70783" lon="7.03954">
        <ele>2237.3</ele>
        <time>2026-08-31T08:00:17Z</time>
      </trkpt>
      <trkpt lat="44.70781" lon="7.03956">
        <ele>2237.2</ele>
        <time>2026-08-31T08:00:22Z</time>
      </trkpt>
      <trkpt lat="44.70778" lon="7.03957">
        <ele>2236.4</ele>
        <time>2026-08-31T08:00:28Z</time>
      </trkpt>
      <trkpt lat="44.70776" lon="7.03959">
        <ele>2236.2</ele>
        <time>2026-08-31T08:00:33Z</time>
      </trkpt>
      <trkpt lat="44.70774" lon="7.03962">
        <ele>2236.3</ele>
        <time>2026-08-31T08:00:38Z</time>
      </trkpt>
      <trkpt lat="44.70774" lon="7.03962">
        <ele>2236.3</ele>
        <time>2026-08-31T08:00:44Z</time>
      </trkpt>
      <trkpt lat="44.70774" lon="7.03962">
        <ele>2236.3</ele>
        <time>2026-08-31T08:00:49Z</time>
      </trkpt>
      <trkpt lat="44.70774" lon="7.03965">
        <ele>2237</ele>
        <time>2026-08-31T08:00:54Z</time>
      </trkpt>
      <trkpt lat="44.70774" lon="7.0397">
        <ele>2238.2</ele>
        <time>2026-08-31T08:01:00Z</time>
      </trkpt>
      <trkpt lat="44.70774" lon="7.03973">
        <ele>2238.9</ele>
        <time>2026-08-31T08:01:05Z</time>
      </trkpt>
      <trkpt lat="44.70771" lon="7.03976">
        <ele>2238.6</ele>
        <time>2026-08-31T08:01:10Z</time>
      </trkpt>
      <trkpt lat="44.70768" lon="7.0398">
        <ele>2238.5</ele>
        <time>2026-08-31T08:01:16Z</time>
      </trkpt>
      <trkpt lat="44.70767" lon="7.03982">
        <ele>2238.7</ele>
        <time>2026-08-31T08:01:21Z</time>
      </trkpt>
      <trkpt lat="44.70767" lon="7.03986">
        <ele>2239.6</ele>
        <time>2026-08-31T08:01:26Z</time>
      </trkpt>
      <trkpt lat="44.70767" lon="7.0399">
        <ele>2240.6</ele>
        <time>2026-08-31T08:01:32Z</time>
      </trkpt>
      <trkpt lat="44.70766" lon="7.03994">
        <ele>2241.2</ele>
        <time>2026-08-31T08:01:37Z</time>
      </trkpt>
      <trkpt lat="44.70765" lon="7.03998">
        <ele>2241.8</ele>
        <time>2026-08-31T08:01:42Z</time>
      </trkpt>
      <trkpt lat="44.70763" lon="7.04003">
        <ele>2242.1</ele>
        <time>2026-08-31T08:01:48Z</time>
      </trkpt>
      <trkpt lat="44.70762" lon="7.04008">
        <ele>2242.6</ele>
        <time>2026-08-31T08:01:53Z</time>
      </trkpt>
      <trkpt lat="44.70762" lon="7.04011">
        <ele>2243.2</ele>
        <time>2026-08-31T08:01:58Z</time>
      </trkpt>
      <trkpt lat="44.7076" lon="7.04016">
        <ele>2243.4</ele>
        <time>2026-08-31T08:02:04Z</time>
      </trkpt>
      <trkpt lat="44.7076" lon="7.0402">
        <ele>2244.1</ele>
        <time>2026-08-31T08:02:09Z</time>
      </trkpt>
      <trkpt lat="44.70761" lon="7.04022">
        <ele>2244.9</ele>
        <time>2026-08-31T08:02:14Z</time>
      </trkpt>
      <trkpt lat="44.70761" lon="7.04022">
        <ele>2244.9</ele>
        <time>2026-08-31T08:02:20Z</time>
      </trkpt>
      <trkpt lat="44.70761" lon="7.04022">
        <ele>2244.9</ele>
        <time>2026-08-31T08:02:25Z</time>
      </trkpt>
      <trkpt lat="44.70761" lon="7.04022">
        <ele>2244.9</ele>
        <time>2026-08-31T08:02:30Z</time>
      </trkpt>
      <trkpt lat="44.70762" lon="7.04024">
        <ele>2245.6</ele>
        <time>2026-08-31T08:02:36Z</time>
      </trkpt>
      <trkpt lat="44.70762" lon="7.04024">
        <ele>2245.6</ele>
        <time>2026-08-31T08:02:41Z</time>
      </trkpt>
      <trkpt lat="44.70766" lon="7.0403">
        <ele>2248.1</ele>
        <time>2026-08-31T08:02:46Z</time>
      </trkpt>
      <trkpt lat="44.70768" lon="7.04035">
        <ele>2249.7</ele>
        <time>2026-08-31T08:02:52Z</time>
      </trkpt>
      <trkpt lat="44.70771" lon="7.04038">
        <ele>2251.4</ele>
        <time>2026-08-31T08:02:57Z</time>
      </trkpt>
      <trkpt lat="44.70774" lon="7.0404">
        <ele>2252.8</ele>
        <time>2026-08-31T08:03:02Z</time>
      </trkpt>
      <trkpt lat="44.70778" lon="7.0404">
        <ele>2254.3</ele>
        <time>2026-08-31T08:03:08Z</time>
      </trkpt>
      <trkpt lat="44.7078" lon="7.04042">
        <ele>2255.4</ele>
        <time>2026-08-31T08:03:13Z</time>
      </trkpt>
      <trkpt lat="44.70783" lon="7.04042">
        <ele>2256.4</ele>
        <time>2026-08-31T08:03:18Z</time>
      </trkpt>
      <trkpt lat="44.70785" lon="7.04044">
        <ele>2257.5</ele>
        <time>2026-08-31T08:03:24Z</time>
      </trkpt>
      <trkpt lat="44.70787" lon="7.04046">
        <ele>2258.6</ele>
        <time>2026-08-31T08:03:29Z</time>
      </trkpt>
      <trkpt lat="44.70788" lon="7.04049">
        <ele>2259.6</ele>
        <time>2026-08-31T08:03:34Z</time>
      </trkpt>
      <trkpt lat="44.70788" lon="7.04049">
        <ele>2259.6</ele>
        <time>2026-08-31T08:03:40Z</time>
      </trkpt>
      <trkpt lat="44.70788" lon="7.04049">
        <ele>2259.6</ele>
        <time>2026-08-31T08:03:45Z</time>
      </trkpt>
      <trkpt lat="44.70787" lon="7.04052">
        <ele>2259.8</ele>
        <time>2026-08-31T08:03:50Z</time>
      </trkpt>
      <trkpt lat="44.70787" lon="7.04056">
        <ele>2260.6</ele>
        <time>2026-08-31T08:03:56Z</time>
      </trkpt>
      <trkpt lat="44.70787" lon="7.04057">
        <ele>2260.7</ele>
        <time>2026-08-31T08:04:01Z</time>
      </trkpt>
      <trkpt lat="44.70787" lon="7.04057">
        <ele>2260.7</ele>
        <time>2026-08-31T08:04:06Z</time>
      </trkpt>
      <trkpt lat="44.70789" lon="7.04062">
        <ele>2262.4</ele>
        <time>2026-08-31T08:04:12Z</time>
      </trkpt>
      <trkpt lat="44.70788" lon="7.04066">
        <ele>2262.8</ele>
        <time>2026-08-31T08:04:17Z</time>
      </trkpt>
      <trkpt lat="44.70787" lon="7.04071">
        <ele>2263.4</ele>
        <time>2026-08-31T08:04:22Z</time>
      </trkpt>
      <trkpt lat="44.70784" lon="7.04077">
        <ele>2263.4</ele>
        <time>2026-08-31T08:04:28Z</time>
      </trkpt>
      <trkpt lat="44.70782" lon="7.04081">
        <ele>2263.5</ele>
        <time>2026-08-31T08:04:33Z</time>
      </trkpt>
      <trkpt lat="44.70781" lon="7.04086">
        <ele>2264.1</ele>
        <time>2026-08-31T08:04:38Z</time>
      </trkpt>
      <trkpt lat="44.70781" lon="7.04091">
        <ele>2265.1</ele>
        <time>2026-08-31T08:04:44Z</time>
      </trkpt>
      <trkpt lat="44.70779" lon="7.04095">
        <ele>2265.1</ele>
        <time>2026-08-31T08:04:49Z</time>
      </trkpt>
      <trkpt lat="44.70779" lon="7.04096">
        <ele>2265.3</ele>
        <time>2026-08-31T08:04:54Z</time>
      </trkpt>
      <trkpt lat="44.70779" lon="7.04098">
        <ele>2265.7</ele>
        <time>2026-08-31T08:05:00Z</time>
      </trkpt>
      <trkpt lat="44.70779" lon="7.04102">
        <ele>2266.5</ele>
        <time>2026-08-31T08:05:05Z</time>
      </trkpt>
      <trkpt lat="44.70779" lon="7.04102">
        <ele>2266.5</ele>
        <time>2026-08-31T08:05:10Z</time>
      </trkpt>
      <trkpt lat="44.7078" lon="7.04106">
        <ele>2267.7</ele>
        <time>2026-08-31T08:05:16Z</time>
      </trkpt>
      <trkpt lat="44.70781" lon="7.04109">
        <ele>2268.6</ele>
        <time>2026-08-31T08:05:21Z</time>
      </trkpt>
      <trkpt lat="44.70781" lon="7.04113">
        <ele>2269.4</ele>
        <time>2026-08-31T08:05:26Z</time>
      </trkpt>
      <trkpt lat="44.7078" lon="7.04119">
        <ele>2270.2</ele>
        <time>2026-08-31T08:05:32Z</time>
      </trkpt>
      <trkpt lat="44.70781" lon="7.04122">
        <ele>2271.2</ele>
        <time>2026-08-31T08:05:37Z</time>
      </trkpt>
      <trkpt lat="44.70783" lon="7.04126">
        <ele>2272.7</ele>
        <time>2026-08-31T08:05:42Z</time>
      </trkpt>
      <trkpt lat="44.70784" lon="7.04131">
        <ele>2274</ele>
        <time>2026-08-31T08:05:48Z</time>
      </trkpt>
      <trkpt lat="44.70784" lon="7.04135">
        <ele>2274.8</ele>
        <time>2026-08-31T08:05:53Z</time>
      </trkpt>
      <trkpt lat="44.70784" lon="7.04139">
        <ele>2275.6</ele>
        <time>2026-08-31T08:05:58Z</time>
      </trkpt>
      <trkpt lat="44.70786" lon="7.04144">
        <ele>2277.2</ele>
        <time>2026-08-31T08:06:04Z</time>
      </trkpt>
      <trkpt lat="44.70786" lon="7.04149">
        <ele>2278.2</ele>
        <time>2026-08-31T08:06:09Z</time>
      </trkpt>
      <trkpt lat="44.70786" lon="7.04153">
        <ele>2279</ele>
        <time>2026-08-31T08:06:14Z</time>
      </trkpt>
      <trkpt lat="44.70786" lon="7.04156">
        <ele>2279.6</ele>
        <time>2026-08-31T08:06:20Z</time>
      </trkpt>
      <trkpt lat="44.70786" lon="7.04156">
        <ele>2279.6</ele>
        <time>2026-08-31T08:06:25Z</time>
      </trkpt>
      <trkpt lat="44.70786" lon="7.04156">
        <ele>2279.6</ele>
        <time>2026-08-31T08:06:30Z</time>
      </trkpt>
      <trkpt lat="44.70786" lon="7.04156">
        <ele>2279.6</ele>
        <time>2026-08-31T08:06:36Z</time>
      </trkpt>
      <trkpt lat="44.70786" lon="7.04156">
        <ele>2279.6</ele>
        <time>2026-08-31T08:06:41Z</time>
      </trkpt>
      <trkpt lat="44.70786" lon="7.04156">
        <ele>2279.6</ele>
        <time>2026-08-31T08:06:46Z</time>
      </trkpt>
      <trkpt lat="44.70786" lon="7.04156">
        <ele>2279.6</ele>
        <time>2026-08-31T08:06:52Z</time>
      </trkpt>
      <trkpt lat="44.70786" lon="7.04156">
        <ele>2279.6</ele>
        <time>2026-08-31T08:06:57Z</time>
      </trkpt>
      <trkpt lat="44.70786" lon="7.04156">
        <ele>2279.6</ele>
        <time>2026-08-31T08:07:02Z</time>
      </trkpt>
      <trkpt lat="44.70785" lon="7.04164">
        <ele>2280.8</ele>
        <time>2026-08-31T08:07:08Z</time>
      </trkpt>
      <trkpt lat="44.70783" lon="7.04169">
        <ele>2281.3</ele>
        <time>2026-08-31T08:07:13Z</time>
      </trkpt>
      <trkpt lat="44.70782" lon="7.04172">
        <ele>2281.7</ele>
        <time>2026-08-31T08:07:18Z</time>
      </trkpt>
      <trkpt lat="44.70782" lon="7.04177">
        <ele>2282.9</ele>
        <time>2026-08-31T08:07:24Z</time>
      </trkpt>
      <trkpt lat="44.70782" lon="7.04181">
        <ele>2283.8</ele>
        <time>2026-08-31T08:07:29Z</time>
      </trkpt>
      <trkpt lat="44.70783" lon="7.04185">
        <ele>2285.1</ele>
        <time>2026-08-31T08:07:34Z</time>
      </trkpt>
      <trkpt lat="44.70784" lon="7.04191">
        <ele>2286.8</ele>
        <time>2026-08-31T08:07:40Z</time>
      </trkpt>
      <trkpt lat="44.70787" lon="7.04193">
        <ele>2288.2</ele>
        <time>2026-08-31T08:07:45Z</time>
      </trkpt>
      <trkpt lat="44.70787" lon="7.04194">
        <ele>2288.5</ele>
        <time>2026-08-31T08:07:50Z</time>
      </trkpt>
      <trkpt lat="44.70788" lon="7.04193">
        <ele>2288.5</ele>
        <time>2026-08-31T08:07:56Z</time>
      </trkpt>
      <trkpt lat="44.70788" lon="7.04193">
        <ele>2288.5</ele>
        <time>2026-08-31T08:08:01Z</time>
      </trkpt>
      <trkpt lat="44.70788" lon="7.04193">
        <ele>2288.5</ele>
        <time>2026-08-31T08:08:06Z</time>
      </trkpt>
      <trkpt lat="44.70788" lon="7.04193">
        <ele>2288.5</ele>
        <time>2026-08-31T08:08:12Z</time>
      </trkpt>
      <trkpt lat="44.70788" lon="7.04193">
        <ele>2288.5</ele>
        <time>2026-08-31T08:08:17Z</time>
      </trkpt>
      <trkpt lat="44.70788" lon="7.04193">
        <ele>2288.5</ele>
        <time>2026-08-31T08:08:22Z</time>
      </trkpt>
      <trkpt lat="44.70788" lon="7.04193">
        <ele>2288.5</ele>
        <time>2026-08-31T08:08:28Z</time>
      </trkpt>
      <trkpt lat="44.70793" lon="7.04204">
        <ele>2292.6</ele>
        <time>2026-08-31T08:08:33Z</time>
      </trkpt>
      <trkpt lat="44.70793" lon="7.04204">
        <ele>2292.6</ele>
        <time>2026-08-31T08:08:38Z</time>
      </trkpt>
      <trkpt lat="44.70793" lon="7.04204">
        <ele>2292.6</ele>
        <time>2026-08-31T08:08:44Z</time>
      </trkpt>
      <trkpt lat="44.70797" lon="7.04212">
        <ele>2295.7</ele>
        <time>2026-08-31T08:08:49Z</time>
      </trkpt>
      <trkpt lat="44.708" lon="7.04215">
        <ele>2297.2</ele>
        <time>2026-08-31T08:08:54Z</time>
      </trkpt>
      <trkpt lat="44.70803" lon="7.04218">
        <ele>2298.8</ele>
        <time>2026-08-31T08:09:00Z</time>
      </trkpt>
      <trkpt lat="44.70803" lon="7.04219">
        <ele>2299</ele>
        <time>2026-08-31T08:09:05Z</time>
      </trkpt>
      <trkpt lat="44.70803" lon="7.04219">
        <ele>2299</ele>
        <time>2026-08-31T08:09:10Z</time>
      </trkpt>
      <trkpt lat="44.70803" lon="7.04219">
        <ele>2299</ele>
        <time>2026-08-31T08:09:16Z</time>
      </trkpt>
      <trkpt lat="44.70803" lon="7.04219">
        <ele>2299</ele>
        <time>2026-08-31T08:09:21Z</time>
      </trkpt>
      <trkpt lat="44.70803" lon="7.04219">
        <ele>2299</ele>
        <time>2026-08-31T08:09:26Z</time>
      </trkpt>
      <trkpt lat="44.70803" lon="7.04219">
        <ele>2299</ele>
        <time>2026-08-31T08:09:32Z</time>
      </trkpt>
      <trkpt lat="44.70803" lon="7.04219">
        <ele>2299</ele>
        <time>2026-08-31T08:09:37Z</time>
      </trkpt>
      <trkpt lat="44.70803" lon="7.04219">
        <ele>2299</ele>
        <time>2026-08-31T08:09:42Z</time>
      </trkpt>
      <trkpt lat="44.70803" lon="7.04219">
        <ele>2299</ele>
        <time>2026-08-31T08:09:48Z</time>
      </trkpt>
      <trkpt lat="44.70803" lon="7.04219">
        <ele>2299</ele>
        <time>2026-08-31T08:09:53Z</time>
      </trkpt>
      <trkpt lat="44.70803" lon="7.04219">
        <ele>2299</ele>
        <time>2026-08-31T08:09:58Z</time>
      </trkpt>
      <trkpt lat="44.70803" lon="7.04219">
        <ele>2299</ele>
        <time>2026-08-31T08:10:04Z</time>
      </trkpt>
      <trkpt lat="44.70803" lon="7.04219">
        <ele>2299</ele>
        <time>2026-08-31T08:10:09Z</time>
      </trkpt>
      <trkpt lat="44.70803" lon="7.04224">
        <ele>2300.1</ele>
        <time>2026-08-31T08:10:14Z</time>
      </trkpt>
      <trkpt lat="44.70803" lon="7.04228">
        <ele>2301</ele>
        <time>2026-08-31T08:10:20Z</time>
      </trkpt>
      <trkpt lat="44.708" lon="7.04232">
        <ele>2301.1</ele>
        <time>2026-08-31T08:10:25Z</time>
      </trkpt>
      <trkpt lat="44.70799" lon="7.04237">
        <ele>2302</ele>
        <time>2026-08-31T08:10:30Z</time>
      </trkpt>
      <trkpt lat="44.70796" lon="7.04241">
        <ele>2302.1</ele>
        <time>2026-08-31T08:10:36Z</time>
      </trkpt>
      <trkpt lat="44.70793" lon="7.04243">
        <ele>2301.7</ele>
        <time>2026-08-31T08:10:41Z</time>
      </trkpt>
      <trkpt lat="44.70792" lon="7.04249">
        <ele>2302.9</ele>
        <time>2026-08-31T08:10:46Z</time>
      </trkpt>
      <trkpt lat="44.70791" lon="7.04254">
        <ele>2303.6</ele>
        <time>2026-08-31T08:10:52Z</time>
      </trkpt>
      <trkpt lat="44.70791" lon="7.04258">
        <ele>2304.4</ele>
        <time>2026-08-31T08:10:57Z</time>
      </trkpt>
      <trkpt lat="44.70791" lon="7.04263">
        <ele>2305.3</ele>
        <time>2026-08-31T08:11:02Z</time>
      </trkpt>
      <trkpt lat="44.70789" lon="7.04269">
        <ele>2305.9</ele>
        <time>2026-08-31T08:11:08Z</time>
      </trkpt>
      <trkpt lat="44.70788" lon="7.04272">
        <ele>2306.3</ele>
        <time>2026-08-31T08:11:13Z</time>
      </trkpt>
      <trkpt lat="44.70788" lon="7.04274">
        <ele>2306.6</ele>
        <time>2026-08-31T08:11:18Z</time>
      </trkpt>
      <trkpt lat="44.70788" lon="7.04274">
        <ele>2306.6</ele>
        <time>2026-08-31T08:11:24Z</time>
      </trkpt>
      <trkpt lat="44.70787" lon="7.0428">
        <ele>2307.5</ele>
        <time>2026-08-31T08:11:29Z</time>
      </trkpt>
      <trkpt lat="44.70787" lon="7.04284">
        <ele>2308.3</ele>
        <time>2026-08-31T08:11:34Z</time>
      </trkpt>
      <trkpt lat="44.70785" lon="7.04289">
        <ele>2308.7</ele>
        <time>2026-08-31T08:11:40Z</time>
      </trkpt>
      <trkpt lat="44.70783" lon="7.04293">
        <ele>2309</ele>
        <time>2026-08-31T08:11:45Z</time>
      </trkpt>
      <trkpt lat="44.70783" lon="7.04296">
        <ele>2309.5</ele>
        <time>2026-08-31T08:11:50Z</time>
      </trkpt>
      <trkpt lat="44.70782" lon="7.04299">
        <ele>2309.9</ele>
        <time>2026-08-31T08:11:56Z</time>
      </trkpt>
      <trkpt lat="44.70782" lon="7.04302">
        <ele>2310.4</ele>
        <time>2026-08-31T08:12:01Z</time>
      </trkpt>
      <trkpt lat="44.70782" lon="7.04304">
        <ele>2310.8</ele>
        <time>2026-08-31T08:12:06Z</time>
      </trkpt>
      <trkpt lat="44.70781" lon="7.04304">
        <ele>2310.6</ele>
        <time>2026-08-31T08:12:12Z</time>
      </trkpt>
      <trkpt lat="44.70781" lon="7.04304">
        <ele>2310.6</ele>
        <time>2026-08-31T08:12:17Z</time>
      </trkpt>
      <trkpt lat="44.70781" lon="7.04304">
        <ele>2310.6</ele>
        <time>2026-08-31T08:12:22Z</time>
      </trkpt>
      <trkpt lat="44.70781" lon="7.04311">
        <ele>2311.9</ele>
        <time>2026-08-31T08:12:28Z</time>
      </trkpt>
      <trkpt lat="44.7078" lon="7.04316">
        <ele>2312.6</ele>
        <time>2026-08-31T08:12:33Z</time>
      </trkpt>
      <trkpt lat="44.7078" lon="7.0432">
        <ele>2313.4</ele>
        <time>2026-08-31T08:12:38Z</time>
      </trkpt>
      <trkpt lat="44.70779" lon="7.04325">
        <ele>2314.1</ele>
        <time>2026-08-31T08:12:44Z</time>
      </trkpt>
      <trkpt lat="44.70778" lon="7.0433">
        <ele>2314.8</ele>
        <time>2026-08-31T08:12:49Z</time>
      </trkpt>
      <trkpt lat="44.70778" lon="7.04331">
        <ele>2314.9</ele>
        <time>2026-08-31T08:12:54Z</time>
      </trkpt>
      <trkpt lat="44.70778" lon="7.04332">
        <ele>2315.1</ele>
        <time>2026-08-31T08:13:00Z</time>
      </trkpt>
      <trkpt lat="44.70776" lon="7.04335">
        <ele>2315.1</ele>
        <time>2026-08-31T08:13:05Z</time>
      </trkpt>
      <trkpt lat="44.70776" lon="7.04339">
        <ele>2315.8</ele>
        <time>2026-08-31T08:13:10Z</time>
      </trkpt>
      <trkpt lat="44.70776" lon="7.04343">
        <ele>2316.4</ele>
        <time>2026-08-31T08:13:16Z</time>
      </trkpt>
      <trkpt lat="44.70774" lon="7.04345">
        <ele>2316.2</ele>
        <time>2026-08-31T08:13:21Z</time>
      </trkpt>
      <trkpt lat="44.70772" lon="7.04349">
        <ele>2316.4</ele>
        <time>2026-08-31T08:13:26Z</time>
      </trkpt>
      <trkpt lat="44.70772" lon="7.04355">
        <ele>2317.3</ele>
        <time>2026-08-31T08:13:32Z</time>
      </trkpt>
      <trkpt lat="44.70773" lon="7.04359">
        <ele>2318.2</ele>
        <time>2026-08-31T08:13:37Z</time>
      </trkpt>
      <trkpt lat="44.70771" lon="7.04362">
        <ele>2318.2</ele>
        <time>2026-08-31T08:13:42Z</time>
      </trkpt>
      <trkpt lat="44.70769" lon="7.04367">
        <ele>2318.5</ele>
        <time>2026-08-31T08:13:48Z</time>
      </trkpt>
      <trkpt lat="44.70769" lon="7.0437">
        <ele>2318.9</ele>
        <time>2026-08-31T08:13:53Z</time>
      </trkpt>
      <trkpt lat="44.70768" lon="7.04373">
        <ele>2319.1</ele>
        <time>2026-08-31T08:13:58Z</time>
      </trkpt>
      <trkpt lat="44.70766" lon="7.04376">
        <ele>2319.1</ele>
        <time>2026-08-31T08:14:04Z</time>
      </trkpt>
      <trkpt lat="44.70766" lon="7.04377">
        <ele>2319.2</ele>
        <time>2026-08-31T08:14:09Z</time>
      </trkpt>
      <trkpt lat="44.70766" lon="7.04377">
        <ele>2319.2</ele>
        <time>2026-08-31T08:14:14Z</time>
      </trkpt>
      <trkpt lat="44.70765" lon="7.04379">
        <ele>2319.3</ele>
        <time>2026-08-31T08:14:20Z</time>
      </trkpt>
      <trkpt lat="44.70762" lon="7.04382">
        <ele>2318.9</ele>
        <time>2026-08-31T08:14:25Z</time>
      </trkpt>
      <trkpt lat="44.70761" lon="7.04385">
        <ele>2319.1</ele>
        <time>2026-08-31T08:14:30Z</time>
      </trkpt>
      <trkpt lat="44.70759" lon="7.04388">
        <ele>2319</ele>
        <time>2026-08-31T08:14:36Z</time>
      </trkpt>
      <trkpt lat="44.70759" lon="7.0439">
        <ele>2319.4</ele>
        <time>2026-08-31T08:14:41Z</time>
      </trkpt>
      <trkpt lat="44.70758" lon="7.04392">
        <ele>2319.4</ele>
        <time>2026-08-31T08:14:46Z</time>
      </trkpt>
      <trkpt lat="44.70757" lon="7.04395">
        <ele>2319.6</ele>
        <time>2026-08-31T08:14:52Z</time>
      </trkpt>
      <trkpt lat="44.70757" lon="7.04396">
        <ele>2319.8</ele>
        <time>2026-08-31T08:14:57Z</time>
      </trkpt>
      <trkpt lat="44.70756" lon="7.04399">
        <ele>2319.9</ele>
        <time>2026-08-31T08:15:02Z</time>
      </trkpt>
      <trkpt lat="44.70755" lon="7.04403">
        <ele>2320.3</ele>
        <time>2026-08-31T08:15:08Z</time>
      </trkpt>
      <trkpt lat="44.70755" lon="7.04405">
        <ele>2320.6</ele>
        <time>2026-08-31T08:15:13Z</time>
      </trkpt>
      <trkpt lat="44.70754" lon="7.04409">
        <ele>2320.9</ele>
        <time>2026-08-31T08:15:18Z</time>
      </trkpt>
      <trkpt lat="44.70754" lon="7.04411">
        <ele>2321.3</ele>
        <time>2026-08-31T08:15:24Z</time>
      </trkpt>
      <trkpt lat="44.70753" lon="7.04414">
        <ele>2321.4</ele>
        <time>2026-08-31T08:15:29Z</time>
      </trkpt>
      <trkpt lat="44.70753" lon="7.04416">
        <ele>2321.8</ele>
        <time>2026-08-31T08:15:34Z</time>
      </trkpt>
      <trkpt lat="44.70752" lon="7.0442">
        <ele>2322.2</ele>
        <time>2026-08-31T08:15:40Z</time>
      </trkpt>
      <trkpt lat="44.70753" lon="7.04424">
        <ele>2323.2</ele>
        <time>2026-08-31T08:15:45Z</time>
      </trkpt>
      <trkpt lat="44.70751" lon="7.04427">
        <ele>2323.2</ele>
        <time>2026-08-31T08:15:50Z</time>
      </trkpt>
      <trkpt lat="44.7075" lon="7.0443">
        <ele>2323.4</ele>
        <time>2026-08-31T08:15:56Z</time>
      </trkpt>
      <trkpt lat="44.7075" lon="7.04433">
        <ele>2323.9</ele>
        <time>2026-08-31T08:16:01Z</time>
      </trkpt>
      <trkpt lat="44.70749" lon="7.04435">
        <ele>2323.9</ele>
        <time>2026-08-31T08:16:06Z</time>
      </trkpt>
      <trkpt lat="44.70747" lon="7.04439">
        <ele>2323.7</ele>
        <time>2026-08-31T08:16:12Z</time>
      </trkpt>
      <trkpt lat="44.70746" lon="7.04441">
        <ele>2323.6</ele>
        <time>2026-08-31T08:16:17Z</time>
      </trkpt>
      <trkpt lat="44.70746" lon="7.04443">
        <ele>2324</ele>
        <time>2026-08-31T08:16:22Z</time>
      </trkpt>
      <trkpt lat="44.70743" lon="7.04447">
        <ele>2323.4</ele>
        <time>2026-08-31T08:16:28Z</time>
      </trkpt>
      <trkpt lat="44.70743" lon="7.04448">
        <ele>2323.5</ele>
        <time>2026-08-31T08:16:33Z</time>
      </trkpt>
      <trkpt lat="44.70743" lon="7.04448">
        <ele>2323.5</ele>
        <time>2026-08-31T08:16:38Z</time>
      </trkpt>
      <trkpt lat="44.70743" lon="7.04448">
        <ele>2323.5</ele>
        <time>2026-08-31T08:16:44Z</time>
      </trkpt>
      <trkpt lat="44.70742" lon="7.04451">
        <ele>2323.6</ele>
        <time>2026-08-31T08:16:49Z</time>
      </trkpt>
      <trkpt lat="44.70742" lon="7.04455">
        <ele>2324.3</ele>
        <time>2026-08-31T08:16:54Z</time>
      </trkpt>
      <trkpt lat="44.70741" lon="7.04461">
        <ele>2325</ele>
        <time>2026-08-31T08:17:00Z</time>
      </trkpt>
      <trkpt lat="44.70741" lon="7.04464">
        <ele>2325.5</ele>
        <time>2026-08-31T08:17:05Z</time>
      </trkpt>
      <trkpt lat="44.70737" lon="7.0447">
        <ele>2324.8</ele>
        <time>2026-08-31T08:17:10Z</time>
      </trkpt>
      <trkpt lat="44.70734" lon="7.04478">
        <ele>2324.9</ele>
        <time>2026-08-31T08:17:16Z</time>
      </trkpt>
      <trkpt lat="44.70732" lon="7.04482">
        <ele>2324.8</ele>
        <time>2026-08-31T08:17:21Z</time>
      </trkpt>
      <trkpt lat="44.7073" lon="7.04486">
        <ele>2324.6</ele>
        <time>2026-08-31T08:17:26Z</time>
      </trkpt>
      <trkpt lat="44.70727" lon="7.0449">
        <ele>2324</ele>
        <time>2026-08-31T08:17:32Z</time>
      </trkpt>
      <trkpt lat="44.70728" lon="7.04493">
        <ele>2325</ele>
        <time>2026-08-31T08:17:37Z</time>
      </trkpt>
      <trkpt lat="44.70728" lon="7.04496">
        <ele>2325.5</ele>
        <time>2026-08-31T08:17:42Z</time>
      </trkpt>
      <trkpt lat="44.70728" lon="7.04496">
        <ele>2325.5</ele>
        <time>2026-08-31T08:17:48Z</time>
      </trkpt>
      <trkpt lat="44.70727" lon="7.04498">
        <ele>2325.4</ele>
        <time>2026-08-31T08:17:53Z</time>
      </trkpt>
      <trkpt lat="44.70727" lon="7.04503">
        <ele>2326.7</ele>
        <time>2026-08-31T08:17:58Z</time>
      </trkpt>
      <trkpt lat="44.70727" lon="7.04507">
        <ele>2327.8</ele>
        <time>2026-08-31T08:18:04Z</time>
      </trkpt>
      <trkpt lat="44.70726" lon="7.04512">
        <ele>2328.8</ele>
        <time>2026-08-31T08:18:09Z</time>
      </trkpt>
      <trkpt lat="44.70726" lon="7.04516">
        <ele>2330</ele>
        <time>2026-08-31T08:18:14Z</time>
      </trkpt>
      <trkpt lat="44.70727" lon="7.0452">
        <ele>2331.5</ele>
        <time>2026-08-31T08:18:20Z</time>
      </trkpt>
      <trkpt lat="44.70728" lon="7.04521">
        <ele>2332.3</ele>
        <time>2026-08-31T08:18:25Z</time>
      </trkpt>
      <trkpt lat="44.70728" lon="7.04521">
        <ele>2332.3</ele>
        <time>2026-08-31T08:18:30Z</time>
      </trkpt>
      <trkpt lat="44.70728" lon="7.04521">
        <ele>2332.3</ele>
        <time>2026-08-31T08:18:36Z</time>
      </trkpt>
      <trkpt lat="44.70728" lon="7.04521">
        <ele>2332.3</ele>
        <time>2026-08-31T08:18:41Z</time>
      </trkpt>
      <trkpt lat="44.70728" lon="7.04521">
        <ele>2332.3</ele>
        <time>2026-08-31T08:18:46Z</time>
      </trkpt>
      <trkpt lat="44.70728" lon="7.04521">
        <ele>2332.3</ele>
        <time>2026-08-31T08:18:52Z</time>
      </trkpt>
      <trkpt lat="44.70728" lon="7.04521">
        <ele>2332.3</ele>
        <time>2026-08-31T08:18:57Z</time>
      </trkpt>
      <trkpt lat="44.70728" lon="7.04521">
        <ele>2332.3</ele>
        <time>2026-08-31T08:19:02Z</time>
      </trkpt>
      <trkpt lat="44.70728" lon="7.04521">
        <ele>2332.3</ele>
        <time>2026-08-31T08:19:08Z</time>
      </trkpt>
      <trkpt lat="44.70728" lon="7.04521">
        <ele>2332.3</ele>
        <time>2026-08-31T08:19:13Z</time>
      </trkpt>
      <trkpt lat="44.70728" lon="7.04521">
        <ele>2332.3</ele>
        <time>2026-08-31T08:19:18Z</time>
      </trkpt>
      <trkpt lat="44.70728" lon="7.04521">
        <ele>2332.3</ele>
        <time>2026-08-31T08:19:24Z</time>
      </trkpt>
      <trkpt lat="44.70728" lon="7.04521">
        <ele>2332.3</ele>
        <time>2026-08-31T08:19:29Z</time>
      </trkpt>
      <trkpt lat="44.70728" lon="7.04521">
        <ele>2332.3</ele>
        <time>2026-08-31T08:19:34Z</time>
      </trkpt>
      <trkpt lat="44.70728" lon="7.04521">
        <ele>2332.3</ele>
        <time>2026-08-31T08:19:40Z</time>
      </trkpt>
      <trkpt lat="44.70728" lon="7.04521">
        <ele>2332.3</ele>
        <time>2026-08-31T08:19:45Z</time>
      </trkpt>
      <trkpt lat="44.70728" lon="7.04521">
        <ele>2332.3</ele>
        <time>2026-08-31T08:19:50Z</time>
      </trkpt>
      <trkpt lat="44.70728" lon="7.04521">
        <ele>2332.3</ele>
        <time>2026-08-31T08:19:56Z</time>
      </trkpt>
      <trkpt lat="44.70728" lon="7.04521">
        <ele>2332.3</ele>
        <time>2026-08-31T08:20:01Z</time>
      </trkpt>
      <trkpt lat="44.70728" lon="7.04521">
        <ele>2332.3</ele>
        <time>2026-08-31T08:20:06Z</time>
      </trkpt>
      <trkpt lat="44.70728" lon="7.04521">
        <ele>2332.3</ele>
        <time>2026-08-31T08:20:12Z</time>
      </trkpt>
      <trkpt lat="44.70728" lon="7.04521">
        <ele>2332.3</ele>
        <time>2026-08-31T08:20:17Z</time>
      </trkpt>
      <trkpt lat="44.70728" lon="7.04521">
        <ele>2332.3</ele>
        <time>2026-08-31T08:20:22Z</time>
      </trkpt>
      <trkpt lat="44.70728" lon="7.04521">
        <ele>2332.3</ele>
        <time>2026-08-31T08:20:28Z</time>
      </trkpt>
      <trkpt lat="44.70728" lon="7.04521">
        <ele>2332.3</ele>
        <time>2026-08-31T08:20:33Z</time>
      </trkpt>
      <trkpt lat="44.70728" lon="7.04521">
        <ele>2332.3</ele>
        <time>2026-08-31T08:20:38Z</time>
      </trkpt>
      <trkpt lat="44.70728" lon="7.04521">
        <ele>2332.3</ele>
        <time>2026-08-31T08:20:44Z</time>
      </trkpt>
      <trkpt lat="44.70728" lon="7.04526">
        <ele>2333.7</ele>
        <time>2026-08-31T08:20:49Z</time>
      </trkpt>
      <trkpt lat="44.70727" lon="7.04532">
        <ele>2335</ele>
        <time>2026-08-31T08:20:54Z</time>
      </trkpt>
      <trkpt lat="44.70725" lon="7.04538">
        <ele>2335.8</ele>
        <time>2026-08-31T08:21:00Z</time>
      </trkpt>
      <trkpt lat="44.70724" lon="7.04542">
        <ele>2336.6</ele>
        <time>2026-08-31T08:21:05Z</time>
      </trkpt>
      <trkpt lat="44.70725" lon="7.04545">
        <ele>2337.9</ele>
        <time>2026-08-31T08:21:10Z</time>
      </trkpt>
      <trkpt lat="44.70725" lon="7.0455">
        <ele>2339.3</ele>
        <time>2026-08-31T08:21:16Z</time>
      </trkpt>
      <trkpt lat="44.70725" lon="7.04555">
        <ele>2340.7</ele>
        <time>2026-08-31T08:21:21Z</time>
      </trkpt>
      <trkpt lat="44.70726" lon="7.04557">
        <ele>2341.8</ele>
        <time>2026-08-31T08:21:26Z</time>
      </trkpt>
      <trkpt lat="44.70727" lon="7.0456">
        <ele>2343.1</ele>
        <time>2026-08-31T08:21:32Z</time>
      </trkpt>
      <trkpt lat="44.70727" lon="7.04563">
        <ele>2343.9</ele>
        <time>2026-08-31T08:21:37Z</time>
      </trkpt>
      <trkpt lat="44.70727" lon="7.04564">
        <ele>2344.2</ele>
        <time>2026-08-31T08:21:42Z</time>
      </trkpt>
      <trkpt lat="44.70727" lon="7.04564">
        <ele>2344.2</ele>
        <time>2026-08-31T08:21:48Z</time>
      </trkpt>
      <trkpt lat="44.70727" lon="7.04564">
        <ele>2344.2</ele>
        <time>2026-08-31T08:21:53Z</time>
      </trkpt>
      <trkpt lat="44.70727" lon="7.04564">
        <ele>2344.2</ele>
        <time>2026-08-31T08:21:58Z</time>
      </trkpt>
      <trkpt lat="44.70727" lon="7.04564">
        <ele>2344.2</ele>
        <time>2026-08-31T08:22:04Z</time>
      </trkpt>
      <trkpt lat="44.70727" lon="7.04564">
        <ele>2344.2</ele>
        <time>2026-08-31T08:22:09Z</time>
      </trkpt>
      <trkpt lat="44.70727" lon="7.04564">
        <ele>2344.2</ele>
        <time>2026-08-31T08:22:14Z</time>
      </trkpt>
      <trkpt lat="44.70727" lon="7.04564">
        <ele>2344.2</ele>
        <time>2026-08-31T08:22:20Z</time>
      </trkpt>
      <trkpt lat="44.70718" lon="7.04571">
        <ele>2342.2</ele>
        <time>2026-08-31T08:22:25Z</time>
      </trkpt>
      <trkpt lat="44.70716" lon="7.04573">
        <ele>2341.9</ele>
        <time>2026-08-31T08:22:30Z</time>
      </trkpt>
      <trkpt lat="44.70713" lon="7.04576">
        <ele>2341.5</ele>
        <time>2026-08-31T08:22:36Z</time>
      </trkpt>
      <trkpt lat="44.70711" lon="7.04578">
        <ele>2341.1</ele>
        <time>2026-08-31T08:22:41Z</time>
      </trkpt>
      <trkpt lat="44.7071" lon="7.0458">
        <ele>2341.3</ele>
        <time>2026-08-31T08:22:46Z</time>
      </trkpt>
      <trkpt lat="44.7071" lon="7.04581">
        <ele>2341.6</ele>
        <time>2026-08-31T08:22:52Z</time>
      </trkpt>
      <trkpt lat="44.7071" lon="7.04581">
        <ele>2341.6</ele>
        <time>2026-08-31T08:22:57Z</time>
      </trkpt>
      <trkpt lat="44.7071" lon="7.04581">
        <ele>2341.6</ele>
        <time>2026-08-31T08:23:02Z</time>
      </trkpt>
      <trkpt lat="44.7071" lon="7.04581">
        <ele>2341.6</ele>
        <time>2026-08-31T08:23:08Z</time>
      </trkpt>
      <trkpt lat="44.70716" lon="7.0459">
        <ele>2347.3</ele>
        <time>2026-08-31T08:23:13Z</time>
      </trkpt>
      <trkpt lat="44.70717" lon="7.04592">
        <ele>2348.4</ele>
        <time>2026-08-31T08:23:18Z</time>
      </trkpt>
      <trkpt lat="44.70719" lon="7.04595">
        <ele>2350.4</ele>
        <time>2026-08-31T08:23:24Z</time>
      </trkpt>
      <trkpt lat="44.7072" lon="7.04598">
        <ele>2351.9</ele>
        <time>2026-08-31T08:23:29Z</time>
      </trkpt>
      <trkpt lat="44.7072" lon="7.046">
        <ele>2352.6</ele>
        <time>2026-08-31T08:23:34Z</time>
      </trkpt>
      <trkpt lat="44.70721" lon="7.04604">
        <ele>2354.4</ele>
        <time>2026-08-31T08:23:40Z</time>
      </trkpt>
      <trkpt lat="44.70721" lon="7.04604">
        <ele>2354.4</ele>
        <time>2026-08-31T08:23:45Z</time>
      </trkpt>
      <trkpt lat="44.70721" lon="7.04604">
        <ele>2354.4</ele>
        <time>2026-08-31T08:23:50Z</time>
      </trkpt>
      <trkpt lat="44.70726" lon="7.04606">
        <ele>2357.3</ele>
        <time>2026-08-31T08:23:56Z</time>
      </trkpt>
      <trkpt lat="44.70727" lon="7.04609">
        <ele>2358.8</ele>
        <time>2026-08-31T08:24:01Z</time>
      </trkpt>
      <trkpt lat="44.70727" lon="7.04612">
        <ele>2359.8</ele>
        <time>2026-08-31T08:24:06Z</time>
      </trkpt>
      <trkpt lat="44.70729" lon="7.04616">
        <ele>2362</ele>
        <time>2026-08-31T08:24:12Z</time>
      </trkpt>
      <trkpt lat="44.70732" lon="7.04617">
        <ele>2363.7</ele>
        <time>2026-08-31T08:24:17Z</time>
      </trkpt>
      <trkpt lat="44.70735" lon="7.04618">
        <ele>2365.3</ele>
        <time>2026-08-31T08:24:22Z</time>
      </trkpt>
      <trkpt lat="44.70737" lon="7.0462">
        <ele>2366.8</ele>
        <time>2026-08-31T08:24:28Z</time>
      </trkpt>
      <trkpt lat="44.70739" lon="7.04621">
        <ele>2368</ele>
        <time>2026-08-31T08:24:33Z</time>
      </trkpt>
      <trkpt lat="44.70742" lon="7.04621">
        <ele>2369.3</ele>
        <time>2026-08-31T08:24:38Z</time>
      </trkpt>
      <trkpt lat="44.70745" lon="7.04621">
        <ele>2370.5</ele>
        <time>2026-08-31T08:24:44Z</time>
      </trkpt>
      <trkpt lat="44.70748" lon="7.04621">
        <ele>2371.8</ele>
        <time>2026-08-31T08:24:49Z</time>
      </trkpt>
      <trkpt lat="44.70751" lon="7.04623">
        <ele>2373.6</ele>
        <time>2026-08-31T08:24:54Z</time>
      </trkpt>
      <trkpt lat="44.70752" lon="7.04626">
        <ele>2374.9</ele>
        <time>2026-08-31T08:25:00Z</time>
      </trkpt>
      <trkpt lat="44.70751" lon="7.04628">
        <ele>2375.3</ele>
        <time>2026-08-31T08:25:05Z</time>
      </trkpt>
      <trkpt lat="44.7075" lon="7.04629">
        <ele>2375.3</ele>
        <time>2026-08-31T08:25:10Z</time>
      </trkpt>
      <trkpt lat="44.7075" lon="7.04629">
        <ele>2375.3</ele>
        <time>2026-08-31T08:25:16Z</time>
      </trkpt>
      <trkpt lat="44.7075" lon="7.04629">
        <ele>2375.3</ele>
        <time>2026-08-31T08:25:21Z</time>
      </trkpt>
      <trkpt lat="44.7075" lon="7.04629">
        <ele>2375.3</ele>
        <time>2026-08-31T08:25:26Z</time>
      </trkpt>
      <trkpt lat="44.7075" lon="7.04629">
        <ele>2375.3</ele>
        <time>2026-08-31T08:25:32Z</time>
      </trkpt>
      <trkpt lat="44.70744" lon="7.04641">
        <ele>2376.9</ele>
        <time>2026-08-31T08:25:37Z</time>
      </trkpt>
      <trkpt lat="44.70742" lon="7.04643">
        <ele>2376.8</ele>
        <time>2026-08-31T08:25:42Z</time>
      </trkpt>
      <trkpt lat="44.70739" lon="7.04645">
        <ele>2376.2</ele>
        <time>2026-08-31T08:25:48Z</time>
      </trkpt>
      <trkpt lat="44.70738" lon="7.04647">
        <ele>2376.5</ele>
        <time>2026-08-31T08:25:53Z</time>
      </trkpt>
      <trkpt lat="44.70737" lon="7.04649">
        <ele>2376.8</ele>
        <time>2026-08-31T08:25:58Z</time>
      </trkpt>
      <trkpt lat="44.70737" lon="7.04649">
        <ele>2376.8</ele>
        <time>2026-08-31T08:26:04Z</time>
      </trkpt>
      <trkpt lat="44.70737" lon="7.04649">
        <ele>2376.8</ele>
        <time>2026-08-31T08:26:09Z</time>
      </trkpt>
      <trkpt lat="44.70737" lon="7.04649">
        <ele>2376.8</ele>
        <time>2026-08-31T08:26:14Z</time>
      </trkpt>
      <trkpt lat="44.70737" lon="7.04649">
        <ele>2376.8</ele>
        <time>2026-08-31T08:26:20Z</time>
      </trkpt>
      <trkpt lat="44.7073" lon="7.04657">
        <ele>2376.7</ele>
        <time>2026-08-31T08:26:25Z</time>
      </trkpt>
      <trkpt lat="44.70728" lon="7.04658">
        <ele>2376.3</ele>
        <time>2026-08-31T08:26:30Z</time>
      </trkpt>
      <trkpt lat="44.70725" lon="7.04662">
        <ele>2376.5</ele>
        <time>2026-08-31T08:26:36Z</time>
      </trkpt>
      <trkpt lat="44.70722" lon="7.04664">
        <ele>2376</ele>
        <time>2026-08-31T08:26:41Z</time>
      </trkpt>
      <trkpt lat="44.70717" lon="7.04662">
        <ele>2373.3</ele>
        <time>2026-08-31T08:26:46Z</time>
      </trkpt>
      <trkpt lat="44.70712" lon="7.0466">
        <ele>2370.6</ele>
        <time>2026-08-31T08:26:52Z</time>
      </trkpt>
      <trkpt lat="44.70708" lon="7.0466">
        <ele>2369</ele>
        <time>2026-08-31T08:26:57Z</time>
      </trkpt>
      <trkpt lat="44.70705" lon="7.04661">
        <ele>2368.1</ele>
        <time>2026-08-31T08:27:02Z</time>
      </trkpt>
      <trkpt lat="44.70701" lon="7.04662">
        <ele>2366.9</ele>
        <time>2026-08-31T08:27:08Z</time>
      </trkpt>
      <trkpt lat="44.70698" lon="7.04664">
        <ele>2366.4</ele>
        <time>2026-08-31T08:27:13Z</time>
      </trkpt>
      <trkpt lat="44.70697" lon="7.04665">
        <ele>2366.4</ele>
        <time>2026-08-31T08:27:18Z</time>
      </trkpt>
      <trkpt lat="44.70696" lon="7.04665">
        <ele>2366</ele>
        <time>2026-08-31T08:27:24Z</time>
      </trkpt>
      <trkpt lat="44.70694" lon="7.04667">
        <ele>2365.9</ele>
        <time>2026-08-31T08:27:29Z</time>
      </trkpt>
      <trkpt lat="44.70694" lon="7.04667">
        <ele>2365.9</ele>
        <time>2026-08-31T08:27:34Z</time>
      </trkpt>
      <trkpt lat="44.70694" lon="7.04667">
        <ele>2365.9</ele>
        <time>2026-08-31T08:27:40Z</time>
      </trkpt>
      <trkpt lat="44.70694" lon="7.04667">
        <ele>2365.9</ele>
        <time>2026-08-31T08:27:45Z</time>
      </trkpt>
      <trkpt lat="44.70694" lon="7.04667">
        <ele>2365.9</ele>
        <time>2026-08-31T08:27:50Z</time>
      </trkpt>
      <trkpt lat="44.70694" lon="7.04667">
        <ele>2365.9</ele>
        <time>2026-08-31T08:27:56Z</time>
      </trkpt>
      <trkpt lat="44.70693" lon="7.04674">
        <ele>2367.9</ele>
        <time>2026-08-31T08:28:01Z</time>
      </trkpt>
      <trkpt lat="44.70693" lon="7.04676">
        <ele>2368.6</ele>
        <time>2026-08-31T08:28:06Z</time>
      </trkpt>
      <trkpt lat="44.70692" lon="7.04679">
        <ele>2369.2</ele>
        <time>2026-08-31T08:28:12Z</time>
      </trkpt>
      <trkpt lat="44.70691" lon="7.04681">
        <ele>2369.5</ele>
        <time>2026-08-31T08:28:17Z</time>
      </trkpt>
      <trkpt lat="44.70689" lon="7.04682">
        <ele>2369.1</ele>
        <time>2026-08-31T08:28:22Z</time>
      </trkpt>
      <trkpt lat="44.70687" lon="7.04684">
        <ele>2369</ele>
        <time>2026-08-31T08:28:28Z</time>
      </trkpt>
      <trkpt lat="44.70687" lon="7.04684">
        <ele>2369</ele>
        <time>2026-08-31T08:28:33Z</time>
      </trkpt>
      <trkpt lat="44.70687" lon="7.04684">
        <ele>2369</ele>
        <time>2026-08-31T08:28:38Z</time>
      </trkpt>
      <trkpt lat="44.70687" lon="7.04684">
        <ele>2369</ele>
        <time>2026-08-31T08:28:44Z</time>
      </trkpt>
      <trkpt lat="44.70687" lon="7.04684">
        <ele>2369</ele>
        <time>2026-08-31T08:28:49Z</time>
      </trkpt>
      <trkpt lat="44.70685" lon="7.04689">
        <ele>2370</ele>
        <time>2026-08-31T08:28:54Z</time>
      </trkpt>
      <trkpt lat="44.70683" lon="7.04692">
        <ele>2370.3</ele>
        <time>2026-08-31T08:29:00Z</time>
      </trkpt>
      <trkpt lat="44.70683" lon="7.04695">
        <ele>2371.3</ele>
        <time>2026-08-31T08:29:05Z</time>
      </trkpt>
      <trkpt lat="44.70683" lon="7.04699">
        <ele>2372.7</ele>
        <time>2026-08-31T08:29:10Z</time>
      </trkpt>
      <trkpt lat="44.70687" lon="7.04699">
        <ele>2374.2</ele>
        <time>2026-08-31T08:29:16Z</time>
      </trkpt>
      <trkpt lat="44.70691" lon="7.04697">
        <ele>2375</ele>
        <time>2026-08-31T08:29:21Z</time>
      </trkpt>
      <trkpt lat="44.70695" lon="7.04695">
        <ele>2375.8</ele>
        <time>2026-08-31T08:29:26Z</time>
      </trkpt>
      <trkpt lat="44.70698" lon="7.04697">
        <ele>2377.6</ele>
        <time>2026-08-31T08:29:32Z</time>
      </trkpt>
      <trkpt lat="44.70702" lon="7.04697">
        <ele>2379.1</ele>
        <time>2026-08-31T08:29:37Z</time>
      </trkpt>
      <trkpt lat="44.70703" lon="7.04699">
        <ele>2380.2</ele>
        <time>2026-08-31T08:29:42Z</time>
      </trkpt>
      <trkpt lat="44.70702" lon="7.04702">
        <ele>2380.8</ele>
        <time>2026-08-31T08:29:48Z</time>
      </trkpt>
      <trkpt lat="44.707" lon="7.04704">
        <ele>2380.7</ele>
        <time>2026-08-31T08:29:53Z</time>
      </trkpt>
      <trkpt lat="44.70697" lon="7.04707">
        <ele>2380.7</ele>
        <time>2026-08-31T08:29:58Z</time>
      </trkpt>
      <trkpt lat="44.70692" lon="7.04709">
        <ele>2379.5</ele>
        <time>2026-08-31T08:30:04Z</time>
      </trkpt>
      <trkpt lat="44.70691" lon="7.04712">
        <ele>2380.2</ele>
        <time>2026-08-31T08:30:09Z</time>
      </trkpt>
      <trkpt lat="44.70689" lon="7.04714">
        <ele>2380.1</ele>
        <time>2026-08-31T08:30:14Z</time>
      </trkpt>
      <trkpt lat="44.70687" lon="7.04719">
        <ele>2381.1</ele>
        <time>2026-08-31T08:30:20Z</time>
      </trkpt>
      <trkpt lat="44.70687" lon="7.04723">
        <ele>2382.5</ele>
        <time>2026-08-31T08:30:25Z</time>
      </trkpt>
      <trkpt lat="44.70687" lon="7.04725">
        <ele>2383.2</ele>
        <time>2026-08-31T08:30:30Z</time>
      </trkpt>
      <trkpt lat="44.70687" lon="7.04725">
        <ele>2383.2</ele>
        <time>2026-08-31T08:30:36Z</time>
      </trkpt>
      <trkpt lat="44.70687" lon="7.04725">
        <ele>2383.2</ele>
        <time>2026-08-31T08:30:41Z</time>
      </trkpt>
      <trkpt lat="44.70687" lon="7.04729">
        <ele>2384.6</ele>
        <time>2026-08-31T08:30:46Z</time>
      </trkpt>
      <trkpt lat="44.70688" lon="7.04731">
        <ele>2385.6</ele>
        <time>2026-08-31T08:30:52Z</time>
      </trkpt>
      <trkpt lat="44.70688" lon="7.04731">
        <ele>2385.6</ele>
        <time>2026-08-31T08:30:57Z</time>
      </trkpt>
      <trkpt lat="44.70694" lon="7.04731">
        <ele>2387.7</ele>
        <time>2026-08-31T08:31:02Z</time>
      </trkpt>
      <trkpt lat="44.70695" lon="7.04732">
        <ele>2388.4</ele>
        <time>2026-08-31T08:31:08Z</time>
      </trkpt>
      <trkpt lat="44.70695" lon="7.04733">
        <ele>2388.7</ele>
        <time>2026-08-31T08:31:13Z</time>
      </trkpt>
      <trkpt lat="44.70693" lon="7.04737">
        <ele>2389.4</ele>
        <time>2026-08-31T08:31:18Z</time>
      </trkpt>
      <trkpt lat="44.70693" lon="7.04742">
        <ele>2391.1</ele>
        <time>2026-08-31T08:31:24Z</time>
      </trkpt>
      <trkpt lat="44.70693" lon="7.04742">
        <ele>2391.1</ele>
        <time>2026-08-31T08:31:29Z</time>
      </trkpt>
      <trkpt lat="44.70693" lon="7.04742">
        <ele>2391.1</ele>
        <time>2026-08-31T08:31:34Z</time>
      </trkpt>
      <trkpt lat="44.70693" lon="7.04742">
        <ele>2391.1</ele>
        <time>2026-08-31T08:31:40Z</time>
      </trkpt>
      <trkpt lat="44.70693" lon="7.04742">
        <ele>2391.1</ele>
        <time>2026-08-31T08:31:45Z</time>
      </trkpt>
      <trkpt lat="44.70691" lon="7.04749">
        <ele>2392.8</ele>
        <time>2026-08-31T08:31:50Z</time>
      </trkpt>
      <trkpt lat="44.7069" lon="7.04753">
        <ele>2393.9</ele>
        <time>2026-08-31T08:31:56Z</time>
      </trkpt>
      <trkpt lat="44.7069" lon="7.04755">
        <ele>2394.7</ele>
        <time>2026-08-31T08:32:01Z</time>
      </trkpt>
      <trkpt lat="44.7069" lon="7.04756">
        <ele>2395</ele>
        <time>2026-08-31T08:32:06Z</time>
      </trkpt>
      <trkpt lat="44.7069" lon="7.04756">
        <ele>2395</ele>
        <time>2026-08-31T08:32:12Z</time>
      </trkpt>
      <trkpt lat="44.7069" lon="7.04756">
        <ele>2395</ele>
        <time>2026-08-31T08:32:17Z</time>
      </trkpt>
      <trkpt lat="44.7069" lon="7.04765">
        <ele>2398.3</ele>
        <time>2026-08-31T08:32:22Z</time>
      </trkpt>
      <trkpt lat="44.70691" lon="7.04769">
        <ele>2400.1</ele>
        <time>2026-08-31T08:32:28Z</time>
      </trkpt>
      <trkpt lat="44.7069" lon="7.04773">
        <ele>2401.3</ele>
        <time>2026-08-31T08:32:33Z</time>
      </trkpt>
      <trkpt lat="44.7069" lon="7.04776">
        <ele>2402.4</ele>
        <time>2026-08-31T08:32:38Z</time>
      </trkpt>
      <trkpt lat="44.7069" lon="7.0478">
        <ele>2403.8</ele>
        <time>2026-08-31T08:32:44Z</time>
      </trkpt>
      <trkpt lat="44.70689" lon="7.0478">
        <ele>2403.6</ele>
        <time>2026-08-31T08:32:49Z</time>
      </trkpt>
      <trkpt lat="44.70689" lon="7.0478">
        <ele>2403.6</ele>
        <time>2026-08-31T08:32:54Z</time>
      </trkpt>
      <trkpt lat="44.70689" lon="7.0478">
        <ele>2403.6</ele>
        <time>2026-08-31T08:33:00Z</time>
      </trkpt>
      <trkpt lat="44.70689" lon="7.0478">
        <ele>2403.6</ele>
        <time>2026-08-31T08:33:05Z</time>
      </trkpt>
      <trkpt lat="44.70689" lon="7.0478">
        <ele>2403.6</ele>
        <time>2026-08-31T08:33:10Z</time>
      </trkpt>
      <trkpt lat="44.70689" lon="7.0478">
        <ele>2403.6</ele>
        <time>2026-08-31T08:33:16Z</time>
      </trkpt>
      <trkpt lat="44.70689" lon="7.0478">
        <ele>2403.6</ele>
        <time>2026-08-31T08:33:21Z</time>
      </trkpt>
      <trkpt lat="44.70689" lon="7.0478">
        <ele>2403.6</ele>
        <time>2026-08-31T08:33:26Z</time>
      </trkpt>
      <trkpt lat="44.70689" lon="7.0478">
        <ele>2403.6</ele>
        <time>2026-08-31T08:33:32Z</time>
      </trkpt>
      <trkpt lat="44.70689" lon="7.04784">
        <ele>2405</ele>
        <time>2026-08-31T08:33:37Z</time>
      </trkpt>
      <trkpt lat="44.70687" lon="7.04787">
        <ele>2405.6</ele>
        <time>2026-08-31T08:33:42Z</time>
      </trkpt>
      <trkpt lat="44.7069" lon="7.04792">
        <ele>2408.2</ele>
        <time>2026-08-31T08:33:48Z</time>
      </trkpt>
      <trkpt lat="44.70691" lon="7.04797">
        <ele>2410.3</ele>
        <time>2026-08-31T08:33:53Z</time>
      </trkpt>
      <trkpt lat="44.70693" lon="7.048">
        <ele>2411.8</ele>
        <time>2026-08-31T08:33:58Z</time>
      </trkpt>
      <trkpt lat="44.70693" lon="7.04804">
        <ele>2413.3</ele>
        <time>2026-08-31T08:34:04Z</time>
      </trkpt>
      <trkpt lat="44.70694" lon="7.04809">
        <ele>2415.2</ele>
        <time>2026-08-31T08:34:09Z</time>
      </trkpt>
      <trkpt lat="44.70696" lon="7.04809">
        <ele>2415.6</ele>
        <time>2026-08-31T08:34:14Z</time>
      </trkpt>
      <trkpt lat="44.70697" lon="7.04814">
        <ele>2417.6</ele>
        <time>2026-08-31T08:34:20Z</time>
      </trkpt>
      <trkpt lat="44.70699" lon="7.0482">
        <ele>2420</ele>
        <time>2026-08-31T08:34:25Z</time>
      </trkpt>
      <trkpt lat="44.707" lon="7.04825">
        <ele>2421.9</ele>
        <time>2026-08-31T08:34:30Z</time>
      </trkpt>
      <trkpt lat="44.70701" lon="7.04832">
        <ele>2424.5</ele>
        <time>2026-08-31T08:34:36Z</time>
      </trkpt>
      <trkpt lat="44.70702" lon="7.04837">
        <ele>2425.9</ele>
        <time>2026-08-31T08:34:41Z</time>
      </trkpt>
      <trkpt lat="44.70703" lon="7.04843">
        <ele>2427.4</ele>
        <time>2026-08-31T08:34:46Z</time>
      </trkpt>
      <trkpt lat="44.70706" lon="7.04848">
        <ele>2428.9</ele>
        <time>2026-08-31T08:34:52Z</time>
      </trkpt>
      <trkpt lat="44.70708" lon="7.04853">
        <ele>2430.2</ele>
        <time>2026-08-31T08:34:57Z</time>
      </trkpt>
      <trkpt lat="44.7071" lon="7.04857">
        <ele>2431.3</ele>
        <time>2026-08-31T08:35:02Z</time>
      </trkpt>
      <trkpt lat="44.70713" lon="7.04861">
        <ele>2432.5</ele>
        <time>2026-08-31T08:35:08Z</time>
      </trkpt>
      <trkpt lat="44.70713" lon="7.04864">
        <ele>2433.2</ele>
        <time>2026-08-31T08:35:13Z</time>
      </trkpt>
      <trkpt lat="44.70713" lon="7.04864">
        <ele>2433.2</ele>
        <time>2026-08-31T08:35:18Z</time>
      </trkpt>
      <trkpt lat="44.70713" lon="7.04864">
        <ele>2433.2</ele>
        <time>2026-08-31T08:35:24Z</time>
      </trkpt>
      <trkpt lat="44.70715" lon="7.04868">
        <ele>2434.2</ele>
        <time>2026-08-31T08:35:29Z</time>
      </trkpt>
      <trkpt lat="44.70717" lon="7.04875">
        <ele>2435.9</ele>
        <time>2026-08-31T08:35:34Z</time>
      </trkpt>
      <trkpt lat="44.70719" lon="7.04884">
        <ele>2438</ele>
        <time>2026-08-31T08:35:40Z</time>
      </trkpt>
      <trkpt lat="44.70721" lon="7.0489">
        <ele>2439.4</ele>
        <time>2026-08-31T08:35:45Z</time>
      </trkpt>
      <trkpt lat="44.70722" lon="7.04897">
        <ele>2441</ele>
        <time>2026-08-31T08:35:50Z</time>
      </trkpt>
      <trkpt lat="44.70725" lon="7.04904">
        <ele>2442.6</ele>
        <time>2026-08-31T08:35:56Z</time>
      </trkpt>
      <trkpt lat="44.70728" lon="7.04909">
        <ele>2443.9</ele>
        <time>2026-08-31T08:36:01Z</time>
      </trkpt>
      <trkpt lat="44.7073" lon="7.04914">
        <ele>2445</ele>
        <time>2026-08-31T08:36:06Z</time>
      </trkpt>
      <trkpt lat="44.70733" lon="7.0492">
        <ele>2446.2</ele>
        <time>2026-08-31T08:36:12Z</time>
      </trkpt>
      <trkpt lat="44.70734" lon="7.04922">
        <ele>2446.6</ele>
        <time>2026-08-31T08:36:17Z</time>
      </trkpt>
      <trkpt lat="44.70732" lon="7.04927">
        <ele>2447.1</ele>
        <time>2026-08-31T08:36:22Z</time>
      </trkpt>
      <trkpt lat="44.70729" lon="7.04935">
        <ele>2448.1</ele>
        <time>2026-08-31T08:36:28Z</time>
      </trkpt>
      <trkpt lat="44.70723" lon="7.04938">
        <ele>2448.2</ele>
        <time>2026-08-31T08:36:33Z</time>
      </trkpt>
      <trkpt lat="44.7072" lon="7.04942">
        <ele>2448.6</ele>
        <time>2026-08-31T08:36:38Z</time>
      </trkpt>
      <trkpt lat="44.70721" lon="7.0495">
        <ele>2449.9</ele>
        <time>2026-08-31T08:36:44Z</time>
      </trkpt>
      <trkpt lat="44.70723" lon="7.04956">
        <ele>2450.8</ele>
        <time>2026-08-31T08:36:49Z</time>
      </trkpt>
      <trkpt lat="44.70721" lon="7.04964">
        <ele>2452</ele>
        <time>2026-08-31T08:36:54Z</time>
      </trkpt>
      <trkpt lat="44.70716" lon="7.04967">
        <ele>2452.3</ele>
        <time>2026-08-31T08:37:00Z</time>
      </trkpt>
      <trkpt lat="44.7071" lon="7.04966">
        <ele>2452</ele>
        <time>2026-08-31T08:37:05Z</time>
      </trkpt>
      <trkpt lat="44.70705" lon="7.04969">
        <ele>2452.4</ele>
        <time>2026-08-31T08:37:10Z</time>
      </trkpt>
      <trkpt lat="44.707" lon="7.04972">
        <ele>2452.8</ele>
        <time>2026-08-31T08:37:16Z</time>
      </trkpt>
      <trkpt lat="44.70697" lon="7.04975">
        <ele>2453.3</ele>
        <time>2026-08-31T08:37:21Z</time>
      </trkpt>
      <trkpt lat="44.70694" lon="7.04977">
        <ele>2453.6</ele>
        <time>2026-08-31T08:37:26Z</time>
      </trkpt>
      <trkpt lat="44.70691" lon="7.0498">
        <ele>2454.1</ele>
        <time>2026-08-31T08:37:32Z</time>
      </trkpt>
      <trkpt lat="44.70687" lon="7.04981">
        <ele>2454.3</ele>
        <time>2026-08-31T08:37:37Z</time>
      </trkpt>
      <trkpt lat="44.70685" lon="7.04983">
        <ele>2454.6</ele>
        <time>2026-08-31T08:37:42Z</time>
      </trkpt>
      <trkpt lat="44.70681" lon="7.04982">
        <ele>2454.4</ele>
        <time>2026-08-31T08:37:48Z</time>
      </trkpt>
      <trkpt lat="44.70676" lon="7.04985">
        <ele>2455</ele>
        <time>2026-08-31T08:37:53Z</time>
      </trkpt>
      <trkpt lat="44.70673" lon="7.04986">
        <ele>2455.2</ele>
        <time>2026-08-31T08:37:58Z</time>
      </trkpt>
      <trkpt lat="44.70668" lon="7.04985">
        <ele>2454.9</ele>
        <time>2026-08-31T08:38:04Z</time>
      </trkpt>
      <trkpt lat="44.70664" lon="7.04985">
        <ele>2454.7</ele>
        <time>2026-08-31T08:38:09Z</time>
      </trkpt>
      <trkpt lat="44.70661" lon="7.04985">
        <ele>2454.3</ele>
        <time>2026-08-31T08:38:14Z</time>
      </trkpt>
      <trkpt lat="44.70657" lon="7.04984">
        <ele>2453.7</ele>
        <time>2026-08-31T08:38:20Z</time>
      </trkpt>
      <trkpt lat="44.70653" lon="7.04981">
        <ele>2452.7</ele>
        <time>2026-08-31T08:38:25Z</time>
      </trkpt>
      <trkpt lat="44.7065" lon="7.04981">
        <ele>2452.3</ele>
        <time>2026-08-31T08:38:30Z</time>
      </trkpt>
      <trkpt lat="44.70646" lon="7.0498">
        <ele>2451.7</ele>
        <time>2026-08-31T08:38:36Z</time>
      </trkpt>
      <trkpt lat="44.70643" lon="7.04978">
        <ele>2450.9</ele>
        <time>2026-08-31T08:38:41Z</time>
      </trkpt>
      <trkpt lat="44.7064" lon="7.04976">
        <ele>2450.2</ele>
        <time>2026-08-31T08:38:46Z</time>
      </trkpt>
      <trkpt lat="44.70638" lon="7.04975">
        <ele>2449.7</ele>
        <time>2026-08-31T08:38:52Z</time>
      </trkpt>
      <trkpt lat="44.70638" lon="7.04975">
        <ele>2449.7</ele>
        <time>2026-08-31T08:38:57Z</time>
      </trkpt>
      <trkpt lat="44.70638" lon="7.04975">
        <ele>2449.7</ele>
        <time>2026-08-31T08:39:02Z</time>
      </trkpt>
      <trkpt lat="44.70638" lon="7.04975">
        <ele>2449.7</ele>
        <time>2026-08-31T08:39:08Z</time>
      </trkpt>
      <trkpt lat="44.70638" lon="7.04975">
        <ele>2449.7</ele>
        <time>2026-08-31T08:39:13Z</time>
      </trkpt>
      <trkpt lat="44.70638" lon="7.04975">
        <ele>2449.7</ele>
        <time>2026-08-31T08:39:18Z</time>
      </trkpt>
      <trkpt lat="44.70638" lon="7.04975">
        <ele>2449.7</ele>
        <time>2026-08-31T08:39:24Z</time>
      </trkpt>
      <trkpt lat="44.70638" lon="7.04975">
        <ele>2449.7</ele>
        <time>2026-08-31T08:39:29Z</time>
      </trkpt>
      <trkpt lat="44.70638" lon="7.04975">
        <ele>2449.7</ele>
        <time>2026-08-31T08:39:34Z</time>
      </trkpt>
      <trkpt lat="44.70638" lon="7.04975">
        <ele>2449.7</ele>
        <time>2026-08-31T08:39:40Z</time>
      </trkpt>
      <trkpt lat="44.70638" lon="7.04975">
        <ele>2449.7</ele>
        <time>2026-08-31T08:39:45Z</time>
      </trkpt>
      <trkpt lat="44.70638" lon="7.04975">
        <ele>2449.7</ele>
        <time>2026-08-31T08:39:50Z</time>
      </trkpt>
      <trkpt lat="44.70638" lon="7.04975">
        <ele>2449.7</ele>
        <time>2026-08-31T08:39:56Z</time>
      </trkpt>
      <trkpt lat="44.70638" lon="7.04975">
        <ele>2449.7</ele>
        <time>2026-08-31T08:40:01Z</time>
      </trkpt>
      <trkpt lat="44.70638" lon="7.04975">
        <ele>2449.7</ele>
        <time>2026-08-31T08:40:06Z</time>
      </trkpt>
      <trkpt lat="44.70638" lon="7.04975">
        <ele>2449.7</ele>
        <time>2026-08-31T08:40:12Z</time>
      </trkpt>
      <trkpt lat="44.70638" lon="7.04975">
        <ele>2449.7</ele>
        <time>2026-08-31T08:40:17Z</time>
      </trkpt>
      <trkpt lat="44.70638" lon="7.04975">
        <ele>2449.7</ele>
        <time>2026-08-31T08:40:22Z</time>
      </trkpt>
      <trkpt lat="44.70638" lon="7.04975">
        <ele>2449.7</ele>
        <time>2026-08-31T08:40:28Z</time>
      </trkpt>
      <trkpt lat="44.70638" lon="7.04975">
        <ele>2449.7</ele>
        <time>2026-08-31T08:40:33Z</time>
      </trkpt>
      <trkpt lat="44.70638" lon="7.04975">
        <ele>2449.7</ele>
        <time>2026-08-31T08:40:38Z</time>
      </trkpt>
      <trkpt lat="44.70638" lon="7.04975">
        <ele>2449.7</ele>
        <time>2026-08-31T08:40:44Z</time>
      </trkpt>
      <trkpt lat="44.70638" lon="7.04975">
        <ele>2449.7</ele>
        <time>2026-08-31T08:40:49Z</time>
      </trkpt>
      <trkpt lat="44.70635" lon="7.04975">
        <ele>2449.4</ele>
        <time>2026-08-31T08:40:54Z</time>
      </trkpt>
      <trkpt lat="44.70629" lon="7.04973">
        <ele>2448.3</ele>
        <time>2026-08-31T08:41:00Z</time>
      </trkpt>
      <trkpt lat="44.70626" lon="7.04973">
        <ele>2448</ele>
        <time>2026-08-31T08:41:05Z</time>
      </trkpt>
      <trkpt lat="44.70621" lon="7.04973">
        <ele>2447.4</ele>
        <time>2026-08-31T08:41:10Z</time>
      </trkpt>
      <trkpt lat="44.70617" lon="7.04971">
        <ele>2446.5</ele>
        <time>2026-08-31T08:41:16Z</time>
      </trkpt>
      <trkpt lat="44.70615" lon="7.04968">
        <ele>2445.6</ele>
        <time>2026-08-31T08:41:21Z</time>
      </trkpt>
      <trkpt lat="44.70612" lon="7.04964">
        <ele>2444.3</ele>
        <time>2026-08-31T08:41:26Z</time>
      </trkpt>
      <trkpt lat="44.70609" lon="7.04961">
        <ele>2443.2</ele>
        <time>2026-08-31T08:41:32Z</time>
      </trkpt>
      <trkpt lat="44.70608" lon="7.04958">
        <ele>2442.4</ele>
        <time>2026-08-31T08:41:37Z</time>
      </trkpt>
      <trkpt lat="44.70609" lon="7.04957">
        <ele>2442.3</ele>
        <time>2026-08-31T08:41:42Z</time>
      </trkpt>
      <trkpt lat="44.70609" lon="7.04956">
        <ele>2442</ele>
        <time>2026-08-31T08:41:48Z</time>
      </trkpt>
      <trkpt lat="44.70609" lon="7.04956">
        <ele>2442</ele>
        <time>2026-08-31T08:41:53Z</time>
      </trkpt>
      <trkpt lat="44.70609" lon="7.04956">
        <ele>2442</ele>
        <time>2026-08-31T08:41:58Z</time>
      </trkpt>
      <trkpt lat="44.70607" lon="7.04952">
        <ele>2440.8</ele>
        <time>2026-08-31T08:42:04Z</time>
      </trkpt>
      <trkpt lat="44.70603" lon="7.04949">
        <ele>2439.6</ele>
        <time>2026-08-31T08:42:09Z</time>
      </trkpt>
      <trkpt lat="44.70597" lon="7.04948">
        <ele>2438.6</ele>
        <time>2026-08-31T08:42:14Z</time>
      </trkpt>
      <trkpt lat="44.70589" lon="7.04953">
        <ele>2438.9</ele>
        <time>2026-08-31T08:42:20Z</time>
      </trkpt>
      <trkpt lat="44.70585" lon="7.04955">
        <ele>2438.9</ele>
        <time>2026-08-31T08:42:25Z</time>
      </trkpt>
      <trkpt lat="44.7058" lon="7.04957">
        <ele>2438.9</ele>
        <time>2026-08-31T08:42:30Z</time>
      </trkpt>
      <trkpt lat="44.70573" lon="7.04962">
        <ele>2439.5</ele>
        <time>2026-08-31T08:42:36Z</time>
      </trkpt>
      <trkpt lat="44.70569" lon="7.04965">
        <ele>2439.9</ele>
        <time>2026-08-31T08:42:41Z</time>
      </trkpt>
      <trkpt lat="44.70564" lon="7.04971">
        <ele>2440.9</ele>
        <time>2026-08-31T08:42:46Z</time>
      </trkpt>
      <trkpt lat="44.7056" lon="7.04978">
        <ele>2442.1</ele>
        <time>2026-08-31T08:42:52Z</time>
      </trkpt>
      <trkpt lat="44.70555" lon="7.0498">
        <ele>2442</ele>
        <time>2026-08-31T08:42:57Z</time>
      </trkpt>
      <trkpt lat="44.7055" lon="7.04981">
        <ele>2441.8</ele>
        <time>2026-08-31T08:43:02Z</time>
      </trkpt>
      <trkpt lat="44.70547" lon="7.04984">
        <ele>2442.1</ele>
        <time>2026-08-31T08:43:08Z</time>
      </trkpt>
      <trkpt lat="44.70543" lon="7.04986">
        <ele>2442.1</ele>
        <time>2026-08-31T08:43:13Z</time>
      </trkpt>
      <trkpt lat="44.70539" lon="7.04988">
        <ele>2442.1</ele>
        <time>2026-08-31T08:43:18Z</time>
      </trkpt>
      <trkpt lat="44.70532" lon="7.0499">
        <ele>2441.8</ele>
        <time>2026-08-31T08:43:24Z</time>
      </trkpt>
      <trkpt lat="44.70526" lon="7.0499">
        <ele>2441.1</ele>
        <time>2026-08-31T08:43:29Z</time>
      </trkpt>
      <trkpt lat="44.70523" lon="7.04992">
        <ele>2441.2</ele>
        <time>2026-08-31T08:43:34Z</time>
      </trkpt>
      <trkpt lat="44.7052" lon="7.04998">
        <ele>2442</ele>
        <time>2026-08-31T08:43:40Z</time>
      </trkpt>
      <trkpt lat="44.70519" lon="7.04999">
        <ele>2442.1</ele>
        <time>2026-08-31T08:43:45Z</time>
      </trkpt>
      <trkpt lat="44.70517" lon="7.05">
        <ele>2442</ele>
        <time>2026-08-31T08:43:50Z</time>
      </trkpt>
      <trkpt lat="44.70513" lon="7.05003">
        <ele>2442.4</ele>
        <time>2026-08-31T08:43:56Z</time>
      </trkpt>
      <trkpt lat="44.70509" lon="7.05006">
        <ele>2442.7</ele>
        <time>2026-08-31T08:44:01Z</time>
      </trkpt>
      <trkpt lat="44.70506" lon="7.05011">
        <ele>2443.8</ele>
        <time>2026-08-31T08:44:06Z</time>
      </trkpt>
      <trkpt lat="44.70506" lon="7.05012">
        <ele>2444</ele>
        <time>2026-08-31T08:44:12Z</time>
      </trkpt>
      <trkpt lat="44.70504" lon="7.05012">
        <ele>2443.8</ele>
        <time>2026-08-31T08:44:17Z</time>
      </trkpt>
      <trkpt lat="44.70498" lon="7.05014">
        <ele>2443.6</ele>
        <time>2026-08-31T08:44:22Z</time>
      </trkpt>
      <trkpt lat="44.70495" lon="7.0502">
        <ele>2444.8</ele>
        <time>2026-08-31T08:44:28Z</time>
      </trkpt>
      <trkpt lat="44.70492" lon="7.05025">
        <ele>2445.7</ele>
        <time>2026-08-31T08:44:33Z</time>
      </trkpt>
      <trkpt lat="44.70491" lon="7.05027">
        <ele>2446.2</ele>
        <time>2026-08-31T08:44:38Z</time>
      </trkpt>
      <trkpt lat="44.70486" lon="7.0503">
        <ele>2446.3</ele>
        <time>2026-08-31T08:44:44Z</time>
      </trkpt>
      <trkpt lat="44.70482" lon="7.05032">
        <ele>2446.2</ele>
        <time>2026-08-31T08:44:49Z</time>
      </trkpt>
      <trkpt lat="44.70477" lon="7.05037">
        <ele>2446.9</ele>
        <time>2026-08-31T08:44:54Z</time>
      </trkpt>
      <trkpt lat="44.70474" lon="7.0504">
        <ele>2447.3</ele>
        <time>2026-08-31T08:45:00Z</time>
      </trkpt>
      <trkpt lat="44.70472" lon="7.05044">
        <ele>2448.1</ele>
        <time>2026-08-31T08:45:05Z</time>
      </trkpt>
      <trkpt lat="44.7047" lon="7.05047">
        <ele>2448.7</ele>
        <time>2026-08-31T08:45:10Z</time>
      </trkpt>
      <trkpt lat="44.70469" lon="7.05051">
        <ele>2449.6</ele>
        <time>2026-08-31T08:45:16Z</time>
      </trkpt>
      <trkpt lat="44.70468" lon="7.05051">
        <ele>2449.5</ele>
        <time>2026-08-31T08:45:21Z</time>
      </trkpt>
      <trkpt lat="44.70468" lon="7.05051">
        <ele>2449.5</ele>
        <time>2026-08-31T08:45:26Z</time>
      </trkpt>
      <trkpt lat="44.70468" lon="7.05051">
        <ele>2449.5</ele>
        <time>2026-08-31T08:45:32Z</time>
      </trkpt>
      <trkpt lat="44.70468" lon="7.05051">
        <ele>2449.5</ele>
        <time>2026-08-31T08:45:37Z</time>
      </trkpt>
      <trkpt lat="44.70468" lon="7.05051">
        <ele>2449.5</ele>
        <time>2026-08-31T08:45:42Z</time>
      </trkpt>
      <trkpt lat="44.70468" lon="7.05051">
        <ele>2449.5</ele>
        <time>2026-08-31T08:45:48Z</time>
      </trkpt>
      <trkpt lat="44.70468" lon="7.05051">
        <ele>2449.5</ele>
        <time>2026-08-31T08:45:53Z</time>
      </trkpt>
      <trkpt lat="44.70468" lon="7.05051">
        <ele>2449.5</ele>
        <time>2026-08-31T08:45:58Z</time>
      </trkpt>
      <trkpt lat="44.70468" lon="7.05051">
        <ele>2449.5</ele>
        <time>2026-08-31T08:46:04Z</time>
      </trkpt>
      <trkpt lat="44.70461" lon="7.05057">
        <ele>2450.1</ele>
        <time>2026-08-31T08:46:09Z</time>
      </trkpt>
      <trkpt lat="44.70458" lon="7.05061">
        <ele>2450.8</ele>
        <time>2026-08-31T08:46:14Z</time>
      </trkpt>
      <trkpt lat="44.70455" lon="7.05065">
        <ele>2451.5</ele>
        <time>2026-08-31T08:46:20Z</time>
      </trkpt>
      <trkpt lat="44.70451" lon="7.05067">
        <ele>2451.4</ele>
        <time>2026-08-31T08:46:25Z</time>
      </trkpt>
      <trkpt lat="44.70445" lon="7.05067">
        <ele>2450.6</ele>
        <time>2026-08-31T08:46:30Z</time>
      </trkpt>
      <trkpt lat="44.70437" lon="7.05068">
        <ele>2449.7</ele>
        <time>2026-08-31T08:46:36Z</time>
      </trkpt>
      <trkpt lat="44.70431" lon="7.05069">
        <ele>2449.1</ele>
        <time>2026-08-31T08:46:41Z</time>
      </trkpt>
      <trkpt lat="44.70426" lon="7.05072">
        <ele>2449.2</ele>
        <time>2026-08-31T08:46:46Z</time>
      </trkpt>
      <trkpt lat="44.70419" lon="7.05074">
        <ele>2448.8</ele>
        <time>2026-08-31T08:46:52Z</time>
      </trkpt>
      <trkpt lat="44.70413" lon="7.05076">
        <ele>2448.9</ele>
        <time>2026-08-31T08:46:57Z</time>
      </trkpt>
      <trkpt lat="44.70409" lon="7.0508">
        <ele>2449.9</ele>
        <time>2026-08-31T08:47:02Z</time>
      </trkpt>
      <trkpt lat="44.70404" lon="7.05085">
        <ele>2451.1</ele>
        <time>2026-08-31T08:47:08Z</time>
      </trkpt>
      <trkpt lat="44.704" lon="7.05088">
        <ele>2451.7</ele>
        <time>2026-08-31T08:47:13Z</time>
      </trkpt>
      <trkpt lat="44.70396" lon="7.05093">
        <ele>2452.8</ele>
        <time>2026-08-31T08:47:18Z</time>
      </trkpt>
      <trkpt lat="44.70392" lon="7.05097">
        <ele>2453.6</ele>
        <time>2026-08-31T08:47:24Z</time>
      </trkpt>
      <trkpt lat="44.70389" lon="7.05101">
        <ele>2454.4</ele>
        <time>2026-08-31T08:47:29Z</time>
      </trkpt>
      <trkpt lat="44.70384" lon="7.05105">
        <ele>2455.1</ele>
        <time>2026-08-31T08:47:34Z</time>
      </trkpt>
      <trkpt lat="44.7038" lon="7.05106">
        <ele>2455.1</ele>
        <time>2026-08-31T08:47:40Z</time>
      </trkpt>
      <trkpt lat="44.70376" lon="7.05109">
        <ele>2455.6</ele>
        <time>2026-08-31T08:47:45Z</time>
      </trkpt>
      <trkpt lat="44.70371" lon="7.05112">
        <ele>2456</ele>
        <time>2026-08-31T08:47:50Z</time>
      </trkpt>
      <trkpt lat="44.70366" lon="7.05117">
        <ele>2456.7</ele>
        <time>2026-08-31T08:47:56Z</time>
      </trkpt>
      <trkpt lat="44.70361" lon="7.05121">
        <ele>2457.2</ele>
        <time>2026-08-31T08:48:01Z</time>
      </trkpt>
      <trkpt lat="44.70356" lon="7.05124">
        <ele>2457.4</ele>
        <time>2026-08-31T08:48:06Z</time>
      </trkpt>
      <trkpt lat="44.70349" lon="7.05128">
        <ele>2457.7</ele>
        <time>2026-08-31T08:48:12Z</time>
      </trkpt>
      <trkpt lat="44.70344" lon="7.05132">
        <ele>2458</ele>
        <time>2026-08-31T08:48:17Z</time>
      </trkpt>
      <trkpt lat="44.70338" lon="7.05136">
        <ele>2458.2</ele>
        <time>2026-08-31T08:48:22Z</time>
      </trkpt>
      <trkpt lat="44.70333" lon="7.05139">
        <ele>2458.3</ele>
        <time>2026-08-31T08:48:28Z</time>
      </trkpt>
      <trkpt lat="44.70327" lon="7.05142">
        <ele>2458.8</ele>
        <time>2026-08-31T08:48:33Z</time>
      </trkpt>
      <trkpt lat="44.70324" lon="7.05144">
        <ele>2459.1</ele>
        <time>2026-08-31T08:48:38Z</time>
      </trkpt>
      <trkpt lat="44.70321" lon="7.05148">
        <ele>2459.7</ele>
        <time>2026-08-31T08:48:44Z</time>
      </trkpt>
      <trkpt lat="44.70315" lon="7.05149">
        <ele>2459.8</ele>
        <time>2026-08-31T08:48:49Z</time>
      </trkpt>
      <trkpt lat="44.70309" lon="7.05149">
        <ele>2459.7</ele>
        <time>2026-08-31T08:48:54Z</time>
      </trkpt>
      <trkpt lat="44.703" lon="7.05149">
        <ele>2459.6</ele>
        <time>2026-08-31T08:49:00Z</time>
      </trkpt>
      <trkpt lat="44.70294" lon="7.05153">
        <ele>2460.2</ele>
        <time>2026-08-31T08:49:05Z</time>
      </trkpt>
      <trkpt lat="44.70288" lon="7.05155">
        <ele>2460.5</ele>
        <time>2026-08-31T08:49:10Z</time>
      </trkpt>
      <trkpt lat="44.7028" lon="7.0516">
        <ele>2461.2</ele>
        <time>2026-08-31T08:49:16Z</time>
      </trkpt>
      <trkpt lat="44.70277" lon="7.05167">
        <ele>2462.4</ele>
        <time>2026-08-31T08:49:21Z</time>
      </trkpt>
      <trkpt lat="44.70272" lon="7.05171">
        <ele>2463.1</ele>
        <time>2026-08-31T08:49:26Z</time>
      </trkpt>
      <trkpt lat="44.70265" lon="7.05175">
        <ele>2463.7</ele>
        <time>2026-08-31T08:49:32Z</time>
      </trkpt>
      <trkpt lat="44.70261" lon="7.05178">
        <ele>2464.3</ele>
        <time>2026-08-31T08:49:37Z</time>
      </trkpt>
      <trkpt lat="44.70257" lon="7.05179">
        <ele>2464.4</ele>
        <time>2026-08-31T08:49:42Z</time>
      </trkpt>
      <trkpt lat="44.70253" lon="7.05181">
        <ele>2464.8</ele>
        <time>2026-08-31T08:49:48Z</time>
      </trkpt>
      <trkpt lat="44.70247" lon="7.05182">
        <ele>2465</ele>
        <time>2026-08-31T08:49:53Z</time>
      </trkpt>
      <trkpt lat="44.70241" lon="7.05182">
        <ele>2465.3</ele>
        <time>2026-08-31T08:49:58Z</time>
      </trkpt>
      <trkpt lat="44.70236" lon="7.05185">
        <ele>2466</ele>
        <time>2026-08-31T08:50:04Z</time>
      </trkpt>
      <trkpt lat="44.70233" lon="7.05186">
        <ele>2466.2</ele>
        <time>2026-08-31T08:50:09Z</time>
      </trkpt>
      <trkpt lat="44.70229" lon="7.05185">
        <ele>2466.2</ele>
        <time>2026-08-31T08:50:14Z</time>
      </trkpt>
      <trkpt lat="44.70223" lon="7.05185">
        <ele>2466.4</ele>
        <time>2026-08-31T08:50:20Z</time>
      </trkpt>
      <trkpt lat="44.70218" lon="7.05187">
        <ele>2466.9</ele>
        <time>2026-08-31T08:50:25Z</time>
      </trkpt>
      <trkpt lat="44.70212" lon="7.05185">
        <ele>2466.7</ele>
        <time>2026-08-31T08:50:30Z</time>
      </trkpt>
      <trkpt lat="44.70206" lon="7.05186">
        <ele>2467.1</ele>
        <time>2026-08-31T08:50:36Z</time>
      </trkpt>
      <trkpt lat="44.70199" lon="7.05186">
        <ele>2467.3</ele>
        <time>2026-08-31T08:50:41Z</time>
      </trkpt>
      <trkpt lat="44.70194" lon="7.05188">
        <ele>2467.8</ele>
        <time>2026-08-31T08:50:46Z</time>
      </trkpt>
      <trkpt lat="44.70185" lon="7.05187">
        <ele>2467.9</ele>
        <time>2026-08-31T08:50:52Z</time>
      </trkpt>
      <trkpt lat="44.70179" lon="7.05187">
        <ele>2468.1</ele>
        <time>2026-08-31T08:50:57Z</time>
      </trkpt>
      <trkpt lat="44.70174" lon="7.05184">
        <ele>2467.8</ele>
        <time>2026-08-31T08:51:02Z</time>
      </trkpt>
      <trkpt lat="44.70168" lon="7.05182">
        <ele>2467.8</ele>
        <time>2026-08-31T08:51:08Z</time>
      </trkpt>
      <trkpt lat="44.70161" lon="7.05184">
        <ele>2467.8</ele>
        <time>2026-08-31T08:51:13Z</time>
      </trkpt>
      <trkpt lat="44.70156" lon="7.0518">
        <ele>2467.2</ele>
        <time>2026-08-31T08:51:18Z</time>
      </trkpt>
      <trkpt lat="44.70148" lon="7.05175">
        <ele>2466.3</ele>
        <time>2026-08-31T08:51:24Z</time>
      </trkpt>
      <trkpt lat="44.70141" lon="7.05175">
        <ele>2466</ele>
        <time>2026-08-31T08:51:29Z</time>
      </trkpt>
      <trkpt lat="44.70135" lon="7.05177">
        <ele>2466</ele>
        <time>2026-08-31T08:51:34Z</time>
      </trkpt>
      <trkpt lat="44.70129" lon="7.0518">
        <ele>2466.1</ele>
        <time>2026-08-31T08:51:40Z</time>
      </trkpt>
      <trkpt lat="44.70124" lon="7.05179">
        <ele>2465.8</ele>
        <time>2026-08-31T08:51:45Z</time>
      </trkpt>
      <trkpt lat="44.70119" lon="7.05178">
        <ele>2465.5</ele>
        <time>2026-08-31T08:51:50Z</time>
      </trkpt>
      <trkpt lat="44.70113" lon="7.05176">
        <ele>2465</ele>
        <time>2026-08-31T08:51:56Z</time>
      </trkpt>
      <trkpt lat="44.70108" lon="7.05173">
        <ele>2464.5</ele>
        <time>2026-08-31T08:52:01Z</time>
      </trkpt>
      <trkpt lat="44.70104" lon="7.0517">
        <ele>2464.1</ele>
        <time>2026-08-31T08:52:06Z</time>
      </trkpt>
      <trkpt lat="44.701" lon="7.05167">
        <ele>2463.6</ele>
        <time>2026-08-31T08:52:12Z</time>
      </trkpt>
      <trkpt lat="44.70097" lon="7.05165">
        <ele>2463.2</ele>
        <time>2026-08-31T08:52:17Z</time>
      </trkpt>
      <trkpt lat="44.70096" lon="7.05164">
        <ele>2463</ele>
        <time>2026-08-31T08:52:22Z</time>
      </trkpt>
      <trkpt lat="44.70092" lon="7.05163">
        <ele>2462.6</ele>
        <time>2026-08-31T08:52:28Z</time>
      </trkpt>
      <trkpt lat="44.70091" lon="7.05163">
        <ele>2462.6</ele>
        <time>2026-08-31T08:52:33Z</time>
      </trkpt>
      <trkpt lat="44.70089" lon="7.05162">
        <ele>2462.3</ele>
        <time>2026-08-31T08:52:38Z</time>
      </trkpt>
      <trkpt lat="44.70083" lon="7.05159">
        <ele>2461.3</ele>
        <time>2026-08-31T08:52:44Z</time>
      </trkpt>
      <trkpt lat="44.70079" lon="7.05156">
        <ele>2459.6</ele>
        <time>2026-08-31T08:52:49Z</time>
      </trkpt>
      <trkpt lat="44.70075" lon="7.05155">
        <ele>2458.2</ele>
        <time>2026-08-31T08:52:54Z</time>
      </trkpt>
      <trkpt lat="44.7007" lon="7.05155">
        <ele>2456.8</ele>
        <time>2026-08-31T08:53:00Z</time>
      </trkpt>
      <trkpt lat="44.70065" lon="7.05156">
        <ele>2455.5</ele>
        <time>2026-08-31T08:53:05Z</time>
      </trkpt>
      <trkpt lat="44.70062" lon="7.05158">
        <ele>2455.1</ele>
        <time>2026-08-31T08:53:10Z</time>
      </trkpt>
      <trkpt lat="44.70057" lon="7.05161">
        <ele>2454.3</ele>
        <time>2026-08-31T08:53:16Z</time>
      </trkpt>
      <trkpt lat="44.70053" lon="7.05163">
        <ele>2453.5</ele>
        <time>2026-08-31T08:53:21Z</time>
      </trkpt>
      <trkpt lat="44.70049" lon="7.05164">
        <ele>2452.6</ele>
        <time>2026-08-31T08:53:26Z</time>
      </trkpt>
      <trkpt lat="44.70046" lon="7.05171">
        <ele>2452.9</ele>
        <time>2026-08-31T08:53:32Z</time>
      </trkpt>
      <trkpt lat="44.70044" lon="7.05171">
        <ele>2452.3</ele>
        <time>2026-08-31T08:53:37Z</time>
      </trkpt>
      <trkpt lat="44.70043" lon="7.05165">
        <ele>2451</ele>
        <time>2026-08-31T08:53:42Z</time>
      </trkpt>
      <trkpt lat="44.70042" lon="7.05164">
        <ele>2450.6</ele>
        <time>2026-08-31T08:53:48Z</time>
      </trkpt>
      <trkpt lat="44.70042" lon="7.05164">
        <ele>2450.6</ele>
        <time>2026-08-31T08:53:53Z</time>
      </trkpt>
      <trkpt lat="44.70042" lon="7.05164">
        <ele>2450.6</ele>
        <time>2026-08-31T08:53:58Z</time>
      </trkpt>
      <trkpt lat="44.70042" lon="7.05164">
        <ele>2450.6</ele>
        <time>2026-08-31T08:54:04Z</time>
      </trkpt>
      <trkpt lat="44.70042" lon="7.05164">
        <ele>2450.6</ele>
        <time>2026-08-31T08:54:09Z</time>
      </trkpt>
      <trkpt lat="44.70042" lon="7.05164">
        <ele>2450.6</ele>
        <time>2026-08-31T08:54:14Z</time>
      </trkpt>
      <trkpt lat="44.70042" lon="7.05164">
        <ele>2450.6</ele>
        <time>2026-08-31T08:54:20Z</time>
      </trkpt>
      <trkpt lat="44.70042" lon="7.05164">
        <ele>2450.6</ele>
        <time>2026-08-31T08:54:25Z</time>
      </trkpt>
      <trkpt lat="44.70042" lon="7.05164">
        <ele>2450.6</ele>
        <time>2026-08-31T08:54:30Z</time>
      </trkpt>
      <trkpt lat="44.70042" lon="7.05164">
        <ele>2450.6</ele>
        <time>2026-08-31T08:54:36Z</time>
      </trkpt>
      <trkpt lat="44.70042" lon="7.05164">
        <ele>2450.6</ele>
        <time>2026-08-31T08:54:41Z</time>
      </trkpt>
      <trkpt lat="44.70042" lon="7.05164">
        <ele>2450.6</ele>
        <time>2026-08-31T08:54:46Z</time>
      </trkpt>
      <trkpt lat="44.70042" lon="7.05164">
        <ele>2450.6</ele>
        <time>2026-08-31T08:54:52Z</time>
      </trkpt>
      <trkpt lat="44.70042" lon="7.05164">
        <ele>2450.6</ele>
        <time>2026-08-31T08:54:57Z</time>
      </trkpt>
      <trkpt lat="44.70042" lon="7.05164">
        <ele>2450.6</ele>
        <time>2026-08-31T08:55:02Z</time>
      </trkpt>
      <trkpt lat="44.70042" lon="7.05164">
        <ele>2450.6</ele>
        <time>2026-08-31T08:55:08Z</time>
      </trkpt>
      <trkpt lat="44.70042" lon="7.05164">
        <ele>2450.6</ele>
        <time>2026-08-31T08:55:13Z</time>
      </trkpt>
      <trkpt lat="44.70042" lon="7.05164">
        <ele>2450.6</ele>
        <time>2026-08-31T08:55:18Z</time>
      </trkpt>
      <trkpt lat="44.70042" lon="7.05164">
        <ele>2450.6</ele>
        <time>2026-08-31T08:55:24Z</time>
      </trkpt>
      <trkpt lat="44.70042" lon="7.05164">
        <ele>2450.6</ele>
        <time>2026-08-31T08:55:29Z</time>
      </trkpt>
      <trkpt lat="44.70042" lon="7.05164">
        <ele>2450.6</ele>
        <time>2026-08-31T08:55:34Z</time>
      </trkpt>
      <trkpt lat="44.70042" lon="7.05164">
        <ele>2450.6</ele>
        <time>2026-08-31T08:55:40Z</time>
      </trkpt>
      <trkpt lat="44.70042" lon="7.05164">
        <ele>2450.6</ele>
        <time>2026-08-31T08:55:45Z</time>
      </trkpt>
      <trkpt lat="44.70042" lon="7.05164">
        <ele>2450.6</ele>
        <time>2026-08-31T08:55:50Z</time>
      </trkpt>
      <trkpt lat="44.70043" lon="7.05164">
        <ele>2450.8</ele>
        <time>2026-08-31T08:55:56Z</time>
      </trkpt>
      <trkpt lat="44.70043" lon="7.05164">
        <ele>2450.8</ele>
        <time>2026-08-31T08:56:01Z</time>
      </trkpt>
      <trkpt lat="44.70045" lon="7.05164">
        <ele>2451.4</ele>
        <time>2026-08-31T08:56:06Z</time>
      </trkpt>
      <trkpt lat="44.70045" lon="7.05164">
        <ele>2451.4</ele>
        <time>2026-08-31T08:56:12Z</time>
      </trkpt>
      <trkpt lat="44.70045" lon="7.05164">
        <ele>2451.4</ele>
        <time>2026-08-31T08:56:17Z</time>
      </trkpt>
      <trkpt lat="44.70045" lon="7.05164">
        <ele>2451.4</ele>
        <time>2026-08-31T08:56:22Z</time>
      </trkpt>
      <trkpt lat="44.70045" lon="7.05164">
        <ele>2451.4</ele>
        <time>2026-08-31T08:56:28Z</time>
      </trkpt>
      <trkpt lat="44.70045" lon="7.05164">
        <ele>2451.4</ele>
        <time>2026-08-31T08:56:33Z</time>
      </trkpt>
      <trkpt lat="44.70045" lon="7.05164">
        <ele>2451.4</ele>
        <time>2026-08-31T08:56:38Z</time>
      </trkpt>
      <trkpt lat="44.70045" lon="7.05164">
        <ele>2451.4</ele>
        <time>2026-08-31T08:56:44Z</time>
      </trkpt>
      <trkpt lat="44.70045" lon="7.05164">
        <ele>2451.4</ele>
        <time>2026-08-31T08:56:49Z</time>
      </trkpt>
      <trkpt lat="44.70045" lon="7.05164">
        <ele>2451.4</ele>
        <time>2026-08-31T08:56:54Z</time>
      </trkpt>
      <trkpt lat="44.70045" lon="7.05164">
        <ele>2451.4</ele>
        <time>2026-08-31T08:57:00Z</time>
      </trkpt>
      <trkpt lat="44.70045" lon="7.05164">
        <ele>2451.4</ele>
        <time>2026-08-31T08:57:05Z</time>
      </trkpt>
      <trkpt lat="44.70045" lon="7.05164">
        <ele>2451.4</ele>
        <time>2026-08-31T08:57:10Z</time>
      </trkpt>
      <trkpt lat="44.70045" lon="7.05164">
        <ele>2451.4</ele>
        <time>2026-08-31T08:57:16Z</time>
      </trkpt>
      <trkpt lat="44.70045" lon="7.05164">
        <ele>2451.4</ele>
        <time>2026-08-31T08:57:21Z</time>
      </trkpt>
      <trkpt lat="44.70045" lon="7.05164">
        <ele>2451.4</ele>
        <time>2026-08-31T08:57:26Z</time>
      </trkpt>
      <trkpt lat="44.70045" lon="7.05164">
        <ele>2451.4</ele>
        <time>2026-08-31T08:57:32Z</time>
      </trkpt>
      <trkpt lat="44.70045" lon="7.05164">
        <ele>2451.4</ele>
        <time>2026-08-31T08:57:37Z</time>
      </trkpt>
      <trkpt lat="44.70045" lon="7.05164">
        <ele>2451.4</ele>
        <time>2026-08-31T08:57:42Z</time>
      </trkpt>
      <trkpt lat="44.70045" lon="7.05164">
        <ele>2451.4</ele>
        <time>2026-08-31T08:57:48Z</time>
      </trkpt>
      <trkpt lat="44.70045" lon="7.05164">
        <ele>2451.4</ele>
        <time>2026-08-31T08:57:53Z</time>
      </trkpt>
      <trkpt lat="44.70045" lon="7.05164">
        <ele>2451.4</ele>
        <time>2026-08-31T08:57:58Z</time>
      </trkpt>
      <trkpt lat="44.70045" lon="7.05164">
        <ele>2451.4</ele>
        <time>2026-08-31T08:58:04Z</time>
      </trkpt>
      <trkpt lat="44.70045" lon="7.05164">
        <ele>2451.4</ele>
        <time>2026-08-31T08:58:09Z</time>
      </trkpt>
      <trkpt lat="44.70045" lon="7.05164">
        <ele>2451.4</ele>
        <time>2026-08-31T08:58:14Z</time>
      </trkpt>
      <trkpt lat="44.70045" lon="7.05164">
        <ele>2451.4</ele>
        <time>2026-08-31T08:58:20Z</time>
      </trkpt>
      <trkpt lat="44.70045" lon="7.05164">
        <ele>2451.4</ele>
        <time>2026-08-31T08:58:25Z</time>
      </trkpt>
      <trkpt lat="44.70045" lon="7.05164">
        <ele>2451.4</ele>
        <time>2026-08-31T08:58:30Z</time>
      </trkpt>
      <trkpt lat="44.70045" lon="7.05164">
        <ele>2451.4</ele>
        <time>2026-08-31T08:58:36Z</time>
      </trkpt>
      <trkpt lat="44.70045" lon="7.05164">
        <ele>2451.4</ele>
        <time>2026-08-31T08:58:41Z</time>
      </trkpt>
      <trkpt lat="44.70045" lon="7.05164">
        <ele>2451.4</ele>
        <time>2026-08-31T08:58:46Z</time>
      </trkpt>
      <trkpt lat="44.70045" lon="7.05164">
        <ele>2451.4</ele>
        <time>2026-08-31T08:58:52Z</time>
      </trkpt>
      <trkpt lat="44.70045" lon="7.05164">
        <ele>2451.4</ele>
        <time>2026-08-31T08:58:57Z</time>
      </trkpt>
      <trkpt lat="44.70045" lon="7.05164">
        <ele>2451.4</ele>
        <time>2026-08-31T08:59:02Z</time>
      </trkpt>
      <trkpt lat="44.70045" lon="7.05164">
        <ele>2451.4</ele>
        <time>2026-08-31T08:59:08Z</time>
      </trkpt>
      <trkpt lat="44.70045" lon="7.05164">
        <ele>2451.4</ele>
        <time>2026-08-31T08:59:13Z</time>
      </trkpt>
      <trkpt lat="44.70045" lon="7.05164">
        <ele>2451.4</ele>
        <time>2026-08-31T08:59:18Z</time>
      </trkpt>
      <trkpt lat="44.70045" lon="7.05164">
        <ele>2451.4</ele>
        <time>2026-08-31T08:59:24Z</time>
      </trkpt>
      <trkpt lat="44.70045" lon="7.05164">
        <ele>2451.4</ele>
        <time>2026-08-31T08:59:29Z</time>
      </trkpt>
      <trkpt lat="44.70045" lon="7.05164">
        <ele>2451.4</ele>
        <time>2026-08-31T08:59:34Z</time>
      </trkpt>
      <trkpt lat="44.70045" lon="7.05164">
        <ele>2451.4</ele>
        <time>2026-08-31T08:59:40Z</time>
      </trkpt>
      <trkpt lat="44.70045" lon="7.05164">
        <ele>2451.4</ele>
        <time>2026-08-31T08:59:45Z</time>
      </trkpt>
      <trkpt lat="44.70045" lon="7.05164">
        <ele>2451.4</ele>
        <time>2026-08-31T08:59:50Z</time>
      </trkpt>
      <trkpt lat="44.70045" lon="7.05164">
        <ele>2451.4</ele>
        <time>2026-08-31T08:59:56Z</time>
      </trkpt>
      <trkpt lat="44.70045" lon="7.05164">
        <ele>2451.4</ele>
        <time>2026-08-31T09:00:01Z</time>
      </trkpt>
      <trkpt lat="44.70045" lon="7.05164">
        <ele>2451.4</ele>
        <time>2026-08-31T09:00:06Z</time>
      </trkpt>
      <trkpt lat="44.70045" lon="7.05164">
        <ele>2451.4</ele>
        <time>2026-08-31T09:00:12Z</time>
      </trkpt>
      <trkpt lat="44.70045" lon="7.05164">
        <ele>2451.4</ele>
        <time>2026-08-31T09:00:17Z</time>
      </trkpt>
      <trkpt lat="44.70045" lon="7.05164">
        <ele>2451.4</ele>
        <time>2026-08-31T09:00:22Z</time>
      </trkpt>
      <trkpt lat="44.70045" lon="7.05164">
        <ele>2451.4</ele>
        <time>2026-08-31T09:00:28Z</time>
      </trkpt>
      <trkpt lat="44.70045" lon="7.05164">
        <ele>2451.4</ele>
        <time>2026-08-31T09:00:33Z</time>
      </trkpt>
      <trkpt lat="44.70045" lon="7.05164">
        <ele>2451.4</ele>
        <time>2026-08-31T09:00:38Z</time>
      </trkpt>
      <trkpt lat="44.70045" lon="7.05164">
        <ele>2451.4</ele>
        <time>2026-08-31T09:00:44Z</time>
      </trkpt>
      <trkpt lat="44.70045" lon="7.05164">
        <ele>2451.4</ele>
        <time>2026-08-31T09:00:49Z</time>
      </trkpt>
      <trkpt lat="44.70045" lon="7.05164">
        <ele>2451.4</ele>
        <time>2026-08-31T09:00:54Z</time>
      </trkpt>
      <trkpt lat="44.70045" lon="7.05164">
        <ele>2451.4</ele>
        <time>2026-08-31T09:01:00Z</time>
      </trkpt>
      <trkpt lat="44.70045" lon="7.05164">
        <ele>2451.4</ele>
        <time>2026-08-31T09:01:05Z</time>
      </trkpt>
      <trkpt lat="44.70045" lon="7.05164">
        <ele>2451.4</ele>
        <time>2026-08-31T09:01:10Z</time>
      </trkpt>
      <trkpt lat="44.70045" lon="7.05164">
        <ele>2451.4</ele>
        <time>2026-08-31T09:01:16Z</time>
      </trkpt>
      <trkpt lat="44.70045" lon="7.05164">
        <ele>2451.4</ele>
        <time>2026-08-31T09:01:21Z</time>
      </trkpt>
      <trkpt lat="44.70045" lon="7.05164">
        <ele>2451.4</ele>
        <time>2026-08-31T09:01:26Z</time>
      </trkpt>
      <trkpt lat="44.70045" lon="7.05164">
        <ele>2451.4</ele>
        <time>2026-08-31T09:01:32Z</time>
      </trkpt>
      <trkpt lat="44.70045" lon="7.05164">
        <ele>2451.4</ele>
        <time>2026-08-31T09:01:37Z</time>
      </trkpt>
      <trkpt lat="44.70045" lon="7.05164">
        <ele>2451.4</ele>
        <time>2026-08-31T09:01:42Z</time>
      </trkpt>
      <trkpt lat="44.70045" lon="7.05164">
        <ele>2451.4</ele>
        <time>2026-08-31T09:01:48Z</time>
      </trkpt>
      <trkpt lat="44.70045" lon="7.05164">
        <ele>2451.4</ele>
        <time>2026-08-31T09:01:53Z</time>
      </trkpt>
      <trkpt lat="44.70045" lon="7.05164">
        <ele>2451.4</ele>
        <time>2026-08-31T09:01:58Z</time>
      </trkpt>
      <trkpt lat="44.70045" lon="7.05164">
        <ele>2451.4</ele>
        <time>2026-08-31T09:02:04Z</time>
      </trkpt>
      <trkpt lat="44.70045" lon="7.05164">
        <ele>2451.4</ele>
        <time>2026-08-31T09:02:09Z</time>
      </trkpt>
      <trkpt lat="44.70045" lon="7.05164">
        <ele>2451.4</ele>
        <time>2026-08-31T09:02:14Z</time>
      </trkpt>
      <trkpt lat="44.70045" lon="7.05164">
        <ele>2451.4</ele>
        <time>2026-08-31T09:02:20Z</time>
      </trkpt>
      <trkpt lat="44.70045" lon="7.05164">
        <ele>2451.4</ele>
        <time>2026-08-31T09:02:25Z</time>
      </trkpt>
      <trkpt lat="44.70045" lon="7.05164">
        <ele>2451.4</ele>
        <time>2026-08-31T09:02:30Z</time>
      </trkpt>
      <trkpt lat="44.70045" lon="7.05164">
        <ele>2451.4</ele>
        <time>2026-08-31T09:02:36Z</time>
      </trkpt>
      <trkpt lat="44.70045" lon="7.05164">
        <ele>2451.4</ele>
        <time>2026-08-31T09:02:41Z</time>
      </trkpt>
      <trkpt lat="44.70045" lon="7.05164">
        <ele>2451.4</ele>
        <time>2026-08-31T09:02:46Z</time>
      </trkpt>
      <trkpt lat="44.70045" lon="7.05164">
        <ele>2451.4</ele>
        <time>2026-08-31T09:02:52Z</time>
      </trkpt>
      <trkpt lat="44.70045" lon="7.05164">
        <ele>2451.4</ele>
        <time>2026-08-31T09:02:57Z</time>
      </trkpt>
      <trkpt lat="44.70045" lon="7.05164">
        <ele>2451.4</ele>
        <time>2026-08-31T09:03:02Z</time>
      </trkpt>
      <trkpt lat="44.70045" lon="7.05164">
        <ele>2451.4</ele>
        <time>2026-08-31T09:03:08Z</time>
      </trkpt>
      <trkpt lat="44.70045" lon="7.05164">
        <ele>2451.4</ele>
        <time>2026-08-31T09:03:13Z</time>
      </trkpt>
      <trkpt lat="44.70045" lon="7.05164">
        <ele>2451.4</ele>
        <time>2026-08-31T09:03:18Z</time>
      </trkpt>
      <trkpt lat="44.70045" lon="7.05164">
        <ele>2451.4</ele>
        <time>2026-08-31T09:03:24Z</time>
      </trkpt>
      <trkpt lat="44.70045" lon="7.05164">
        <ele>2451.4</ele>
        <time>2026-08-31T09:03:29Z</time>
      </trkpt>
      <trkpt lat="44.70045" lon="7.05164">
        <ele>2451.4</ele>
        <time>2026-08-31T09:03:34Z</time>
      </trkpt>
      <trkpt lat="44.70045" lon="7.05164">
        <ele>2451.4</ele>
        <time>2026-08-31T09:03:40Z</time>
      </trkpt>
      <trkpt lat="44.70045" lon="7.05164">
        <ele>2451.4</ele>
        <time>2026-08-31T09:03:45Z</time>
      </trkpt>
      <trkpt lat="44.70045" lon="7.05164">
        <ele>2451.4</ele>
        <time>2026-08-31T09:03:50Z</time>
      </trkpt>
      <trkpt lat="44.70045" lon="7.05164">
        <ele>2451.4</ele>
        <time>2026-08-31T09:03:56Z</time>
      </trkpt>
      <trkpt lat="44.70045" lon="7.05164">
        <ele>2451.4</ele>
        <time>2026-08-31T09:04:01Z</time>
      </trkpt>
      <trkpt lat="44.70045" lon="7.05164">
        <ele>2451.4</ele>
        <time>2026-08-31T09:04:06Z</time>
      </trkpt>
      <trkpt lat="44.70045" lon="7.05164">
        <ele>2451.4</ele>
        <time>2026-08-31T09:04:12Z</time>
      </trkpt>
      <trkpt lat="44.70045" lon="7.05164">
        <ele>2451.4</ele>
        <time>2026-08-31T09:04:17Z</time>
      </trkpt>
      <trkpt lat="44.70045" lon="7.05164">
        <ele>2451.4</ele>
        <time>2026-08-31T09:04:22Z</time>
      </trkpt>
      <trkpt lat="44.70045" lon="7.05164">
        <ele>2451.4</ele>
        <time>2026-08-31T09:04:28Z</time>
      </trkpt>
      <trkpt lat="44.70045" lon="7.05164">
        <ele>2451.4</ele>
        <time>2026-08-31T09:04:33Z</time>
      </trkpt>
      <trkpt lat="44.70045" lon="7.05164">
        <ele>2451.4</ele>
        <time>2026-08-31T09:04:38Z</time>
      </trkpt>
      <trkpt lat="44.70045" lon="7.05164">
        <ele>2451.4</ele>
        <time>2026-08-31T09:04:44Z</time>
      </trkpt>
      <trkpt lat="44.70045" lon="7.05164">
        <ele>2451.4</ele>
        <time>2026-08-31T09:04:49Z</time>
      </trkpt>
      <trkpt lat="44.70045" lon="7.05164">
        <ele>2451.4</ele>
        <time>2026-08-31T09:04:54Z</time>
      </trkpt>
      <trkpt lat="44.70045" lon="7.05164">
        <ele>2451.4</ele>
        <time>2026-08-31T09:05:00Z</time>
      </trkpt>
      <trkpt lat="44.70045" lon="7.05164">
        <ele>2451.4</ele>
        <time>2026-08-31T09:05:05Z</time>
      </trkpt>
      <trkpt lat="44.70045" lon="7.05164">
        <ele>2451.4</ele>
        <time>2026-08-31T09:05:10Z</time>
      </trkpt>
      <trkpt lat="44.70045" lon="7.05164">
        <ele>2451.4</ele>
        <time>2026-08-31T09:05:16Z</time>
      </trkpt>
      <trkpt lat="44.70045" lon="7.05164">
        <ele>2451.4</ele>
        <time>2026-08-31T09:05:21Z</time>
      </trkpt>
      <trkpt lat="44.70045" lon="7.05164">
        <ele>2451.4</ele>
        <time>2026-08-31T09:05:26Z</time>
      </trkpt>
      <trkpt lat="44.70045" lon="7.05164">
        <ele>2451.4</ele>
        <time>2026-08-31T09:05:32Z</time>
      </trkpt>
      <trkpt lat="44.70045" lon="7.05164">
        <ele>2451.4</ele>
        <time>2026-08-31T09:05:37Z</time>
      </trkpt>
      <trkpt lat="44.70045" lon="7.05164">
        <ele>2451.4</ele>
        <time>2026-08-31T09:05:42Z</time>
      </trkpt>
      <trkpt lat="44.70045" lon="7.05164">
        <ele>2451.4</ele>
        <time>2026-08-31T09:05:48Z</time>
      </trkpt>
      <trkpt lat="44.70045" lon="7.05164">
        <ele>2451.4</ele>
        <time>2026-08-31T09:05:53Z</time>
      </trkpt>
      <trkpt lat="44.70045" lon="7.05164">
        <ele>2451.4</ele>
        <time>2026-08-31T09:05:58Z</time>
      </trkpt>
      <trkpt lat="44.70045" lon="7.05164">
        <ele>2451.4</ele>
        <time>2026-08-31T09:06:04Z</time>
      </trkpt>
      <trkpt lat="44.70045" lon="7.05164">
        <ele>2451.4</ele>
        <time>2026-08-31T09:06:09Z</time>
      </trkpt>
      <trkpt lat="44.70045" lon="7.05164">
        <ele>2451.4</ele>
        <time>2026-08-31T09:06:14Z</time>
      </trkpt>
      <trkpt lat="44.70045" lon="7.05164">
        <ele>2451.4</ele>
        <time>2026-08-31T09:06:20Z</time>
      </trkpt>
      <trkpt lat="44.70045" lon="7.05164">
        <ele>2451.4</ele>
        <time>2026-08-31T09:06:25Z</time>
      </trkpt>
      <trkpt lat="44.70045" lon="7.05164">
        <ele>2451.4</ele>
        <time>2026-08-31T09:06:30Z</time>
      </trkpt>
      <trkpt lat="44.70045" lon="7.05164">
        <ele>2451.4</ele>
        <time>2026-08-31T09:06:36Z</time>
      </trkpt>
      <trkpt lat="44.70045" lon="7.05164">
        <ele>2451.4</ele>
        <time>2026-08-31T09:06:41Z</time>
      </trkpt>
      <trkpt lat="44.70045" lon="7.05164">
        <ele>2451.4</ele>
        <time>2026-08-31T09:06:46Z</time>
      </trkpt>
      <trkpt lat="44.70045" lon="7.05164">
        <ele>2451.4</ele>
        <time>2026-08-31T09:06:52Z</time>
      </trkpt>
      <trkpt lat="44.70045" lon="7.05164">
        <ele>2451.4</ele>
        <time>2026-08-31T09:06:57Z</time>
      </trkpt>
      <trkpt lat="44.70045" lon="7.05164">
        <ele>2451.4</ele>
        <time>2026-08-31T09:07:02Z</time>
      </trkpt>
      <trkpt lat="44.70045" lon="7.05164">
        <ele>2451.4</ele>
        <time>2026-08-31T09:07:08Z</time>
      </trkpt>
      <trkpt lat="44.70045" lon="7.05164">
        <ele>2451.4</ele>
        <time>2026-08-31T09:07:13Z</time>
      </trkpt>
      <trkpt lat="44.70045" lon="7.05164">
        <ele>2451.4</ele>
        <time>2026-08-31T09:07:18Z</time>
      </trkpt>
      <trkpt lat="44.70045" lon="7.05164">
        <ele>2451.4</ele>
        <time>2026-08-31T09:07:24Z</time>
      </trkpt>
      <trkpt lat="44.70045" lon="7.05164">
        <ele>2451.4</ele>
        <time>2026-08-31T09:07:29Z</time>
      </trkpt>
      <trkpt lat="44.70045" lon="7.05164">
        <ele>2451.4</ele>
        <time>2026-08-31T09:07:34Z</time>
      </trkpt>
      <trkpt lat="44.70045" lon="7.05164">
        <ele>2451.4</ele>
        <time>2026-08-31T09:07:40Z</time>
      </trkpt>
      <trkpt lat="44.70045" lon="7.05164">
        <ele>2451.4</ele>
        <time>2026-08-31T09:07:45Z</time>
      </trkpt>
      <trkpt lat="44.70045" lon="7.05164">
        <ele>2451.4</ele>
        <time>2026-08-31T09:07:50Z</time>
      </trkpt>
      <trkpt lat="44.70045" lon="7.05164">
        <ele>2451.4</ele>
        <time>2026-08-31T09:07:56Z</time>
      </trkpt>
      <trkpt lat="44.70045" lon="7.05164">
        <ele>2451.4</ele>
        <time>2026-08-31T09:08:01Z</time>
      </trkpt>
      <trkpt lat="44.70045" lon="7.05164">
        <ele>2451.4</ele>
        <time>2026-08-31T09:08:06Z</time>
      </trkpt>
      <trkpt lat="44.70045" lon="7.05164">
        <ele>2451.4</ele>
        <time>2026-08-31T09:08:12Z</time>
      </trkpt>
      <trkpt lat="44.70045" lon="7.05164">
        <ele>2451.4</ele>
        <time>2026-08-31T09:08:17Z</time>
      </trkpt>
      <trkpt lat="44.70045" lon="7.05164">
        <ele>2451.4</ele>
        <time>2026-08-31T09:08:22Z</time>
      </trkpt>
      <trkpt lat="44.70045" lon="7.05164">
        <ele>2451.4</ele>
        <time>2026-08-31T09:08:28Z</time>
      </trkpt>
      <trkpt lat="44.70045" lon="7.05164">
        <ele>2451.4</ele>
        <time>2026-08-31T09:08:33Z</time>
      </trkpt>
      <trkpt lat="44.70045" lon="7.05164">
        <ele>2451.4</ele>
        <time>2026-08-31T09:08:38Z</time>
      </trkpt>
      <trkpt lat="44.70045" lon="7.05164">
        <ele>2451.4</ele>
        <time>2026-08-31T09:08:44Z</time>
      </trkpt>
      <trkpt lat="44.70045" lon="7.05164">
        <ele>2451.4</ele>
        <time>2026-08-31T09:08:49Z</time>
      </trkpt>
      <trkpt lat="44.70045" lon="7.05164">
        <ele>2451.4</ele>
        <time>2026-08-31T09:08:54Z</time>
      </trkpt>
      <trkpt lat="44.70045" lon="7.05164">
        <ele>2451.4</ele>
        <time>2026-08-31T09:09:00Z</time>
      </trkpt>
      <trkpt lat="44.70045" lon="7.05164">
        <ele>2451.4</ele>
        <time>2026-08-31T09:09:05Z</time>
      </trkpt>
      <trkpt lat="44.70045" lon="7.05164">
        <ele>2451.4</ele>
        <time>2026-08-31T09:09:10Z</time>
      </trkpt>
      <trkpt lat="44.70045" lon="7.05164">
        <ele>2451.4</ele>
        <time>2026-08-31T09:09:16Z</time>
      </trkpt>
      <trkpt lat="44.70045" lon="7.05164">
        <ele>2451.4</ele>
        <time>2026-08-31T09:09:21Z</time>
      </trkpt>
      <trkpt lat="44.70045" lon="7.05164">
        <ele>2451.4</ele>
        <time>2026-08-31T09:09:26Z</time>
      </trkpt>
      <trkpt lat="44.70045" lon="7.05164">
        <ele>2451.4</ele>
        <time>2026-08-31T09:09:32Z</time>
      </trkpt>
      <trkpt lat="44.70045" lon="7.05164">
        <ele>2451.4</ele>
        <time>2026-08-31T09:09:37Z</time>
      </trkpt>
      <trkpt lat="44.70045" lon="7.05164">
        <ele>2451.4</ele>
        <time>2026-08-31T09:09:42Z</time>
      </trkpt>
      <trkpt lat="44.70045" lon="7.05164">
        <ele>2451.4</ele>
        <time>2026-08-31T09:09:48Z</time>
      </trkpt>
      <trkpt lat="44.70045" lon="7.05164">
        <ele>2451.4</ele>
        <time>2026-08-31T09:09:53Z</time>
      </trkpt>
      <trkpt lat="44.70045" lon="7.05164">
        <ele>2451.4</ele>
        <time>2026-08-31T09:09:58Z</time>
      </trkpt>
      <trkpt lat="44.70045" lon="7.05164">
        <ele>2451.4</ele>
        <time>2026-08-31T09:10:04Z</time>
      </trkpt>
      <trkpt lat="44.70045" lon="7.05164">
        <ele>2451.4</ele>
        <time>2026-08-31T09:10:09Z</time>
      </trkpt>
      <trkpt lat="44.70045" lon="7.05164">
        <ele>2451.4</ele>
        <time>2026-08-31T09:10:14Z</time>
      </trkpt>
      <trkpt lat="44.70045" lon="7.05164">
        <ele>2451.4</ele>
        <time>2026-08-31T09:10:20Z</time>
      </trkpt>
      <trkpt lat="44.70045" lon="7.05164">
        <ele>2451.4</ele>
        <time>2026-08-31T09:10:25Z</time>
      </trkpt>
      <trkpt lat="44.70045" lon="7.05164">
        <ele>2451.4</ele>
        <time>2026-08-31T09:10:30Z</time>
      </trkpt>
      <trkpt lat="44.70045" lon="7.05164">
        <ele>2451.4</ele>
        <time>2026-08-31T09:10:36Z</time>
      </trkpt>
      <trkpt lat="44.70045" lon="7.05164">
        <ele>2451.4</ele>
        <time>2026-08-31T09:10:41Z</time>
      </trkpt>
      <trkpt lat="44.70045" lon="7.05164">
        <ele>2451.4</ele>
        <time>2026-08-31T09:10:46Z</time>
      </trkpt>
      <trkpt lat="44.70045" lon="7.05164">
        <ele>2451.4</ele>
        <time>2026-08-31T09:10:52Z</time>
      </trkpt>
      <trkpt lat="44.70045" lon="7.05164">
        <ele>2451.4</ele>
        <time>2026-08-31T09:10:57Z</time>
      </trkpt>
      <trkpt lat="44.70045" lon="7.05164">
        <ele>2451.4</ele>
        <time>2026-08-31T09:11:02Z</time>
      </trkpt>
      <trkpt lat="44.70045" lon="7.05164">
        <ele>2451.4</ele>
        <time>2026-08-31T09:11:08Z</time>
      </trkpt>
      <trkpt lat="44.70045" lon="7.05164">
        <ele>2451.4</ele>
        <time>2026-08-31T09:11:13Z</time>
      </trkpt>
      <trkpt lat="44.70045" lon="7.05164">
        <ele>2451.4</ele>
        <time>2026-08-31T09:11:18Z</time>
      </trkpt>
      <trkpt lat="44.70045" lon="7.05164">
        <ele>2451.4</ele>
        <time>2026-08-31T09:11:24Z</time>
      </trkpt>
      <trkpt lat="44.70045" lon="7.05164">
        <ele>2451.4</ele>
        <time>2026-08-31T09:11:29Z</time>
      </trkpt>
      <trkpt lat="44.70045" lon="7.05164">
        <ele>2451.4</ele>
        <time>2026-08-31T09:11:34Z</time>
      </trkpt>
      <trkpt lat="44.70045" lon="7.05164">
        <ele>2451.4</ele>
        <time>2026-08-31T09:11:40Z</time>
      </trkpt>
      <trkpt lat="44.70045" lon="7.05164">
        <ele>2451.4</ele>
        <time>2026-08-31T09:11:45Z</time>
      </trkpt>
      <trkpt lat="44.70045" lon="7.05164">
        <ele>2451.4</ele>
        <time>2026-08-31T09:11:50Z</time>
      </trkpt>
      <trkpt lat="44.70045" lon="7.05164">
        <ele>2451.4</ele>
        <time>2026-08-31T09:11:56Z</time>
      </trkpt>
      <trkpt lat="44.70045" lon="7.05164">
        <ele>2451.4</ele>
        <time>2026-08-31T09:12:01Z</time>
      </trkpt>
      <trkpt lat="44.70045" lon="7.05164">
        <ele>2451.4</ele>
        <time>2026-08-31T09:12:06Z</time>
      </trkpt>
      <trkpt lat="44.70045" lon="7.05164">
        <ele>2451.4</ele>
        <time>2026-08-31T09:12:12Z</time>
      </trkpt>
      <trkpt lat="44.70045" lon="7.05164">
        <ele>2451.4</ele>
        <time>2026-08-31T09:12:17Z</time>
      </trkpt>
      <trkpt lat="44.70045" lon="7.05164">
        <ele>2451.4</ele>
        <time>2026-08-31T09:12:22Z</time>
      </trkpt>
      <trkpt lat="44.70045" lon="7.05164">
        <ele>2451.4</ele>
        <time>2026-08-31T09:12:28Z</time>
      </trkpt>
      <trkpt lat="44.70045" lon="7.05164">
        <ele>2451.4</ele>
        <time>2026-08-31T09:12:33Z</time>
      </trkpt>
      <trkpt lat="44.70045" lon="7.05164">
        <ele>2451.4</ele>
        <time>2026-08-31T09:12:38Z</time>
      </trkpt>
      <trkpt lat="44.70045" lon="7.05164">
        <ele>2451.4</ele>
        <time>2026-08-31T09:12:44Z</time>
      </trkpt>
      <trkpt lat="44.70045" lon="7.05164">
        <ele>2451.4</ele>
        <time>2026-08-31T09:12:49Z</time>
      </trkpt>
      <trkpt lat="44.70045" lon="7.05164">
        <ele>2451.4</ele>
        <time>2026-08-31T09:12:54Z</time>
      </trkpt>
      <trkpt lat="44.70045" lon="7.05164">
        <ele>2451.4</ele>
        <time>2026-08-31T09:13:00Z</time>
      </trkpt>
      <trkpt lat="44.70045" lon="7.05164">
        <ele>2451.4</ele>
        <time>2026-08-31T09:13:05Z</time>
      </trkpt>
      <trkpt lat="44.70045" lon="7.05164">
        <ele>2451.4</ele>
        <time>2026-08-31T09:13:10Z</time>
      </trkpt>
      <trkpt lat="44.70045" lon="7.05164">
        <ele>2451.4</ele>
        <time>2026-08-31T09:13:16Z</time>
      </trkpt>
      <trkpt lat="44.70045" lon="7.05164">
        <ele>2451.4</ele>
        <time>2026-08-31T09:13:21Z</time>
      </trkpt>
      <trkpt lat="44.70045" lon="7.05164">
        <ele>2451.4</ele>
        <time>2026-08-31T09:13:26Z</time>
      </trkpt>
      <trkpt lat="44.70045" lon="7.05164">
        <ele>2451.4</ele>
        <time>2026-08-31T09:13:32Z</time>
      </trkpt>
      <trkpt lat="44.70045" lon="7.05164">
        <ele>2451.4</ele>
        <time>2026-08-31T09:13:37Z</time>
      </trkpt>
      <trkpt lat="44.70045" lon="7.05164">
        <ele>2451.4</ele>
        <time>2026-08-31T09:13:42Z</time>
      </trkpt>
      <trkpt lat="44.70045" lon="7.05164">
        <ele>2451.4</ele>
        <time>2026-08-31T09:13:48Z</time>
      </trkpt>
      <trkpt lat="44.70045" lon="7.05164">
        <ele>2451.4</ele>
        <time>2026-08-31T09:13:53Z</time>
      </trkpt>
      <trkpt lat="44.70045" lon="7.05164">
        <ele>2451.4</ele>
        <time>2026-08-31T09:13:58Z</time>
      </trkpt>
      <trkpt lat="44.70045" lon="7.05164">
        <ele>2451.4</ele>
        <time>2026-08-31T09:14:04Z</time>
      </trkpt>
      <trkpt lat="44.70045" lon="7.05164">
        <ele>2451.4</ele>
        <time>2026-08-31T09:14:09Z</time>
      </trkpt>
      <trkpt lat="44.70045" lon="7.05164">
        <ele>2451.4</ele>
        <time>2026-08-31T09:14:14Z</time>
      </trkpt>
      <trkpt lat="44.70045" lon="7.05164">
        <ele>2451.4</ele>
        <time>2026-08-31T09:14:20Z</time>
      </trkpt>
      <trkpt lat="44.70045" lon="7.05164">
        <ele>2451.4</ele>
        <time>2026-08-31T09:14:25Z</time>
      </trkpt>
      <trkpt lat="44.70045" lon="7.05164">
        <ele>2451.4</ele>
        <time>2026-08-31T09:14:30Z</time>
      </trkpt>
      <trkpt lat="44.70045" lon="7.05164">
        <ele>2451.4</ele>
        <time>2026-08-31T09:14:36Z</time>
      </trkpt>
      <trkpt lat="44.70045" lon="7.05164">
        <ele>2451.4</ele>
        <time>2026-08-31T09:14:41Z</time>
      </trkpt>
      <trkpt lat="44.70045" lon="7.05164">
        <ele>2451.4</ele>
        <time>2026-08-31T09:14:46Z</time>
      </trkpt>
      <trkpt lat="44.70045" lon="7.05164">
        <ele>2451.4</ele>
        <time>2026-08-31T09:14:52Z</time>
      </trkpt>
      <trkpt lat="44.70045" lon="7.05164">
        <ele>2451.4</ele>
        <time>2026-08-31T09:14:57Z</time>
      </trkpt>
      <trkpt lat="44.70045" lon="7.05164">
        <ele>2451.4</ele>
        <time>2026-08-31T09:15:02Z</time>
      </trkpt>
      <trkpt lat="44.70045" lon="7.05164">
        <ele>2451.4</ele>
        <time>2026-08-31T09:15:08Z</time>
      </trkpt>
      <trkpt lat="44.70045" lon="7.05164">
        <ele>2451.4</ele>
        <time>2026-08-31T09:15:13Z</time>
      </trkpt>
      <trkpt lat="44.70045" lon="7.05164">
        <ele>2451.4</ele>
        <time>2026-08-31T09:15:18Z</time>
      </trkpt>
      <trkpt lat="44.70045" lon="7.05164">
        <ele>2451.4</ele>
        <time>2026-08-31T09:15:24Z</time>
      </trkpt>
      <trkpt lat="44.70045" lon="7.05164">
        <ele>2451.4</ele>
        <time>2026-08-31T09:15:29Z</time>
      </trkpt>
      <trkpt lat="44.70045" lon="7.05164">
        <ele>2451.4</ele>
        <time>2026-08-31T09:15:34Z</time>
      </trkpt>
      <trkpt lat="44.70045" lon="7.05164">
        <ele>2451.4</ele>
        <time>2026-08-31T09:15:40Z</time>
      </trkpt>
      <trkpt lat="44.70045" lon="7.05164">
        <ele>2451.4</ele>
        <time>2026-08-31T09:15:45Z</time>
      </trkpt>
      <trkpt lat="44.70045" lon="7.05164">
        <ele>2451.4</ele>
        <time>2026-08-31T09:15:50Z</time>
      </trkpt>
      <trkpt lat="44.70045" lon="7.05164">
        <ele>2451.4</ele>
        <time>2026-08-31T09:15:56Z</time>
      </trkpt>
      <trkpt lat="44.70045" lon="7.05164">
        <ele>2451.4</ele>
        <time>2026-08-31T09:16:01Z</time>
      </trkpt>
      <trkpt lat="44.70045" lon="7.05164">
        <ele>2451.4</ele>
        <time>2026-08-31T09:16:06Z</time>
      </trkpt>
      <trkpt lat="44.70045" lon="7.05164">
        <ele>2451.4</ele>
        <time>2026-08-31T09:16:12Z</time>
      </trkpt>
      <trkpt lat="44.70045" lon="7.05164">
        <ele>2451.4</ele>
        <time>2026-08-31T09:16:17Z</time>
      </trkpt>
      <trkpt lat="44.70045" lon="7.05164">
        <ele>2451.4</ele>
        <time>2026-08-31T09:16:22Z</time>
      </trkpt>
      <trkpt lat="44.70045" lon="7.05164">
        <ele>2451.4</ele>
        <time>2026-08-31T09:16:28Z</time>
      </trkpt>
      <trkpt lat="44.70045" lon="7.05164">
        <ele>2451.4</ele>
        <time>2026-08-31T09:16:33Z</time>
      </trkpt>
      <trkpt lat="44.70045" lon="7.05164">
        <ele>2451.4</ele>
        <time>2026-08-31T09:16:38Z</time>
      </trkpt>
      <trkpt lat="44.70045" lon="7.05164">
        <ele>2451.4</ele>
        <time>2026-08-31T09:16:44Z</time>
      </trkpt>
      <trkpt lat="44.70045" lon="7.05164">
        <ele>2451.4</ele>
        <time>2026-08-31T09:16:49Z</time>
      </trkpt>
      <trkpt lat="44.70045" lon="7.05164">
        <ele>2451.4</ele>
        <time>2026-08-31T09:16:54Z</time>
      </trkpt>
      <trkpt lat="44.70045" lon="7.05164">
        <ele>2451.4</ele>
        <time>2026-08-31T09:17:00Z</time>
      </trkpt>
      <trkpt lat="44.70045" lon="7.05164">
        <ele>2451.4</ele>
        <time>2026-08-31T09:17:05Z</time>
      </trkpt>
      <trkpt lat="44.70045" lon="7.05164">
        <ele>2451.4</ele>
        <time>2026-08-31T09:17:10Z</time>
      </trkpt>
      <trkpt lat="44.70045" lon="7.05164">
        <ele>2451.4</ele>
        <time>2026-08-31T09:17:16Z</time>
      </trkpt>
      <trkpt lat="44.70045" lon="7.05164">
        <ele>2451.4</ele>
        <time>2026-08-31T09:17:21Z</time>
      </trkpt>
      <trkpt lat="44.70045" lon="7.05164">
        <ele>2451.4</ele>
        <time>2026-08-31T09:17:26Z</time>
      </trkpt>
      <trkpt lat="44.70045" lon="7.05164">
        <ele>2451.4</ele>
        <time>2026-08-31T09:17:32Z</time>
      </trkpt>
      <trkpt lat="44.70045" lon="7.05164">
        <ele>2451.4</ele>
        <time>2026-08-31T09:17:37Z</time>
      </trkpt>
      <trkpt lat="44.70045" lon="7.05164">
        <ele>2451.4</ele>
        <time>2026-08-31T09:17:42Z</time>
      </trkpt>
      <trkpt lat="44.70045" lon="7.05164">
        <ele>2451.4</ele>
        <time>2026-08-31T09:17:48Z</time>
      </trkpt>
      <trkpt lat="44.70045" lon="7.05164">
        <ele>2451.4</ele>
        <time>2026-08-31T09:17:53Z</time>
      </trkpt>
      <trkpt lat="44.70045" lon="7.05164">
        <ele>2451.4</ele>
        <time>2026-08-31T09:17:58Z</time>
      </trkpt>
      <trkpt lat="44.70045" lon="7.05164">
        <ele>2451.4</ele>
        <time>2026-08-31T09:18:04Z</time>
      </trkpt>
      <trkpt lat="44.70045" lon="7.05164">
        <ele>2451.4</ele>
        <time>2026-08-31T09:18:09Z</time>
      </trkpt>
      <trkpt lat="44.70045" lon="7.05164">
        <ele>2451.4</ele>
        <time>2026-08-31T09:18:14Z</time>
      </trkpt>
      <trkpt lat="44.70045" lon="7.05164">
        <ele>2451.4</ele>
        <time>2026-08-31T09:18:20Z</time>
      </trkpt>
      <trkpt lat="44.70045" lon="7.05164">
        <ele>2451.4</ele>
        <time>2026-08-31T09:18:25Z</time>
      </trkpt>
      <trkpt lat="44.70045" lon="7.05164">
        <ele>2451.4</ele>
        <time>2026-08-31T09:18:30Z</time>
      </trkpt>
      <trkpt lat="44.70045" lon="7.05164">
        <ele>2451.4</ele>
        <time>2026-08-31T09:18:36Z</time>
      </trkpt>
      <trkpt lat="44.70045" lon="7.05164">
        <ele>2451.4</ele>
        <time>2026-08-31T09:18:41Z</time>
      </trkpt>
      <trkpt lat="44.70045" lon="7.05164">
        <ele>2451.4</ele>
        <time>2026-08-31T09:18:46Z</time>
      </trkpt>
      <trkpt lat="44.70045" lon="7.05164">
        <ele>2451.4</ele>
        <time>2026-08-31T09:18:52Z</time>
      </trkpt>
      <trkpt lat="44.70045" lon="7.05164">
        <ele>2451.4</ele>
        <time>2026-08-31T09:18:57Z</time>
      </trkpt>
      <trkpt lat="44.70045" lon="7.05164">
        <ele>2451.4</ele>
        <time>2026-08-31T09:19:02Z</time>
      </trkpt>
      <trkpt lat="44.70045" lon="7.05164">
        <ele>2451.4</ele>
        <time>2026-08-31T09:19:08Z</time>
      </trkpt>
      <trkpt lat="44.70045" lon="7.05164">
        <ele>2451.4</ele>
        <time>2026-08-31T09:19:13Z</time>
      </trkpt>
      <trkpt lat="44.70045" lon="7.05164">
        <ele>2451.4</ele>
        <time>2026-08-31T09:19:18Z</time>
      </trkpt>
      <trkpt lat="44.70045" lon="7.05164">
        <ele>2451.4</ele>
        <time>2026-08-31T09:19:24Z</time>
      </trkpt>
      <trkpt lat="44.70045" lon="7.05164">
        <ele>2451.4</ele>
        <time>2026-08-31T09:19:29Z</time>
      </trkpt>
      <trkpt lat="44.70045" lon="7.05164">
        <ele>2451.4</ele>
        <time>2026-08-31T09:19:34Z</time>
      </trkpt>
      <trkpt lat="44.70041" lon="7.05169">
        <ele>2451.2</ele>
        <time>2026-08-31T09:19:40Z</time>
      </trkpt>
      <trkpt lat="44.70037" lon="7.05174">
        <ele>2450.8</ele>
        <time>2026-08-31T09:19:45Z</time>
      </trkpt>
      <trkpt lat="44.70035" lon="7.05177">
        <ele>2450.8</ele>
        <time>2026-08-31T09:19:50Z</time>
      </trkpt>
      <trkpt lat="44.70032" lon="7.05177">
        <ele>2450</ele>
        <time>2026-08-31T09:19:56Z</time>
      </trkpt>
      <trkpt lat="44.7003" lon="7.05175">
        <ele>2449.1</ele>
        <time>2026-08-31T09:20:01Z</time>
      </trkpt>
      <trkpt lat="44.70026" lon="7.05173">
        <ele>2447.6</ele>
        <time>2026-08-31T09:20:06Z</time>
      </trkpt>
      <trkpt lat="44.70019" lon="7.05176">
        <ele>2446.2</ele>
        <time>2026-08-31T09:20:12Z</time>
      </trkpt>
      <trkpt lat="44.70016" lon="7.05177">
        <ele>2445.6</ele>
        <time>2026-08-31T09:20:17Z</time>
      </trkpt>
      <trkpt lat="44.70012" lon="7.05182">
        <ele>2445.5</ele>
        <time>2026-08-31T09:20:22Z</time>
      </trkpt>
      <trkpt lat="44.7001" lon="7.05185">
        <ele>2445.6</ele>
        <time>2026-08-31T09:20:28Z</time>
      </trkpt>
      <trkpt lat="44.70009" lon="7.05185">
        <ele>2445.3</ele>
        <time>2026-08-31T09:20:33Z</time>
      </trkpt>
      <trkpt lat="44.70009" lon="7.05186">
        <ele>2445.5</ele>
        <time>2026-08-31T09:20:38Z</time>
      </trkpt>
      <trkpt lat="44.70009" lon="7.05186">
        <ele>2445.5</ele>
        <time>2026-08-31T09:20:44Z</time>
      </trkpt>
      <trkpt lat="44.70009" lon="7.05186">
        <ele>2445.5</ele>
        <time>2026-08-31T09:20:49Z</time>
      </trkpt>
      <trkpt lat="44.70007" lon="7.05189">
        <ele>2445.6</ele>
        <time>2026-08-31T09:20:54Z</time>
      </trkpt>
      <trkpt lat="44.69999" lon="7.05195">
        <ele>2444.8</ele>
        <time>2026-08-31T09:21:00Z</time>
      </trkpt>
      <trkpt lat="44.69994" lon="7.052">
        <ele>2444.5</ele>
        <time>2026-08-31T09:21:05Z</time>
      </trkpt>
      <trkpt lat="44.69989" lon="7.05205">
        <ele>2444.3</ele>
        <time>2026-08-31T09:21:10Z</time>
      </trkpt>
      <trkpt lat="44.69983" lon="7.05211">
        <ele>2444</ele>
        <time>2026-08-31T09:21:16Z</time>
      </trkpt>
      <trkpt lat="44.69978" lon="7.05215">
        <ele>2443.6</ele>
        <time>2026-08-31T09:21:21Z</time>
      </trkpt>
      <trkpt lat="44.69971" lon="7.05219">
        <ele>2442.7</ele>
        <time>2026-08-31T09:21:26Z</time>
      </trkpt>
      <trkpt lat="44.69963" lon="7.05225">
        <ele>2442.1</ele>
        <time>2026-08-31T09:21:32Z</time>
      </trkpt>
      <trkpt lat="44.69955" lon="7.05226">
        <ele>2440.2</ele>
        <time>2026-08-31T09:21:37Z</time>
      </trkpt>
      <trkpt lat="44.69948" lon="7.05227">
        <ele>2438.7</ele>
        <time>2026-08-31T09:21:42Z</time>
      </trkpt>
      <trkpt lat="44.69943" lon="7.05234">
        <ele>2439.2</ele>
        <time>2026-08-31T09:21:48Z</time>
      </trkpt>
      <trkpt lat="44.69939" lon="7.05237">
        <ele>2439</ele>
        <time>2026-08-31T09:21:53Z</time>
      </trkpt>
      <trkpt lat="44.69935" lon="7.05243">
        <ele>2439.6</ele>
        <time>2026-08-31T09:21:58Z</time>
      </trkpt>
      <trkpt lat="44.69929" lon="7.0525">
        <ele>2440</ele>
        <time>2026-08-31T09:22:04Z</time>
      </trkpt>
      <trkpt lat="44.69925" lon="7.05254">
        <ele>2439.7</ele>
        <time>2026-08-31T09:22:09Z</time>
      </trkpt>
      <trkpt lat="44.6992" lon="7.05258">
        <ele>2439.1</ele>
        <time>2026-08-31T09:22:14Z</time>
      </trkpt>
      <trkpt lat="44.69915" lon="7.05259">
        <ele>2438.1</ele>
        <time>2026-08-31T09:22:20Z</time>
      </trkpt>
      <trkpt lat="44.69912" lon="7.05259">
        <ele>2437.3</ele>
        <time>2026-08-31T09:22:25Z</time>
      </trkpt>
      <trkpt lat="44.6991" lon="7.05266">
        <ele>2438</ele>
        <time>2026-08-31T09:22:30Z</time>
      </trkpt>
      <trkpt lat="44.69905" lon="7.05272">
        <ele>2437.7</ele>
        <time>2026-08-31T09:22:36Z</time>
      </trkpt>
      <trkpt lat="44.69899" lon="7.05278">
        <ele>2437.3</ele>
        <time>2026-08-31T09:22:41Z</time>
      </trkpt>
      <trkpt lat="44.69893" lon="7.0528">
        <ele>2436.1</ele>
        <time>2026-08-31T09:22:46Z</time>
      </trkpt>
      <trkpt lat="44.69887" lon="7.05282">
        <ele>2435</ele>
        <time>2026-08-31T09:22:52Z</time>
      </trkpt>
      <trkpt lat="44.69881" lon="7.05282">
        <ele>2433.5</ele>
        <time>2026-08-31T09:22:57Z</time>
      </trkpt>
      <trkpt lat="44.69875" lon="7.05286">
        <ele>2432.7</ele>
        <time>2026-08-31T09:23:02Z</time>
      </trkpt>
      <trkpt lat="44.69869" lon="7.0529">
        <ele>2432</ele>
        <time>2026-08-31T09:23:08Z</time>
      </trkpt>
      <trkpt lat="44.6987" lon="7.05292">
        <ele>2432.6</ele>
        <time>2026-08-31T09:23:13Z</time>
      </trkpt>
      <trkpt lat="44.6987" lon="7.05293">
        <ele>2432.8</ele>
        <time>2026-08-31T09:23:18Z</time>
      </trkpt>
      <trkpt lat="44.6987" lon="7.05293">
        <ele>2432.8</ele>
        <time>2026-08-31T09:23:24Z</time>
      </trkpt>
      <trkpt lat="44.6987" lon="7.05293">
        <ele>2432.8</ele>
        <time>2026-08-31T09:23:29Z</time>
      </trkpt>
      <trkpt lat="44.6987" lon="7.05293">
        <ele>2432.8</ele>
        <time>2026-08-31T09:23:34Z</time>
      </trkpt>
      <trkpt lat="44.69866" lon="7.05294">
        <ele>2432</ele>
        <time>2026-08-31T09:23:40Z</time>
      </trkpt>
      <trkpt lat="44.69865" lon="7.05294">
        <ele>2431.7</ele>
        <time>2026-08-31T09:23:45Z</time>
      </trkpt>
      <trkpt lat="44.69863" lon="7.05295">
        <ele>2431.4</ele>
        <time>2026-08-31T09:23:50Z</time>
      </trkpt>
      <trkpt lat="44.6986" lon="7.05297">
        <ele>2431.1</ele>
        <time>2026-08-31T09:23:56Z</time>
      </trkpt>
      <trkpt lat="44.69856" lon="7.053">
        <ele>2430.7</ele>
        <time>2026-08-31T09:24:01Z</time>
      </trkpt>
      <trkpt lat="44.69852" lon="7.05302">
        <ele>2430.1</ele>
        <time>2026-08-31T09:24:06Z</time>
      </trkpt>
      <trkpt lat="44.69848" lon="7.05306">
        <ele>2429.9</ele>
        <time>2026-08-31T09:24:12Z</time>
      </trkpt>
      <trkpt lat="44.69844" lon="7.0531">
        <ele>2429.8</ele>
        <time>2026-08-31T09:24:17Z</time>
      </trkpt>
      <trkpt lat="44.6984" lon="7.05314">
        <ele>2429.6</ele>
        <time>2026-08-31T09:24:22Z</time>
      </trkpt>
      <trkpt lat="44.69834" lon="7.0532">
        <ele>2429.4</ele>
        <time>2026-08-31T09:24:28Z</time>
      </trkpt>
      <trkpt lat="44.6983" lon="7.05324">
        <ele>2429.7</ele>
        <time>2026-08-31T09:24:33Z</time>
      </trkpt>
      <trkpt lat="44.69826" lon="7.05329">
        <ele>2430.2</ele>
        <time>2026-08-31T09:24:38Z</time>
      </trkpt>
      <trkpt lat="44.69819" lon="7.05335">
        <ele>2430.5</ele>
        <time>2026-08-31T09:24:44Z</time>
      </trkpt>
      <trkpt lat="44.69813" lon="7.05341">
        <ele>2430.5</ele>
        <time>2026-08-31T09:24:49Z</time>
      </trkpt>
      <trkpt lat="44.69808" lon="7.05345">
        <ele>2430.4</ele>
        <time>2026-08-31T09:24:54Z</time>
      </trkpt>
      <trkpt lat="44.69802" lon="7.05348">
        <ele>2430.1</ele>
        <time>2026-08-31T09:25:00Z</time>
      </trkpt>
      <trkpt lat="44.69797" lon="7.05352">
        <ele>2430.1</ele>
        <time>2026-08-31T09:25:05Z</time>
      </trkpt>
      <trkpt lat="44.69791" lon="7.05357">
        <ele>2430</ele>
        <time>2026-08-31T09:25:10Z</time>
      </trkpt>
      <trkpt lat="44.69784" lon="7.05361">
        <ele>2429.8</ele>
        <time>2026-08-31T09:25:16Z</time>
      </trkpt>
      <trkpt lat="44.69778" lon="7.05362">
        <ele>2429.3</ele>
        <time>2026-08-31T09:25:21Z</time>
      </trkpt>
      <trkpt lat="44.69773" lon="7.05364">
        <ele>2429</ele>
        <time>2026-08-31T09:25:26Z</time>
      </trkpt>
      <trkpt lat="44.69766" lon="7.05365">
        <ele>2428.3</ele>
        <time>2026-08-31T09:25:32Z</time>
      </trkpt>
      <trkpt lat="44.69762" lon="7.05365">
        <ele>2427.9</ele>
        <time>2026-08-31T09:25:37Z</time>
      </trkpt>
      <trkpt lat="44.69761" lon="7.05365">
        <ele>2427.8</ele>
        <time>2026-08-31T09:25:42Z</time>
      </trkpt>
      <trkpt lat="44.69754" lon="7.05368">
        <ele>2427.4</ele>
        <time>2026-08-31T09:25:48Z</time>
      </trkpt>
      <trkpt lat="44.69747" lon="7.05369">
        <ele>2426.8</ele>
        <time>2026-08-31T09:25:53Z</time>
      </trkpt>
      <trkpt lat="44.69743" lon="7.05372">
        <ele>2426.9</ele>
        <time>2026-08-31T09:25:58Z</time>
      </trkpt>
      <trkpt lat="44.69738" lon="7.05374">
        <ele>2426.7</ele>
        <time>2026-08-31T09:26:04Z</time>
      </trkpt>
      <trkpt lat="44.69732" lon="7.05375">
        <ele>2426.3</ele>
        <time>2026-08-31T09:26:09Z</time>
      </trkpt>
      <trkpt lat="44.69729" lon="7.05379">
        <ele>2426.6</ele>
        <time>2026-08-31T09:26:14Z</time>
      </trkpt>
      <trkpt lat="44.69722" lon="7.05384">
        <ele>2426.8</ele>
        <time>2026-08-31T09:26:20Z</time>
      </trkpt>
      <trkpt lat="44.69716" lon="7.05386">
        <ele>2426.5</ele>
        <time>2026-08-31T09:26:25Z</time>
      </trkpt>
      <trkpt lat="44.69711" lon="7.05391">
        <ele>2426.9</ele>
        <time>2026-08-31T09:26:30Z</time>
      </trkpt>
      <trkpt lat="44.69706" lon="7.05394">
        <ele>2427</ele>
        <time>2026-08-31T09:26:36Z</time>
      </trkpt>
      <trkpt lat="44.69706" lon="7.05397">
        <ele>2427.5</ele>
        <time>2026-08-31T09:26:41Z</time>
      </trkpt>
      <trkpt lat="44.69703" lon="7.054">
        <ele>2427.8</ele>
        <time>2026-08-31T09:26:46Z</time>
      </trkpt>
      <trkpt lat="44.69698" lon="7.05401">
        <ele>2427.5</ele>
        <time>2026-08-31T09:26:52Z</time>
      </trkpt>
      <trkpt lat="44.69695" lon="7.05402">
        <ele>2427.5</ele>
        <time>2026-08-31T09:26:57Z</time>
      </trkpt>
      <trkpt lat="44.69692" lon="7.05403">
        <ele>2427.4</ele>
        <time>2026-08-31T09:27:02Z</time>
      </trkpt>
      <trkpt lat="44.69688" lon="7.05407">
        <ele>2427.8</ele>
        <time>2026-08-31T09:27:08Z</time>
      </trkpt>
      <trkpt lat="44.69685" lon="7.05411">
        <ele>2428.3</ele>
        <time>2026-08-31T09:27:13Z</time>
      </trkpt>
      <trkpt lat="44.6968" lon="7.05412">
        <ele>2428.1</ele>
        <time>2026-08-31T09:27:18Z</time>
      </trkpt>
      <trkpt lat="44.69675" lon="7.05414">
        <ele>2428.1</ele>
        <time>2026-08-31T09:27:24Z</time>
      </trkpt>
      <trkpt lat="44.6967" lon="7.05416">
        <ele>2428.1</ele>
        <time>2026-08-31T09:27:29Z</time>
      </trkpt>
      <trkpt lat="44.69667" lon="7.05421">
        <ele>2428.5</ele>
        <time>2026-08-31T09:27:34Z</time>
      </trkpt>
      <trkpt lat="44.69663" lon="7.05427">
        <ele>2428.6</ele>
        <time>2026-08-31T09:27:40Z</time>
      </trkpt>
      <trkpt lat="44.69662" lon="7.05433">
        <ele>2429.1</ele>
        <time>2026-08-31T09:27:45Z</time>
      </trkpt>
      <trkpt lat="44.6966" lon="7.05437">
        <ele>2429.3</ele>
        <time>2026-08-31T09:27:50Z</time>
      </trkpt>
      <trkpt lat="44.69657" lon="7.05436">
        <ele>2428.8</ele>
        <time>2026-08-31T09:27:56Z</time>
      </trkpt>
      <trkpt lat="44.69653" lon="7.05436">
        <ele>2428.2</ele>
        <time>2026-08-31T09:28:01Z</time>
      </trkpt>
      <trkpt lat="44.6965" lon="7.05439">
        <ele>2428.2</ele>
        <time>2026-08-31T09:28:06Z</time>
      </trkpt>
      <trkpt lat="44.69647" lon="7.05443">
        <ele>2428.2</ele>
        <time>2026-08-31T09:28:12Z</time>
      </trkpt>
      <trkpt lat="44.69642" lon="7.05442">
        <ele>2427.4</ele>
        <time>2026-08-31T09:28:17Z</time>
      </trkpt>
      <trkpt lat="44.69637" lon="7.05442">
        <ele>2426.7</ele>
        <time>2026-08-31T09:28:22Z</time>
      </trkpt>
      <trkpt lat="44.69631" lon="7.05445">
        <ele>2426.2</ele>
        <time>2026-08-31T09:28:28Z</time>
      </trkpt>
      <trkpt lat="44.69625" lon="7.05443">
        <ele>2425.2</ele>
        <time>2026-08-31T09:28:33Z</time>
      </trkpt>
      <trkpt lat="44.6962" lon="7.05443">
        <ele>2424.5</ele>
        <time>2026-08-31T09:28:38Z</time>
      </trkpt>
      <trkpt lat="44.69614" lon="7.05445">
        <ele>2423.9</ele>
        <time>2026-08-31T09:28:44Z</time>
      </trkpt>
      <trkpt lat="44.69609" lon="7.05445">
        <ele>2423.2</ele>
        <time>2026-08-31T09:28:49Z</time>
      </trkpt>
      <trkpt lat="44.69603" lon="7.05446">
        <ele>2422.5</ele>
        <time>2026-08-31T09:28:54Z</time>
      </trkpt>
      <trkpt lat="44.69595" lon="7.05448">
        <ele>2421.6</ele>
        <time>2026-08-31T09:29:00Z</time>
      </trkpt>
      <trkpt lat="44.69588" lon="7.05447">
        <ele>2420.5</ele>
        <time>2026-08-31T09:29:05Z</time>
      </trkpt>
      <trkpt lat="44.69581" lon="7.05447">
        <ele>2419.7</ele>
        <time>2026-08-31T09:29:10Z</time>
      </trkpt>
      <trkpt lat="44.69575" lon="7.05452">
        <ele>2419.7</ele>
        <time>2026-08-31T09:29:16Z</time>
      </trkpt>
      <trkpt lat="44.69571" lon="7.05458">
        <ele>2420.1</ele>
        <time>2026-08-31T09:29:21Z</time>
      </trkpt>
      <trkpt lat="44.69571" lon="7.05461">
        <ele>2420.4</ele>
        <time>2026-08-31T09:29:26Z</time>
      </trkpt>
      <trkpt lat="44.69571" lon="7.05461">
        <ele>2420.4</ele>
        <time>2026-08-31T09:29:32Z</time>
      </trkpt>
      <trkpt lat="44.69571" lon="7.05461">
        <ele>2420.4</ele>
        <time>2026-08-31T09:29:37Z</time>
      </trkpt>
      <trkpt lat="44.69571" lon="7.05461">
        <ele>2420.4</ele>
        <time>2026-08-31T09:29:42Z</time>
      </trkpt>
      <trkpt lat="44.69569" lon="7.05464">
        <ele>2420.6</ele>
        <time>2026-08-31T09:29:48Z</time>
      </trkpt>
      <trkpt lat="44.69564" lon="7.05465">
        <ele>2420.4</ele>
        <time>2026-08-31T09:29:53Z</time>
      </trkpt>
      <trkpt lat="44.69558" lon="7.05465">
        <ele>2420</ele>
        <time>2026-08-31T09:29:58Z</time>
      </trkpt>
      <trkpt lat="44.6955" lon="7.05467">
        <ele>2419.7</ele>
        <time>2026-08-31T09:30:04Z</time>
      </trkpt>
      <trkpt lat="44.69547" lon="7.05473">
        <ele>2420.3</ele>
        <time>2026-08-31T09:30:09Z</time>
      </trkpt>
      <trkpt lat="44.69543" lon="7.05478">
        <ele>2420.7</ele>
        <time>2026-08-31T09:30:14Z</time>
      </trkpt>
      <trkpt lat="44.69537" lon="7.05481">
        <ele>2420.7</ele>
        <time>2026-08-31T09:30:20Z</time>
      </trkpt>
      <trkpt lat="44.69531" lon="7.05488">
        <ele>2421.4</ele>
        <time>2026-08-31T09:30:25Z</time>
      </trkpt>
      <trkpt lat="44.69526" lon="7.05493">
        <ele>2421.9</ele>
        <time>2026-08-31T09:30:30Z</time>
      </trkpt>
      <trkpt lat="44.69518" lon="7.05497">
        <ele>2422.2</ele>
        <time>2026-08-31T09:30:36Z</time>
      </trkpt>
      <trkpt lat="44.69512" lon="7.05497">
        <ele>2422</ele>
        <time>2026-08-31T09:30:41Z</time>
      </trkpt>
      <trkpt lat="44.69507" lon="7.05504">
        <ele>2423.4</ele>
        <time>2026-08-31T09:30:46Z</time>
      </trkpt>
      <trkpt lat="44.69503" lon="7.05508">
        <ele>2424.5</ele>
        <time>2026-08-31T09:30:52Z</time>
      </trkpt>
      <trkpt lat="44.69499" lon="7.05508">
        <ele>2424.3</ele>
        <time>2026-08-31T09:30:57Z</time>
      </trkpt>
      <trkpt lat="44.69496" lon="7.05509">
        <ele>2424.4</ele>
        <time>2026-08-31T09:31:02Z</time>
      </trkpt>
      <trkpt lat="44.69492" lon="7.05515">
        <ele>2426</ele>
        <time>2026-08-31T09:31:08Z</time>
      </trkpt>
      <trkpt lat="44.69489" lon="7.05519">
        <ele>2426.9</ele>
        <time>2026-08-31T09:31:13Z</time>
      </trkpt>
      <trkpt lat="44.69486" lon="7.05521">
        <ele>2427.3</ele>
        <time>2026-08-31T09:31:18Z</time>
      </trkpt>
      <trkpt lat="44.69482" lon="7.05525">
        <ele>2428.2</ele>
        <time>2026-08-31T09:31:24Z</time>
      </trkpt>
      <trkpt lat="44.69478" lon="7.05527">
        <ele>2428.4</ele>
        <time>2026-08-31T09:31:29Z</time>
      </trkpt>
      <trkpt lat="44.69472" lon="7.05531">
        <ele>2429.1</ele>
        <time>2026-08-31T09:31:34Z</time>
      </trkpt>
      <trkpt lat="44.69465" lon="7.05532">
        <ele>2428.9</ele>
        <time>2026-08-31T09:31:40Z</time>
      </trkpt>
      <trkpt lat="44.6946" lon="7.05531">
        <ele>2428.2</ele>
        <time>2026-08-31T09:31:45Z</time>
      </trkpt>
      <trkpt lat="44.69454" lon="7.05529">
        <ele>2427.2</ele>
        <time>2026-08-31T09:31:50Z</time>
      </trkpt>
      <trkpt lat="44.69452" lon="7.05529">
        <ele>2427</ele>
        <time>2026-08-31T09:31:56Z</time>
      </trkpt>
      <trkpt lat="44.69452" lon="7.05529">
        <ele>2427</ele>
        <time>2026-08-31T09:32:01Z</time>
      </trkpt>
      <trkpt lat="44.69452" lon="7.05529">
        <ele>2427</ele>
        <time>2026-08-31T09:32:06Z</time>
      </trkpt>
      <trkpt lat="44.69452" lon="7.05529">
        <ele>2427</ele>
        <time>2026-08-31T09:32:12Z</time>
      </trkpt>
      <trkpt lat="44.69449" lon="7.05531">
        <ele>2427.3</ele>
        <time>2026-08-31T09:32:17Z</time>
      </trkpt>
      <trkpt lat="44.69445" lon="7.05534">
        <ele>2427.8</ele>
        <time>2026-08-31T09:32:22Z</time>
      </trkpt>
      <trkpt lat="44.69437" lon="7.05533">
        <ele>2426.9</ele>
        <time>2026-08-31T09:32:28Z</time>
      </trkpt>
      <trkpt lat="44.69437" lon="7.05535">
        <ele>2427.4</ele>
        <time>2026-08-31T09:32:33Z</time>
      </trkpt>
      <trkpt lat="44.69432" lon="7.05533">
        <ele>2426.5</ele>
        <time>2026-08-31T09:32:38Z</time>
      </trkpt>
      <trkpt lat="44.69425" lon="7.05534">
        <ele>2426.2</ele>
        <time>2026-08-31T09:32:44Z</time>
      </trkpt>
      <trkpt lat="44.69417" lon="7.05531">
        <ele>2424.8</ele>
        <time>2026-08-31T09:32:49Z</time>
      </trkpt>
      <trkpt lat="44.69409" lon="7.05531">
        <ele>2424.1</ele>
        <time>2026-08-31T09:32:54Z</time>
      </trkpt>
      <trkpt lat="44.69401" lon="7.0553">
        <ele>2423</ele>
        <time>2026-08-31T09:33:00Z</time>
      </trkpt>
      <trkpt lat="44.69396" lon="7.05532">
        <ele>2423</ele>
        <time>2026-08-31T09:33:05Z</time>
      </trkpt>
      <trkpt lat="44.6939" lon="7.05535">
        <ele>2423.2</ele>
        <time>2026-08-31T09:33:10Z</time>
      </trkpt>
      <trkpt lat="44.69384" lon="7.05538">
        <ele>2423.3</ele>
        <time>2026-08-31T09:33:16Z</time>
      </trkpt>
      <trkpt lat="44.69379" lon="7.05542">
        <ele>2423.7</ele>
        <time>2026-08-31T09:33:21Z</time>
      </trkpt>
      <trkpt lat="44.69371" lon="7.05541">
        <ele>2422.7</ele>
        <time>2026-08-31T09:33:26Z</time>
      </trkpt>
      <trkpt lat="44.69363" lon="7.05544">
        <ele>2422.6</ele>
        <time>2026-08-31T09:33:32Z</time>
      </trkpt>
      <trkpt lat="44.69355" lon="7.05542">
        <ele>2421.3</ele>
        <time>2026-08-31T09:33:37Z</time>
      </trkpt>
      <trkpt lat="44.69351" lon="7.05542">
        <ele>2420.9</ele>
        <time>2026-08-31T09:33:42Z</time>
      </trkpt>
      <trkpt lat="44.69345" lon="7.05548">
        <ele>2421.6</ele>
        <time>2026-08-31T09:33:48Z</time>
      </trkpt>
      <trkpt lat="44.69339" lon="7.05551">
        <ele>2421.6</ele>
        <time>2026-08-31T09:33:53Z</time>
      </trkpt>
      <trkpt lat="44.69334" lon="7.05552">
        <ele>2421.3</ele>
        <time>2026-08-31T09:33:58Z</time>
      </trkpt>
      <trkpt lat="44.69326" lon="7.05556">
        <ele>2421.9</ele>
        <time>2026-08-31T09:34:04Z</time>
      </trkpt>
      <trkpt lat="44.69317" lon="7.05559">
        <ele>2422.1</ele>
        <time>2026-08-31T09:34:09Z</time>
      </trkpt>
      <trkpt lat="44.69309" lon="7.05563">
        <ele>2422.5</ele>
        <time>2026-08-31T09:34:14Z</time>
      </trkpt>
      <trkpt lat="44.69301" lon="7.05565">
        <ele>2422.4</ele>
        <time>2026-08-31T09:34:20Z</time>
      </trkpt>
      <trkpt lat="44.69295" lon="7.0557">
        <ele>2422.9</ele>
        <time>2026-08-31T09:34:25Z</time>
      </trkpt>
      <trkpt lat="44.69289" lon="7.05573">
        <ele>2422.9</ele>
        <time>2026-08-31T09:34:30Z</time>
      </trkpt>
      <trkpt lat="44.69282" lon="7.05577">
        <ele>2422.9</ele>
        <time>2026-08-31T09:34:36Z</time>
      </trkpt>
      <trkpt lat="44.69274" lon="7.0558">
        <ele>2422.7</ele>
        <time>2026-08-31T09:34:41Z</time>
      </trkpt>
      <trkpt lat="44.69268" lon="7.05584">
        <ele>2422.6</ele>
        <time>2026-08-31T09:34:46Z</time>
      </trkpt>
      <trkpt lat="44.69261" lon="7.05588">
        <ele>2422.3</ele>
        <time>2026-08-31T09:34:52Z</time>
      </trkpt>
      <trkpt lat="44.69257" lon="7.05591">
        <ele>2422.1</ele>
        <time>2026-08-31T09:34:57Z</time>
      </trkpt>
      <trkpt lat="44.69251" lon="7.05593">
        <ele>2421.7</ele>
        <time>2026-08-31T09:35:02Z</time>
      </trkpt>
      <trkpt lat="44.69244" lon="7.05597">
        <ele>2421.8</ele>
        <time>2026-08-31T09:35:08Z</time>
      </trkpt>
      <trkpt lat="44.69241" lon="7.05599">
        <ele>2421.9</ele>
        <time>2026-08-31T09:35:13Z</time>
      </trkpt>
      <trkpt lat="44.69235" lon="7.05601">
        <ele>2421.9</ele>
        <time>2026-08-31T09:35:18Z</time>
      </trkpt>
      <trkpt lat="44.69228" lon="7.05602">
        <ele>2421.9</ele>
        <time>2026-08-31T09:35:24Z</time>
      </trkpt>
      <trkpt lat="44.69222" lon="7.05603">
        <ele>2421.9</ele>
        <time>2026-08-31T09:35:29Z</time>
      </trkpt>
      <trkpt lat="44.69215" lon="7.05604">
        <ele>2421.9</ele>
        <time>2026-08-31T09:35:34Z</time>
      </trkpt>
      <trkpt lat="44.69209" lon="7.05606">
        <ele>2422</ele>
        <time>2026-08-31T09:35:40Z</time>
      </trkpt>
      <trkpt lat="44.69204" lon="7.05609">
        <ele>2422.2</ele>
        <time>2026-08-31T09:35:45Z</time>
      </trkpt>
      <trkpt lat="44.692" lon="7.05609">
        <ele>2422.1</ele>
        <time>2026-08-31T09:35:50Z</time>
      </trkpt>
      <trkpt lat="44.69194" lon="7.0561">
        <ele>2422.1</ele>
        <time>2026-08-31T09:35:56Z</time>
      </trkpt>
      <trkpt lat="44.69189" lon="7.0561">
        <ele>2422.1</ele>
        <time>2026-08-31T09:36:01Z</time>
      </trkpt>
      <trkpt lat="44.69183" lon="7.05615">
        <ele>2422.4</ele>
        <time>2026-08-31T09:36:06Z</time>
      </trkpt>
      <trkpt lat="44.69178" lon="7.05622">
        <ele>2422.9</ele>
        <time>2026-08-31T09:36:12Z</time>
      </trkpt>
      <trkpt lat="44.69173" lon="7.05625">
        <ele>2423</ele>
        <time>2026-08-31T09:36:17Z</time>
      </trkpt>
      <trkpt lat="44.69167" lon="7.05627">
        <ele>2423.1</ele>
        <time>2026-08-31T09:36:22Z</time>
      </trkpt>
      <trkpt lat="44.69163" lon="7.05631">
        <ele>2423.5</ele>
        <time>2026-08-31T09:36:28Z</time>
      </trkpt>
      <trkpt lat="44.69159" lon="7.05634">
        <ele>2423.8</ele>
        <time>2026-08-31T09:36:33Z</time>
      </trkpt>
      <trkpt lat="44.69153" lon="7.05635">
        <ele>2424</ele>
        <time>2026-08-31T09:36:38Z</time>
      </trkpt>
      <trkpt lat="44.69147" lon="7.05635">
        <ele>2424.1</ele>
        <time>2026-08-31T09:36:44Z</time>
      </trkpt>
      <trkpt lat="44.69143" lon="7.05637">
        <ele>2424.4</ele>
        <time>2026-08-31T09:36:49Z</time>
      </trkpt>
      <trkpt lat="44.69141" lon="7.05636">
        <ele>2424.3</ele>
        <time>2026-08-31T09:36:54Z</time>
      </trkpt>
      <trkpt lat="44.69139" lon="7.05642">
        <ele>2424.8</ele>
        <time>2026-08-31T09:37:00Z</time>
      </trkpt>
      <trkpt lat="44.69134" lon="7.05645">
        <ele>2425</ele>
        <time>2026-08-31T09:37:05Z</time>
      </trkpt>
      <trkpt lat="44.69133" lon="7.05647">
        <ele>2425.2</ele>
        <time>2026-08-31T09:37:10Z</time>
      </trkpt>
      <trkpt lat="44.69131" lon="7.05655">
        <ele>2425.7</ele>
        <time>2026-08-31T09:37:16Z</time>
      </trkpt>
      <trkpt lat="44.69128" lon="7.05661">
        <ele>2426.1</ele>
        <time>2026-08-31T09:37:21Z</time>
      </trkpt>
      <trkpt lat="44.69127" lon="7.05667">
        <ele>2426.5</ele>
        <time>2026-08-31T09:37:26Z</time>
      </trkpt>
      <trkpt lat="44.69123" lon="7.05671">
        <ele>2427.3</ele>
        <time>2026-08-31T09:37:32Z</time>
      </trkpt>
      <trkpt lat="44.69119" lon="7.05675">
        <ele>2428</ele>
        <time>2026-08-31T09:37:37Z</time>
      </trkpt>
      <trkpt lat="44.69116" lon="7.05675">
        <ele>2428.1</ele>
        <time>2026-08-31T09:37:42Z</time>
      </trkpt>
      <trkpt lat="44.69113" lon="7.0568">
        <ele>2429</ele>
        <time>2026-08-31T09:37:48Z</time>
      </trkpt>
      <trkpt lat="44.69112" lon="7.05682">
        <ele>2429.3</ele>
        <time>2026-08-31T09:37:53Z</time>
      </trkpt>
      <trkpt lat="44.69107" lon="7.05683">
        <ele>2429.5</ele>
        <time>2026-08-31T09:37:58Z</time>
      </trkpt>
      <trkpt lat="44.69103" lon="7.05684">
        <ele>2429.7</ele>
        <time>2026-08-31T09:38:04Z</time>
      </trkpt>
      <trkpt lat="44.69098" lon="7.05684">
        <ele>2429.7</ele>
        <time>2026-08-31T09:38:09Z</time>
      </trkpt>
      <trkpt lat="44.69096" lon="7.05685">
        <ele>2429.8</ele>
        <time>2026-08-31T09:38:14Z</time>
      </trkpt>
      <trkpt lat="44.69093" lon="7.05687">
        <ele>2430.2</ele>
        <time>2026-08-31T09:38:20Z</time>
      </trkpt>
      <trkpt lat="44.6909" lon="7.05687">
        <ele>2430.2</ele>
        <time>2026-08-31T09:38:25Z</time>
      </trkpt>
      <trkpt lat="44.69089" lon="7.05688">
        <ele>2430.3</ele>
        <time>2026-08-31T09:38:30Z</time>
      </trkpt>
      <trkpt lat="44.69089" lon="7.05689">
        <ele>2430.5</ele>
        <time>2026-08-31T09:38:36Z</time>
      </trkpt>
      <trkpt lat="44.69085" lon="7.0569">
        <ele>2430.6</ele>
        <time>2026-08-31T09:38:41Z</time>
      </trkpt>
      <trkpt lat="44.69083" lon="7.05691">
        <ele>2430.8</ele>
        <time>2026-08-31T09:38:46Z</time>
      </trkpt>
      <trkpt lat="44.69082" lon="7.0569">
        <ele>2430.8</ele>
        <time>2026-08-31T09:38:52Z</time>
      </trkpt>
      <trkpt lat="44.69077" lon="7.05691">
        <ele>2431.5</ele>
        <time>2026-08-31T09:38:57Z</time>
      </trkpt>
      <trkpt lat="44.69074" lon="7.05693">
        <ele>2432.1</ele>
        <time>2026-08-31T09:39:02Z</time>
      </trkpt>
      <trkpt lat="44.69069" lon="7.05697">
        <ele>2433.2</ele>
        <time>2026-08-31T09:39:08Z</time>
      </trkpt>
      <trkpt lat="44.69065" lon="7.05698">
        <ele>2433.8</ele>
        <time>2026-08-31T09:39:13Z</time>
      </trkpt>
      <trkpt lat="44.69062" lon="7.05701">
        <ele>2434.5</ele>
        <time>2026-08-31T09:39:18Z</time>
      </trkpt>
      <trkpt lat="44.69058" lon="7.05703">
        <ele>2435.1</ele>
        <time>2026-08-31T09:39:24Z</time>
      </trkpt>
      <trkpt lat="44.69057" lon="7.05704">
        <ele>2435.3</ele>
        <time>2026-08-31T09:39:29Z</time>
      </trkpt>
      <trkpt lat="44.69057" lon="7.05707">
        <ele>2435.7</ele>
        <time>2026-08-31T09:39:34Z</time>
      </trkpt>
      <trkpt lat="44.69056" lon="7.0571">
        <ele>2436.2</ele>
        <time>2026-08-31T09:39:40Z</time>
      </trkpt>
      <trkpt lat="44.69056" lon="7.05714">
        <ele>2436.6</ele>
        <time>2026-08-31T09:39:45Z</time>
      </trkpt>
      <trkpt lat="44.69053" lon="7.05717">
        <ele>2437.2</ele>
        <time>2026-08-31T09:39:50Z</time>
      </trkpt>
      <trkpt lat="44.6905" lon="7.0572">
        <ele>2437.8</ele>
        <time>2026-08-31T09:39:56Z</time>
      </trkpt>
      <trkpt lat="44.69046" lon="7.05723">
        <ele>2438.4</ele>
        <time>2026-08-31T09:40:01Z</time>
      </trkpt>
      <trkpt lat="44.69042" lon="7.05725">
        <ele>2438.9</ele>
        <time>2026-08-31T09:40:06Z</time>
      </trkpt>
      <trkpt lat="44.69037" lon="7.05728">
        <ele>2439.6</ele>
        <time>2026-08-31T09:40:12Z</time>
      </trkpt>
      <trkpt lat="44.69036" lon="7.05728">
        <ele>2439.6</ele>
        <time>2026-08-31T09:40:17Z</time>
      </trkpt>
      <trkpt lat="44.69036" lon="7.05728">
        <ele>2439.6</ele>
        <time>2026-08-31T09:40:22Z</time>
      </trkpt>
      <trkpt lat="44.69036" lon="7.05728">
        <ele>2439.6</ele>
        <time>2026-08-31T09:40:28Z</time>
      </trkpt>
      <trkpt lat="44.69036" lon="7.05728">
        <ele>2439.6</ele>
        <time>2026-08-31T09:40:33Z</time>
      </trkpt>
      <trkpt lat="44.69036" lon="7.05728">
        <ele>2439.6</ele>
        <time>2026-08-31T09:40:38Z</time>
      </trkpt>
      <trkpt lat="44.69034" lon="7.0574">
        <ele>2440.9</ele>
        <time>2026-08-31T09:40:44Z</time>
      </trkpt>
      <trkpt lat="44.69034" lon="7.0574">
        <ele>2440.9</ele>
        <time>2026-08-31T09:40:49Z</time>
      </trkpt>
      <trkpt lat="44.69034" lon="7.0574">
        <ele>2440.9</ele>
        <time>2026-08-31T09:40:54Z</time>
      </trkpt>
      <trkpt lat="44.69034" lon="7.0574">
        <ele>2440.9</ele>
        <time>2026-08-31T09:41:00Z</time>
      </trkpt>
      <trkpt lat="44.69034" lon="7.0574">
        <ele>2440.9</ele>
        <time>2026-08-31T09:41:05Z</time>
      </trkpt>
      <trkpt lat="44.69031" lon="7.05744">
        <ele>2441.4</ele>
        <time>2026-08-31T09:41:10Z</time>
      </trkpt>
      <trkpt lat="44.69031" lon="7.05748">
        <ele>2441.7</ele>
        <time>2026-08-31T09:41:16Z</time>
      </trkpt>
      <trkpt lat="44.69029" lon="7.0575">
        <ele>2442</ele>
        <time>2026-08-31T09:41:21Z</time>
      </trkpt>
      <trkpt lat="44.69029" lon="7.0575">
        <ele>2442</ele>
        <time>2026-08-31T09:41:26Z</time>
      </trkpt>
      <trkpt lat="44.69032" lon="7.05754">
        <ele>2442.3</ele>
        <time>2026-08-31T09:41:32Z</time>
      </trkpt>
      <trkpt lat="44.69032" lon="7.05759">
        <ele>2442.8</ele>
        <time>2026-08-31T09:41:37Z</time>
      </trkpt>
      <trkpt lat="44.69031" lon="7.05762">
        <ele>2443.1</ele>
        <time>2026-08-31T09:41:42Z</time>
      </trkpt>
      <trkpt lat="44.69032" lon="7.05767">
        <ele>2443.7</ele>
        <time>2026-08-31T09:41:48Z</time>
      </trkpt>
      <trkpt lat="44.6903" lon="7.05771">
        <ele>2444.1</ele>
        <time>2026-08-31T09:41:53Z</time>
      </trkpt>
      <trkpt lat="44.6903" lon="7.05775">
        <ele>2444.5</ele>
        <time>2026-08-31T09:41:58Z</time>
      </trkpt>
      <trkpt lat="44.69027" lon="7.05777">
        <ele>2444.7</ele>
        <time>2026-08-31T09:42:04Z</time>
      </trkpt>
      <trkpt lat="44.69025" lon="7.05778">
        <ele>2444.8</ele>
        <time>2026-08-31T09:42:09Z</time>
      </trkpt>
      <trkpt lat="44.69025" lon="7.05778">
        <ele>2444.8</ele>
        <time>2026-08-31T09:42:14Z</time>
      </trkpt>
      <trkpt lat="44.69024" lon="7.05784">
        <ele>2445.4</ele>
        <time>2026-08-31T09:42:20Z</time>
      </trkpt>
      <trkpt lat="44.69025" lon="7.05788">
        <ele>2445.7</ele>
        <time>2026-08-31T09:42:25Z</time>
      </trkpt>
      <trkpt lat="44.69025" lon="7.05792">
        <ele>2446.1</ele>
        <time>2026-08-31T09:42:30Z</time>
      </trkpt>
      <trkpt lat="44.69025" lon="7.05799">
        <ele>2446.8</ele>
        <time>2026-08-31T09:42:36Z</time>
      </trkpt>
      <trkpt lat="44.69025" lon="7.05805">
        <ele>2447.4</ele>
        <time>2026-08-31T09:42:41Z</time>
      </trkpt>
      <trkpt lat="44.69024" lon="7.05807">
        <ele>2447.5</ele>
        <time>2026-08-31T09:42:46Z</time>
      </trkpt>
      <trkpt lat="44.69022" lon="7.05808">
        <ele>2447.5</ele>
        <time>2026-08-31T09:42:52Z</time>
      </trkpt>
      <trkpt lat="44.69021" lon="7.05813">
        <ele>2447.9</ele>
        <time>2026-08-31T09:42:57Z</time>
      </trkpt>
      <trkpt lat="44.69021" lon="7.05819">
        <ele>2448.5</ele>
        <time>2026-08-31T09:43:02Z</time>
      </trkpt>
      <trkpt lat="44.69023" lon="7.05827">
        <ele>2449.3</ele>
        <time>2026-08-31T09:43:08Z</time>
      </trkpt>
      <trkpt lat="44.69024" lon="7.05833">
        <ele>2450</ele>
        <time>2026-08-31T09:43:13Z</time>
      </trkpt>
      <trkpt lat="44.69023" lon="7.05838">
        <ele>2450.3</ele>
        <time>2026-08-31T09:43:18Z</time>
      </trkpt>
      <trkpt lat="44.69022" lon="7.05843">
        <ele>2450.6</ele>
        <time>2026-08-31T09:43:24Z</time>
      </trkpt>
      <trkpt lat="44.69023" lon="7.05845">
        <ele>2450.8</ele>
        <time>2026-08-31T09:43:29Z</time>
      </trkpt>
      <trkpt lat="44.69023" lon="7.05845">
        <ele>2450.8</ele>
        <time>2026-08-31T09:43:34Z</time>
      </trkpt>
      <trkpt lat="44.69023" lon="7.05845">
        <ele>2450.8</ele>
        <time>2026-08-31T09:43:40Z</time>
      </trkpt>
      <trkpt lat="44.69023" lon="7.05845">
        <ele>2450.8</ele>
        <time>2026-08-31T09:43:45Z</time>
      </trkpt>
      <trkpt lat="44.69023" lon="7.05845">
        <ele>2450.8</ele>
        <time>2026-08-31T09:43:50Z</time>
      </trkpt>
      <trkpt lat="44.69023" lon="7.05845">
        <ele>2450.8</ele>
        <time>2026-08-31T09:43:56Z</time>
      </trkpt>
      <trkpt lat="44.69023" lon="7.05845">
        <ele>2450.8</ele>
        <time>2026-08-31T09:44:01Z</time>
      </trkpt>
      <trkpt lat="44.69023" lon="7.05845">
        <ele>2450.8</ele>
        <time>2026-08-31T09:44:06Z</time>
      </trkpt>
      <trkpt lat="44.69023" lon="7.05845">
        <ele>2450.8</ele>
        <time>2026-08-31T09:44:12Z</time>
      </trkpt>
      <trkpt lat="44.69023" lon="7.05845">
        <ele>2450.8</ele>
        <time>2026-08-31T09:44:17Z</time>
      </trkpt>
      <trkpt lat="44.69023" lon="7.05845">
        <ele>2450.8</ele>
        <time>2026-08-31T09:44:22Z</time>
      </trkpt>
      <trkpt lat="44.69023" lon="7.05845">
        <ele>2450.8</ele>
        <time>2026-08-31T09:44:28Z</time>
      </trkpt>
      <trkpt lat="44.69023" lon="7.05845">
        <ele>2450.8</ele>
        <time>2026-08-31T09:44:33Z</time>
      </trkpt>
      <trkpt lat="44.69023" lon="7.05845">
        <ele>2450.8</ele>
        <time>2026-08-31T09:44:38Z</time>
      </trkpt>
      <trkpt lat="44.69023" lon="7.05845">
        <ele>2450.8</ele>
        <time>2026-08-31T09:44:44Z</time>
      </trkpt>
      <trkpt lat="44.69023" lon="7.05845">
        <ele>2450.8</ele>
        <time>2026-08-31T09:44:49Z</time>
      </trkpt>
      <trkpt lat="44.69023" lon="7.05845">
        <ele>2450.8</ele>
        <time>2026-08-31T09:44:54Z</time>
      </trkpt>
      <trkpt lat="44.69023" lon="7.05845">
        <ele>2450.8</ele>
        <time>2026-08-31T09:45:00Z</time>
      </trkpt>
      <trkpt lat="44.69023" lon="7.05845">
        <ele>2450.8</ele>
        <time>2026-08-31T09:45:05Z</time>
      </trkpt>
      <trkpt lat="44.69023" lon="7.05845">
        <ele>2450.8</ele>
        <time>2026-08-31T09:45:10Z</time>
      </trkpt>
      <trkpt lat="44.69023" lon="7.05845">
        <ele>2450.8</ele>
        <time>2026-08-31T09:45:16Z</time>
      </trkpt>
      <trkpt lat="44.69023" lon="7.05845">
        <ele>2450.8</ele>
        <time>2026-08-31T09:45:21Z</time>
      </trkpt>
      <trkpt lat="44.69023" lon="7.05845">
        <ele>2450.8</ele>
        <time>2026-08-31T09:45:26Z</time>
      </trkpt>
      <trkpt lat="44.69023" lon="7.05845">
        <ele>2450.8</ele>
        <time>2026-08-31T09:45:32Z</time>
      </trkpt>
      <trkpt lat="44.69017" lon="7.0586">
        <ele>2451.5</ele>
        <time>2026-08-31T09:45:37Z</time>
      </trkpt>
      <trkpt lat="44.69017" lon="7.0586">
        <ele>2451.5</ele>
        <time>2026-08-31T09:45:42Z</time>
      </trkpt>
      <trkpt lat="44.69013" lon="7.0587">
        <ele>2452</ele>
        <time>2026-08-31T09:45:48Z</time>
      </trkpt>
      <trkpt lat="44.69011" lon="7.05879">
        <ele>2452.5</ele>
        <time>2026-08-31T09:45:53Z</time>
      </trkpt>
      <trkpt lat="44.69007" lon="7.05886">
        <ele>2452.9</ele>
        <time>2026-08-31T09:45:58Z</time>
      </trkpt>
      <trkpt lat="44.69001" lon="7.05894">
        <ele>2453.2</ele>
        <time>2026-08-31T09:46:04Z</time>
      </trkpt>
      <trkpt lat="44.68998" lon="7.05901">
        <ele>2453.7</ele>
        <time>2026-08-31T09:46:09Z</time>
      </trkpt>
      <trkpt lat="44.68993" lon="7.05906">
        <ele>2454.2</ele>
        <time>2026-08-31T09:46:14Z</time>
      </trkpt>
      <trkpt lat="44.68988" lon="7.05913">
        <ele>2454.7</ele>
        <time>2026-08-31T09:46:20Z</time>
      </trkpt>
      <trkpt lat="44.68985" lon="7.0592">
        <ele>2455.1</ele>
        <time>2026-08-31T09:46:25Z</time>
      </trkpt>
      <trkpt lat="44.6898" lon="7.05927">
        <ele>2455.5</ele>
        <time>2026-08-31T09:46:30Z</time>
      </trkpt>
      <trkpt lat="44.68975" lon="7.05935">
        <ele>2455.9</ele>
        <time>2026-08-31T09:46:36Z</time>
      </trkpt>
      <trkpt lat="44.68971" lon="7.05942">
        <ele>2456.3</ele>
        <time>2026-08-31T09:46:41Z</time>
      </trkpt>
      <trkpt lat="44.68968" lon="7.05948">
        <ele>2456.7</ele>
        <time>2026-08-31T09:46:46Z</time>
      </trkpt>
      <trkpt lat="44.68967" lon="7.05951">
        <ele>2456.9</ele>
        <time>2026-08-31T09:46:52Z</time>
      </trkpt>
      <trkpt lat="44.68966" lon="7.05951">
        <ele>2456.9</ele>
        <time>2026-08-31T09:46:57Z</time>
      </trkpt>
      <trkpt lat="44.68966" lon="7.05951">
        <ele>2456.9</ele>
        <time>2026-08-31T09:47:02Z</time>
      </trkpt>
      <trkpt lat="44.68966" lon="7.05951">
        <ele>2456.9</ele>
        <time>2026-08-31T09:47:08Z</time>
      </trkpt>
      <trkpt lat="44.68966" lon="7.05951">
        <ele>2456.9</ele>
        <time>2026-08-31T09:47:13Z</time>
      </trkpt>
      <trkpt lat="44.68966" lon="7.05951">
        <ele>2456.9</ele>
        <time>2026-08-31T09:47:18Z</time>
      </trkpt>
      <trkpt lat="44.68966" lon="7.05951">
        <ele>2456.9</ele>
        <time>2026-08-31T09:47:24Z</time>
      </trkpt>
      <trkpt lat="44.68966" lon="7.05951">
        <ele>2456.9</ele>
        <time>2026-08-31T09:47:29Z</time>
      </trkpt>
      <trkpt lat="44.68965" lon="7.05954">
        <ele>2457.1</ele>
        <time>2026-08-31T09:47:34Z</time>
      </trkpt>
      <trkpt lat="44.68961" lon="7.05958">
        <ele>2457.4</ele>
        <time>2026-08-31T09:47:40Z</time>
      </trkpt>
      <trkpt lat="44.6896" lon="7.05961">
        <ele>2457.6</ele>
        <time>2026-08-31T09:47:45Z</time>
      </trkpt>
      <trkpt lat="44.68956" lon="7.05964">
        <ele>2457.9</ele>
        <time>2026-08-31T09:47:50Z</time>
      </trkpt>
      <trkpt lat="44.68952" lon="7.0597">
        <ele>2458.4</ele>
        <time>2026-08-31T09:47:56Z</time>
      </trkpt>
      <trkpt lat="44.68945" lon="7.05974">
        <ele>2458.9</ele>
        <time>2026-08-31T09:48:01Z</time>
      </trkpt>
      <trkpt lat="44.68944" lon="7.05982">
        <ele>2459.5</ele>
        <time>2026-08-31T09:48:06Z</time>
      </trkpt>
      <trkpt lat="44.68945" lon="7.05992">
        <ele>2460.1</ele>
        <time>2026-08-31T09:48:12Z</time>
      </trkpt>
      <trkpt lat="44.68945" lon="7.05999">
        <ele>2460.6</ele>
        <time>2026-08-31T09:48:17Z</time>
      </trkpt>
      <trkpt lat="44.68943" lon="7.06004">
        <ele>2461.2</ele>
        <time>2026-08-31T09:48:22Z</time>
      </trkpt>
      <trkpt lat="44.68938" lon="7.0601">
        <ele>2462.1</ele>
        <time>2026-08-31T09:48:28Z</time>
      </trkpt>
      <trkpt lat="44.68936" lon="7.06011">
        <ele>2462.3</ele>
        <time>2026-08-31T09:48:33Z</time>
      </trkpt>
      <trkpt lat="44.68936" lon="7.06011">
        <ele>2462.3</ele>
        <time>2026-08-31T09:48:38Z</time>
      </trkpt>
      <trkpt lat="44.68936" lon="7.06011">
        <ele>2462.3</ele>
        <time>2026-08-31T09:48:44Z</time>
      </trkpt>
      <trkpt lat="44.68936" lon="7.06011">
        <ele>2462.3</ele>
        <time>2026-08-31T09:48:49Z</time>
      </trkpt>
      <trkpt lat="44.68936" lon="7.06011">
        <ele>2462.3</ele>
        <time>2026-08-31T09:48:54Z</time>
      </trkpt>
      <trkpt lat="44.68931" lon="7.06007">
        <ele>2462.1</ele>
        <time>2026-08-31T09:49:00Z</time>
      </trkpt>
      <trkpt lat="44.68928" lon="7.06012">
        <ele>2462.9</ele>
        <time>2026-08-31T09:49:05Z</time>
      </trkpt>
      <trkpt lat="44.68924" lon="7.06015">
        <ele>2463.5</ele>
        <time>2026-08-31T09:49:10Z</time>
      </trkpt>
      <trkpt lat="44.68921" lon="7.06019">
        <ele>2464.2</ele>
        <time>2026-08-31T09:49:16Z</time>
      </trkpt>
      <trkpt lat="44.68919" lon="7.06024">
        <ele>2465</ele>
        <time>2026-08-31T09:49:21Z</time>
      </trkpt>
      <trkpt lat="44.68917" lon="7.06028">
        <ele>2465.7</ele>
        <time>2026-08-31T09:49:26Z</time>
      </trkpt>
      <trkpt lat="44.68919" lon="7.0603">
        <ele>2465.8</ele>
        <time>2026-08-31T09:49:32Z</time>
      </trkpt>
      <trkpt lat="44.68919" lon="7.06031">
        <ele>2465.9</ele>
        <time>2026-08-31T09:49:37Z</time>
      </trkpt>
      <trkpt lat="44.68919" lon="7.06031">
        <ele>2465.9</ele>
        <time>2026-08-31T09:49:42Z</time>
      </trkpt>
      <trkpt lat="44.68915" lon="7.06039">
        <ele>2467.5</ele>
        <time>2026-08-31T09:49:48Z</time>
      </trkpt>
      <trkpt lat="44.68914" lon="7.06044">
        <ele>2468.3</ele>
        <time>2026-08-31T09:49:53Z</time>
      </trkpt>
      <trkpt lat="44.68912" lon="7.06049">
        <ele>2469.3</ele>
        <time>2026-08-31T09:49:58Z</time>
      </trkpt>
      <trkpt lat="44.68908" lon="7.06055">
        <ele>2470.9</ele>
        <time>2026-08-31T09:50:04Z</time>
      </trkpt>
      <trkpt lat="44.68906" lon="7.06061">
        <ele>2472</ele>
        <time>2026-08-31T09:50:09Z</time>
      </trkpt>
      <trkpt lat="44.68903" lon="7.06069">
        <ele>2473.5</ele>
        <time>2026-08-31T09:50:14Z</time>
      </trkpt>
      <trkpt lat="44.68899" lon="7.06076">
        <ele>2475.1</ele>
        <time>2026-08-31T09:50:20Z</time>
      </trkpt>
      <trkpt lat="44.68897" lon="7.0608">
        <ele>2475.9</ele>
        <time>2026-08-31T09:50:25Z</time>
      </trkpt>
      <trkpt lat="44.68892" lon="7.06085">
        <ele>2477.3</ele>
        <time>2026-08-31T09:50:30Z</time>
      </trkpt>
      <trkpt lat="44.68887" lon="7.0609">
        <ele>2478.4</ele>
        <time>2026-08-31T09:50:36Z</time>
      </trkpt>
      <trkpt lat="44.68885" lon="7.06093">
        <ele>2479</ele>
        <time>2026-08-31T09:50:41Z</time>
      </trkpt>
      <trkpt lat="44.68883" lon="7.06097">
        <ele>2479.6</ele>
        <time>2026-08-31T09:50:46Z</time>
      </trkpt>
      <trkpt lat="44.6888" lon="7.06101">
        <ele>2480.4</ele>
        <time>2026-08-31T09:50:52Z</time>
      </trkpt>
      <trkpt lat="44.68879" lon="7.06105">
        <ele>2480.9</ele>
        <time>2026-08-31T09:50:57Z</time>
      </trkpt>
      <trkpt lat="44.68876" lon="7.06108">
        <ele>2481.6</ele>
        <time>2026-08-31T09:51:02Z</time>
      </trkpt>
      <trkpt lat="44.68875" lon="7.06113">
        <ele>2482.1</ele>
        <time>2026-08-31T09:51:08Z</time>
      </trkpt>
      <trkpt lat="44.68873" lon="7.06117">
        <ele>2482.8</ele>
        <time>2026-08-31T09:51:13Z</time>
      </trkpt>
      <trkpt lat="44.68873" lon="7.06121">
        <ele>2483.1</ele>
        <time>2026-08-31T09:51:18Z</time>
      </trkpt>
      <trkpt lat="44.6887" lon="7.06127">
        <ele>2484</ele>
        <time>2026-08-31T09:51:24Z</time>
      </trkpt>
      <trkpt lat="44.68867" lon="7.06132">
        <ele>2485</ele>
        <time>2026-08-31T09:51:29Z</time>
      </trkpt>
      <trkpt lat="44.68865" lon="7.06135">
        <ele>2485.5</ele>
        <time>2026-08-31T09:51:34Z</time>
      </trkpt>
      <trkpt lat="44.68862" lon="7.06142">
        <ele>2486.6</ele>
        <time>2026-08-31T09:51:40Z</time>
      </trkpt>
      <trkpt lat="44.68859" lon="7.06145">
        <ele>2487.4</ele>
        <time>2026-08-31T09:51:45Z</time>
      </trkpt>
      <trkpt lat="44.68859" lon="7.06149">
        <ele>2487.7</ele>
        <time>2026-08-31T09:51:50Z</time>
      </trkpt>
      <trkpt lat="44.68855" lon="7.06153">
        <ele>2488.8</ele>
        <time>2026-08-31T09:51:56Z</time>
      </trkpt>
      <trkpt lat="44.68855" lon="7.06154">
        <ele>2488.9</ele>
        <time>2026-08-31T09:52:01Z</time>
      </trkpt>
      <trkpt lat="44.68853" lon="7.06156">
        <ele>2489.4</ele>
        <time>2026-08-31T09:52:06Z</time>
      </trkpt>
      <trkpt lat="44.68851" lon="7.06162">
        <ele>2490.2</ele>
        <time>2026-08-31T09:52:12Z</time>
      </trkpt>
      <trkpt lat="44.68849" lon="7.06165">
        <ele>2490.9</ele>
        <time>2026-08-31T09:52:17Z</time>
      </trkpt>
      <trkpt lat="44.68847" lon="7.06168">
        <ele>2491.6</ele>
        <time>2026-08-31T09:52:22Z</time>
      </trkpt>
      <trkpt lat="44.68844" lon="7.0617">
        <ele>2492.4</ele>
        <time>2026-08-31T09:52:28Z</time>
      </trkpt>
      <trkpt lat="44.6884" lon="7.06173">
        <ele>2493.6</ele>
        <time>2026-08-31T09:52:33Z</time>
      </trkpt>
      <trkpt lat="44.68837" lon="7.06176">
        <ele>2494.6</ele>
        <time>2026-08-31T09:52:38Z</time>
      </trkpt>
      <trkpt lat="44.68834" lon="7.06178">
        <ele>2495.5</ele>
        <time>2026-08-31T09:52:44Z</time>
      </trkpt>
      <trkpt lat="44.68832" lon="7.06179">
        <ele>2496.2</ele>
        <time>2026-08-31T09:52:49Z</time>
      </trkpt>
      <trkpt lat="44.6883" lon="7.06181">
        <ele>2497.2</ele>
        <time>2026-08-31T09:52:54Z</time>
      </trkpt>
      <trkpt lat="44.68829" lon="7.06178">
        <ele>2497.2</ele>
        <time>2026-08-31T09:53:00Z</time>
      </trkpt>
      <trkpt lat="44.68828" lon="7.06177">
        <ele>2497.4</ele>
        <time>2026-08-31T09:53:05Z</time>
      </trkpt>
      <trkpt lat="44.68826" lon="7.06178">
        <ele>2498.2</ele>
        <time>2026-08-31T09:53:10Z</time>
      </trkpt>
      <trkpt lat="44.68822" lon="7.0618">
        <ele>2499.9</ele>
        <time>2026-08-31T09:53:16Z</time>
      </trkpt>
      <trkpt lat="44.6882" lon="7.06183">
        <ele>2500.9</ele>
        <time>2026-08-31T09:53:21Z</time>
      </trkpt>
      <trkpt lat="44.68818" lon="7.06185">
        <ele>2501.9</ele>
        <time>2026-08-31T09:53:26Z</time>
      </trkpt>
      <trkpt lat="44.68816" lon="7.06187">
        <ele>2502.8</ele>
        <time>2026-08-31T09:53:32Z</time>
      </trkpt>
      <trkpt lat="44.68814" lon="7.06189">
        <ele>2503.7</ele>
        <time>2026-08-31T09:53:37Z</time>
      </trkpt>
      <trkpt lat="44.68812" lon="7.06188">
        <ele>2504.2</ele>
        <time>2026-08-31T09:53:42Z</time>
      </trkpt>
      <trkpt lat="44.68812" lon="7.06188">
        <ele>2504.2</ele>
        <time>2026-08-31T09:53:48Z</time>
      </trkpt>
      <trkpt lat="44.68812" lon="7.06188">
        <ele>2504.2</ele>
        <time>2026-08-31T09:53:53Z</time>
      </trkpt>
      <trkpt lat="44.68812" lon="7.06188">
        <ele>2504.2</ele>
        <time>2026-08-31T09:53:58Z</time>
      </trkpt>
      <trkpt lat="44.68812" lon="7.06188">
        <ele>2504.2</ele>
        <time>2026-08-31T09:54:04Z</time>
      </trkpt>
      <trkpt lat="44.68812" lon="7.06188">
        <ele>2504.2</ele>
        <time>2026-08-31T09:54:09Z</time>
      </trkpt>
      <trkpt lat="44.68812" lon="7.06188">
        <ele>2504.2</ele>
        <time>2026-08-31T09:54:14Z</time>
      </trkpt>
      <trkpt lat="44.68812" lon="7.06188">
        <ele>2504.2</ele>
        <time>2026-08-31T09:54:20Z</time>
      </trkpt>
      <trkpt lat="44.68812" lon="7.06188">
        <ele>2504.2</ele>
        <time>2026-08-31T09:54:25Z</time>
      </trkpt>
      <trkpt lat="44.68812" lon="7.06188">
        <ele>2504.2</ele>
        <time>2026-08-31T09:54:30Z</time>
      </trkpt>
      <trkpt lat="44.68812" lon="7.06188">
        <ele>2504.2</ele>
        <time>2026-08-31T09:54:36Z</time>
      </trkpt>
      <trkpt lat="44.68812" lon="7.06188">
        <ele>2504.2</ele>
        <time>2026-08-31T09:54:41Z</time>
      </trkpt>
      <trkpt lat="44.68812" lon="7.06188">
        <ele>2504.2</ele>
        <time>2026-08-31T09:54:46Z</time>
      </trkpt>
      <trkpt lat="44.68812" lon="7.06188">
        <ele>2504.2</ele>
        <time>2026-08-31T09:54:52Z</time>
      </trkpt>
      <trkpt lat="44.68812" lon="7.06188">
        <ele>2504.2</ele>
        <time>2026-08-31T09:54:57Z</time>
      </trkpt>
      <trkpt lat="44.68812" lon="7.06188">
        <ele>2504.2</ele>
        <time>2026-08-31T09:55:02Z</time>
      </trkpt>
      <trkpt lat="44.68812" lon="7.06188">
        <ele>2504.2</ele>
        <time>2026-08-31T09:55:08Z</time>
      </trkpt>
      <trkpt lat="44.68808" lon="7.06195">
        <ele>2506.3</ele>
        <time>2026-08-31T09:55:13Z</time>
      </trkpt>
      <trkpt lat="44.68805" lon="7.06198">
        <ele>2507.5</ele>
        <time>2026-08-31T09:55:18Z</time>
      </trkpt>
      <trkpt lat="44.68802" lon="7.06202">
        <ele>2508.8</ele>
        <time>2026-08-31T09:55:24Z</time>
      </trkpt>
      <trkpt lat="44.688" lon="7.06205">
        <ele>2509.7</ele>
        <time>2026-08-31T09:55:29Z</time>
      </trkpt>
      <trkpt lat="44.68797" lon="7.06209">
        <ele>2511</ele>
        <time>2026-08-31T09:55:34Z</time>
      </trkpt>
      <trkpt lat="44.68794" lon="7.06215">
        <ele>2512.3</ele>
        <time>2026-08-31T09:55:40Z</time>
      </trkpt>
      <trkpt lat="44.68794" lon="7.06218">
        <ele>2512.5</ele>
        <time>2026-08-31T09:55:45Z</time>
      </trkpt>
      <trkpt lat="44.68794" lon="7.06218">
        <ele>2512.5</ele>
        <time>2026-08-31T09:55:50Z</time>
      </trkpt>
      <trkpt lat="44.68794" lon="7.06218">
        <ele>2512.5</ele>
        <time>2026-08-31T09:55:56Z</time>
      </trkpt>
      <trkpt lat="44.68794" lon="7.06218">
        <ele>2512.5</ele>
        <time>2026-08-31T09:56:01Z</time>
      </trkpt>
      <trkpt lat="44.68794" lon="7.06218">
        <ele>2512.5</ele>
        <time>2026-08-31T09:56:06Z</time>
      </trkpt>
      <trkpt lat="44.68794" lon="7.0622">
        <ele>2512.7</ele>
        <time>2026-08-31T09:56:12Z</time>
      </trkpt>
      <trkpt lat="44.68795" lon="7.06224">
        <ele>2512.7</ele>
        <time>2026-08-31T09:56:17Z</time>
      </trkpt>
      <trkpt lat="44.68795" lon="7.06224">
        <ele>2512.7</ele>
        <time>2026-08-31T09:56:22Z</time>
      </trkpt>
      <trkpt lat="44.68795" lon="7.06224">
        <ele>2512.7</ele>
        <time>2026-08-31T09:56:28Z</time>
      </trkpt>
      <trkpt lat="44.68795" lon="7.06224">
        <ele>2512.7</ele>
        <time>2026-08-31T09:56:33Z</time>
      </trkpt>
      <trkpt lat="44.68796" lon="7.0623">
        <ele>2512.9</ele>
        <time>2026-08-31T09:56:38Z</time>
      </trkpt>
      <trkpt lat="44.68798" lon="7.06237">
        <ele>2513</ele>
        <time>2026-08-31T09:56:44Z</time>
      </trkpt>
      <trkpt lat="44.68795" lon="7.0624">
        <ele>2514</ele>
        <time>2026-08-31T09:56:49Z</time>
      </trkpt>
      <trkpt lat="44.68792" lon="7.06243">
        <ele>2514.9</ele>
        <time>2026-08-31T09:56:54Z</time>
      </trkpt>
      <trkpt lat="44.68789" lon="7.06249">
        <ele>2516</ele>
        <time>2026-08-31T09:57:00Z</time>
      </trkpt>
      <trkpt lat="44.68791" lon="7.06253">
        <ele>2515.7</ele>
        <time>2026-08-31T09:57:05Z</time>
      </trkpt>
      <trkpt lat="44.68792" lon="7.06257">
        <ele>2515.6</ele>
        <time>2026-08-31T09:57:10Z</time>
      </trkpt>
      <trkpt lat="44.68789" lon="7.06258">
        <ele>2516.2</ele>
        <time>2026-08-31T09:57:16Z</time>
      </trkpt>
      <trkpt lat="44.68786" lon="7.0626">
        <ele>2516.9</ele>
        <time>2026-08-31T09:57:21Z</time>
      </trkpt>
      <trkpt lat="44.68782" lon="7.06264">
        <ele>2517.9</ele>
        <time>2026-08-31T09:57:26Z</time>
      </trkpt>
      <trkpt lat="44.68782" lon="7.06268">
        <ele>2517.9</ele>
        <time>2026-08-31T09:57:32Z</time>
      </trkpt>
      <trkpt lat="44.68783" lon="7.06273">
        <ele>2517.7</ele>
        <time>2026-08-31T09:57:37Z</time>
      </trkpt>
      <trkpt lat="44.68784" lon="7.06279">
        <ele>2517.6</ele>
        <time>2026-08-31T09:57:42Z</time>
      </trkpt>
      <trkpt lat="44.68784" lon="7.06285">
        <ele>2517.7</ele>
        <time>2026-08-31T09:57:48Z</time>
      </trkpt>
      <trkpt lat="44.68783" lon="7.06289">
        <ele>2517.9</ele>
        <time>2026-08-31T09:57:53Z</time>
      </trkpt>
      <trkpt lat="44.68781" lon="7.06292">
        <ele>2518.4</ele>
        <time>2026-08-31T09:57:58Z</time>
      </trkpt>
      <trkpt lat="44.68778" lon="7.06295">
        <ele>2519</ele>
        <time>2026-08-31T09:58:04Z</time>
      </trkpt>
      <trkpt lat="44.68775" lon="7.06299">
        <ele>2519.6</ele>
        <time>2026-08-31T09:58:09Z</time>
      </trkpt>
      <trkpt lat="44.68774" lon="7.06305">
        <ele>2519.8</ele>
        <time>2026-08-31T09:58:14Z</time>
      </trkpt>
      <trkpt lat="44.68773" lon="7.0631">
        <ele>2520</ele>
        <time>2026-08-31T09:58:20Z</time>
      </trkpt>
      <trkpt lat="44.68772" lon="7.06314">
        <ele>2520.2</ele>
        <time>2026-08-31T09:58:25Z</time>
      </trkpt>
      <trkpt lat="44.68771" lon="7.06319">
        <ele>2520.4</ele>
        <time>2026-08-31T09:58:30Z</time>
      </trkpt>
      <trkpt lat="44.68769" lon="7.06323">
        <ele>2520.8</ele>
        <time>2026-08-31T09:58:36Z</time>
      </trkpt>
      <trkpt lat="44.68767" lon="7.06327">
        <ele>2521.1</ele>
        <time>2026-08-31T09:58:41Z</time>
      </trkpt>
      <trkpt lat="44.68764" lon="7.06333">
        <ele>2521.6</ele>
        <time>2026-08-31T09:58:46Z</time>
      </trkpt>
      <trkpt lat="44.68764" lon="7.06336">
        <ele>2521.6</ele>
        <time>2026-08-31T09:58:52Z</time>
      </trkpt>
      <trkpt lat="44.68763" lon="7.06338">
        <ele>2521.7</ele>
        <time>2026-08-31T09:58:57Z</time>
      </trkpt>
      <trkpt lat="44.68762" lon="7.06341">
        <ele>2521.8</ele>
        <time>2026-08-31T09:59:02Z</time>
      </trkpt>
      <trkpt lat="44.68761" lon="7.06346">
        <ele>2521.8</ele>
        <time>2026-08-31T09:59:08Z</time>
      </trkpt>
      <trkpt lat="44.68759" lon="7.06351">
        <ele>2522</ele>
        <time>2026-08-31T09:59:13Z</time>
      </trkpt>
      <trkpt lat="44.68758" lon="7.06355">
        <ele>2522</ele>
        <time>2026-08-31T09:59:18Z</time>
      </trkpt>
      <trkpt lat="44.68758" lon="7.06359">
        <ele>2521.9</ele>
        <time>2026-08-31T09:59:24Z</time>
      </trkpt>
      <trkpt lat="44.68757" lon="7.06363">
        <ele>2521.9</ele>
        <time>2026-08-31T09:59:29Z</time>
      </trkpt>
      <trkpt lat="44.68757" lon="7.06366">
        <ele>2521.8</ele>
        <time>2026-08-31T09:59:34Z</time>
      </trkpt>
      <trkpt lat="44.68755" lon="7.06372">
        <ele>2521.9</ele>
        <time>2026-08-31T09:59:40Z</time>
      </trkpt>
      <trkpt lat="44.68753" lon="7.06377">
        <ele>2522</ele>
        <time>2026-08-31T09:59:45Z</time>
      </trkpt>
      <trkpt lat="44.68751" lon="7.0638">
        <ele>2522.2</ele>
        <time>2026-08-31T09:59:50Z</time>
      </trkpt>
      <trkpt lat="44.68749" lon="7.06384">
        <ele>2522.5</ele>
        <time>2026-08-31T09:59:56Z</time>
      </trkpt>
      <trkpt lat="44.68747" lon="7.06389">
        <ele>2522.9</ele>
        <time>2026-08-31T10:00:01Z</time>
      </trkpt>
      <trkpt lat="44.68746" lon="7.06396">
        <ele>2522.8</ele>
        <time>2026-08-31T10:00:06Z</time>
      </trkpt>
      <trkpt lat="44.68745" lon="7.06402">
        <ele>2522.9</ele>
        <time>2026-08-31T10:00:12Z</time>
      </trkpt>
      <trkpt lat="44.68746" lon="7.06407">
        <ele>2522.4</ele>
        <time>2026-08-31T10:00:17Z</time>
      </trkpt>
      <trkpt lat="44.68746" lon="7.06413">
        <ele>2522.1</ele>
        <time>2026-08-31T10:00:22Z</time>
      </trkpt>
      <trkpt lat="44.68744" lon="7.06421">
        <ele>2522.3</ele>
        <time>2026-08-31T10:00:28Z</time>
      </trkpt>
      <trkpt lat="44.68744" lon="7.06428">
        <ele>2522.1</ele>
        <time>2026-08-31T10:00:33Z</time>
      </trkpt>
      <trkpt lat="44.68742" lon="7.06434">
        <ele>2522.4</ele>
        <time>2026-08-31T10:00:38Z</time>
      </trkpt>
      <trkpt lat="44.6874" lon="7.06441">
        <ele>2522.6</ele>
        <time>2026-08-31T10:00:44Z</time>
      </trkpt>
      <trkpt lat="44.68738" lon="7.06446">
        <ele>2522.9</ele>
        <time>2026-08-31T10:00:49Z</time>
      </trkpt>
      <trkpt lat="44.68735" lon="7.06449">
        <ele>2523.5</ele>
        <time>2026-08-31T10:00:54Z</time>
      </trkpt>
      <trkpt lat="44.68732" lon="7.06447">
        <ele>2524.2</ele>
        <time>2026-08-31T10:01:00Z</time>
      </trkpt>
      <trkpt lat="44.68732" lon="7.06447">
        <ele>2524.2</ele>
        <time>2026-08-31T10:01:05Z</time>
      </trkpt>
      <trkpt lat="44.68732" lon="7.06448">
        <ele>2524.2</ele>
        <time>2026-08-31T10:01:10Z</time>
      </trkpt>
      <trkpt lat="44.68732" lon="7.06454">
        <ele>2523.9</ele>
        <time>2026-08-31T10:01:16Z</time>
      </trkpt>
      <trkpt lat="44.68731" lon="7.06459">
        <ele>2524</ele>
        <time>2026-08-31T10:01:21Z</time>
      </trkpt>
      <trkpt lat="44.68728" lon="7.06462">
        <ele>2524.5</ele>
        <time>2026-08-31T10:01:26Z</time>
      </trkpt>
      <trkpt lat="44.68726" lon="7.06469">
        <ele>2524.6</ele>
        <time>2026-08-31T10:01:32Z</time>
      </trkpt>
      <trkpt lat="44.68725" lon="7.0647">
        <ele>2524.8</ele>
        <time>2026-08-31T10:01:37Z</time>
      </trkpt>
      <trkpt lat="44.68725" lon="7.0647">
        <ele>2524.8</ele>
        <time>2026-08-31T10:01:42Z</time>
      </trkpt>
      <trkpt lat="44.6872" lon="7.06468">
        <ele>2525.9</ele>
        <time>2026-08-31T10:01:48Z</time>
      </trkpt>
      <trkpt lat="44.68715" lon="7.06465">
        <ele>2527</ele>
        <time>2026-08-31T10:01:53Z</time>
      </trkpt>
      <trkpt lat="44.68711" lon="7.06463">
        <ele>2527.9</ele>
        <time>2026-08-31T10:01:58Z</time>
      </trkpt>
      <trkpt lat="44.68707" lon="7.0647">
        <ele>2528.4</ele>
        <time>2026-08-31T10:02:04Z</time>
      </trkpt>
      <trkpt lat="44.68703" lon="7.0647">
        <ele>2529.2</ele>
        <time>2026-08-31T10:02:09Z</time>
      </trkpt>
      <trkpt lat="44.68702" lon="7.06475">
        <ele>2529.1</ele>
        <time>2026-08-31T10:02:14Z</time>
      </trkpt>
      <trkpt lat="44.687" lon="7.06478">
        <ele>2529.3</ele>
        <time>2026-08-31T10:02:20Z</time>
      </trkpt>
      <trkpt lat="44.68699" lon="7.06477">
        <ele>2529.6</ele>
        <time>2026-08-31T10:02:25Z</time>
      </trkpt>
      <trkpt lat="44.68699" lon="7.06477">
        <ele>2529.6</ele>
        <time>2026-08-31T10:02:30Z</time>
      </trkpt>
      <trkpt lat="44.68699" lon="7.06477">
        <ele>2529.6</ele>
        <time>2026-08-31T10:02:36Z</time>
      </trkpt>
      <trkpt lat="44.68699" lon="7.06477">
        <ele>2529.6</ele>
        <time>2026-08-31T10:02:41Z</time>
      </trkpt>
      <trkpt lat="44.68694" lon="7.06475">
        <ele>2530.7</ele>
        <time>2026-08-31T10:02:46Z</time>
      </trkpt>
      <trkpt lat="44.68687" lon="7.06474">
        <ele>2532.1</ele>
        <time>2026-08-31T10:02:52Z</time>
      </trkpt>
      <trkpt lat="44.68682" lon="7.06478">
        <ele>2532.8</ele>
        <time>2026-08-31T10:02:57Z</time>
      </trkpt>
      <trkpt lat="44.68677" lon="7.06479">
        <ele>2533.7</ele>
        <time>2026-08-31T10:03:02Z</time>
      </trkpt>
      <trkpt lat="44.6867" lon="7.06474">
        <ele>2535.5</ele>
        <time>2026-08-31T10:03:08Z</time>
      </trkpt>
      <trkpt lat="44.68665" lon="7.0647">
        <ele>2537.5</ele>
        <time>2026-08-31T10:03:13Z</time>
      </trkpt>
      <trkpt lat="44.68661" lon="7.06473">
        <ele>2539.5</ele>
        <time>2026-08-31T10:03:18Z</time>
      </trkpt>
      <trkpt lat="44.68656" lon="7.06477">
        <ele>2542</ele>
        <time>2026-08-31T10:03:24Z</time>
      </trkpt>
      <trkpt lat="44.68654" lon="7.06479">
        <ele>2543</ele>
        <time>2026-08-31T10:03:29Z</time>
      </trkpt>
      <trkpt lat="44.68651" lon="7.0648">
        <ele>2544.6</ele>
        <time>2026-08-31T10:03:34Z</time>
      </trkpt>
      <trkpt lat="44.68646" lon="7.06476">
        <ele>2547.9</ele>
        <time>2026-08-31T10:03:40Z</time>
      </trkpt>
      <trkpt lat="44.68644" lon="7.06475">
        <ele>2549.2</ele>
        <time>2026-08-31T10:03:45Z</time>
      </trkpt>
      <trkpt lat="44.68644" lon="7.06475">
        <ele>2549.2</ele>
        <time>2026-08-31T10:03:50Z</time>
      </trkpt>
      <trkpt lat="44.68644" lon="7.06475">
        <ele>2549.2</ele>
        <time>2026-08-31T10:03:56Z</time>
      </trkpt>
      <trkpt lat="44.68644" lon="7.06475">
        <ele>2549.2</ele>
        <time>2026-08-31T10:04:01Z</time>
      </trkpt>
      <trkpt lat="44.68644" lon="7.06475">
        <ele>2549.2</ele>
        <time>2026-08-31T10:04:06Z</time>
      </trkpt>
      <trkpt lat="44.68644" lon="7.06475">
        <ele>2549.2</ele>
        <time>2026-08-31T10:04:12Z</time>
      </trkpt>
      <trkpt lat="44.68644" lon="7.06475">
        <ele>2549.2</ele>
        <time>2026-08-31T10:04:17Z</time>
      </trkpt>
      <trkpt lat="44.68643" lon="7.06476">
        <ele>2549.6</ele>
        <time>2026-08-31T10:04:22Z</time>
      </trkpt>
      <trkpt lat="44.68638" lon="7.06476">
        <ele>2552.5</ele>
        <time>2026-08-31T10:04:28Z</time>
      </trkpt>
      <trkpt lat="44.68632" lon="7.06474">
        <ele>2556.2</ele>
        <time>2026-08-31T10:04:33Z</time>
      </trkpt>
      <trkpt lat="44.68628" lon="7.06474">
        <ele>2558.5</ele>
        <time>2026-08-31T10:04:38Z</time>
      </trkpt>
      <trkpt lat="44.68623" lon="7.06475">
        <ele>2561.3</ele>
        <time>2026-08-31T10:04:44Z</time>
      </trkpt>
      <trkpt lat="44.68621" lon="7.06476">
        <ele>2562.3</ele>
        <time>2026-08-31T10:04:49Z</time>
      </trkpt>
      <trkpt lat="44.68621" lon="7.06483">
        <ele>2561.2</ele>
        <time>2026-08-31T10:04:54Z</time>
      </trkpt>
      <trkpt lat="44.68617" lon="7.06485">
        <ele>2563.2</ele>
        <time>2026-08-31T10:05:00Z</time>
      </trkpt>
      <trkpt lat="44.68614" lon="7.0649">
        <ele>2564</ele>
        <time>2026-08-31T10:05:05Z</time>
      </trkpt>
      <trkpt lat="44.68612" lon="7.06494">
        <ele>2564.5</ele>
        <time>2026-08-31T10:05:10Z</time>
      </trkpt>
      <trkpt lat="44.68607" lon="7.06496">
        <ele>2566.9</ele>
        <time>2026-08-31T10:05:16Z</time>
      </trkpt>
      <trkpt lat="44.68607" lon="7.06498">
        <ele>2566.6</ele>
        <time>2026-08-31T10:05:21Z</time>
      </trkpt>
      <trkpt lat="44.68607" lon="7.06499">
        <ele>2566.4</ele>
        <time>2026-08-31T10:05:26Z</time>
      </trkpt>
      <trkpt lat="44.68607" lon="7.06499">
        <ele>2566.4</ele>
        <time>2026-08-31T10:05:32Z</time>
      </trkpt>
      <trkpt lat="44.68607" lon="7.06499">
        <ele>2566.4</ele>
        <time>2026-08-31T10:05:37Z</time>
      </trkpt>
      <trkpt lat="44.68605" lon="7.06503">
        <ele>2567.1</ele>
        <time>2026-08-31T10:05:42Z</time>
      </trkpt>
      <trkpt lat="44.686" lon="7.06502">
        <ele>2569.9</ele>
        <time>2026-08-31T10:05:48Z</time>
      </trkpt>
      <trkpt lat="44.68597" lon="7.065">
        <ele>2571.6</ele>
        <time>2026-08-31T10:05:53Z</time>
      </trkpt>
      <trkpt lat="44.68595" lon="7.06499">
        <ele>2572.9</ele>
        <time>2026-08-31T10:05:58Z</time>
      </trkpt>
      <trkpt lat="44.68595" lon="7.06497">
        <ele>2573.3</ele>
        <time>2026-08-31T10:06:04Z</time>
      </trkpt>
      <trkpt lat="44.68594" lon="7.06496">
        <ele>2574</ele>
        <time>2026-08-31T10:06:09Z</time>
      </trkpt>
      <trkpt lat="44.68594" lon="7.06496">
        <ele>2574</ele>
        <time>2026-08-31T10:06:14Z</time>
      </trkpt>
      <trkpt lat="44.68594" lon="7.06496">
        <ele>2574</ele>
        <time>2026-08-31T10:06:20Z</time>
      </trkpt>
      <trkpt lat="44.68594" lon="7.06496">
        <ele>2574</ele>
        <time>2026-08-31T10:06:25Z</time>
      </trkpt>
      <trkpt lat="44.68594" lon="7.06496">
        <ele>2574</ele>
        <time>2026-08-31T10:06:30Z</time>
      </trkpt>
      <trkpt lat="44.68594" lon="7.06496">
        <ele>2574</ele>
        <time>2026-08-31T10:06:36Z</time>
      </trkpt>
      <trkpt lat="44.68594" lon="7.06496">
        <ele>2574</ele>
        <time>2026-08-31T10:06:41Z</time>
      </trkpt>
      <trkpt lat="44.68593" lon="7.06487">
        <ele>2576.3</ele>
        <time>2026-08-31T10:06:46Z</time>
      </trkpt>
      <trkpt lat="44.68592" lon="7.06483">
        <ele>2577.6</ele>
        <time>2026-08-31T10:06:52Z</time>
      </trkpt>
      <trkpt lat="44.68589" lon="7.0648">
        <ele>2579.9</ele>
        <time>2026-08-31T10:06:57Z</time>
      </trkpt>
      <trkpt lat="44.6859" lon="7.06475">
        <ele>2580.3</ele>
        <time>2026-08-31T10:07:02Z</time>
      </trkpt>
      <trkpt lat="44.6859" lon="7.06469">
        <ele>2581.4</ele>
        <time>2026-08-31T10:07:08Z</time>
      </trkpt>
      <trkpt lat="44.6859" lon="7.06464">
        <ele>2582.4</ele>
        <time>2026-08-31T10:07:13Z</time>
      </trkpt>
      <trkpt lat="44.68588" lon="7.0646">
        <ele>2584.4</ele>
        <time>2026-08-31T10:07:18Z</time>
      </trkpt>
      <trkpt lat="44.68586" lon="7.06455">
        <ele>2586.6</ele>
        <time>2026-08-31T10:07:24Z</time>
      </trkpt>
      <trkpt lat="44.68586" lon="7.06451">
        <ele>2587.4</ele>
        <time>2026-08-31T10:07:29Z</time>
      </trkpt>
      <trkpt lat="44.68587" lon="7.06451">
        <ele>2586.8</ele>
        <time>2026-08-31T10:07:34Z</time>
      </trkpt>
      <trkpt lat="44.68588" lon="7.06453">
        <ele>2585.8</ele>
        <time>2026-08-31T10:07:40Z</time>
      </trkpt>
      <trkpt lat="44.68588" lon="7.06453">
        <ele>2585.8</ele>
        <time>2026-08-31T10:07:45Z</time>
      </trkpt>
      <trkpt lat="44.68588" lon="7.06453">
        <ele>2585.8</ele>
        <time>2026-08-31T10:07:50Z</time>
      </trkpt>
      <trkpt lat="44.68587" lon="7.06449">
        <ele>2587.2</ele>
        <time>2026-08-31T10:07:56Z</time>
      </trkpt>
      <trkpt lat="44.68584" lon="7.06446">
        <ele>2589.6</ele>
        <time>2026-08-31T10:08:01Z</time>
      </trkpt>
      <trkpt lat="44.68584" lon="7.0644">
        <ele>2590.8</ele>
        <time>2026-08-31T10:08:06Z</time>
      </trkpt>
      <trkpt lat="44.68584" lon="7.06434">
        <ele>2592</ele>
        <time>2026-08-31T10:08:12Z</time>
      </trkpt>
      <trkpt lat="44.68583" lon="7.06429">
        <ele>2593.7</ele>
        <time>2026-08-31T10:08:17Z</time>
      </trkpt>
      <trkpt lat="44.68582" lon="7.06425">
        <ele>2595.2</ele>
        <time>2026-08-31T10:08:22Z</time>
      </trkpt>
      <trkpt lat="44.68581" lon="7.06421">
        <ele>2596.6</ele>
        <time>2026-08-31T10:08:28Z</time>
      </trkpt>
      <trkpt lat="44.6858" lon="7.06419">
        <ele>2597.7</ele>
        <time>2026-08-31T10:08:33Z</time>
      </trkpt>
      <trkpt lat="44.68579" lon="7.06416">
        <ele>2598.8</ele>
        <time>2026-08-31T10:08:38Z</time>
      </trkpt>
      <trkpt lat="44.68578" lon="7.06413">
        <ele>2599.7</ele>
        <time>2026-08-31T10:08:44Z</time>
      </trkpt>
      <trkpt lat="44.68579" lon="7.06408">
        <ele>2599.4</ele>
        <time>2026-08-31T10:08:49Z</time>
      </trkpt>
      <trkpt lat="44.6858" lon="7.06405">
        <ele>2599</ele>
        <time>2026-08-31T10:08:54Z</time>
      </trkpt>
      <trkpt lat="44.68581" lon="7.06402">
        <ele>2598.6</ele>
        <time>2026-08-31T10:09:00Z</time>
      </trkpt>
      <trkpt lat="44.68582" lon="7.06398">
        <ele>2598.2</ele>
        <time>2026-08-31T10:09:05Z</time>
      </trkpt>
      <trkpt lat="44.6858" lon="7.06396">
        <ele>2599.7</ele>
        <time>2026-08-31T10:09:10Z</time>
      </trkpt>
      <trkpt lat="44.68579" lon="7.06395">
        <ele>2600.4</ele>
        <time>2026-08-31T10:09:16Z</time>
      </trkpt>
      <trkpt lat="44.68579" lon="7.06395">
        <ele>2600.4</ele>
        <time>2026-08-31T10:09:21Z</time>
      </trkpt>
      <trkpt lat="44.68579" lon="7.06395">
        <ele>2600.4</ele>
        <time>2026-08-31T10:09:26Z</time>
      </trkpt>
      <trkpt lat="44.68579" lon="7.06395">
        <ele>2600.4</ele>
        <time>2026-08-31T10:09:32Z</time>
      </trkpt>
      <trkpt lat="44.68579" lon="7.06395">
        <ele>2600.4</ele>
        <time>2026-08-31T10:09:37Z</time>
      </trkpt>
      <trkpt lat="44.68579" lon="7.06395">
        <ele>2600.4</ele>
        <time>2026-08-31T10:09:42Z</time>
      </trkpt>
      <trkpt lat="44.6858" lon="7.06389">
        <ele>2600.2</ele>
        <time>2026-08-31T10:09:48Z</time>
      </trkpt>
      <trkpt lat="44.68582" lon="7.06385">
        <ele>2599.2</ele>
        <time>2026-08-31T10:09:53Z</time>
      </trkpt>
      <trkpt lat="44.68584" lon="7.06379">
        <ele>2598.3</ele>
        <time>2026-08-31T10:09:58Z</time>
      </trkpt>
      <trkpt lat="44.68584" lon="7.06373">
        <ele>2598.7</ele>
        <time>2026-08-31T10:10:04Z</time>
      </trkpt>
      <trkpt lat="44.68582" lon="7.0637">
        <ele>2600.3</ele>
        <time>2026-08-31T10:10:09Z</time>
      </trkpt>
      <trkpt lat="44.68583" lon="7.06366">
        <ele>2599.9</ele>
        <time>2026-08-31T10:10:14Z</time>
      </trkpt>
      <trkpt lat="44.68582" lon="7.06362">
        <ele>2600.8</ele>
        <time>2026-08-31T10:10:20Z</time>
      </trkpt>
      <trkpt lat="44.68582" lon="7.06358">
        <ele>2601.1</ele>
        <time>2026-08-31T10:10:25Z</time>
      </trkpt>
      <trkpt lat="44.68583" lon="7.06355">
        <ele>2600.7</ele>
        <time>2026-08-31T10:10:30Z</time>
      </trkpt>
      <trkpt lat="44.68582" lon="7.06353">
        <ele>2601.5</ele>
        <time>2026-08-31T10:10:36Z</time>
      </trkpt>
      <trkpt lat="44.68582" lon="7.06352">
        <ele>2601.6</ele>
        <time>2026-08-31T10:10:41Z</time>
      </trkpt>
      <trkpt lat="44.68582" lon="7.06352">
        <ele>2601.6</ele>
        <time>2026-08-31T10:10:46Z</time>
      </trkpt>
      <trkpt lat="44.68582" lon="7.06352">
        <ele>2601.6</ele>
        <time>2026-08-31T10:10:52Z</time>
      </trkpt>
      <trkpt lat="44.68582" lon="7.06345">
        <ele>2602.1</ele>
        <time>2026-08-31T10:10:57Z</time>
      </trkpt>
      <trkpt lat="44.68582" lon="7.06344">
        <ele>2602.1</ele>
        <time>2026-08-31T10:11:02Z</time>
      </trkpt>
      <trkpt lat="44.68582" lon="7.06344">
        <ele>2602.1</ele>
        <time>2026-08-31T10:11:08Z</time>
      </trkpt>
      <trkpt lat="44.68582" lon="7.06344">
        <ele>2602.1</ele>
        <time>2026-08-31T10:11:13Z</time>
      </trkpt>
      <trkpt lat="44.68582" lon="7.06344">
        <ele>2602.1</ele>
        <time>2026-08-31T10:11:18Z</time>
      </trkpt>
      <trkpt lat="44.68582" lon="7.06344">
        <ele>2602.1</ele>
        <time>2026-08-31T10:11:24Z</time>
      </trkpt>
      <trkpt lat="44.68582" lon="7.06335">
        <ele>2602.8</ele>
        <time>2026-08-31T10:11:29Z</time>
      </trkpt>
      <trkpt lat="44.68582" lon="7.06335">
        <ele>2602.8</ele>
        <time>2026-08-31T10:11:34Z</time>
      </trkpt>
      <trkpt lat="44.68582" lon="7.06335">
        <ele>2602.8</ele>
        <time>2026-08-31T10:11:40Z</time>
      </trkpt>
      <trkpt lat="44.68582" lon="7.06335">
        <ele>2602.8</ele>
        <time>2026-08-31T10:11:45Z</time>
      </trkpt>
      <trkpt lat="44.68582" lon="7.06335">
        <ele>2602.8</ele>
        <time>2026-08-31T10:11:50Z</time>
      </trkpt>
      <trkpt lat="44.68582" lon="7.06335">
        <ele>2602.8</ele>
        <time>2026-08-31T10:11:56Z</time>
      </trkpt>
      <trkpt lat="44.68582" lon="7.06335">
        <ele>2602.8</ele>
        <time>2026-08-31T10:12:01Z</time>
      </trkpt>
      <trkpt lat="44.68582" lon="7.06335">
        <ele>2602.8</ele>
        <time>2026-08-31T10:12:06Z</time>
      </trkpt>
      <trkpt lat="44.68582" lon="7.06335">
        <ele>2602.8</ele>
        <time>2026-08-31T10:12:12Z</time>
      </trkpt>
      <trkpt lat="44.68582" lon="7.06335">
        <ele>2602.8</ele>
        <time>2026-08-31T10:12:17Z</time>
      </trkpt>
      <trkpt lat="44.68582" lon="7.06335">
        <ele>2602.8</ele>
        <time>2026-08-31T10:12:22Z</time>
      </trkpt>
      <trkpt lat="44.68585" lon="7.06329">
        <ele>2601.8</ele>
        <time>2026-08-31T10:12:28Z</time>
      </trkpt>
      <trkpt lat="44.68585" lon="7.06323">
        <ele>2602.7</ele>
        <time>2026-08-31T10:12:33Z</time>
      </trkpt>
      <trkpt lat="44.68584" lon="7.06318">
        <ele>2604</ele>
        <time>2026-08-31T10:12:38Z</time>
      </trkpt>
      <trkpt lat="44.68583" lon="7.06315">
        <ele>2605.1</ele>
        <time>2026-08-31T10:12:44Z</time>
      </trkpt>
      <trkpt lat="44.68583" lon="7.06311">
        <ele>2605.7</ele>
        <time>2026-08-31T10:12:49Z</time>
      </trkpt>
      <trkpt lat="44.68582" lon="7.06307">
        <ele>2607.1</ele>
        <time>2026-08-31T10:12:54Z</time>
      </trkpt>
      <trkpt lat="44.68581" lon="7.06303">
        <ele>2608.4</ele>
        <time>2026-08-31T10:13:00Z</time>
      </trkpt>
      <trkpt lat="44.68581" lon="7.06303">
        <ele>2608.4</ele>
        <time>2026-08-31T10:13:05Z</time>
      </trkpt>
      <trkpt lat="44.68581" lon="7.06303">
        <ele>2608.4</ele>
        <time>2026-08-31T10:13:10Z</time>
      </trkpt>
      <trkpt lat="44.68581" lon="7.06303">
        <ele>2608.4</ele>
        <time>2026-08-31T10:13:16Z</time>
      </trkpt>
      <trkpt lat="44.68581" lon="7.06303">
        <ele>2608.4</ele>
        <time>2026-08-31T10:13:21Z</time>
      </trkpt>
      <trkpt lat="44.68581" lon="7.06303">
        <ele>2608.4</ele>
        <time>2026-08-31T10:13:26Z</time>
      </trkpt>
      <trkpt lat="44.68581" lon="7.06303">
        <ele>2608.4</ele>
        <time>2026-08-31T10:13:32Z</time>
      </trkpt>
      <trkpt lat="44.68581" lon="7.06303">
        <ele>2608.4</ele>
        <time>2026-08-31T10:13:37Z</time>
      </trkpt>
      <trkpt lat="44.68581" lon="7.06303">
        <ele>2608.4</ele>
        <time>2026-08-31T10:13:42Z</time>
      </trkpt>
      <trkpt lat="44.68581" lon="7.06303">
        <ele>2608.4</ele>
        <time>2026-08-31T10:13:48Z</time>
      </trkpt>
      <trkpt lat="44.68581" lon="7.06303">
        <ele>2608.4</ele>
        <time>2026-08-31T10:13:53Z</time>
      </trkpt>
      <trkpt lat="44.6858" lon="7.06294">
        <ele>2610.5</ele>
        <time>2026-08-31T10:13:58Z</time>
      </trkpt>
      <trkpt lat="44.68577" lon="7.06289">
        <ele>2613.5</ele>
        <time>2026-08-31T10:14:04Z</time>
      </trkpt>
      <trkpt lat="44.68575" lon="7.06285">
        <ele>2615.6</ele>
        <time>2026-08-31T10:14:09Z</time>
      </trkpt>
      <trkpt lat="44.68575" lon="7.06282">
        <ele>2616.1</ele>
        <time>2026-08-31T10:14:14Z</time>
      </trkpt>
      <trkpt lat="44.68577" lon="7.06276">
        <ele>2615.6</ele>
        <time>2026-08-31T10:14:20Z</time>
      </trkpt>
      <trkpt lat="44.68577" lon="7.06273">
        <ele>2616</ele>
        <time>2026-08-31T10:14:25Z</time>
      </trkpt>
      <trkpt lat="44.68576" lon="7.06269">
        <ele>2617.4</ele>
        <time>2026-08-31T10:14:30Z</time>
      </trkpt>
      <trkpt lat="44.68577" lon="7.06264">
        <ele>2617.5</ele>
        <time>2026-08-31T10:14:36Z</time>
      </trkpt>
      <trkpt lat="44.68576" lon="7.0626">
        <ele>2618.9</ele>
        <time>2026-08-31T10:14:41Z</time>
      </trkpt>
      <trkpt lat="44.68573" lon="7.06259">
        <ele>2621.2</ele>
        <time>2026-08-31T10:14:46Z</time>
      </trkpt>
      <trkpt lat="44.68572" lon="7.06258">
        <ele>2622.1</ele>
        <time>2026-08-31T10:14:52Z</time>
      </trkpt>
      <trkpt lat="44.68572" lon="7.06258">
        <ele>2622.1</ele>
        <time>2026-08-31T10:14:57Z</time>
      </trkpt>
      <trkpt lat="44.68573" lon="7.06251">
        <ele>2622.5</ele>
        <time>2026-08-31T10:15:02Z</time>
      </trkpt>
      <trkpt lat="44.68572" lon="7.06248">
        <ele>2624</ele>
        <time>2026-08-31T10:15:08Z</time>
      </trkpt>
      <trkpt lat="44.68574" lon="7.06246">
        <ele>2623</ele>
        <time>2026-08-31T10:15:13Z</time>
      </trkpt>
      <trkpt lat="44.68573" lon="7.06241">
        <ele>2625.2</ele>
        <time>2026-08-31T10:15:18Z</time>
      </trkpt>
      <trkpt lat="44.68571" lon="7.06235">
        <ele>2628.3</ele>
        <time>2026-08-31T10:15:24Z</time>
      </trkpt>
      <trkpt lat="44.6857" lon="7.06232">
        <ele>2629.9</ele>
        <time>2026-08-31T10:15:29Z</time>
      </trkpt>
      <trkpt lat="44.6857" lon="7.06232">
        <ele>2629.9</ele>
        <time>2026-08-31T10:15:34Z</time>
      </trkpt>
      <trkpt lat="44.6857" lon="7.06232">
        <ele>2629.9</ele>
        <time>2026-08-31T10:15:40Z</time>
      </trkpt>
      <trkpt lat="44.6857" lon="7.06232">
        <ele>2629.9</ele>
        <time>2026-08-31T10:15:45Z</time>
      </trkpt>
      <trkpt lat="44.6857" lon="7.06232">
        <ele>2629.9</ele>
        <time>2026-08-31T10:15:50Z</time>
      </trkpt>
      <trkpt lat="44.6857" lon="7.06232">
        <ele>2629.9</ele>
        <time>2026-08-31T10:15:56Z</time>
      </trkpt>
      <trkpt lat="44.6857" lon="7.06232">
        <ele>2629.9</ele>
        <time>2026-08-31T10:16:01Z</time>
      </trkpt>
      <trkpt lat="44.6857" lon="7.06232">
        <ele>2629.9</ele>
        <time>2026-08-31T10:16:06Z</time>
      </trkpt>
      <trkpt lat="44.6857" lon="7.06232">
        <ele>2629.9</ele>
        <time>2026-08-31T10:16:12Z</time>
      </trkpt>
      <trkpt lat="44.6857" lon="7.06232">
        <ele>2629.9</ele>
        <time>2026-08-31T10:16:17Z</time>
      </trkpt>
      <trkpt lat="44.68567" lon="7.06219">
        <ele>2635.9</ele>
        <time>2026-08-31T10:16:22Z</time>
      </trkpt>
      <trkpt lat="44.68568" lon="7.06213">
        <ele>2636.8</ele>
        <time>2026-08-31T10:16:28Z</time>
      </trkpt>
      <trkpt lat="44.68566" lon="7.06211">
        <ele>2639</ele>
        <time>2026-08-31T10:16:33Z</time>
      </trkpt>
      <trkpt lat="44.68566" lon="7.06211">
        <ele>2639</ele>
        <time>2026-08-31T10:16:38Z</time>
      </trkpt>
      <trkpt lat="44.68566" lon="7.06211">
        <ele>2639</ele>
        <time>2026-08-31T10:16:44Z</time>
      </trkpt>
      <trkpt lat="44.68566" lon="7.06211">
        <ele>2639</ele>
        <time>2026-08-31T10:16:49Z</time>
      </trkpt>
      <trkpt lat="44.68566" lon="7.06211">
        <ele>2639</ele>
        <time>2026-08-31T10:16:54Z</time>
      </trkpt>
      <trkpt lat="44.68567" lon="7.06204">
        <ele>2640.2</ele>
        <time>2026-08-31T10:17:00Z</time>
      </trkpt>
      <trkpt lat="44.68566" lon="7.06203">
        <ele>2641.2</ele>
        <time>2026-08-31T10:17:05Z</time>
      </trkpt>
      <trkpt lat="44.68566" lon="7.06203">
        <ele>2641.2</ele>
        <time>2026-08-31T10:17:10Z</time>
      </trkpt>
      <trkpt lat="44.68566" lon="7.06203">
        <ele>2641.2</ele>
        <time>2026-08-31T10:17:16Z</time>
      </trkpt>
      <trkpt lat="44.68566" lon="7.06203">
        <ele>2641.2</ele>
        <time>2026-08-31T10:17:21Z</time>
      </trkpt>
      <trkpt lat="44.68566" lon="7.06203">
        <ele>2641.2</ele>
        <time>2026-08-31T10:17:26Z</time>
      </trkpt>
      <trkpt lat="44.68566" lon="7.06203">
        <ele>2641.2</ele>
        <time>2026-08-31T10:17:32Z</time>
      </trkpt>
      <trkpt lat="44.68566" lon="7.06203">
        <ele>2641.2</ele>
        <time>2026-08-31T10:17:37Z</time>
      </trkpt>
      <trkpt lat="44.68566" lon="7.06203">
        <ele>2641.2</ele>
        <time>2026-08-31T10:17:42Z</time>
      </trkpt>
      <trkpt lat="44.68557" lon="7.06208">
        <ele>2647</ele>
        <time>2026-08-31T10:17:48Z</time>
      </trkpt>
      <trkpt lat="44.68557" lon="7.06208">
        <ele>2647</ele>
        <time>2026-08-31T10:17:53Z</time>
      </trkpt>
      <trkpt lat="44.68557" lon="7.06208">
        <ele>2647</ele>
        <time>2026-08-31T10:17:58Z</time>
      </trkpt>
      <trkpt lat="44.68557" lon="7.06208">
        <ele>2647</ele>
        <time>2026-08-31T10:18:04Z</time>
      </trkpt>
      <trkpt lat="44.68557" lon="7.06208">
        <ele>2647</ele>
        <time>2026-08-31T10:18:09Z</time>
      </trkpt>
      <trkpt lat="44.68557" lon="7.06208">
        <ele>2647</ele>
        <time>2026-08-31T10:18:14Z</time>
      </trkpt>
      <trkpt lat="44.68557" lon="7.06208">
        <ele>2647</ele>
        <time>2026-08-31T10:18:20Z</time>
      </trkpt>
      <trkpt lat="44.68557" lon="7.06208">
        <ele>2647</ele>
        <time>2026-08-31T10:18:25Z</time>
      </trkpt>
      <trkpt lat="44.68551" lon="7.06217">
        <ele>2649</ele>
        <time>2026-08-31T10:18:30Z</time>
      </trkpt>
      <trkpt lat="44.68551" lon="7.06217">
        <ele>2649</ele>
        <time>2026-08-31T10:18:36Z</time>
      </trkpt>
      <trkpt lat="44.68551" lon="7.06217">
        <ele>2649</ele>
        <time>2026-08-31T10:18:41Z</time>
      </trkpt>
      <trkpt lat="44.68551" lon="7.06217">
        <ele>2649</ele>
        <time>2026-08-31T10:18:46Z</time>
      </trkpt>
      <trkpt lat="44.68551" lon="7.06217">
        <ele>2649</ele>
        <time>2026-08-31T10:18:52Z</time>
      </trkpt>
      <trkpt lat="44.68551" lon="7.06217">
        <ele>2649</ele>
        <time>2026-08-31T10:18:57Z</time>
      </trkpt>
      <trkpt lat="44.68543" lon="7.06219">
        <ele>2654.6</ele>
        <time>2026-08-31T10:19:02Z</time>
      </trkpt>
      <trkpt lat="44.68542" lon="7.0622">
        <ele>2655.1</ele>
        <time>2026-08-31T10:19:08Z</time>
      </trkpt>
      <trkpt lat="44.68542" lon="7.0622">
        <ele>2655.1</ele>
        <time>2026-08-31T10:19:13Z</time>
      </trkpt>
      <trkpt lat="44.6854" lon="7.06225">
        <ele>2655.1</ele>
        <time>2026-08-31T10:19:18Z</time>
      </trkpt>
      <trkpt lat="44.68538" lon="7.06225">
        <ele>2656.6</ele>
        <time>2026-08-31T10:19:24Z</time>
      </trkpt>
      <trkpt lat="44.68538" lon="7.06227">
        <ele>2656</ele>
        <time>2026-08-31T10:19:29Z</time>
      </trkpt>
      <trkpt lat="44.68538" lon="7.06227">
        <ele>2656</ele>
        <time>2026-08-31T10:19:34Z</time>
      </trkpt>
      <trkpt lat="44.68538" lon="7.06227">
        <ele>2656</ele>
        <time>2026-08-31T10:19:40Z</time>
      </trkpt>
      <trkpt lat="44.68538" lon="7.06227">
        <ele>2656</ele>
        <time>2026-08-31T10:19:45Z</time>
      </trkpt>
      <trkpt lat="44.68538" lon="7.06227">
        <ele>2656</ele>
        <time>2026-08-31T10:19:50Z</time>
      </trkpt>
      <trkpt lat="44.68538" lon="7.06227">
        <ele>2656</ele>
        <time>2026-08-31T10:19:56Z</time>
      </trkpt>
      <trkpt lat="44.68538" lon="7.06227">
        <ele>2656</ele>
        <time>2026-08-31T10:20:01Z</time>
      </trkpt>
      <trkpt lat="44.68538" lon="7.06227">
        <ele>2656</ele>
        <time>2026-08-31T10:20:06Z</time>
      </trkpt>
      <trkpt lat="44.68538" lon="7.06227">
        <ele>2656</ele>
        <time>2026-08-31T10:20:12Z</time>
      </trkpt>
      <trkpt lat="44.68538" lon="7.06227">
        <ele>2656</ele>
        <time>2026-08-31T10:20:17Z</time>
      </trkpt>
      <trkpt lat="44.68538" lon="7.06227">
        <ele>2656</ele>
        <time>2026-08-31T10:20:22Z</time>
      </trkpt>
      <trkpt lat="44.68527" lon="7.06237">
        <ele>2661.2</ele>
        <time>2026-08-31T10:20:28Z</time>
      </trkpt>
      <trkpt lat="44.68525" lon="7.0624">
        <ele>2661.7</ele>
        <time>2026-08-31T10:20:33Z</time>
      </trkpt>
      <trkpt lat="44.68525" lon="7.06242">
        <ele>2661</ele>
        <time>2026-08-31T10:20:38Z</time>
      </trkpt>
      <trkpt lat="44.68524" lon="7.06243">
        <ele>2661.5</ele>
        <time>2026-08-31T10:20:44Z</time>
      </trkpt>
      <trkpt lat="44.68524" lon="7.06244">
        <ele>2661.1</ele>
        <time>2026-08-31T10:20:49Z</time>
      </trkpt>
      <trkpt lat="44.68521" lon="7.06247">
        <ele>2662.4</ele>
        <time>2026-08-31T10:20:54Z</time>
      </trkpt>
      <trkpt lat="44.68519" lon="7.06247">
        <ele>2663.9</ele>
        <time>2026-08-31T10:21:00Z</time>
      </trkpt>
      <trkpt lat="44.68518" lon="7.06246">
        <ele>2665</ele>
        <time>2026-08-31T10:21:05Z</time>
      </trkpt>
      <trkpt lat="44.68518" lon="7.06246">
        <ele>2665</ele>
        <time>2026-08-31T10:21:10Z</time>
      </trkpt>
      <trkpt lat="44.68518" lon="7.06246">
        <ele>2665</ele>
        <time>2026-08-31T10:21:16Z</time>
      </trkpt>
      <trkpt lat="44.68518" lon="7.06246">
        <ele>2665</ele>
        <time>2026-08-31T10:21:21Z</time>
      </trkpt>
      <trkpt lat="44.68518" lon="7.06246">
        <ele>2665</ele>
        <time>2026-08-31T10:21:26Z</time>
      </trkpt>
      <trkpt lat="44.68518" lon="7.06246">
        <ele>2665</ele>
        <time>2026-08-31T10:21:32Z</time>
      </trkpt>
      <trkpt lat="44.68514" lon="7.0625">
        <ele>2666.6</ele>
        <time>2026-08-31T10:21:37Z</time>
      </trkpt>
      <trkpt lat="44.68513" lon="7.0625">
        <ele>2667.3</ele>
        <time>2026-08-31T10:21:42Z</time>
      </trkpt>
      <trkpt lat="44.68513" lon="7.0625">
        <ele>2667.3</ele>
        <time>2026-08-31T10:21:48Z</time>
      </trkpt>
      <trkpt lat="44.68513" lon="7.0625">
        <ele>2667.3</ele>
        <time>2026-08-31T10:21:53Z</time>
      </trkpt>
      <trkpt lat="44.68513" lon="7.0625">
        <ele>2667.3</ele>
        <time>2026-08-31T10:21:58Z</time>
      </trkpt>
      <trkpt lat="44.68513" lon="7.0625">
        <ele>2667.3</ele>
        <time>2026-08-31T10:22:04Z</time>
      </trkpt>
      <trkpt lat="44.68513" lon="7.0625">
        <ele>2667.3</ele>
        <time>2026-08-31T10:22:09Z</time>
      </trkpt>
      <trkpt lat="44.68513" lon="7.0625">
        <ele>2667.3</ele>
        <time>2026-08-31T10:22:14Z</time>
      </trkpt>
      <trkpt lat="44.68513" lon="7.0625">
        <ele>2667.3</ele>
        <time>2026-08-31T10:22:20Z</time>
      </trkpt>
      <trkpt lat="44.68513" lon="7.0625">
        <ele>2667.3</ele>
        <time>2026-08-31T10:22:25Z</time>
      </trkpt>
      <trkpt lat="44.68513" lon="7.0625">
        <ele>2667.3</ele>
        <time>2026-08-31T10:22:30Z</time>
      </trkpt>
      <trkpt lat="44.68513" lon="7.0625">
        <ele>2667.3</ele>
        <time>2026-08-31T10:22:36Z</time>
      </trkpt>
      <trkpt lat="44.68513" lon="7.0625">
        <ele>2667.3</ele>
        <time>2026-08-31T10:22:41Z</time>
      </trkpt>
      <trkpt lat="44.68513" lon="7.0625">
        <ele>2667.3</ele>
        <time>2026-08-31T10:22:46Z</time>
      </trkpt>
      <trkpt lat="44.68513" lon="7.0625">
        <ele>2667.3</ele>
        <time>2026-08-31T10:22:52Z</time>
      </trkpt>
      <trkpt lat="44.68513" lon="7.0625">
        <ele>2667.3</ele>
        <time>2026-08-31T10:22:57Z</time>
      </trkpt>
      <trkpt lat="44.68512" lon="7.06235">
        <ele>2673.3</ele>
        <time>2026-08-31T10:23:02Z</time>
      </trkpt>
      <trkpt lat="44.68512" lon="7.0623">
        <ele>2675</ele>
        <time>2026-08-31T10:23:08Z</time>
      </trkpt>
      <trkpt lat="44.68511" lon="7.06226">
        <ele>2677.2</ele>
        <time>2026-08-31T10:23:13Z</time>
      </trkpt>
      <trkpt lat="44.68512" lon="7.06222">
        <ele>2677.8</ele>
        <time>2026-08-31T10:23:18Z</time>
      </trkpt>
      <trkpt lat="44.6851" lon="7.06218">
        <ele>2680.7</ele>
        <time>2026-08-31T10:23:24Z</time>
      </trkpt>
      <trkpt lat="44.6851" lon="7.06215">
        <ele>2681.8</ele>
        <time>2026-08-31T10:23:29Z</time>
      </trkpt>
      <trkpt lat="44.68509" lon="7.06214">
        <ele>2682.9</ele>
        <time>2026-08-31T10:23:34Z</time>
      </trkpt>
      <trkpt lat="44.68509" lon="7.0621">
        <ele>2684.3</ele>
        <time>2026-08-31T10:23:40Z</time>
      </trkpt>
      <trkpt lat="44.6851" lon="7.06206">
        <ele>2684.9</ele>
        <time>2026-08-31T10:23:45Z</time>
      </trkpt>
      <trkpt lat="44.68511" lon="7.06203">
        <ele>2685.1</ele>
        <time>2026-08-31T10:23:50Z</time>
      </trkpt>
      <trkpt lat="44.68514" lon="7.06202">
        <ele>2683.1</ele>
        <time>2026-08-31T10:23:56Z</time>
      </trkpt>
      <trkpt lat="44.68515" lon="7.06199">
        <ele>2683.3</ele>
        <time>2026-08-31T10:24:01Z</time>
      </trkpt>
      <trkpt lat="44.68515" lon="7.06196">
        <ele>2684.3</ele>
        <time>2026-08-31T10:24:06Z</time>
      </trkpt>
      <trkpt lat="44.68514" lon="7.06193">
        <ele>2686.2</ele>
        <time>2026-08-31T10:24:12Z</time>
      </trkpt>
      <trkpt lat="44.68514" lon="7.0619">
        <ele>2687.2</ele>
        <time>2026-08-31T10:24:17Z</time>
      </trkpt>
      <trkpt lat="44.68514" lon="7.06189">
        <ele>2687.6</ele>
        <time>2026-08-31T10:24:22Z</time>
      </trkpt>
      <trkpt lat="44.68514" lon="7.06189">
        <ele>2687.6</ele>
        <time>2026-08-31T10:24:28Z</time>
      </trkpt>
      <trkpt lat="44.68514" lon="7.06189">
        <ele>2687.6</ele>
        <time>2026-08-31T10:24:33Z</time>
      </trkpt>
      <trkpt lat="44.68514" lon="7.06189">
        <ele>2687.6</ele>
        <time>2026-08-31T10:24:38Z</time>
      </trkpt>
      <trkpt lat="44.68511" lon="7.06184">
        <ele>2691.7</ele>
        <time>2026-08-31T10:24:44Z</time>
      </trkpt>
      <trkpt lat="44.68511" lon="7.0618">
        <ele>2693.1</ele>
        <time>2026-08-31T10:24:49Z</time>
      </trkpt>
      <trkpt lat="44.68511" lon="7.06179">
        <ele>2693.5</ele>
        <time>2026-08-31T10:24:54Z</time>
      </trkpt>
      <trkpt lat="44.6851" lon="7.06175">
        <ele>2695.7</ele>
        <time>2026-08-31T10:25:00Z</time>
      </trkpt>
      <trkpt lat="44.68512" lon="7.06172">
        <ele>2695.1</ele>
        <time>2026-08-31T10:25:05Z</time>
      </trkpt>
      <trkpt lat="44.68512" lon="7.0617">
        <ele>2695.8</ele>
        <time>2026-08-31T10:25:10Z</time>
      </trkpt>
      <trkpt lat="44.68512" lon="7.0617">
        <ele>2695.8</ele>
        <time>2026-08-31T10:25:16Z</time>
      </trkpt>
      <trkpt lat="44.68508" lon="7.06166">
        <ele>2700.6</ele>
        <time>2026-08-31T10:25:21Z</time>
      </trkpt>
      <trkpt lat="44.68507" lon="7.06165">
        <ele>2701.9</ele>
        <time>2026-08-31T10:25:26Z</time>
      </trkpt>
      <trkpt lat="44.68508" lon="7.06161">
        <ele>2702.8</ele>
        <time>2026-08-31T10:25:32Z</time>
      </trkpt>
      <trkpt lat="44.68507" lon="7.06159">
        <ele>2704.6</ele>
        <time>2026-08-31T10:25:37Z</time>
      </trkpt>
      <trkpt lat="44.68507" lon="7.06159">
        <ele>2704.6</ele>
        <time>2026-08-31T10:25:42Z</time>
      </trkpt>
      <trkpt lat="44.68507" lon="7.06159">
        <ele>2704.6</ele>
        <time>2026-08-31T10:25:48Z</time>
      </trkpt>
      <trkpt lat="44.68507" lon="7.06159">
        <ele>2704.6</ele>
        <time>2026-08-31T10:25:53Z</time>
      </trkpt>
      <trkpt lat="44.68507" lon="7.06159">
        <ele>2704.6</ele>
        <time>2026-08-31T10:25:58Z</time>
      </trkpt>
      <trkpt lat="44.68507" lon="7.06159">
        <ele>2704.6</ele>
        <time>2026-08-31T10:26:04Z</time>
      </trkpt>
      <trkpt lat="44.68507" lon="7.06159">
        <ele>2704.6</ele>
        <time>2026-08-31T10:26:09Z</time>
      </trkpt>
      <trkpt lat="44.68507" lon="7.06159">
        <ele>2704.6</ele>
        <time>2026-08-31T10:26:14Z</time>
      </trkpt>
      <trkpt lat="44.68507" lon="7.06159">
        <ele>2704.6</ele>
        <time>2026-08-31T10:26:20Z</time>
      </trkpt>
      <trkpt lat="44.68507" lon="7.06159">
        <ele>2704.6</ele>
        <time>2026-08-31T10:26:25Z</time>
      </trkpt>
      <trkpt lat="44.68507" lon="7.06159">
        <ele>2704.6</ele>
        <time>2026-08-31T10:26:30Z</time>
      </trkpt>
      <trkpt lat="44.68507" lon="7.06159">
        <ele>2704.6</ele>
        <time>2026-08-31T10:26:36Z</time>
      </trkpt>
      <trkpt lat="44.68507" lon="7.06159">
        <ele>2704.6</ele>
        <time>2026-08-31T10:26:41Z</time>
      </trkpt>
      <trkpt lat="44.68507" lon="7.06159">
        <ele>2704.6</ele>
        <time>2026-08-31T10:26:46Z</time>
      </trkpt>
      <trkpt lat="44.68507" lon="7.06159">
        <ele>2704.6</ele>
        <time>2026-08-31T10:26:52Z</time>
      </trkpt>
      <trkpt lat="44.68507" lon="7.06159">
        <ele>2704.6</ele>
        <time>2026-08-31T10:26:57Z</time>
      </trkpt>
      <trkpt lat="44.68507" lon="7.06159">
        <ele>2704.6</ele>
        <time>2026-08-31T10:27:02Z</time>
      </trkpt>
      <trkpt lat="44.68507" lon="7.06159">
        <ele>2704.6</ele>
        <time>2026-08-31T10:27:08Z</time>
      </trkpt>
      <trkpt lat="44.68507" lon="7.06159">
        <ele>2704.6</ele>
        <time>2026-08-31T10:27:13Z</time>
      </trkpt>
      <trkpt lat="44.68507" lon="7.06159">
        <ele>2704.6</ele>
        <time>2026-08-31T10:27:18Z</time>
      </trkpt>
      <trkpt lat="44.68507" lon="7.06159">
        <ele>2704.6</ele>
        <time>2026-08-31T10:27:24Z</time>
      </trkpt>
      <trkpt lat="44.68507" lon="7.06159">
        <ele>2704.6</ele>
        <time>2026-08-31T10:27:29Z</time>
      </trkpt>
      <trkpt lat="44.68507" lon="7.06159">
        <ele>2704.6</ele>
        <time>2026-08-31T10:27:34Z</time>
      </trkpt>
      <trkpt lat="44.68507" lon="7.06159">
        <ele>2704.6</ele>
        <time>2026-08-31T10:27:40Z</time>
      </trkpt>
      <trkpt lat="44.685" lon="7.06166">
        <ele>2707.3</ele>
        <time>2026-08-31T10:27:45Z</time>
      </trkpt>
      <trkpt lat="44.685" lon="7.06166">
        <ele>2707.3</ele>
        <time>2026-08-31T10:27:50Z</time>
      </trkpt>
      <trkpt lat="44.685" lon="7.06166">
        <ele>2707.3</ele>
        <time>2026-08-31T10:27:56Z</time>
      </trkpt>
      <trkpt lat="44.685" lon="7.06166">
        <ele>2707.3</ele>
        <time>2026-08-31T10:28:01Z</time>
      </trkpt>
      <trkpt lat="44.685" lon="7.06166">
        <ele>2707.3</ele>
        <time>2026-08-31T10:28:06Z</time>
      </trkpt>
      <trkpt lat="44.685" lon="7.06166">
        <ele>2707.3</ele>
        <time>2026-08-31T10:28:12Z</time>
      </trkpt>
      <trkpt lat="44.685" lon="7.06166">
        <ele>2707.3</ele>
        <time>2026-08-31T10:28:17Z</time>
      </trkpt>
      <trkpt lat="44.685" lon="7.06166">
        <ele>2707.3</ele>
        <time>2026-08-31T10:28:22Z</time>
      </trkpt>
      <trkpt lat="44.685" lon="7.06166">
        <ele>2707.3</ele>
        <time>2026-08-31T10:28:28Z</time>
      </trkpt>
      <trkpt lat="44.685" lon="7.06166">
        <ele>2707.3</ele>
        <time>2026-08-31T10:28:33Z</time>
      </trkpt>
      <trkpt lat="44.685" lon="7.06166">
        <ele>2707.3</ele>
        <time>2026-08-31T10:28:38Z</time>
      </trkpt>
      <trkpt lat="44.685" lon="7.06166">
        <ele>2707.3</ele>
        <time>2026-08-31T10:28:44Z</time>
      </trkpt>
      <trkpt lat="44.685" lon="7.06166">
        <ele>2707.3</ele>
        <time>2026-08-31T10:28:49Z</time>
      </trkpt>
      <trkpt lat="44.685" lon="7.06166">
        <ele>2707.3</ele>
        <time>2026-08-31T10:28:54Z</time>
      </trkpt>
      <trkpt lat="44.685" lon="7.06166">
        <ele>2707.3</ele>
        <time>2026-08-31T10:29:00Z</time>
      </trkpt>
      <trkpt lat="44.685" lon="7.06166">
        <ele>2707.3</ele>
        <time>2026-08-31T10:29:05Z</time>
      </trkpt>
      <trkpt lat="44.68491" lon="7.06173">
        <ele>2715.1</ele>
        <time>2026-08-31T10:29:10Z</time>
      </trkpt>
      <trkpt lat="44.68491" lon="7.06173">
        <ele>2715.1</ele>
        <time>2026-08-31T10:29:16Z</time>
      </trkpt>
      <trkpt lat="44.68491" lon="7.06173">
        <ele>2715.1</ele>
        <time>2026-08-31T10:29:21Z</time>
      </trkpt>
      <trkpt lat="44.68484" lon="7.06176">
        <ele>2721.8</ele>
        <time>2026-08-31T10:29:26Z</time>
      </trkpt>
      <trkpt lat="44.68482" lon="7.06177">
        <ele>2723.6</ele>
        <time>2026-08-31T10:29:32Z</time>
      </trkpt>
      <trkpt lat="44.6848" lon="7.06178">
        <ele>2725.5</ele>
        <time>2026-08-31T10:29:37Z</time>
      </trkpt>
      <trkpt lat="44.68479" lon="7.06178">
        <ele>2726.6</ele>
        <time>2026-08-31T10:29:42Z</time>
      </trkpt>
      <trkpt lat="44.68479" lon="7.06178">
        <ele>2726.6</ele>
        <time>2026-08-31T10:29:48Z</time>
      </trkpt>
      <trkpt lat="44.68479" lon="7.06178">
        <ele>2726.6</ele>
        <time>2026-08-31T10:29:53Z</time>
      </trkpt>
      <trkpt lat="44.68479" lon="7.06178">
        <ele>2726.6</ele>
        <time>2026-08-31T10:29:58Z</time>
      </trkpt>
      <trkpt lat="44.68479" lon="7.06178">
        <ele>2726.6</ele>
        <time>2026-08-31T10:30:04Z</time>
      </trkpt>
      <trkpt lat="44.68479" lon="7.06178">
        <ele>2726.6</ele>
        <time>2026-08-31T10:30:09Z</time>
      </trkpt>
      <trkpt lat="44.68474" lon="7.06181">
        <ele>2730.8</ele>
        <time>2026-08-31T10:30:14Z</time>
      </trkpt>
      <trkpt lat="44.68471" lon="7.06184">
        <ele>2732.7</ele>
        <time>2026-08-31T10:30:20Z</time>
      </trkpt>
      <trkpt lat="44.68467" lon="7.06185">
        <ele>2736.6</ele>
        <time>2026-08-31T10:30:25Z</time>
      </trkpt>
      <trkpt lat="44.68465" lon="7.06186">
        <ele>2738.3</ele>
        <time>2026-08-31T10:30:30Z</time>
      </trkpt>
      <trkpt lat="44.68463" lon="7.06185">
        <ele>2741</ele>
        <time>2026-08-31T10:30:36Z</time>
      </trkpt>
      <trkpt lat="44.68462" lon="7.06185">
        <ele>2742.1</ele>
        <time>2026-08-31T10:30:41Z</time>
      </trkpt>
      <trkpt lat="44.6846" lon="7.06187">
        <ele>2743.2</ele>
        <time>2026-08-31T10:30:46Z</time>
      </trkpt>
      <trkpt lat="44.68457" lon="7.0619">
        <ele>2744.8</ele>
        <time>2026-08-31T10:30:52Z</time>
      </trkpt>
      <trkpt lat="44.68457" lon="7.0619">
        <ele>2744.8</ele>
        <time>2026-08-31T10:30:57Z</time>
      </trkpt>
      <trkpt lat="44.68457" lon="7.0619">
        <ele>2744.8</ele>
        <time>2026-08-31T10:31:02Z</time>
      </trkpt>
      <trkpt lat="44.68457" lon="7.0619">
        <ele>2744.8</ele>
        <time>2026-08-31T10:31:08Z</time>
      </trkpt>
      <trkpt lat="44.68457" lon="7.0619">
        <ele>2744.8</ele>
        <time>2026-08-31T10:31:13Z</time>
      </trkpt>
      <trkpt lat="44.68457" lon="7.0619">
        <ele>2744.8</ele>
        <time>2026-08-31T10:31:18Z</time>
      </trkpt>
      <trkpt lat="44.68457" lon="7.0619">
        <ele>2744.8</ele>
        <time>2026-08-31T10:31:24Z</time>
      </trkpt>
      <trkpt lat="44.68457" lon="7.0619">
        <ele>2744.8</ele>
        <time>2026-08-31T10:31:29Z</time>
      </trkpt>
      <trkpt lat="44.68457" lon="7.0619">
        <ele>2744.8</ele>
        <time>2026-08-31T10:31:34Z</time>
      </trkpt>
      <trkpt lat="44.68457" lon="7.0619">
        <ele>2744.8</ele>
        <time>2026-08-31T10:31:40Z</time>
      </trkpt>
      <trkpt lat="44.68457" lon="7.0619">
        <ele>2744.8</ele>
        <time>2026-08-31T10:31:45Z</time>
      </trkpt>
      <trkpt lat="44.68457" lon="7.0619">
        <ele>2744.8</ele>
        <time>2026-08-31T10:31:50Z</time>
      </trkpt>
      <trkpt lat="44.68457" lon="7.0619">
        <ele>2744.8</ele>
        <time>2026-08-31T10:31:56Z</time>
      </trkpt>
      <trkpt lat="44.68457" lon="7.0619">
        <ele>2744.8</ele>
        <time>2026-08-31T10:32:01Z</time>
      </trkpt>
      <trkpt lat="44.68457" lon="7.0619">
        <ele>2744.8</ele>
        <time>2026-08-31T10:32:06Z</time>
      </trkpt>
      <trkpt lat="44.68457" lon="7.0619">
        <ele>2744.8</ele>
        <time>2026-08-31T10:32:12Z</time>
      </trkpt>
      <trkpt lat="44.68457" lon="7.0619">
        <ele>2744.8</ele>
        <time>2026-08-31T10:32:17Z</time>
      </trkpt>
      <trkpt lat="44.68457" lon="7.0619">
        <ele>2744.8</ele>
        <time>2026-08-31T10:32:22Z</time>
      </trkpt>
      <trkpt lat="44.68457" lon="7.0619">
        <ele>2744.8</ele>
        <time>2026-08-31T10:32:28Z</time>
      </trkpt>
      <trkpt lat="44.68457" lon="7.0619">
        <ele>2744.8</ele>
        <time>2026-08-31T10:32:33Z</time>
      </trkpt>
      <trkpt lat="44.68457" lon="7.0619">
        <ele>2744.8</ele>
        <time>2026-08-31T10:32:38Z</time>
      </trkpt>
      <trkpt lat="44.68457" lon="7.0619">
        <ele>2744.8</ele>
        <time>2026-08-31T10:32:44Z</time>
      </trkpt>
      <trkpt lat="44.6845" lon="7.06193">
        <ele>2750.6</ele>
        <time>2026-08-31T10:32:49Z</time>
      </trkpt>
      <trkpt lat="44.68449" lon="7.06193">
        <ele>2751.7</ele>
        <time>2026-08-31T10:32:54Z</time>
      </trkpt>
      <trkpt lat="44.68449" lon="7.06193">
        <ele>2751.7</ele>
        <time>2026-08-31T10:33:00Z</time>
      </trkpt>
      <trkpt lat="44.68447" lon="7.06195">
        <ele>2752.6</ele>
        <time>2026-08-31T10:33:05Z</time>
      </trkpt>
      <trkpt lat="44.68446" lon="7.06196">
        <ele>2753.1</ele>
        <time>2026-08-31T10:33:10Z</time>
      </trkpt>
      <trkpt lat="44.68446" lon="7.06203">
        <ele>2748.9</ele>
        <time>2026-08-31T10:33:16Z</time>
      </trkpt>
      <trkpt lat="44.68445" lon="7.06206">
        <ele>2748.2</ele>
        <time>2026-08-31T10:33:21Z</time>
      </trkpt>
      <trkpt lat="44.68443" lon="7.0621">
        <ele>2747.8</ele>
        <time>2026-08-31T10:33:26Z</time>
      </trkpt>
      <trkpt lat="44.68441" lon="7.06213">
        <ele>2747.9</ele>
        <time>2026-08-31T10:33:32Z</time>
      </trkpt>
      <trkpt lat="44.6844" lon="7.06215">
        <ele>2747.6</ele>
        <time>2026-08-31T10:33:37Z</time>
      </trkpt>
      <trkpt lat="44.6844" lon="7.06215">
        <ele>2747.6</ele>
        <time>2026-08-31T10:33:42Z</time>
      </trkpt>
      <trkpt lat="44.6844" lon="7.06215">
        <ele>2747.6</ele>
        <time>2026-08-31T10:33:48Z</time>
      </trkpt>
      <trkpt lat="44.6844" lon="7.06215">
        <ele>2747.6</ele>
        <time>2026-08-31T10:33:53Z</time>
      </trkpt>
      <trkpt lat="44.6844" lon="7.06215">
        <ele>2747.6</ele>
        <time>2026-08-31T10:33:58Z</time>
      </trkpt>
      <trkpt lat="44.6844" lon="7.06215">
        <ele>2747.6</ele>
        <time>2026-08-31T10:34:04Z</time>
      </trkpt>
      <trkpt lat="44.68439" lon="7.06224">
        <ele>2743</ele>
        <time>2026-08-31T10:34:09Z</time>
      </trkpt>
      <trkpt lat="44.68437" lon="7.06224">
        <ele>2744.8</ele>
        <time>2026-08-31T10:34:14Z</time>
      </trkpt>
      <trkpt lat="44.68435" lon="7.06228">
        <ele>2744.1</ele>
        <time>2026-08-31T10:34:20Z</time>
      </trkpt>
      <trkpt lat="44.68434" lon="7.06229">
        <ele>2744.4</ele>
        <time>2026-08-31T10:34:25Z</time>
      </trkpt>
      <trkpt lat="44.68434" lon="7.0623">
        <ele>2743.8</ele>
        <time>2026-08-31T10:34:30Z</time>
      </trkpt>
      <trkpt lat="44.68434" lon="7.0623">
        <ele>2743.8</ele>
        <time>2026-08-31T10:34:36Z</time>
      </trkpt>
      <trkpt lat="44.68434" lon="7.0623">
        <ele>2743.8</ele>
        <time>2026-08-31T10:34:41Z</time>
      </trkpt>
      <trkpt lat="44.68434" lon="7.0623">
        <ele>2743.8</ele>
        <time>2026-08-31T10:34:46Z</time>
      </trkpt>
      <trkpt lat="44.68434" lon="7.0623">
        <ele>2743.8</ele>
        <time>2026-08-31T10:34:52Z</time>
      </trkpt>
      <trkpt lat="44.68434" lon="7.0623">
        <ele>2743.8</ele>
        <time>2026-08-31T10:34:57Z</time>
      </trkpt>
      <trkpt lat="44.68434" lon="7.0623">
        <ele>2743.8</ele>
        <time>2026-08-31T10:35:02Z</time>
      </trkpt>
      <trkpt lat="44.68434" lon="7.0623">
        <ele>2743.8</ele>
        <time>2026-08-31T10:35:08Z</time>
      </trkpt>
      <trkpt lat="44.68434" lon="7.0623">
        <ele>2743.8</ele>
        <time>2026-08-31T10:35:13Z</time>
      </trkpt>
      <trkpt lat="44.68434" lon="7.0623">
        <ele>2743.8</ele>
        <time>2026-08-31T10:35:18Z</time>
      </trkpt>
      <trkpt lat="44.68434" lon="7.0623">
        <ele>2743.8</ele>
        <time>2026-08-31T10:35:24Z</time>
      </trkpt>
      <trkpt lat="44.68434" lon="7.0623">
        <ele>2743.8</ele>
        <time>2026-08-31T10:35:29Z</time>
      </trkpt>
      <trkpt lat="44.68431" lon="7.06234">
        <ele>2743.8</ele>
        <time>2026-08-31T10:35:34Z</time>
      </trkpt>
      <trkpt lat="44.68431" lon="7.06235">
        <ele>2743.2</ele>
        <time>2026-08-31T10:35:40Z</time>
      </trkpt>
      <trkpt lat="44.68431" lon="7.06236">
        <ele>2742.5</ele>
        <time>2026-08-31T10:35:45Z</time>
      </trkpt>
      <trkpt lat="44.68431" lon="7.06236">
        <ele>2742.5</ele>
        <time>2026-08-31T10:35:50Z</time>
      </trkpt>
      <trkpt lat="44.68431" lon="7.06236">
        <ele>2742.5</ele>
        <time>2026-08-31T10:35:56Z</time>
      </trkpt>
      <trkpt lat="44.68431" lon="7.06236">
        <ele>2742.5</ele>
        <time>2026-08-31T10:36:01Z</time>
      </trkpt>
      <trkpt lat="44.68431" lon="7.06236">
        <ele>2742.5</ele>
        <time>2026-08-31T10:36:06Z</time>
      </trkpt>
      <trkpt lat="44.68431" lon="7.06236">
        <ele>2742.5</ele>
        <time>2026-08-31T10:36:12Z</time>
      </trkpt>
      <trkpt lat="44.68431" lon="7.06236">
        <ele>2742.5</ele>
        <time>2026-08-31T10:36:17Z</time>
      </trkpt>
      <trkpt lat="44.68431" lon="7.06236">
        <ele>2742.5</ele>
        <time>2026-08-31T10:36:22Z</time>
      </trkpt>
      <trkpt lat="44.6843" lon="7.0624">
        <ele>2740.7</ele>
        <time>2026-08-31T10:36:28Z</time>
      </trkpt>
      <trkpt lat="44.6843" lon="7.06246">
        <ele>2736.8</ele>
        <time>2026-08-31T10:36:33Z</time>
      </trkpt>
      <trkpt lat="44.68429" lon="7.06252">
        <ele>2734.3</ele>
        <time>2026-08-31T10:36:38Z</time>
      </trkpt>
      <trkpt lat="44.68427" lon="7.06257">
        <ele>2734.3</ele>
        <time>2026-08-31T10:36:44Z</time>
      </trkpt>
      <trkpt lat="44.68426" lon="7.06257">
        <ele>2735.1</ele>
        <time>2026-08-31T10:36:49Z</time>
      </trkpt>
      <trkpt lat="44.68425" lon="7.06258">
        <ele>2735.6</ele>
        <time>2026-08-31T10:36:54Z</time>
      </trkpt>
      <trkpt lat="44.68425" lon="7.06258">
        <ele>2735.6</ele>
        <time>2026-08-31T10:37:00Z</time>
      </trkpt>
      <trkpt lat="44.68425" lon="7.06258">
        <ele>2735.6</ele>
        <time>2026-08-31T10:37:05Z</time>
      </trkpt>
      <trkpt lat="44.68425" lon="7.06258">
        <ele>2735.6</ele>
        <time>2026-08-31T10:37:10Z</time>
      </trkpt>
      <trkpt lat="44.68425" lon="7.06258">
        <ele>2735.6</ele>
        <time>2026-08-31T10:37:16Z</time>
      </trkpt>
      <trkpt lat="44.68425" lon="7.06258">
        <ele>2735.6</ele>
        <time>2026-08-31T10:37:21Z</time>
      </trkpt>
      <trkpt lat="44.68425" lon="7.06258">
        <ele>2735.6</ele>
        <time>2026-08-31T10:37:26Z</time>
      </trkpt>
      <trkpt lat="44.68425" lon="7.06258">
        <ele>2735.6</ele>
        <time>2026-08-31T10:37:32Z</time>
      </trkpt>
      <trkpt lat="44.68425" lon="7.06258">
        <ele>2735.6</ele>
        <time>2026-08-31T10:37:37Z</time>
      </trkpt>
      <trkpt lat="44.68425" lon="7.06258">
        <ele>2735.6</ele>
        <time>2026-08-31T10:37:42Z</time>
      </trkpt>
      <trkpt lat="44.68415" lon="7.06263">
        <ele>2742.7</ele>
        <time>2026-08-31T10:37:48Z</time>
      </trkpt>
      <trkpt lat="44.68415" lon="7.06263">
        <ele>2742.7</ele>
        <time>2026-08-31T10:37:53Z</time>
      </trkpt>
      <trkpt lat="44.68415" lon="7.06263">
        <ele>2742.7</ele>
        <time>2026-08-31T10:37:58Z</time>
      </trkpt>
      <trkpt lat="44.68415" lon="7.06263">
        <ele>2742.7</ele>
        <time>2026-08-31T10:38:04Z</time>
      </trkpt>
      <trkpt lat="44.68415" lon="7.06263">
        <ele>2742.7</ele>
        <time>2026-08-31T10:38:09Z</time>
      </trkpt>
      <trkpt lat="44.68415" lon="7.06263">
        <ele>2742.7</ele>
        <time>2026-08-31T10:38:14Z</time>
      </trkpt>
      <trkpt lat="44.68415" lon="7.06263">
        <ele>2742.7</ele>
        <time>2026-08-31T10:38:20Z</time>
      </trkpt>
      <trkpt lat="44.68415" lon="7.06263">
        <ele>2742.7</ele>
        <time>2026-08-31T10:38:25Z</time>
      </trkpt>
      <trkpt lat="44.68415" lon="7.06263">
        <ele>2742.7</ele>
        <time>2026-08-31T10:38:30Z</time>
      </trkpt>
      <trkpt lat="44.68415" lon="7.06263">
        <ele>2742.7</ele>
        <time>2026-08-31T10:38:36Z</time>
      </trkpt>
      <trkpt lat="44.68415" lon="7.06263">
        <ele>2742.7</ele>
        <time>2026-08-31T10:38:41Z</time>
      </trkpt>
      <trkpt lat="44.68408" lon="7.0627">
        <ele>2748.5</ele>
        <time>2026-08-31T10:38:46Z</time>
      </trkpt>
      <trkpt lat="44.68405" lon="7.0627">
        <ele>2752.1</ele>
        <time>2026-08-31T10:38:52Z</time>
      </trkpt>
      <trkpt lat="44.68403" lon="7.06271">
        <ele>2754</ele>
        <time>2026-08-31T10:38:57Z</time>
      </trkpt>
      <trkpt lat="44.68403" lon="7.06271">
        <ele>2754</ele>
        <time>2026-08-31T10:39:02Z</time>
      </trkpt>
      <trkpt lat="44.68403" lon="7.06271">
        <ele>2754</ele>
        <time>2026-08-31T10:39:08Z</time>
      </trkpt>
      <trkpt lat="44.68403" lon="7.06271">
        <ele>2754</ele>
        <time>2026-08-31T10:39:13Z</time>
      </trkpt>
      <trkpt lat="44.68403" lon="7.06271">
        <ele>2754</ele>
        <time>2026-08-31T10:39:18Z</time>
      </trkpt>
      <trkpt lat="44.68403" lon="7.06271">
        <ele>2754</ele>
        <time>2026-08-31T10:39:24Z</time>
      </trkpt>
      <trkpt lat="44.68403" lon="7.06271">
        <ele>2754</ele>
        <time>2026-08-31T10:39:29Z</time>
      </trkpt>
      <trkpt lat="44.68403" lon="7.06271">
        <ele>2754</ele>
        <time>2026-08-31T10:39:34Z</time>
      </trkpt>
      <trkpt lat="44.68403" lon="7.06271">
        <ele>2754</ele>
        <time>2026-08-31T10:39:40Z</time>
      </trkpt>
      <trkpt lat="44.68403" lon="7.06271">
        <ele>2754</ele>
        <time>2026-08-31T10:39:45Z</time>
      </trkpt>
      <trkpt lat="44.68403" lon="7.06271">
        <ele>2754</ele>
        <time>2026-08-31T10:39:50Z</time>
      </trkpt>
      <trkpt lat="44.68393" lon="7.06274">
        <ele>2764.2</ele>
        <time>2026-08-31T10:39:56Z</time>
      </trkpt>
      <trkpt lat="44.68393" lon="7.06274">
        <ele>2764.2</ele>
        <time>2026-08-31T10:40:01Z</time>
      </trkpt>
      <trkpt lat="44.68393" lon="7.06274">
        <ele>2764.2</ele>
        <time>2026-08-31T10:40:06Z</time>
      </trkpt>
      <trkpt lat="44.68393" lon="7.06274">
        <ele>2764.2</ele>
        <time>2026-08-31T10:40:12Z</time>
      </trkpt>
      <trkpt lat="44.68393" lon="7.06274">
        <ele>2764.2</ele>
        <time>2026-08-31T10:40:17Z</time>
      </trkpt>
      <trkpt lat="44.68393" lon="7.06274">
        <ele>2764.2</ele>
        <time>2026-08-31T10:40:22Z</time>
      </trkpt>
      <trkpt lat="44.68393" lon="7.06274">
        <ele>2764.2</ele>
        <time>2026-08-31T10:40:28Z</time>
      </trkpt>
      <trkpt lat="44.6839" lon="7.06286">
        <ele>2761.2</ele>
        <time>2026-08-31T10:40:33Z</time>
      </trkpt>
      <trkpt lat="44.6839" lon="7.06287">
        <ele>2760.7</ele>
        <time>2026-08-31T10:40:38Z</time>
      </trkpt>
      <trkpt lat="44.6839" lon="7.06287">
        <ele>2760.7</ele>
        <time>2026-08-31T10:40:44Z</time>
      </trkpt>
      <trkpt lat="44.68389" lon="7.06291">
        <ele>2759.6</ele>
        <time>2026-08-31T10:40:49Z</time>
      </trkpt>
      <trkpt lat="44.68389" lon="7.06291">
        <ele>2759.6</ele>
        <time>2026-08-31T10:40:54Z</time>
      </trkpt>
      <trkpt lat="44.68389" lon="7.06291">
        <ele>2759.6</ele>
        <time>2026-08-31T10:41:00Z</time>
      </trkpt>
      <trkpt lat="44.68389" lon="7.06291">
        <ele>2759.6</ele>
        <time>2026-08-31T10:41:05Z</time>
      </trkpt>
      <trkpt lat="44.68389" lon="7.06291">
        <ele>2759.6</ele>
        <time>2026-08-31T10:41:10Z</time>
      </trkpt>
      <trkpt lat="44.68389" lon="7.06291">
        <ele>2759.6</ele>
        <time>2026-08-31T10:41:16Z</time>
      </trkpt>
      <trkpt lat="44.68389" lon="7.06291">
        <ele>2759.6</ele>
        <time>2026-08-31T10:41:21Z</time>
      </trkpt>
      <trkpt lat="44.68389" lon="7.06291">
        <ele>2759.6</ele>
        <time>2026-08-31T10:41:26Z</time>
      </trkpt>
      <trkpt lat="44.68389" lon="7.06291">
        <ele>2759.6</ele>
        <time>2026-08-31T10:41:32Z</time>
      </trkpt>
      <trkpt lat="44.68384" lon="7.06301">
        <ele>2758.9</ele>
        <time>2026-08-31T10:41:37Z</time>
      </trkpt>
      <trkpt lat="44.68384" lon="7.06301">
        <ele>2758.9</ele>
        <time>2026-08-31T10:41:42Z</time>
      </trkpt>
      <trkpt lat="44.68384" lon="7.06301">
        <ele>2758.9</ele>
        <time>2026-08-31T10:41:48Z</time>
      </trkpt>
      <trkpt lat="44.68384" lon="7.06301">
        <ele>2758.9</ele>
        <time>2026-08-31T10:41:53Z</time>
      </trkpt>
      <trkpt lat="44.68384" lon="7.06301">
        <ele>2758.9</ele>
        <time>2026-08-31T10:41:58Z</time>
      </trkpt>
      <trkpt lat="44.68379" lon="7.06308">
        <ele>2759.3</ele>
        <time>2026-08-31T10:42:04Z</time>
      </trkpt>
      <trkpt lat="44.68377" lon="7.06311">
        <ele>2759.2</ele>
        <time>2026-08-31T10:42:09Z</time>
      </trkpt>
      <trkpt lat="44.68376" lon="7.06312">
        <ele>2759.5</ele>
        <time>2026-08-31T10:42:14Z</time>
      </trkpt>
      <trkpt lat="44.68377" lon="7.06313">
        <ele>2758</ele>
        <time>2026-08-31T10:42:20Z</time>
      </trkpt>
      <trkpt lat="44.68374" lon="7.06315">
        <ele>2759.2</ele>
        <time>2026-08-31T10:42:25Z</time>
      </trkpt>
      <trkpt lat="44.68372" lon="7.06319">
        <ele>2758.2</ele>
        <time>2026-08-31T10:42:30Z</time>
      </trkpt>
      <trkpt lat="44.68372" lon="7.06323">
        <ele>2755.6</ele>
        <time>2026-08-31T10:42:36Z</time>
      </trkpt>
      <trkpt lat="44.68372" lon="7.06328">
        <ele>2752.2</ele>
        <time>2026-08-31T10:42:41Z</time>
      </trkpt>
      <trkpt lat="44.6837" lon="7.06333">
        <ele>2750.3</ele>
        <time>2026-08-31T10:42:46Z</time>
      </trkpt>
      <trkpt lat="44.68371" lon="7.0634">
        <ele>2748.2</ele>
        <time>2026-08-31T10:42:52Z</time>
      </trkpt>
      <trkpt lat="44.68372" lon="7.06347">
        <ele>2746.4</ele>
        <time>2026-08-31T10:42:57Z</time>
      </trkpt>
      <trkpt lat="44.68372" lon="7.06351">
        <ele>2745.7</ele>
        <time>2026-08-31T10:43:02Z</time>
      </trkpt>
      <trkpt lat="44.6837" lon="7.06355">
        <ele>2746.4</ele>
        <time>2026-08-31T10:43:08Z</time>
      </trkpt>
      <trkpt lat="44.6837" lon="7.06355">
        <ele>2746.4</ele>
        <time>2026-08-31T10:43:13Z</time>
      </trkpt>
      <trkpt lat="44.6837" lon="7.06355">
        <ele>2746.4</ele>
        <time>2026-08-31T10:43:18Z</time>
      </trkpt>
      <trkpt lat="44.6837" lon="7.06355">
        <ele>2746.4</ele>
        <time>2026-08-31T10:43:24Z</time>
      </trkpt>
      <trkpt lat="44.6837" lon="7.06355">
        <ele>2746.4</ele>
        <time>2026-08-31T10:43:29Z</time>
      </trkpt>
      <trkpt lat="44.6837" lon="7.06355">
        <ele>2746.4</ele>
        <time>2026-08-31T10:43:34Z</time>
      </trkpt>
      <trkpt lat="44.6837" lon="7.06355">
        <ele>2746.4</ele>
        <time>2026-08-31T10:43:40Z</time>
      </trkpt>
      <trkpt lat="44.68368" lon="7.06369">
        <ele>2745.4</ele>
        <time>2026-08-31T10:43:45Z</time>
      </trkpt>
      <trkpt lat="44.68367" lon="7.06369">
        <ele>2746</ele>
        <time>2026-08-31T10:43:50Z</time>
      </trkpt>
      <trkpt lat="44.68367" lon="7.06369">
        <ele>2746</ele>
        <time>2026-08-31T10:43:56Z</time>
      </trkpt>
      <trkpt lat="44.68367" lon="7.06369">
        <ele>2746</ele>
        <time>2026-08-31T10:44:01Z</time>
      </trkpt>
      <trkpt lat="44.68367" lon="7.06369">
        <ele>2746</ele>
        <time>2026-08-31T10:44:06Z</time>
      </trkpt>
      <trkpt lat="44.68367" lon="7.06369">
        <ele>2746</ele>
        <time>2026-08-31T10:44:12Z</time>
      </trkpt>
      <trkpt lat="44.68367" lon="7.06369">
        <ele>2746</ele>
        <time>2026-08-31T10:44:17Z</time>
      </trkpt>
      <trkpt lat="44.68367" lon="7.06369">
        <ele>2746</ele>
        <time>2026-08-31T10:44:22Z</time>
      </trkpt>
      <trkpt lat="44.68367" lon="7.06369">
        <ele>2746</ele>
        <time>2026-08-31T10:44:28Z</time>
      </trkpt>
      <trkpt lat="44.68367" lon="7.06369">
        <ele>2746</ele>
        <time>2026-08-31T10:44:33Z</time>
      </trkpt>
      <trkpt lat="44.68367" lon="7.06369">
        <ele>2746</ele>
        <time>2026-08-31T10:44:38Z</time>
      </trkpt>
      <trkpt lat="44.68367" lon="7.06369">
        <ele>2746</ele>
        <time>2026-08-31T10:44:44Z</time>
      </trkpt>
      <trkpt lat="44.68367" lon="7.06369">
        <ele>2746</ele>
        <time>2026-08-31T10:44:49Z</time>
      </trkpt>
      <trkpt lat="44.68367" lon="7.06369">
        <ele>2746</ele>
        <time>2026-08-31T10:44:54Z</time>
      </trkpt>
      <trkpt lat="44.68364" lon="7.06376">
        <ele>2746.8</ele>
        <time>2026-08-31T10:45:00Z</time>
      </trkpt>
      <trkpt lat="44.68363" lon="7.0638">
        <ele>2746.7</ele>
        <time>2026-08-31T10:45:05Z</time>
      </trkpt>
      <trkpt lat="44.68363" lon="7.06385">
        <ele>2745.8</ele>
        <time>2026-08-31T10:45:10Z</time>
      </trkpt>
      <trkpt lat="44.68363" lon="7.06391">
        <ele>2744.8</ele>
        <time>2026-08-31T10:45:16Z</time>
      </trkpt>
      <trkpt lat="44.68364" lon="7.06394">
        <ele>2743.6</ele>
        <time>2026-08-31T10:45:21Z</time>
      </trkpt>
      <trkpt lat="44.68364" lon="7.06396">
        <ele>2743.2</ele>
        <time>2026-08-31T10:45:26Z</time>
      </trkpt>
      <trkpt lat="44.68362" lon="7.06401">
        <ele>2743.6</ele>
        <time>2026-08-31T10:45:32Z</time>
      </trkpt>
      <trkpt lat="44.68359" lon="7.06405">
        <ele>2744.7</ele>
        <time>2026-08-31T10:45:37Z</time>
      </trkpt>
      <trkpt lat="44.68356" lon="7.06408">
        <ele>2746</ele>
        <time>2026-08-31T10:45:42Z</time>
      </trkpt>
      <trkpt lat="44.68355" lon="7.06411">
        <ele>2746.1</ele>
        <time>2026-08-31T10:45:48Z</time>
      </trkpt>
      <trkpt lat="44.68355" lon="7.06413">
        <ele>2745.7</ele>
        <time>2026-08-31T10:45:53Z</time>
      </trkpt>
      <trkpt lat="44.68354" lon="7.06414">
        <ele>2746.1</ele>
        <time>2026-08-31T10:45:58Z</time>
      </trkpt>
      <trkpt lat="44.68351" lon="7.06415">
        <ele>2747.7</ele>
        <time>2026-08-31T10:46:04Z</time>
      </trkpt>
      <trkpt lat="44.68351" lon="7.06415">
        <ele>2747.7</ele>
        <time>2026-08-31T10:46:09Z</time>
      </trkpt>
      <trkpt lat="44.68351" lon="7.06415">
        <ele>2747.7</ele>
        <time>2026-08-31T10:46:14Z</time>
      </trkpt>
      <trkpt lat="44.68351" lon="7.06415">
        <ele>2747.7</ele>
        <time>2026-08-31T10:46:20Z</time>
      </trkpt>
      <trkpt lat="44.68351" lon="7.06415">
        <ele>2747.7</ele>
        <time>2026-08-31T10:46:25Z</time>
      </trkpt>
      <trkpt lat="44.68351" lon="7.06415">
        <ele>2747.7</ele>
        <time>2026-08-31T10:46:30Z</time>
      </trkpt>
      <trkpt lat="44.68346" lon="7.06425">
        <ele>2749.3</ele>
        <time>2026-08-31T10:46:36Z</time>
      </trkpt>
      <trkpt lat="44.68346" lon="7.06429">
        <ele>2748.8</ele>
        <time>2026-08-31T10:46:41Z</time>
      </trkpt>
      <trkpt lat="44.68346" lon="7.0643">
        <ele>2748.7</ele>
        <time>2026-08-31T10:46:46Z</time>
      </trkpt>
      <trkpt lat="44.68346" lon="7.0643">
        <ele>2748.7</ele>
        <time>2026-08-31T10:46:52Z</time>
      </trkpt>
      <trkpt lat="44.68346" lon="7.0643">
        <ele>2748.7</ele>
        <time>2026-08-31T10:46:57Z</time>
      </trkpt>
      <trkpt lat="44.68346" lon="7.0643">
        <ele>2748.7</ele>
        <time>2026-08-31T10:47:02Z</time>
      </trkpt>
      <trkpt lat="44.68346" lon="7.06436">
        <ele>2747.9</ele>
        <time>2026-08-31T10:47:08Z</time>
      </trkpt>
      <trkpt lat="44.68343" lon="7.06437">
        <ele>2749.6</ele>
        <time>2026-08-31T10:47:13Z</time>
      </trkpt>
      <trkpt lat="44.68341" lon="7.0644">
        <ele>2750.4</ele>
        <time>2026-08-31T10:47:18Z</time>
      </trkpt>
      <trkpt lat="44.68338" lon="7.06443">
        <ele>2751.8</ele>
        <time>2026-08-31T10:47:24Z</time>
      </trkpt>
      <trkpt lat="44.68335" lon="7.06446">
        <ele>2753.1</ele>
        <time>2026-08-31T10:47:29Z</time>
      </trkpt>
      <trkpt lat="44.68333" lon="7.0645">
        <ele>2753.8</ele>
        <time>2026-08-31T10:47:34Z</time>
      </trkpt>
      <trkpt lat="44.68331" lon="7.06453">
        <ele>2754.8</ele>
        <time>2026-08-31T10:47:40Z</time>
      </trkpt>
      <trkpt lat="44.6833" lon="7.06458">
        <ele>2754.8</ele>
        <time>2026-08-31T10:47:45Z</time>
      </trkpt>
      <trkpt lat="44.68328" lon="7.06463">
        <ele>2755.5</ele>
        <time>2026-08-31T10:47:50Z</time>
      </trkpt>
      <trkpt lat="44.68327" lon="7.0647">
        <ele>2755.2</ele>
        <time>2026-08-31T10:47:56Z</time>
      </trkpt>
      <trkpt lat="44.68325" lon="7.06474">
        <ele>2755.9</ele>
        <time>2026-08-31T10:48:01Z</time>
      </trkpt>
      <trkpt lat="44.68324" lon="7.06477">
        <ele>2756.1</ele>
        <time>2026-08-31T10:48:06Z</time>
      </trkpt>
      <trkpt lat="44.68322" lon="7.0648">
        <ele>2756.9</ele>
        <time>2026-08-31T10:48:12Z</time>
      </trkpt>
      <trkpt lat="44.6832" lon="7.06482">
        <ele>2757.9</ele>
        <time>2026-08-31T10:48:17Z</time>
      </trkpt>
      <trkpt lat="44.68317" lon="7.06485">
        <ele>2759.3</ele>
        <time>2026-08-31T10:48:22Z</time>
      </trkpt>
      <trkpt lat="44.68316" lon="7.06491">
        <ele>2758.9</ele>
        <time>2026-08-31T10:48:28Z</time>
      </trkpt>
      <trkpt lat="44.68315" lon="7.06494">
        <ele>2759</ele>
        <time>2026-08-31T10:48:33Z</time>
      </trkpt>
      <trkpt lat="44.68317" lon="7.06495">
        <ele>2757.6</ele>
        <time>2026-08-31T10:48:38Z</time>
      </trkpt>
      <trkpt lat="44.68317" lon="7.06495">
        <ele>2757.6</ele>
        <time>2026-08-31T10:48:44Z</time>
      </trkpt>
      <trkpt lat="44.68318" lon="7.06501">
        <ele>2756.1</ele>
        <time>2026-08-31T10:48:49Z</time>
      </trkpt>
      <trkpt lat="44.68317" lon="7.06506">
        <ele>2756</ele>
        <time>2026-08-31T10:48:54Z</time>
      </trkpt>
      <trkpt lat="44.6832" lon="7.0651">
        <ele>2753.7</ele>
        <time>2026-08-31T10:49:00Z</time>
      </trkpt>
      <trkpt lat="44.6832" lon="7.06513">
        <ele>2753.3</ele>
        <time>2026-08-31T10:49:05Z</time>
      </trkpt>
      <trkpt lat="44.6832" lon="7.06516">
        <ele>2752.9</ele>
        <time>2026-08-31T10:49:10Z</time>
      </trkpt>
      <trkpt lat="44.68326" lon="7.06517">
        <ele>2749.3</ele>
        <time>2026-08-31T10:49:16Z</time>
      </trkpt>
      <trkpt lat="44.68328" lon="7.0652">
        <ele>2747.8</ele>
        <time>2026-08-31T10:49:21Z</time>
      </trkpt>
      <trkpt lat="44.6833" lon="7.06524">
        <ele>2746.3</ele>
        <time>2026-08-31T10:49:26Z</time>
      </trkpt>
      <trkpt lat="44.68331" lon="7.06529">
        <ele>2745.1</ele>
        <time>2026-08-31T10:49:32Z</time>
      </trkpt>
      <trkpt lat="44.68332" lon="7.06532">
        <ele>2744.3</ele>
        <time>2026-08-31T10:49:37Z</time>
      </trkpt>
      <trkpt lat="44.68332" lon="7.06535">
        <ele>2743.9</ele>
        <time>2026-08-31T10:49:42Z</time>
      </trkpt>
      <trkpt lat="44.68331" lon="7.06538">
        <ele>2744.1</ele>
        <time>2026-08-31T10:49:48Z</time>
      </trkpt>
      <trkpt lat="44.68331" lon="7.06543">
        <ele>2743.6</ele>
        <time>2026-08-31T10:49:53Z</time>
      </trkpt>
      <trkpt lat="44.6833" lon="7.06547">
        <ele>2743.6</ele>
        <time>2026-08-31T10:49:58Z</time>
      </trkpt>
      <trkpt lat="44.68327" lon="7.06552">
        <ele>2744.6</ele>
        <time>2026-08-31T10:50:04Z</time>
      </trkpt>
      <trkpt lat="44.68326" lon="7.06555">
        <ele>2744.7</ele>
        <time>2026-08-31T10:50:09Z</time>
      </trkpt>
      <trkpt lat="44.68324" lon="7.06557">
        <ele>2745.4</ele>
        <time>2026-08-31T10:50:14Z</time>
      </trkpt>
      <trkpt lat="44.68325" lon="7.06558">
        <ele>2744.8</ele>
        <time>2026-08-31T10:50:20Z</time>
      </trkpt>
      <trkpt lat="44.68325" lon="7.06558">
        <ele>2744.8</ele>
        <time>2026-08-31T10:50:25Z</time>
      </trkpt>
      <trkpt lat="44.68325" lon="7.06558">
        <ele>2744.8</ele>
        <time>2026-08-31T10:50:30Z</time>
      </trkpt>
      <trkpt lat="44.68325" lon="7.06558">
        <ele>2744.8</ele>
        <time>2026-08-31T10:50:36Z</time>
      </trkpt>
      <trkpt lat="44.68325" lon="7.06558">
        <ele>2744.8</ele>
        <time>2026-08-31T10:50:41Z</time>
      </trkpt>
      <trkpt lat="44.68325" lon="7.06558">
        <ele>2744.8</ele>
        <time>2026-08-31T10:50:46Z</time>
      </trkpt>
      <trkpt lat="44.68325" lon="7.06558">
        <ele>2744.8</ele>
        <time>2026-08-31T10:50:52Z</time>
      </trkpt>
      <trkpt lat="44.68325" lon="7.06558">
        <ele>2744.8</ele>
        <time>2026-08-31T10:50:57Z</time>
      </trkpt>
      <trkpt lat="44.68316" lon="7.06559">
        <ele>2749.1</ele>
        <time>2026-08-31T10:51:02Z</time>
      </trkpt>
      <trkpt lat="44.68316" lon="7.06559">
        <ele>2749.1</ele>
        <time>2026-08-31T10:51:08Z</time>
      </trkpt>
      <trkpt lat="44.68316" lon="7.06559">
        <ele>2749.1</ele>
        <time>2026-08-31T10:51:13Z</time>
      </trkpt>
      <trkpt lat="44.68316" lon="7.06559">
        <ele>2749.1</ele>
        <time>2026-08-31T10:51:18Z</time>
      </trkpt>
      <trkpt lat="44.68316" lon="7.06559">
        <ele>2749.1</ele>
        <time>2026-08-31T10:51:24Z</time>
      </trkpt>
      <trkpt lat="44.68316" lon="7.06559">
        <ele>2749.1</ele>
        <time>2026-08-31T10:51:29Z</time>
      </trkpt>
      <trkpt lat="44.68316" lon="7.06559">
        <ele>2749.1</ele>
        <time>2026-08-31T10:51:34Z</time>
      </trkpt>
      <trkpt lat="44.68316" lon="7.06559">
        <ele>2749.1</ele>
        <time>2026-08-31T10:51:40Z</time>
      </trkpt>
      <trkpt lat="44.68316" lon="7.06559">
        <ele>2749.1</ele>
        <time>2026-08-31T10:51:45Z</time>
      </trkpt>
      <trkpt lat="44.68316" lon="7.06559">
        <ele>2749.1</ele>
        <time>2026-08-31T10:51:50Z</time>
      </trkpt>
      <trkpt lat="44.68312" lon="7.0657">
        <ele>2749.4</ele>
        <time>2026-08-31T10:51:56Z</time>
      </trkpt>
      <trkpt lat="44.68312" lon="7.06573">
        <ele>2749</ele>
        <time>2026-08-31T10:52:01Z</time>
      </trkpt>
      <trkpt lat="44.68312" lon="7.06575">
        <ele>2748.7</ele>
        <time>2026-08-31T10:52:06Z</time>
      </trkpt>
      <trkpt lat="44.68312" lon="7.06576">
        <ele>2748.6</ele>
        <time>2026-08-31T10:52:12Z</time>
      </trkpt>
      <trkpt lat="44.68312" lon="7.06576">
        <ele>2748.6</ele>
        <time>2026-08-31T10:52:17Z</time>
      </trkpt>
      <trkpt lat="44.68312" lon="7.06576">
        <ele>2748.6</ele>
        <time>2026-08-31T10:52:22Z</time>
      </trkpt>
      <trkpt lat="44.6831" lon="7.06574">
        <ele>2749.8</ele>
        <time>2026-08-31T10:52:28Z</time>
      </trkpt>
      <trkpt lat="44.68306" lon="7.06572">
        <ele>2751.9</ele>
        <time>2026-08-31T10:52:33Z</time>
      </trkpt>
      <trkpt lat="44.68302" lon="7.06571">
        <ele>2754</ele>
        <time>2026-08-31T10:52:38Z</time>
      </trkpt>
      <trkpt lat="44.68299" lon="7.06573">
        <ele>2755</ele>
        <time>2026-08-31T10:52:44Z</time>
      </trkpt>
      <trkpt lat="44.68298" lon="7.06574">
        <ele>2755.3</ele>
        <time>2026-08-31T10:52:49Z</time>
      </trkpt>
      <trkpt lat="44.68298" lon="7.06574">
        <ele>2755.3</ele>
        <time>2026-08-31T10:52:54Z</time>
      </trkpt>
      <trkpt lat="44.68298" lon="7.06574">
        <ele>2755.3</ele>
        <time>2026-08-31T10:53:00Z</time>
      </trkpt>
      <trkpt lat="44.68298" lon="7.06574">
        <ele>2755.3</ele>
        <time>2026-08-31T10:53:05Z</time>
      </trkpt>
      <trkpt lat="44.68298" lon="7.06574">
        <ele>2755.3</ele>
        <time>2026-08-31T10:53:10Z</time>
      </trkpt>
      <trkpt lat="44.68298" lon="7.06574">
        <ele>2755.3</ele>
        <time>2026-08-31T10:53:16Z</time>
      </trkpt>
      <trkpt lat="44.68298" lon="7.06574">
        <ele>2755.3</ele>
        <time>2026-08-31T10:53:21Z</time>
      </trkpt>
      <trkpt lat="44.68298" lon="7.06574">
        <ele>2755.3</ele>
        <time>2026-08-31T10:53:26Z</time>
      </trkpt>
      <trkpt lat="44.68298" lon="7.06574">
        <ele>2755.3</ele>
        <time>2026-08-31T10:53:32Z</time>
      </trkpt>
      <trkpt lat="44.68298" lon="7.06574">
        <ele>2755.3</ele>
        <time>2026-08-31T10:53:37Z</time>
      </trkpt>
      <trkpt lat="44.68298" lon="7.06574">
        <ele>2755.3</ele>
        <time>2026-08-31T10:53:42Z</time>
      </trkpt>
      <trkpt lat="44.68298" lon="7.06574">
        <ele>2755.3</ele>
        <time>2026-08-31T10:53:48Z</time>
      </trkpt>
      <trkpt lat="44.68298" lon="7.06574">
        <ele>2755.3</ele>
        <time>2026-08-31T10:53:53Z</time>
      </trkpt>
      <trkpt lat="44.68298" lon="7.06574">
        <ele>2755.3</ele>
        <time>2026-08-31T10:53:58Z</time>
      </trkpt>
      <trkpt lat="44.68298" lon="7.06574">
        <ele>2755.3</ele>
        <time>2026-08-31T10:54:04Z</time>
      </trkpt>
      <trkpt lat="44.68298" lon="7.06574">
        <ele>2755.3</ele>
        <time>2026-08-31T10:54:09Z</time>
      </trkpt>
      <trkpt lat="44.68289" lon="7.06568">
        <ele>2760.6</ele>
        <time>2026-08-31T10:54:14Z</time>
      </trkpt>
      <trkpt lat="44.68289" lon="7.06568">
        <ele>2760.6</ele>
        <time>2026-08-31T10:54:20Z</time>
      </trkpt>
      <trkpt lat="44.68289" lon="7.06568">
        <ele>2760.6</ele>
        <time>2026-08-31T10:54:25Z</time>
      </trkpt>
      <trkpt lat="44.68282" lon="7.06568">
        <ele>2763.9</ele>
        <time>2026-08-31T10:54:30Z</time>
      </trkpt>
      <trkpt lat="44.68278" lon="7.06567">
        <ele>2766</ele>
        <time>2026-08-31T10:54:36Z</time>
      </trkpt>
      <trkpt lat="44.68277" lon="7.06569">
        <ele>2766.1</ele>
        <time>2026-08-31T10:54:41Z</time>
      </trkpt>
      <trkpt lat="44.68277" lon="7.06569">
        <ele>2766.1</ele>
        <time>2026-08-31T10:54:46Z</time>
      </trkpt>
      <trkpt lat="44.68277" lon="7.06569">
        <ele>2766.1</ele>
        <time>2026-08-31T10:54:52Z</time>
      </trkpt>
      <trkpt lat="44.68277" lon="7.06569">
        <ele>2766.1</ele>
        <time>2026-08-31T10:54:57Z</time>
      </trkpt>
      <trkpt lat="44.68277" lon="7.06569">
        <ele>2766.1</ele>
        <time>2026-08-31T10:55:02Z</time>
      </trkpt>
      <trkpt lat="44.68277" lon="7.06569">
        <ele>2766.1</ele>
        <time>2026-08-31T10:55:08Z</time>
      </trkpt>
      <trkpt lat="44.68269" lon="7.06567">
        <ele>2770.3</ele>
        <time>2026-08-31T10:55:13Z</time>
      </trkpt>
      <trkpt lat="44.68268" lon="7.06566">
        <ele>2771</ele>
        <time>2026-08-31T10:55:18Z</time>
      </trkpt>
      <trkpt lat="44.68268" lon="7.06566">
        <ele>2771</ele>
        <time>2026-08-31T10:55:24Z</time>
      </trkpt>
      <trkpt lat="44.68268" lon="7.06566">
        <ele>2771</ele>
        <time>2026-08-31T10:55:29Z</time>
      </trkpt>
      <trkpt lat="44.68268" lon="7.06566">
        <ele>2771</ele>
        <time>2026-08-31T10:55:34Z</time>
      </trkpt>
      <trkpt lat="44.68268" lon="7.06566">
        <ele>2771</ele>
        <time>2026-08-31T10:55:40Z</time>
      </trkpt>
      <trkpt lat="44.68268" lon="7.06566">
        <ele>2771</ele>
        <time>2026-08-31T10:55:45Z</time>
      </trkpt>
      <trkpt lat="44.68268" lon="7.06566">
        <ele>2771</ele>
        <time>2026-08-31T10:55:50Z</time>
      </trkpt>
      <trkpt lat="44.68268" lon="7.06566">
        <ele>2771</ele>
        <time>2026-08-31T10:55:56Z</time>
      </trkpt>
      <trkpt lat="44.68258" lon="7.06565">
        <ele>2776</ele>
        <time>2026-08-31T10:56:01Z</time>
      </trkpt>
      <trkpt lat="44.68256" lon="7.06567">
        <ele>2776.5</ele>
        <time>2026-08-31T10:56:06Z</time>
      </trkpt>
      <trkpt lat="44.68254" lon="7.06568">
        <ele>2777.2</ele>
        <time>2026-08-31T10:56:12Z</time>
      </trkpt>
      <trkpt lat="44.68254" lon="7.06568">
        <ele>2777.2</ele>
        <time>2026-08-31T10:56:17Z</time>
      </trkpt>
      <trkpt lat="44.68254" lon="7.06568">
        <ele>2777.2</ele>
        <time>2026-08-31T10:56:22Z</time>
      </trkpt>
      <trkpt lat="44.68254" lon="7.06568">
        <ele>2777.2</ele>
        <time>2026-08-31T10:56:28Z</time>
      </trkpt>
      <trkpt lat="44.68254" lon="7.06568">
        <ele>2777.2</ele>
        <time>2026-08-31T10:56:33Z</time>
      </trkpt>
      <trkpt lat="44.68254" lon="7.06568">
        <ele>2777.2</ele>
        <time>2026-08-31T10:56:38Z</time>
      </trkpt>
      <trkpt lat="44.68252" lon="7.06575">
        <ele>2776.3</ele>
        <time>2026-08-31T10:56:44Z</time>
      </trkpt>
      <trkpt lat="44.6825" lon="7.06577">
        <ele>2776.7</ele>
        <time>2026-08-31T10:56:49Z</time>
      </trkpt>
      <trkpt lat="44.6825" lon="7.06577">
        <ele>2776.7</ele>
        <time>2026-08-31T10:56:54Z</time>
      </trkpt>
      <trkpt lat="44.6825" lon="7.06577">
        <ele>2776.7</ele>
        <time>2026-08-31T10:57:00Z</time>
      </trkpt>
      <trkpt lat="44.68247" lon="7.06582">
        <ele>2778.2</ele>
        <time>2026-08-31T10:57:05Z</time>
      </trkpt>
      <trkpt lat="44.68246" lon="7.06584">
        <ele>2778.8</ele>
        <time>2026-08-31T10:57:10Z</time>
      </trkpt>
      <trkpt lat="44.68244" lon="7.06587">
        <ele>2780.5</ele>
        <time>2026-08-31T10:57:16Z</time>
      </trkpt>
      <trkpt lat="44.68243" lon="7.06589">
        <ele>2781.3</ele>
        <time>2026-08-31T10:57:21Z</time>
      </trkpt>
      <trkpt lat="44.68243" lon="7.06592">
        <ele>2781.1</ele>
        <time>2026-08-31T10:57:26Z</time>
      </trkpt>
      <trkpt lat="44.68242" lon="7.06593">
        <ele>2782</ele>
        <time>2026-08-31T10:57:32Z</time>
      </trkpt>
      <trkpt lat="44.68242" lon="7.06593">
        <ele>2782</ele>
        <time>2026-08-31T10:57:37Z</time>
      </trkpt>
      <trkpt lat="44.68239" lon="7.06596">
        <ele>2784.6</ele>
        <time>2026-08-31T10:57:42Z</time>
      </trkpt>
      <trkpt lat="44.68239" lon="7.06596">
        <ele>2784.6</ele>
        <time>2026-08-31T10:57:48Z</time>
      </trkpt>
      <trkpt lat="44.68239" lon="7.06596">
        <ele>2784.6</ele>
        <time>2026-08-31T10:57:53Z</time>
      </trkpt>
      <trkpt lat="44.68239" lon="7.06596">
        <ele>2784.6</ele>
        <time>2026-08-31T10:57:58Z</time>
      </trkpt>
      <trkpt lat="44.68239" lon="7.06596">
        <ele>2784.6</ele>
        <time>2026-08-31T10:58:04Z</time>
      </trkpt>
      <trkpt lat="44.68239" lon="7.06596">
        <ele>2784.6</ele>
        <time>2026-08-31T10:58:09Z</time>
      </trkpt>
      <trkpt lat="44.68239" lon="7.06596">
        <ele>2784.6</ele>
        <time>2026-08-31T10:58:14Z</time>
      </trkpt>
      <trkpt lat="44.68239" lon="7.06596">
        <ele>2784.6</ele>
        <time>2026-08-31T10:58:20Z</time>
      </trkpt>
      <trkpt lat="44.68239" lon="7.06596">
        <ele>2784.6</ele>
        <time>2026-08-31T10:58:25Z</time>
      </trkpt>
      <trkpt lat="44.68239" lon="7.06596">
        <ele>2784.6</ele>
        <time>2026-08-31T10:58:30Z</time>
      </trkpt>
      <trkpt lat="44.68239" lon="7.06596">
        <ele>2784.6</ele>
        <time>2026-08-31T10:58:36Z</time>
      </trkpt>
      <trkpt lat="44.68239" lon="7.06596">
        <ele>2784.6</ele>
        <time>2026-08-31T10:58:41Z</time>
      </trkpt>
      <trkpt lat="44.68239" lon="7.06596">
        <ele>2784.6</ele>
        <time>2026-08-31T10:58:46Z</time>
      </trkpt>
      <trkpt lat="44.68239" lon="7.06596">
        <ele>2784.6</ele>
        <time>2026-08-31T10:58:52Z</time>
      </trkpt>
      <trkpt lat="44.68239" lon="7.06596">
        <ele>2784.6</ele>
        <time>2026-08-31T10:58:57Z</time>
      </trkpt>
      <trkpt lat="44.68239" lon="7.06596">
        <ele>2784.6</ele>
        <time>2026-08-31T10:59:02Z</time>
      </trkpt>
      <trkpt lat="44.68233" lon="7.06606">
        <ele>2789.3</ele>
        <time>2026-08-31T10:59:08Z</time>
      </trkpt>
      <trkpt lat="44.68233" lon="7.06606">
        <ele>2789.3</ele>
        <time>2026-08-31T10:59:13Z</time>
      </trkpt>
      <trkpt lat="44.68233" lon="7.06606">
        <ele>2789.3</ele>
        <time>2026-08-31T10:59:18Z</time>
      </trkpt>
      <trkpt lat="44.68233" lon="7.06606">
        <ele>2789.3</ele>
        <time>2026-08-31T10:59:24Z</time>
      </trkpt>
      <trkpt lat="44.68233" lon="7.06606">
        <ele>2789.3</ele>
        <time>2026-08-31T10:59:29Z</time>
      </trkpt>
      <trkpt lat="44.68233" lon="7.06606">
        <ele>2789.3</ele>
        <time>2026-08-31T10:59:34Z</time>
      </trkpt>
      <trkpt lat="44.68233" lon="7.06606">
        <ele>2789.3</ele>
        <time>2026-08-31T10:59:40Z</time>
      </trkpt>
      <trkpt lat="44.68233" lon="7.06606">
        <ele>2789.3</ele>
        <time>2026-08-31T10:59:45Z</time>
      </trkpt>
      <trkpt lat="44.68233" lon="7.06606">
        <ele>2789.3</ele>
        <time>2026-08-31T10:59:50Z</time>
      </trkpt>
      <trkpt lat="44.68233" lon="7.06606">
        <ele>2789.3</ele>
        <time>2026-08-31T10:59:56Z</time>
      </trkpt>
      <trkpt lat="44.68233" lon="7.06606">
        <ele>2789.3</ele>
        <time>2026-08-31T11:00:01Z</time>
      </trkpt>
      <trkpt lat="44.68228" lon="7.06618">
        <ele>2792.7</ele>
        <time>2026-08-31T11:00:06Z</time>
      </trkpt>
      <trkpt lat="44.68228" lon="7.06618">
        <ele>2792.7</ele>
        <time>2026-08-31T11:00:12Z</time>
      </trkpt>
      <trkpt lat="44.68228" lon="7.06618">
        <ele>2792.7</ele>
        <time>2026-08-31T11:00:17Z</time>
      </trkpt>
      <trkpt lat="44.68228" lon="7.06618">
        <ele>2792.7</ele>
        <time>2026-08-31T11:00:22Z</time>
      </trkpt>
      <trkpt lat="44.68228" lon="7.06618">
        <ele>2792.7</ele>
        <time>2026-08-31T11:00:28Z</time>
      </trkpt>
      <trkpt lat="44.68228" lon="7.06618">
        <ele>2792.7</ele>
        <time>2026-08-31T11:00:33Z</time>
      </trkpt>
      <trkpt lat="44.68228" lon="7.06618">
        <ele>2792.7</ele>
        <time>2026-08-31T11:00:38Z</time>
      </trkpt>
      <trkpt lat="44.68228" lon="7.06618">
        <ele>2792.7</ele>
        <time>2026-08-31T11:00:44Z</time>
      </trkpt>
      <trkpt lat="44.68228" lon="7.06618">
        <ele>2792.7</ele>
        <time>2026-08-31T11:00:49Z</time>
      </trkpt>
      <trkpt lat="44.68228" lon="7.06618">
        <ele>2792.7</ele>
        <time>2026-08-31T11:00:54Z</time>
      </trkpt>
      <trkpt lat="44.68228" lon="7.06618">
        <ele>2792.7</ele>
        <time>2026-08-31T11:01:00Z</time>
      </trkpt>
      <trkpt lat="44.68228" lon="7.06618">
        <ele>2792.7</ele>
        <time>2026-08-31T11:01:05Z</time>
      </trkpt>
      <trkpt lat="44.68228" lon="7.06618">
        <ele>2792.7</ele>
        <time>2026-08-31T11:01:10Z</time>
      </trkpt>
      <trkpt lat="44.6822" lon="7.06624">
        <ele>2799.3</ele>
        <time>2026-08-31T11:01:16Z</time>
      </trkpt>
      <trkpt lat="44.6822" lon="7.06625">
        <ele>2799.1</ele>
        <time>2026-08-31T11:01:21Z</time>
      </trkpt>
      <trkpt lat="44.6822" lon="7.06625">
        <ele>2799.1</ele>
        <time>2026-08-31T11:01:26Z</time>
      </trkpt>
      <trkpt lat="44.6822" lon="7.06625">
        <ele>2799.1</ele>
        <time>2026-08-31T11:01:32Z</time>
      </trkpt>
      <trkpt lat="44.6822" lon="7.06631">
        <ele>2798.5</ele>
        <time>2026-08-31T11:01:37Z</time>
      </trkpt>
      <trkpt lat="44.6822" lon="7.06633">
        <ele>2798.2</ele>
        <time>2026-08-31T11:01:42Z</time>
      </trkpt>
      <trkpt lat="44.68221" lon="7.06634">
        <ele>2797.3</ele>
        <time>2026-08-31T11:01:48Z</time>
      </trkpt>
      <trkpt lat="44.68221" lon="7.06634">
        <ele>2797.3</ele>
        <time>2026-08-31T11:01:53Z</time>
      </trkpt>
      <trkpt lat="44.68221" lon="7.06634">
        <ele>2797.3</ele>
        <time>2026-08-31T11:01:58Z</time>
      </trkpt>
      <trkpt lat="44.68221" lon="7.06634">
        <ele>2797.3</ele>
        <time>2026-08-31T11:02:04Z</time>
      </trkpt>
      <trkpt lat="44.68221" lon="7.06634">
        <ele>2797.3</ele>
        <time>2026-08-31T11:02:09Z</time>
      </trkpt>
      <trkpt lat="44.68221" lon="7.06634">
        <ele>2797.3</ele>
        <time>2026-08-31T11:02:14Z</time>
      </trkpt>
      <trkpt lat="44.68221" lon="7.06634">
        <ele>2797.3</ele>
        <time>2026-08-31T11:02:20Z</time>
      </trkpt>
      <trkpt lat="44.68221" lon="7.06634">
        <ele>2797.3</ele>
        <time>2026-08-31T11:02:25Z</time>
      </trkpt>
      <trkpt lat="44.68221" lon="7.06634">
        <ele>2797.3</ele>
        <time>2026-08-31T11:02:30Z</time>
      </trkpt>
      <trkpt lat="44.68221" lon="7.06634">
        <ele>2797.3</ele>
        <time>2026-08-31T11:02:36Z</time>
      </trkpt>
      <trkpt lat="44.68221" lon="7.06634">
        <ele>2797.3</ele>
        <time>2026-08-31T11:02:41Z</time>
      </trkpt>
      <trkpt lat="44.68221" lon="7.06634">
        <ele>2797.3</ele>
        <time>2026-08-31T11:02:46Z</time>
      </trkpt>
      <trkpt lat="44.68221" lon="7.06634">
        <ele>2797.3</ele>
        <time>2026-08-31T11:02:52Z</time>
      </trkpt>
      <trkpt lat="44.68221" lon="7.06634">
        <ele>2797.3</ele>
        <time>2026-08-31T11:02:57Z</time>
      </trkpt>
      <trkpt lat="44.68221" lon="7.06634">
        <ele>2797.3</ele>
        <time>2026-08-31T11:03:02Z</time>
      </trkpt>
      <trkpt lat="44.68221" lon="7.06634">
        <ele>2797.3</ele>
        <time>2026-08-31T11:03:08Z</time>
      </trkpt>
      <trkpt lat="44.68221" lon="7.06634">
        <ele>2797.3</ele>
        <time>2026-08-31T11:03:13Z</time>
      </trkpt>
      <trkpt lat="44.68221" lon="7.06634">
        <ele>2797.3</ele>
        <time>2026-08-31T11:03:18Z</time>
      </trkpt>
      <trkpt lat="44.68221" lon="7.06634">
        <ele>2797.3</ele>
        <time>2026-08-31T11:03:24Z</time>
      </trkpt>
      <trkpt lat="44.68221" lon="7.06634">
        <ele>2797.3</ele>
        <time>2026-08-31T11:03:29Z</time>
      </trkpt>
      <trkpt lat="44.68221" lon="7.06634">
        <ele>2797.3</ele>
        <time>2026-08-31T11:03:34Z</time>
      </trkpt>
      <trkpt lat="44.68221" lon="7.06634">
        <ele>2797.3</ele>
        <time>2026-08-31T11:03:40Z</time>
      </trkpt>
      <trkpt lat="44.68221" lon="7.06634">
        <ele>2797.3</ele>
        <time>2026-08-31T11:03:45Z</time>
      </trkpt>
      <trkpt lat="44.68219" lon="7.06647">
        <ele>2797.5</ele>
        <time>2026-08-31T11:03:50Z</time>
      </trkpt>
      <trkpt lat="44.68219" lon="7.06647">
        <ele>2797.5</ele>
        <time>2026-08-31T11:03:56Z</time>
      </trkpt>
      <trkpt lat="44.68219" lon="7.06647">
        <ele>2797.5</ele>
        <time>2026-08-31T11:04:01Z</time>
      </trkpt>
      <trkpt lat="44.68219" lon="7.06647">
        <ele>2797.5</ele>
        <time>2026-08-31T11:04:06Z</time>
      </trkpt>
      <trkpt lat="44.68219" lon="7.06647">
        <ele>2797.5</ele>
        <time>2026-08-31T11:04:12Z</time>
      </trkpt>
      <trkpt lat="44.68219" lon="7.06647">
        <ele>2797.5</ele>
        <time>2026-08-31T11:04:17Z</time>
      </trkpt>
      <trkpt lat="44.68219" lon="7.06647">
        <ele>2797.5</ele>
        <time>2026-08-31T11:04:22Z</time>
      </trkpt>
      <trkpt lat="44.68219" lon="7.06647">
        <ele>2797.5</ele>
        <time>2026-08-31T11:04:28Z</time>
      </trkpt>
      <trkpt lat="44.68219" lon="7.06647">
        <ele>2797.5</ele>
        <time>2026-08-31T11:04:33Z</time>
      </trkpt>
      <trkpt lat="44.68219" lon="7.06647">
        <ele>2797.5</ele>
        <time>2026-08-31T11:04:38Z</time>
      </trkpt>
      <trkpt lat="44.68219" lon="7.06647">
        <ele>2797.5</ele>
        <time>2026-08-31T11:04:44Z</time>
      </trkpt>
      <trkpt lat="44.68219" lon="7.06647">
        <ele>2797.5</ele>
        <time>2026-08-31T11:04:49Z</time>
      </trkpt>
      <trkpt lat="44.68213" lon="7.06658">
        <ele>2801.3</ele>
        <time>2026-08-31T11:04:54Z</time>
      </trkpt>
      <trkpt lat="44.68213" lon="7.06659">
        <ele>2801.1</ele>
        <time>2026-08-31T11:05:00Z</time>
      </trkpt>
      <trkpt lat="44.68213" lon="7.06659">
        <ele>2801.1</ele>
        <time>2026-08-31T11:05:05Z</time>
      </trkpt>
      <trkpt lat="44.68213" lon="7.06659">
        <ele>2801.1</ele>
        <time>2026-08-31T11:05:10Z</time>
      </trkpt>
      <trkpt lat="44.68213" lon="7.06659">
        <ele>2801.1</ele>
        <time>2026-08-31T11:05:16Z</time>
      </trkpt>
      <trkpt lat="44.68213" lon="7.06659">
        <ele>2801.1</ele>
        <time>2026-08-31T11:05:21Z</time>
      </trkpt>
      <trkpt lat="44.68213" lon="7.06659">
        <ele>2801.1</ele>
        <time>2026-08-31T11:05:26Z</time>
      </trkpt>
      <trkpt lat="44.68213" lon="7.06659">
        <ele>2801.1</ele>
        <time>2026-08-31T11:05:32Z</time>
      </trkpt>
      <trkpt lat="44.68213" lon="7.06659">
        <ele>2801.1</ele>
        <time>2026-08-31T11:05:37Z</time>
      </trkpt>
      <trkpt lat="44.68213" lon="7.06659">
        <ele>2801.1</ele>
        <time>2026-08-31T11:05:42Z</time>
      </trkpt>
      <trkpt lat="44.68213" lon="7.06659">
        <ele>2801.1</ele>
        <time>2026-08-31T11:05:48Z</time>
      </trkpt>
      <trkpt lat="44.68213" lon="7.06659">
        <ele>2801.1</ele>
        <time>2026-08-31T11:05:53Z</time>
      </trkpt>
      <trkpt lat="44.68213" lon="7.06659">
        <ele>2801.1</ele>
        <time>2026-08-31T11:05:58Z</time>
      </trkpt>
      <trkpt lat="44.68213" lon="7.06659">
        <ele>2801.1</ele>
        <time>2026-08-31T11:06:04Z</time>
      </trkpt>
      <trkpt lat="44.68213" lon="7.06659">
        <ele>2801.1</ele>
        <time>2026-08-31T11:06:09Z</time>
      </trkpt>
      <trkpt lat="44.68213" lon="7.06659">
        <ele>2801.1</ele>
        <time>2026-08-31T11:06:14Z</time>
      </trkpt>
      <trkpt lat="44.68213" lon="7.06659">
        <ele>2801.1</ele>
        <time>2026-08-31T11:06:20Z</time>
      </trkpt>
      <trkpt lat="44.68213" lon="7.06659">
        <ele>2801.1</ele>
        <time>2026-08-31T11:06:25Z</time>
      </trkpt>
      <trkpt lat="44.68213" lon="7.06659">
        <ele>2801.1</ele>
        <time>2026-08-31T11:06:30Z</time>
      </trkpt>
      <trkpt lat="44.68206" lon="7.0667">
        <ele>2805.6</ele>
        <time>2026-08-31T11:06:36Z</time>
      </trkpt>
      <trkpt lat="44.68203" lon="7.06671">
        <ele>2807.9</ele>
        <time>2026-08-31T11:06:41Z</time>
      </trkpt>
      <trkpt lat="44.68201" lon="7.06672">
        <ele>2809.4</ele>
        <time>2026-08-31T11:06:46Z</time>
      </trkpt>
      <trkpt lat="44.68202" lon="7.06672">
        <ele>2808.6</ele>
        <time>2026-08-31T11:06:52Z</time>
      </trkpt>
      <trkpt lat="44.68202" lon="7.06672">
        <ele>2808.6</ele>
        <time>2026-08-31T11:06:57Z</time>
      </trkpt>
      <trkpt lat="44.68202" lon="7.06672">
        <ele>2808.6</ele>
        <time>2026-08-31T11:07:02Z</time>
      </trkpt>
      <trkpt lat="44.68202" lon="7.06672">
        <ele>2808.6</ele>
        <time>2026-08-31T11:07:08Z</time>
      </trkpt>
      <trkpt lat="44.68202" lon="7.06672">
        <ele>2808.6</ele>
        <time>2026-08-31T11:07:13Z</time>
      </trkpt>
      <trkpt lat="44.68202" lon="7.06672">
        <ele>2808.6</ele>
        <time>2026-08-31T11:07:18Z</time>
      </trkpt>
      <trkpt lat="44.68202" lon="7.06672">
        <ele>2808.6</ele>
        <time>2026-08-31T11:07:24Z</time>
      </trkpt>
      <trkpt lat="44.68202" lon="7.06672">
        <ele>2808.6</ele>
        <time>2026-08-31T11:07:29Z</time>
      </trkpt>
      <trkpt lat="44.68208" lon="7.0668">
        <ele>2803</ele>
        <time>2026-08-31T11:07:34Z</time>
      </trkpt>
      <trkpt lat="44.68207" lon="7.06683">
        <ele>2803.5</ele>
        <time>2026-08-31T11:07:40Z</time>
      </trkpt>
      <trkpt lat="44.68205" lon="7.06687">
        <ele>2804.7</ele>
        <time>2026-08-31T11:07:45Z</time>
      </trkpt>
      <trkpt lat="44.68205" lon="7.06694">
        <ele>2804</ele>
        <time>2026-08-31T11:07:50Z</time>
      </trkpt>
      <trkpt lat="44.68205" lon="7.067">
        <ele>2803.5</ele>
        <time>2026-08-31T11:07:56Z</time>
      </trkpt>
      <trkpt lat="44.68203" lon="7.06701">
        <ele>2805</ele>
        <time>2026-08-31T11:08:01Z</time>
      </trkpt>
      <trkpt lat="44.68203" lon="7.06701">
        <ele>2805</ele>
        <time>2026-08-31T11:08:06Z</time>
      </trkpt>
      <trkpt lat="44.68203" lon="7.06701">
        <ele>2805</ele>
        <time>2026-08-31T11:08:12Z</time>
      </trkpt>
      <trkpt lat="44.68203" lon="7.06701">
        <ele>2805</ele>
        <time>2026-08-31T11:08:17Z</time>
      </trkpt>
      <trkpt lat="44.68204" lon="7.06705">
        <ele>2803.8</ele>
        <time>2026-08-31T11:08:22Z</time>
      </trkpt>
      <trkpt lat="44.68201" lon="7.06707">
        <ele>2805.9</ele>
        <time>2026-08-31T11:08:28Z</time>
      </trkpt>
      <trkpt lat="44.68198" lon="7.06711">
        <ele>2807.9</ele>
        <time>2026-08-31T11:08:33Z</time>
      </trkpt>
      <trkpt lat="44.68197" lon="7.06714">
        <ele>2808.4</ele>
        <time>2026-08-31T11:08:38Z</time>
      </trkpt>
      <trkpt lat="44.68195" lon="7.06715">
        <ele>2809.9</ele>
        <time>2026-08-31T11:08:44Z</time>
      </trkpt>
      <trkpt lat="44.68192" lon="7.06718">
        <ele>2811.9</ele>
        <time>2026-08-31T11:08:49Z</time>
      </trkpt>
      <trkpt lat="44.68189" lon="7.06721">
        <ele>2814</ele>
        <time>2026-08-31T11:08:54Z</time>
      </trkpt>
      <trkpt lat="44.68185" lon="7.06723">
        <ele>2816.9</ele>
        <time>2026-08-31T11:09:00Z</time>
      </trkpt>
      <trkpt lat="44.68182" lon="7.06722">
        <ele>2819.3</ele>
        <time>2026-08-31T11:09:05Z</time>
      </trkpt>
      <trkpt lat="44.68179" lon="7.06725">
        <ele>2821.4</ele>
        <time>2026-08-31T11:09:10Z</time>
      </trkpt>
      <trkpt lat="44.68178" lon="7.06729">
        <ele>2821.7</ele>
        <time>2026-08-31T11:09:16Z</time>
      </trkpt>
      <trkpt lat="44.68178" lon="7.06733">
        <ele>2821.2</ele>
        <time>2026-08-31T11:09:21Z</time>
      </trkpt>
      <trkpt lat="44.68178" lon="7.06736">
        <ele>2820.9</ele>
        <time>2026-08-31T11:09:26Z</time>
      </trkpt>
      <trkpt lat="44.68178" lon="7.0674">
        <ele>2820.4</ele>
        <time>2026-08-31T11:09:32Z</time>
      </trkpt>
      <trkpt lat="44.68176" lon="7.06741">
        <ele>2821.9</ele>
        <time>2026-08-31T11:09:37Z</time>
      </trkpt>
      <trkpt lat="44.68176" lon="7.06742">
        <ele>2821.7</ele>
        <time>2026-08-31T11:09:42Z</time>
      </trkpt>
      <trkpt lat="44.68173" lon="7.06745">
        <ele>2823.7</ele>
        <time>2026-08-31T11:09:48Z</time>
      </trkpt>
      <trkpt lat="44.68173" lon="7.06745">
        <ele>2823.7</ele>
        <time>2026-08-31T11:09:53Z</time>
      </trkpt>
      <trkpt lat="44.68173" lon="7.06745">
        <ele>2823.7</ele>
        <time>2026-08-31T11:09:58Z</time>
      </trkpt>
      <trkpt lat="44.68173" lon="7.06745">
        <ele>2823.7</ele>
        <time>2026-08-31T11:10:04Z</time>
      </trkpt>
      <trkpt lat="44.68173" lon="7.06745">
        <ele>2823.7</ele>
        <time>2026-08-31T11:10:09Z</time>
      </trkpt>
      <trkpt lat="44.68166" lon="7.06756">
        <ele>2826.6</ele>
        <time>2026-08-31T11:10:14Z</time>
      </trkpt>
      <trkpt lat="44.68165" lon="7.0676">
        <ele>2826</ele>
        <time>2026-08-31T11:10:20Z</time>
      </trkpt>
      <trkpt lat="44.68166" lon="7.06762">
        <ele>2824.7</ele>
        <time>2026-08-31T11:10:25Z</time>
      </trkpt>
      <trkpt lat="44.68166" lon="7.06764">
        <ele>2824.1</ele>
        <time>2026-08-31T11:10:30Z</time>
      </trkpt>
      <trkpt lat="44.68166" lon="7.06764">
        <ele>2824.1</ele>
        <time>2026-08-31T11:10:36Z</time>
      </trkpt>
      <trkpt lat="44.68166" lon="7.06764">
        <ele>2824.1</ele>
        <time>2026-08-31T11:10:41Z</time>
      </trkpt>
      <trkpt lat="44.68166" lon="7.06764">
        <ele>2824.1</ele>
        <time>2026-08-31T11:10:46Z</time>
      </trkpt>
      <trkpt lat="44.68162" lon="7.06774">
        <ele>2823.8</ele>
        <time>2026-08-31T11:10:52Z</time>
      </trkpt>
      <trkpt lat="44.68162" lon="7.06777">
        <ele>2822.9</ele>
        <time>2026-08-31T11:10:57Z</time>
      </trkpt>
      <trkpt lat="44.68162" lon="7.06777">
        <ele>2822.9</ele>
        <time>2026-08-31T11:11:02Z</time>
      </trkpt>
      <trkpt lat="44.68162" lon="7.06777">
        <ele>2822.9</ele>
        <time>2026-08-31T11:11:08Z</time>
      </trkpt>
      <trkpt lat="44.68162" lon="7.06777">
        <ele>2822.9</ele>
        <time>2026-08-31T11:11:13Z</time>
      </trkpt>
      <trkpt lat="44.68162" lon="7.06777">
        <ele>2822.9</ele>
        <time>2026-08-31T11:11:18Z</time>
      </trkpt>
      <trkpt lat="44.68162" lon="7.06777">
        <ele>2822.9</ele>
        <time>2026-08-31T11:11:24Z</time>
      </trkpt>
      <trkpt lat="44.68162" lon="7.06777">
        <ele>2822.9</ele>
        <time>2026-08-31T11:11:29Z</time>
      </trkpt>
      <trkpt lat="44.68162" lon="7.06777">
        <ele>2822.9</ele>
        <time>2026-08-31T11:11:34Z</time>
      </trkpt>
      <trkpt lat="44.68162" lon="7.06777">
        <ele>2822.9</ele>
        <time>2026-08-31T11:11:40Z</time>
      </trkpt>
      <trkpt lat="44.68162" lon="7.06777">
        <ele>2822.9</ele>
        <time>2026-08-31T11:11:45Z</time>
      </trkpt>
      <trkpt lat="44.68162" lon="7.06777">
        <ele>2822.9</ele>
        <time>2026-08-31T11:11:50Z</time>
      </trkpt>
      <trkpt lat="44.68162" lon="7.06777">
        <ele>2822.9</ele>
        <time>2026-08-31T11:11:56Z</time>
      </trkpt>
      <trkpt lat="44.6815" lon="7.0678">
        <ele>2830.7</ele>
        <time>2026-08-31T11:12:01Z</time>
      </trkpt>
      <trkpt lat="44.68148" lon="7.06785">
        <ele>2830.8</ele>
        <time>2026-08-31T11:12:06Z</time>
      </trkpt>
      <trkpt lat="44.68147" lon="7.0679">
        <ele>2830.1</ele>
        <time>2026-08-31T11:12:12Z</time>
      </trkpt>
      <trkpt lat="44.68146" lon="7.06793">
        <ele>2830</ele>
        <time>2026-08-31T11:12:17Z</time>
      </trkpt>
      <trkpt lat="44.68144" lon="7.06796">
        <ele>2830.7</ele>
        <time>2026-08-31T11:12:22Z</time>
      </trkpt>
      <trkpt lat="44.68142" lon="7.068">
        <ele>2831.1</ele>
        <time>2026-08-31T11:12:28Z</time>
      </trkpt>
      <trkpt lat="44.68141" lon="7.06804">
        <ele>2830.8</ele>
        <time>2026-08-31T11:12:33Z</time>
      </trkpt>
      <trkpt lat="44.68141" lon="7.06807">
        <ele>2830</ele>
        <time>2026-08-31T11:12:38Z</time>
      </trkpt>
      <trkpt lat="44.68139" lon="7.0681">
        <ele>2830.7</ele>
        <time>2026-08-31T11:12:44Z</time>
      </trkpt>
      <trkpt lat="44.6814" lon="7.06815">
        <ele>2828.6</ele>
        <time>2026-08-31T11:12:49Z</time>
      </trkpt>
      <trkpt lat="44.68138" lon="7.06818">
        <ele>2829.4</ele>
        <time>2026-08-31T11:12:54Z</time>
      </trkpt>
      <trkpt lat="44.68134" lon="7.06822">
        <ele>2831.6</ele>
        <time>2026-08-31T11:13:00Z</time>
      </trkpt>
      <trkpt lat="44.68133" lon="7.06825">
        <ele>2831.6</ele>
        <time>2026-08-31T11:13:05Z</time>
      </trkpt>
      <trkpt lat="44.68131" lon="7.06826">
        <ele>2832.9</ele>
        <time>2026-08-31T11:13:10Z</time>
      </trkpt>
      <trkpt lat="44.6813" lon="7.06829">
        <ele>2833</ele>
        <time>2026-08-31T11:13:16Z</time>
      </trkpt>
      <trkpt lat="44.68129" lon="7.0683">
        <ele>2833.6</ele>
        <time>2026-08-31T11:13:21Z</time>
      </trkpt>
      <trkpt lat="44.68129" lon="7.0683">
        <ele>2833.6</ele>
        <time>2026-08-31T11:13:26Z</time>
      </trkpt>
      <trkpt lat="44.68129" lon="7.0683">
        <ele>2833.6</ele>
        <time>2026-08-31T11:13:32Z</time>
      </trkpt>
      <trkpt lat="44.68129" lon="7.0683">
        <ele>2833.6</ele>
        <time>2026-08-31T11:13:37Z</time>
      </trkpt>
      <trkpt lat="44.68129" lon="7.0683">
        <ele>2833.6</ele>
        <time>2026-08-31T11:13:42Z</time>
      </trkpt>
      <trkpt lat="44.68129" lon="7.0683">
        <ele>2833.6</ele>
        <time>2026-08-31T11:13:48Z</time>
      </trkpt>
      <trkpt lat="44.68128" lon="7.06835">
        <ele>2833.3</ele>
        <time>2026-08-31T11:13:53Z</time>
      </trkpt>
      <trkpt lat="44.68129" lon="7.06836">
        <ele>2832.4</ele>
        <time>2026-08-31T11:13:58Z</time>
      </trkpt>
      <trkpt lat="44.68129" lon="7.06836">
        <ele>2832.4</ele>
        <time>2026-08-31T11:14:04Z</time>
      </trkpt>
      <trkpt lat="44.68129" lon="7.06836">
        <ele>2832.4</ele>
        <time>2026-08-31T11:14:09Z</time>
      </trkpt>
      <trkpt lat="44.68129" lon="7.06836">
        <ele>2832.4</ele>
        <time>2026-08-31T11:14:14Z</time>
      </trkpt>
      <trkpt lat="44.68124" lon="7.06844">
        <ele>2835.3</ele>
        <time>2026-08-31T11:14:20Z</time>
      </trkpt>
      <trkpt lat="44.68124" lon="7.06844">
        <ele>2835.3</ele>
        <time>2026-08-31T11:14:25Z</time>
      </trkpt>
      <trkpt lat="44.68124" lon="7.06844">
        <ele>2835.3</ele>
        <time>2026-08-31T11:14:30Z</time>
      </trkpt>
      <trkpt lat="44.68124" lon="7.06844">
        <ele>2835.3</ele>
        <time>2026-08-31T11:14:36Z</time>
      </trkpt>
      <trkpt lat="44.68124" lon="7.06844">
        <ele>2835.3</ele>
        <time>2026-08-31T11:14:41Z</time>
      </trkpt>
      <trkpt lat="44.68124" lon="7.06844">
        <ele>2835.3</ele>
        <time>2026-08-31T11:14:46Z</time>
      </trkpt>
      <trkpt lat="44.68124" lon="7.06844">
        <ele>2835.3</ele>
        <time>2026-08-31T11:14:52Z</time>
      </trkpt>
      <trkpt lat="44.68124" lon="7.06844">
        <ele>2835.3</ele>
        <time>2026-08-31T11:14:57Z</time>
      </trkpt>
      <trkpt lat="44.68124" lon="7.06844">
        <ele>2835.3</ele>
        <time>2026-08-31T11:15:02Z</time>
      </trkpt>
      <trkpt lat="44.68124" lon="7.06844">
        <ele>2835.3</ele>
        <time>2026-08-31T11:15:08Z</time>
      </trkpt>
      <trkpt lat="44.68124" lon="7.06844">
        <ele>2835.3</ele>
        <time>2026-08-31T11:15:13Z</time>
      </trkpt>
      <trkpt lat="44.68124" lon="7.06844">
        <ele>2835.3</ele>
        <time>2026-08-31T11:15:18Z</time>
      </trkpt>
      <trkpt lat="44.68124" lon="7.06844">
        <ele>2835.3</ele>
        <time>2026-08-31T11:15:24Z</time>
      </trkpt>
      <trkpt lat="44.68124" lon="7.06844">
        <ele>2835.3</ele>
        <time>2026-08-31T11:15:29Z</time>
      </trkpt>
      <trkpt lat="44.68124" lon="7.06844">
        <ele>2835.3</ele>
        <time>2026-08-31T11:15:34Z</time>
      </trkpt>
      <trkpt lat="44.68118" lon="7.06854">
        <ele>2838.3</ele>
        <time>2026-08-31T11:15:40Z</time>
      </trkpt>
      <trkpt lat="44.68118" lon="7.06858">
        <ele>2837.6</ele>
        <time>2026-08-31T11:15:45Z</time>
      </trkpt>
      <trkpt lat="44.68118" lon="7.06859">
        <ele>2837.4</ele>
        <time>2026-08-31T11:15:50Z</time>
      </trkpt>
      <trkpt lat="44.68118" lon="7.06859">
        <ele>2837.4</ele>
        <time>2026-08-31T11:15:56Z</time>
      </trkpt>
      <trkpt lat="44.68118" lon="7.06859">
        <ele>2837.4</ele>
        <time>2026-08-31T11:16:01Z</time>
      </trkpt>
      <trkpt lat="44.68118" lon="7.06859">
        <ele>2837.4</ele>
        <time>2026-08-31T11:16:06Z</time>
      </trkpt>
      <trkpt lat="44.68112" lon="7.06871">
        <ele>2839.4</ele>
        <time>2026-08-31T11:16:12Z</time>
      </trkpt>
      <trkpt lat="44.6811" lon="7.06873">
        <ele>2840.3</ele>
        <time>2026-08-31T11:16:17Z</time>
      </trkpt>
      <trkpt lat="44.68108" lon="7.06875">
        <ele>2841.2</ele>
        <time>2026-08-31T11:16:22Z</time>
      </trkpt>
      <trkpt lat="44.68107" lon="7.06877">
        <ele>2841.4</ele>
        <time>2026-08-31T11:16:28Z</time>
      </trkpt>
      <trkpt lat="44.68107" lon="7.06877">
        <ele>2841.4</ele>
        <time>2026-08-31T11:16:33Z</time>
      </trkpt>
      <trkpt lat="44.68107" lon="7.06877">
        <ele>2841.4</ele>
        <time>2026-08-31T11:16:38Z</time>
      </trkpt>
      <trkpt lat="44.68107" lon="7.06877">
        <ele>2841.4</ele>
        <time>2026-08-31T11:16:44Z</time>
      </trkpt>
      <trkpt lat="44.68105" lon="7.0688">
        <ele>2842</ele>
        <time>2026-08-31T11:16:49Z</time>
      </trkpt>
      <trkpt lat="44.68103" lon="7.06885">
        <ele>2842.1</ele>
        <time>2026-08-31T11:16:54Z</time>
      </trkpt>
      <trkpt lat="44.68102" lon="7.06891">
        <ele>2841.3</ele>
        <time>2026-08-31T11:17:00Z</time>
      </trkpt>
      <trkpt lat="44.68102" lon="7.06893">
        <ele>2840.8</ele>
        <time>2026-08-31T11:17:05Z</time>
      </trkpt>
      <trkpt lat="44.68102" lon="7.06893">
        <ele>2840.8</ele>
        <time>2026-08-31T11:17:10Z</time>
      </trkpt>
      <trkpt lat="44.68102" lon="7.06893">
        <ele>2840.8</ele>
        <time>2026-08-31T11:17:16Z</time>
      </trkpt>
      <trkpt lat="44.68102" lon="7.06893">
        <ele>2840.8</ele>
        <time>2026-08-31T11:17:21Z</time>
      </trkpt>
      <trkpt lat="44.68102" lon="7.06893">
        <ele>2840.8</ele>
        <time>2026-08-31T11:17:26Z</time>
      </trkpt>
      <trkpt lat="44.68102" lon="7.06893">
        <ele>2840.8</ele>
        <time>2026-08-31T11:17:32Z</time>
      </trkpt>
      <trkpt lat="44.68102" lon="7.06893">
        <ele>2840.8</ele>
        <time>2026-08-31T11:17:37Z</time>
      </trkpt>
      <trkpt lat="44.68102" lon="7.06893">
        <ele>2840.8</ele>
        <time>2026-08-31T11:17:42Z</time>
      </trkpt>
      <trkpt lat="44.68102" lon="7.06893">
        <ele>2840.8</ele>
        <time>2026-08-31T11:17:48Z</time>
      </trkpt>
      <trkpt lat="44.68102" lon="7.06893">
        <ele>2840.8</ele>
        <time>2026-08-31T11:17:53Z</time>
      </trkpt>
      <trkpt lat="44.68102" lon="7.06893">
        <ele>2840.8</ele>
        <time>2026-08-31T11:17:58Z</time>
      </trkpt>
      <trkpt lat="44.68102" lon="7.06893">
        <ele>2840.8</ele>
        <time>2026-08-31T11:18:04Z</time>
      </trkpt>
      <trkpt lat="44.68102" lon="7.06893">
        <ele>2840.8</ele>
        <time>2026-08-31T11:18:09Z</time>
      </trkpt>
      <trkpt lat="44.68102" lon="7.06893">
        <ele>2840.8</ele>
        <time>2026-08-31T11:18:14Z</time>
      </trkpt>
      <trkpt lat="44.68097" lon="7.06904">
        <ele>2840.8</ele>
        <time>2026-08-31T11:18:20Z</time>
      </trkpt>
      <trkpt lat="44.68097" lon="7.06904">
        <ele>2840.8</ele>
        <time>2026-08-31T11:18:25Z</time>
      </trkpt>
      <trkpt lat="44.68097" lon="7.06904">
        <ele>2840.8</ele>
        <time>2026-08-31T11:18:30Z</time>
      </trkpt>
      <trkpt lat="44.68097" lon="7.06904">
        <ele>2840.8</ele>
        <time>2026-08-31T11:18:36Z</time>
      </trkpt>
      <trkpt lat="44.68097" lon="7.06904">
        <ele>2840.8</ele>
        <time>2026-08-31T11:18:41Z</time>
      </trkpt>
      <trkpt lat="44.68097" lon="7.06904">
        <ele>2840.8</ele>
        <time>2026-08-31T11:18:46Z</time>
      </trkpt>
      <trkpt lat="44.68097" lon="7.06904">
        <ele>2840.8</ele>
        <time>2026-08-31T11:18:52Z</time>
      </trkpt>
      <trkpt lat="44.68097" lon="7.06904">
        <ele>2840.8</ele>
        <time>2026-08-31T11:18:57Z</time>
      </trkpt>
      <trkpt lat="44.68095" lon="7.06907">
        <ele>2841.1</ele>
        <time>2026-08-31T11:19:02Z</time>
      </trkpt>
      <trkpt lat="44.68094" lon="7.06911">
        <ele>2840.5</ele>
        <time>2026-08-31T11:19:08Z</time>
      </trkpt>
      <trkpt lat="44.68093" lon="7.06913">
        <ele>2840.5</ele>
        <time>2026-08-31T11:19:13Z</time>
      </trkpt>
      <trkpt lat="44.68091" lon="7.06915">
        <ele>2840.9</ele>
        <time>2026-08-31T11:19:18Z</time>
      </trkpt>
      <trkpt lat="44.6809" lon="7.06918">
        <ele>2840.7</ele>
        <time>2026-08-31T11:19:24Z</time>
      </trkpt>
      <trkpt lat="44.68089" lon="7.06921">
        <ele>2840.9</ele>
        <time>2026-08-31T11:19:29Z</time>
      </trkpt>
      <trkpt lat="44.68089" lon="7.06921">
        <ele>2840.9</ele>
        <time>2026-08-31T11:19:34Z</time>
      </trkpt>
      <trkpt lat="44.68089" lon="7.06921">
        <ele>2840.9</ele>
        <time>2026-08-31T11:19:40Z</time>
      </trkpt>
      <trkpt lat="44.68089" lon="7.06921">
        <ele>2840.9</ele>
        <time>2026-08-31T11:19:45Z</time>
      </trkpt>
      <trkpt lat="44.68089" lon="7.06921">
        <ele>2840.9</ele>
        <time>2026-08-31T11:19:50Z</time>
      </trkpt>
      <trkpt lat="44.68089" lon="7.06921">
        <ele>2840.9</ele>
        <time>2026-08-31T11:19:56Z</time>
      </trkpt>
      <trkpt lat="44.68089" lon="7.06921">
        <ele>2840.9</ele>
        <time>2026-08-31T11:20:01Z</time>
      </trkpt>
      <trkpt lat="44.68089" lon="7.06921">
        <ele>2840.9</ele>
        <time>2026-08-31T11:20:06Z</time>
      </trkpt>
      <trkpt lat="44.68089" lon="7.06921">
        <ele>2840.9</ele>
        <time>2026-08-31T11:20:12Z</time>
      </trkpt>
      <trkpt lat="44.68089" lon="7.06921">
        <ele>2840.9</ele>
        <time>2026-08-31T11:20:17Z</time>
      </trkpt>
      <trkpt lat="44.68089" lon="7.06921">
        <ele>2840.9</ele>
        <time>2026-08-31T11:20:22Z</time>
      </trkpt>
      <trkpt lat="44.68089" lon="7.06921">
        <ele>2840.9</ele>
        <time>2026-08-31T11:20:28Z</time>
      </trkpt>
      <trkpt lat="44.68089" lon="7.06921">
        <ele>2840.9</ele>
        <time>2026-08-31T11:20:33Z</time>
      </trkpt>
      <trkpt lat="44.68089" lon="7.06921">
        <ele>2840.9</ele>
        <time>2026-08-31T11:20:38Z</time>
      </trkpt>
      <trkpt lat="44.68089" lon="7.06921">
        <ele>2840.9</ele>
        <time>2026-08-31T11:20:44Z</time>
      </trkpt>
      <trkpt lat="44.68089" lon="7.06921">
        <ele>2840.9</ele>
        <time>2026-08-31T11:20:49Z</time>
      </trkpt>
      <trkpt lat="44.6808" lon="7.06926">
        <ele>2842.3</ele>
        <time>2026-08-31T11:20:54Z</time>
      </trkpt>
      <trkpt lat="44.6808" lon="7.06926">
        <ele>2842.3</ele>
        <time>2026-08-31T11:21:00Z</time>
      </trkpt>
      <trkpt lat="44.6808" lon="7.06926">
        <ele>2842.3</ele>
        <time>2026-08-31T11:21:05Z</time>
      </trkpt>
      <trkpt lat="44.6808" lon="7.06926">
        <ele>2842.3</ele>
        <time>2026-08-31T11:21:10Z</time>
      </trkpt>
      <trkpt lat="44.6808" lon="7.06926">
        <ele>2842.3</ele>
        <time>2026-08-31T11:21:16Z</time>
      </trkpt>
      <trkpt lat="44.6808" lon="7.06926">
        <ele>2842.3</ele>
        <time>2026-08-31T11:21:21Z</time>
      </trkpt>
      <trkpt lat="44.6808" lon="7.06926">
        <ele>2842.3</ele>
        <time>2026-08-31T11:21:26Z</time>
      </trkpt>
      <trkpt lat="44.68074" lon="7.06935">
        <ele>2840.3</ele>
        <time>2026-08-31T11:21:32Z</time>
      </trkpt>
      <trkpt lat="44.68074" lon="7.06935">
        <ele>2840.3</ele>
        <time>2026-08-31T11:21:37Z</time>
      </trkpt>
      <trkpt lat="44.68074" lon="7.06935">
        <ele>2840.3</ele>
        <time>2026-08-31T11:21:42Z</time>
      </trkpt>
      <trkpt lat="44.68073" lon="7.06939">
        <ele>2839.7</ele>
        <time>2026-08-31T11:21:48Z</time>
      </trkpt>
      <trkpt lat="44.68073" lon="7.06939">
        <ele>2839.7</ele>
        <time>2026-08-31T11:21:53Z</time>
      </trkpt>
      <trkpt lat="44.68073" lon="7.06939">
        <ele>2839.7</ele>
        <time>2026-08-31T11:21:58Z</time>
      </trkpt>
      <trkpt lat="44.68073" lon="7.06939">
        <ele>2839.7</ele>
        <time>2026-08-31T11:22:04Z</time>
      </trkpt>
      <trkpt lat="44.6807" lon="7.06944">
        <ele>2838.8</ele>
        <time>2026-08-31T11:22:09Z</time>
      </trkpt>
      <trkpt lat="44.68069" lon="7.06944">
        <ele>2838.7</ele>
        <time>2026-08-31T11:22:14Z</time>
      </trkpt>
      <trkpt lat="44.68069" lon="7.06944">
        <ele>2838.7</ele>
        <time>2026-08-31T11:22:20Z</time>
      </trkpt>
      <trkpt lat="44.68069" lon="7.06944">
        <ele>2838.7</ele>
        <time>2026-08-31T11:22:25Z</time>
      </trkpt>
      <trkpt lat="44.68069" lon="7.06944">
        <ele>2838.7</ele>
        <time>2026-08-31T11:22:30Z</time>
      </trkpt>
      <trkpt lat="44.68069" lon="7.06944">
        <ele>2838.7</ele>
        <time>2026-08-31T11:22:36Z</time>
      </trkpt>
      <trkpt lat="44.68064" lon="7.06949">
        <ele>2837.6</ele>
        <time>2026-08-31T11:22:41Z</time>
      </trkpt>
      <trkpt lat="44.68064" lon="7.06949">
        <ele>2837.6</ele>
        <time>2026-08-31T11:22:46Z</time>
      </trkpt>
      <trkpt lat="44.68064" lon="7.06949">
        <ele>2837.6</ele>
        <time>2026-08-31T11:22:52Z</time>
      </trkpt>
      <trkpt lat="44.6806" lon="7.06953">
        <ele>2836.7</ele>
        <time>2026-08-31T11:22:57Z</time>
      </trkpt>
      <trkpt lat="44.68059" lon="7.06954">
        <ele>2836.6</ele>
        <time>2026-08-31T11:23:02Z</time>
      </trkpt>
      <trkpt lat="44.68056" lon="7.06956">
        <ele>2836.1</ele>
        <time>2026-08-31T11:23:08Z</time>
      </trkpt>
      <trkpt lat="44.68054" lon="7.06956">
        <ele>2835.9</ele>
        <time>2026-08-31T11:23:13Z</time>
      </trkpt>
      <trkpt lat="44.68054" lon="7.06955">
        <ele>2836</ele>
        <time>2026-08-31T11:23:18Z</time>
      </trkpt>
      <trkpt lat="44.68051" lon="7.06957">
        <ele>2835.5</ele>
        <time>2026-08-31T11:23:24Z</time>
      </trkpt>
      <trkpt lat="44.68049" lon="7.0696">
        <ele>2835.1</ele>
        <time>2026-08-31T11:23:29Z</time>
      </trkpt>
      <trkpt lat="44.68047" lon="7.06962">
        <ele>2834.8</ele>
        <time>2026-08-31T11:23:34Z</time>
      </trkpt>
      <trkpt lat="44.68045" lon="7.06966">
        <ele>2834.3</ele>
        <time>2026-08-31T11:23:40Z</time>
      </trkpt>
      <trkpt lat="44.68043" lon="7.0697">
        <ele>2833.9</ele>
        <time>2026-08-31T11:23:45Z</time>
      </trkpt>
      <trkpt lat="44.6804" lon="7.06973">
        <ele>2833.5</ele>
        <time>2026-08-31T11:23:50Z</time>
      </trkpt>
      <trkpt lat="44.68036" lon="7.06974">
        <ele>2833.2</ele>
        <time>2026-08-31T11:23:56Z</time>
      </trkpt>
      <trkpt lat="44.68034" lon="7.06974">
        <ele>2833</ele>
        <time>2026-08-31T11:24:01Z</time>
      </trkpt>
      <trkpt lat="44.68034" lon="7.06973">
        <ele>2833.1</ele>
        <time>2026-08-31T11:24:06Z</time>
      </trkpt>
      <trkpt lat="44.68034" lon="7.06973">
        <ele>2833.1</ele>
        <time>2026-08-31T11:24:12Z</time>
      </trkpt>
      <trkpt lat="44.68034" lon="7.06973">
        <ele>2833.1</ele>
        <time>2026-08-31T11:24:17Z</time>
      </trkpt>
      <trkpt lat="44.68034" lon="7.06973">
        <ele>2833.1</ele>
        <time>2026-08-31T11:24:22Z</time>
      </trkpt>
      <trkpt lat="44.68034" lon="7.06973">
        <ele>2833.1</ele>
        <time>2026-08-31T11:24:28Z</time>
      </trkpt>
      <trkpt lat="44.68028" lon="7.06976">
        <ele>2832.5</ele>
        <time>2026-08-31T11:24:33Z</time>
      </trkpt>
      <trkpt lat="44.68025" lon="7.06977">
        <ele>2832.3</ele>
        <time>2026-08-31T11:24:38Z</time>
      </trkpt>
      <trkpt lat="44.68023" lon="7.06981">
        <ele>2832.1</ele>
        <time>2026-08-31T11:24:44Z</time>
      </trkpt>
      <trkpt lat="44.68022" lon="7.06985">
        <ele>2831.9</ele>
        <time>2026-08-31T11:24:49Z</time>
      </trkpt>
      <trkpt lat="44.68022" lon="7.06991">
        <ele>2831.8</ele>
        <time>2026-08-31T11:24:54Z</time>
      </trkpt>
      <trkpt lat="44.68021" lon="7.06996">
        <ele>2831.6</ele>
        <time>2026-08-31T11:25:00Z</time>
      </trkpt>
      <trkpt lat="44.68018" lon="7.06995">
        <ele>2831.5</ele>
        <time>2026-08-31T11:25:05Z</time>
      </trkpt>
      <trkpt lat="44.68016" lon="7.06996">
        <ele>2831.4</ele>
        <time>2026-08-31T11:25:10Z</time>
      </trkpt>
      <trkpt lat="44.68013" lon="7.06998">
        <ele>2831.3</ele>
        <time>2026-08-31T11:25:16Z</time>
      </trkpt>
      <trkpt lat="44.68013" lon="7.06998">
        <ele>2831.3</ele>
        <time>2026-08-31T11:25:21Z</time>
      </trkpt>
      <trkpt lat="44.68013" lon="7.06998">
        <ele>2831.3</ele>
        <time>2026-08-31T11:25:26Z</time>
      </trkpt>
      <trkpt lat="44.68013" lon="7.06998">
        <ele>2831.3</ele>
        <time>2026-08-31T11:25:32Z</time>
      </trkpt>
      <trkpt lat="44.6801" lon="7.07003">
        <ele>2831.5</ele>
        <time>2026-08-31T11:25:37Z</time>
      </trkpt>
      <trkpt lat="44.68008" lon="7.07003">
        <ele>2831.5</ele>
        <time>2026-08-31T11:25:42Z</time>
      </trkpt>
      <trkpt lat="44.68004" lon="7.07004">
        <ele>2831.5</ele>
        <time>2026-08-31T11:25:48Z</time>
      </trkpt>
      <trkpt lat="44.68001" lon="7.07008">
        <ele>2831.9</ele>
        <time>2026-08-31T11:25:53Z</time>
      </trkpt>
      <trkpt lat="44.67996" lon="7.0701">
        <ele>2830.9</ele>
        <time>2026-08-31T11:25:58Z</time>
      </trkpt>
      <trkpt lat="44.67991" lon="7.0701">
        <ele>2829.5</ele>
        <time>2026-08-31T11:26:04Z</time>
      </trkpt>
      <trkpt lat="44.67988" lon="7.07013">
        <ele>2829.1</ele>
        <time>2026-08-31T11:26:09Z</time>
      </trkpt>
      <trkpt lat="44.67985" lon="7.07016">
        <ele>2828.6</ele>
        <time>2026-08-31T11:26:14Z</time>
      </trkpt>
      <trkpt lat="44.67983" lon="7.0702">
        <ele>2828.6</ele>
        <time>2026-08-31T11:26:20Z</time>
      </trkpt>
      <trkpt lat="44.6798" lon="7.0702">
        <ele>2827.8</ele>
        <time>2026-08-31T11:26:25Z</time>
      </trkpt>
      <trkpt lat="44.67977" lon="7.07021">
        <ele>2827.1</ele>
        <time>2026-08-31T11:26:30Z</time>
      </trkpt>
      <trkpt lat="44.67977" lon="7.07022">
        <ele>2827.3</ele>
        <time>2026-08-31T11:26:36Z</time>
      </trkpt>
      <trkpt lat="44.67977" lon="7.07022">
        <ele>2827.3</ele>
        <time>2026-08-31T11:26:41Z</time>
      </trkpt>
      <trkpt lat="44.67977" lon="7.07022">
        <ele>2827.3</ele>
        <time>2026-08-31T11:26:46Z</time>
      </trkpt>
      <trkpt lat="44.67977" lon="7.07022">
        <ele>2827.3</ele>
        <time>2026-08-31T11:26:52Z</time>
      </trkpt>
      <trkpt lat="44.67977" lon="7.07022">
        <ele>2827.3</ele>
        <time>2026-08-31T11:26:57Z</time>
      </trkpt>
      <trkpt lat="44.67977" lon="7.07022">
        <ele>2827.3</ele>
        <time>2026-08-31T11:27:02Z</time>
      </trkpt>
      <trkpt lat="44.67977" lon="7.07022">
        <ele>2827.3</ele>
        <time>2026-08-31T11:27:08Z</time>
      </trkpt>
      <trkpt lat="44.67977" lon="7.07022">
        <ele>2827.3</ele>
        <time>2026-08-31T11:27:13Z</time>
      </trkpt>
      <trkpt lat="44.67977" lon="7.07022">
        <ele>2827.3</ele>
        <time>2026-08-31T11:27:18Z</time>
      </trkpt>
      <trkpt lat="44.67977" lon="7.07022">
        <ele>2827.3</ele>
        <time>2026-08-31T11:27:24Z</time>
      </trkpt>
      <trkpt lat="44.67977" lon="7.07022">
        <ele>2827.3</ele>
        <time>2026-08-31T11:27:29Z</time>
      </trkpt>
      <trkpt lat="44.67977" lon="7.07022">
        <ele>2827.3</ele>
        <time>2026-08-31T11:27:34Z</time>
      </trkpt>
      <trkpt lat="44.67977" lon="7.07022">
        <ele>2827.3</ele>
        <time>2026-08-31T11:27:40Z</time>
      </trkpt>
      <trkpt lat="44.67977" lon="7.07022">
        <ele>2827.3</ele>
        <time>2026-08-31T11:27:45Z</time>
      </trkpt>
      <trkpt lat="44.67977" lon="7.07022">
        <ele>2827.3</ele>
        <time>2026-08-31T11:27:50Z</time>
      </trkpt>
      <trkpt lat="44.67977" lon="7.07022">
        <ele>2827.3</ele>
        <time>2026-08-31T11:27:56Z</time>
      </trkpt>
      <trkpt lat="44.67973" lon="7.07021">
        <ele>2826.1</ele>
        <time>2026-08-31T11:28:01Z</time>
      </trkpt>
      <trkpt lat="44.67973" lon="7.07021">
        <ele>2826.1</ele>
        <time>2026-08-31T11:28:06Z</time>
      </trkpt>
      <trkpt lat="44.67973" lon="7.07021">
        <ele>2826.1</ele>
        <time>2026-08-31T11:28:12Z</time>
      </trkpt>
      <trkpt lat="44.67973" lon="7.07021">
        <ele>2826.1</ele>
        <time>2026-08-31T11:28:17Z</time>
      </trkpt>
      <trkpt lat="44.67973" lon="7.07021">
        <ele>2826.1</ele>
        <time>2026-08-31T11:28:22Z</time>
      </trkpt>
      <trkpt lat="44.67973" lon="7.07021">
        <ele>2826.1</ele>
        <time>2026-08-31T11:28:28Z</time>
      </trkpt>
      <trkpt lat="44.67973" lon="7.07021">
        <ele>2826.1</ele>
        <time>2026-08-31T11:28:33Z</time>
      </trkpt>
      <trkpt lat="44.67973" lon="7.07021">
        <ele>2826.1</ele>
        <time>2026-08-31T11:28:38Z</time>
      </trkpt>
      <trkpt lat="44.67973" lon="7.07021">
        <ele>2826.1</ele>
        <time>2026-08-31T11:28:44Z</time>
      </trkpt>
      <trkpt lat="44.67973" lon="7.07021">
        <ele>2826.1</ele>
        <time>2026-08-31T11:28:49Z</time>
      </trkpt>
      <trkpt lat="44.67973" lon="7.07021">
        <ele>2826.1</ele>
        <time>2026-08-31T11:28:54Z</time>
      </trkpt>
      <trkpt lat="44.67973" lon="7.07021">
        <ele>2826.1</ele>
        <time>2026-08-31T11:29:00Z</time>
      </trkpt>
      <trkpt lat="44.67973" lon="7.07021">
        <ele>2826.1</ele>
        <time>2026-08-31T11:29:05Z</time>
      </trkpt>
      <trkpt lat="44.67973" lon="7.07021">
        <ele>2826.1</ele>
        <time>2026-08-31T11:29:10Z</time>
      </trkpt>
      <trkpt lat="44.67973" lon="7.07021">
        <ele>2826.1</ele>
        <time>2026-08-31T11:29:16Z</time>
      </trkpt>
      <trkpt lat="44.67973" lon="7.07021">
        <ele>2826.1</ele>
        <time>2026-08-31T11:29:21Z</time>
      </trkpt>
      <trkpt lat="44.67973" lon="7.07021">
        <ele>2826.1</ele>
        <time>2026-08-31T11:29:26Z</time>
      </trkpt>
      <trkpt lat="44.67973" lon="7.07021">
        <ele>2826.1</ele>
        <time>2026-08-31T11:29:32Z</time>
      </trkpt>
      <trkpt lat="44.67973" lon="7.07021">
        <ele>2826.1</ele>
        <time>2026-08-31T11:29:37Z</time>
      </trkpt>
      <trkpt lat="44.67973" lon="7.07021">
        <ele>2826.1</ele>
        <time>2026-08-31T11:29:42Z</time>
      </trkpt>
      <trkpt lat="44.67973" lon="7.07021">
        <ele>2826.1</ele>
        <time>2026-08-31T11:29:48Z</time>
      </trkpt>
      <trkpt lat="44.67973" lon="7.07021">
        <ele>2826.1</ele>
        <time>2026-08-31T11:29:53Z</time>
      </trkpt>
      <trkpt lat="44.67973" lon="7.07021">
        <ele>2826.1</ele>
        <time>2026-08-31T11:29:58Z</time>
      </trkpt>
      <trkpt lat="44.67973" lon="7.07021">
        <ele>2826.1</ele>
        <time>2026-08-31T11:30:04Z</time>
      </trkpt>
      <trkpt lat="44.67973" lon="7.07021">
        <ele>2826.1</ele>
        <time>2026-08-31T11:30:09Z</time>
      </trkpt>
      <trkpt lat="44.67973" lon="7.07021">
        <ele>2826.1</ele>
        <time>2026-08-31T11:30:14Z</time>
      </trkpt>
      <trkpt lat="44.67973" lon="7.07021">
        <ele>2826.1</ele>
        <time>2026-08-31T11:30:20Z</time>
      </trkpt>
      <trkpt lat="44.67973" lon="7.07021">
        <ele>2826.1</ele>
        <time>2026-08-31T11:30:25Z</time>
      </trkpt>
      <trkpt lat="44.67973" lon="7.07021">
        <ele>2826.1</ele>
        <time>2026-08-31T11:30:30Z</time>
      </trkpt>
      <trkpt lat="44.67973" lon="7.07021">
        <ele>2826.1</ele>
        <time>2026-08-31T11:30:36Z</time>
      </trkpt>
      <trkpt lat="44.67973" lon="7.07021">
        <ele>2826.1</ele>
        <time>2026-08-31T11:30:41Z</time>
      </trkpt>
      <trkpt lat="44.67973" lon="7.07021">
        <ele>2826.1</ele>
        <time>2026-08-31T11:30:46Z</time>
      </trkpt>
      <trkpt lat="44.67973" lon="7.07021">
        <ele>2826.1</ele>
        <time>2026-08-31T11:30:52Z</time>
      </trkpt>
      <trkpt lat="44.67973" lon="7.07021">
        <ele>2826.1</ele>
        <time>2026-08-31T11:30:57Z</time>
      </trkpt>
      <trkpt lat="44.67973" lon="7.07021">
        <ele>2826.1</ele>
        <time>2026-08-31T11:31:02Z</time>
      </trkpt>
      <trkpt lat="44.67973" lon="7.07021">
        <ele>2826.1</ele>
        <time>2026-08-31T11:31:08Z</time>
      </trkpt>
      <trkpt lat="44.67973" lon="7.07021">
        <ele>2826.1</ele>
        <time>2026-08-31T11:31:13Z</time>
      </trkpt>
      <trkpt lat="44.67973" lon="7.07021">
        <ele>2826.1</ele>
        <time>2026-08-31T11:31:18Z</time>
      </trkpt>
      <trkpt lat="44.67973" lon="7.07021">
        <ele>2826.1</ele>
        <time>2026-08-31T11:31:24Z</time>
      </trkpt>
      <trkpt lat="44.67973" lon="7.07021">
        <ele>2826.1</ele>
        <time>2026-08-31T11:31:29Z</time>
      </trkpt>
      <trkpt lat="44.67973" lon="7.07021">
        <ele>2826.1</ele>
        <time>2026-08-31T11:31:34Z</time>
      </trkpt>
      <trkpt lat="44.67973" lon="7.07021">
        <ele>2826.1</ele>
        <time>2026-08-31T11:31:40Z</time>
      </trkpt>
      <trkpt lat="44.67973" lon="7.07021">
        <ele>2826.1</ele>
        <time>2026-08-31T11:31:45Z</time>
      </trkpt>
      <trkpt lat="44.67973" lon="7.07021">
        <ele>2826.1</ele>
        <time>2026-08-31T11:31:50Z</time>
      </trkpt>
      <trkpt lat="44.67973" lon="7.07021">
        <ele>2826.1</ele>
        <time>2026-08-31T11:31:56Z</time>
      </trkpt>
      <trkpt lat="44.67973" lon="7.07021">
        <ele>2826.1</ele>
        <time>2026-08-31T11:32:01Z</time>
      </trkpt>
      <trkpt lat="44.67973" lon="7.07021">
        <ele>2826.1</ele>
        <time>2026-08-31T11:32:06Z</time>
      </trkpt>
      <trkpt lat="44.67973" lon="7.07021">
        <ele>2826.1</ele>
        <time>2026-08-31T11:32:12Z</time>
      </trkpt>
      <trkpt lat="44.67973" lon="7.07021">
        <ele>2826.1</ele>
        <time>2026-08-31T11:32:17Z</time>
      </trkpt>
      <trkpt lat="44.67973" lon="7.07021">
        <ele>2826.1</ele>
        <time>2026-08-31T11:32:22Z</time>
      </trkpt>
      <trkpt lat="44.67973" lon="7.07021">
        <ele>2826.1</ele>
        <time>2026-08-31T11:32:28Z</time>
      </trkpt>
      <trkpt lat="44.67973" lon="7.07021">
        <ele>2826.1</ele>
        <time>2026-08-31T11:32:33Z</time>
      </trkpt>
      <trkpt lat="44.67973" lon="7.07021">
        <ele>2826.1</ele>
        <time>2026-08-31T11:32:38Z</time>
      </trkpt>
      <trkpt lat="44.67973" lon="7.07021">
        <ele>2826.1</ele>
        <time>2026-08-31T11:32:44Z</time>
      </trkpt>
      <trkpt lat="44.67973" lon="7.07021">
        <ele>2826.1</ele>
        <time>2026-08-31T11:32:49Z</time>
      </trkpt>
      <trkpt lat="44.67973" lon="7.07021">
        <ele>2826.1</ele>
        <time>2026-08-31T11:32:54Z</time>
      </trkpt>
      <trkpt lat="44.67973" lon="7.07021">
        <ele>2826.1</ele>
        <time>2026-08-31T11:33:00Z</time>
      </trkpt>
      <trkpt lat="44.67973" lon="7.07021">
        <ele>2826.1</ele>
        <time>2026-08-31T11:33:05Z</time>
      </trkpt>
      <trkpt lat="44.67973" lon="7.07021">
        <ele>2826.1</ele>
        <time>2026-08-31T11:33:10Z</time>
      </trkpt>
      <trkpt lat="44.67973" lon="7.07021">
        <ele>2826.1</ele>
        <time>2026-08-31T11:33:16Z</time>
      </trkpt>
      <trkpt lat="44.67973" lon="7.07021">
        <ele>2826.1</ele>
        <time>2026-08-31T11:33:21Z</time>
      </trkpt>
      <trkpt lat="44.67973" lon="7.07021">
        <ele>2826.1</ele>
        <time>2026-08-31T11:33:26Z</time>
      </trkpt>
      <trkpt lat="44.67973" lon="7.07021">
        <ele>2826.1</ele>
        <time>2026-08-31T11:33:32Z</time>
      </trkpt>
      <trkpt lat="44.67973" lon="7.07021">
        <ele>2826.1</ele>
        <time>2026-08-31T11:33:37Z</time>
      </trkpt>
      <trkpt lat="44.67973" lon="7.07021">
        <ele>2826.1</ele>
        <time>2026-08-31T11:33:42Z</time>
      </trkpt>
      <trkpt lat="44.67973" lon="7.07021">
        <ele>2826.1</ele>
        <time>2026-08-31T11:33:48Z</time>
      </trkpt>
      <trkpt lat="44.67973" lon="7.07021">
        <ele>2826.1</ele>
        <time>2026-08-31T11:33:53Z</time>
      </trkpt>
      <trkpt lat="44.67973" lon="7.07021">
        <ele>2826.1</ele>
        <time>2026-08-31T11:33:58Z</time>
      </trkpt>
      <trkpt lat="44.67973" lon="7.07021">
        <ele>2826.1</ele>
        <time>2026-08-31T11:34:04Z</time>
      </trkpt>
      <trkpt lat="44.67973" lon="7.07021">
        <ele>2826.1</ele>
        <time>2026-08-31T11:34:09Z</time>
      </trkpt>
      <trkpt lat="44.67973" lon="7.07021">
        <ele>2826.1</ele>
        <time>2026-08-31T11:34:14Z</time>
      </trkpt>
      <trkpt lat="44.67973" lon="7.07021">
        <ele>2826.1</ele>
        <time>2026-08-31T11:34:20Z</time>
      </trkpt>
      <trkpt lat="44.67973" lon="7.07021">
        <ele>2826.1</ele>
        <time>2026-08-31T11:34:25Z</time>
      </trkpt>
      <trkpt lat="44.67973" lon="7.07021">
        <ele>2826.1</ele>
        <time>2026-08-31T11:34:30Z</time>
      </trkpt>
      <trkpt lat="44.67973" lon="7.07021">
        <ele>2826.1</ele>
        <time>2026-08-31T11:34:36Z</time>
      </trkpt>
      <trkpt lat="44.67973" lon="7.07021">
        <ele>2826.1</ele>
        <time>2026-08-31T11:34:41Z</time>
      </trkpt>
      <trkpt lat="44.67973" lon="7.07021">
        <ele>2826.1</ele>
        <time>2026-08-31T11:34:46Z</time>
      </trkpt>
      <trkpt lat="44.67966" lon="7.07009">
        <ele>2822.3</ele>
        <time>2026-08-31T11:34:52Z</time>
      </trkpt>
      <trkpt lat="44.67962" lon="7.07006">
        <ele>2820.6</ele>
        <time>2026-08-31T11:34:57Z</time>
      </trkpt>
      <trkpt lat="44.67956" lon="7.07006">
        <ele>2818.9</ele>
        <time>2026-08-31T11:35:02Z</time>
      </trkpt>
      <trkpt lat="44.67954" lon="7.07">
        <ele>2817.2</ele>
        <time>2026-08-31T11:35:08Z</time>
      </trkpt>
      <trkpt lat="44.67952" lon="7.06993">
        <ele>2815.8</ele>
        <time>2026-08-31T11:35:13Z</time>
      </trkpt>
      <trkpt lat="44.67949" lon="7.06985">
        <ele>2813.9</ele>
        <time>2026-08-31T11:35:18Z</time>
      </trkpt>
      <trkpt lat="44.67947" lon="7.06979">
        <ele>2812.4</ele>
        <time>2026-08-31T11:35:24Z</time>
      </trkpt>
      <trkpt lat="44.67943" lon="7.06974">
        <ele>2810.4</ele>
        <time>2026-08-31T11:35:29Z</time>
      </trkpt>
      <trkpt lat="44.67939" lon="7.06969">
        <ele>2808.2</ele>
        <time>2026-08-31T11:35:34Z</time>
      </trkpt>
      <trkpt lat="44.67935" lon="7.06964">
        <ele>2806</ele>
        <time>2026-08-31T11:35:40Z</time>
      </trkpt>
      <trkpt lat="44.6793" lon="7.06961">
        <ele>2803.6</ele>
        <time>2026-08-31T11:35:45Z</time>
      </trkpt>
      <trkpt lat="44.67928" lon="7.06955">
        <ele>2801.9</ele>
        <time>2026-08-31T11:35:50Z</time>
      </trkpt>
      <trkpt lat="44.67925" lon="7.06949">
        <ele>2799.6</ele>
        <time>2026-08-31T11:35:56Z</time>
      </trkpt>
      <trkpt lat="44.67924" lon="7.06946">
        <ele>2798.7</ele>
        <time>2026-08-31T11:36:01Z</time>
      </trkpt>
      <trkpt lat="44.67924" lon="7.06945">
        <ele>2798.5</ele>
        <time>2026-08-31T11:36:06Z</time>
      </trkpt>
      <trkpt lat="44.67923" lon="7.06945">
        <ele>2798.1</ele>
        <time>2026-08-31T11:36:12Z</time>
      </trkpt>
      <trkpt lat="44.67923" lon="7.06945">
        <ele>2798.1</ele>
        <time>2026-08-31T11:36:17Z</time>
      </trkpt>
      <trkpt lat="44.67923" lon="7.06945">
        <ele>2798.1</ele>
        <time>2026-08-31T11:36:22Z</time>
      </trkpt>
      <trkpt lat="44.67923" lon="7.06945">
        <ele>2798.1</ele>
        <time>2026-08-31T11:36:28Z</time>
      </trkpt>
      <trkpt lat="44.67922" lon="7.0694">
        <ele>2796.8</ele>
        <time>2026-08-31T11:36:33Z</time>
      </trkpt>
      <trkpt lat="44.67919" lon="7.06933">
        <ele>2794.2</ele>
        <time>2026-08-31T11:36:38Z</time>
      </trkpt>
      <trkpt lat="44.67914" lon="7.06928">
        <ele>2791.5</ele>
        <time>2026-08-31T11:36:44Z</time>
      </trkpt>
      <trkpt lat="44.67913" lon="7.06927">
        <ele>2791</ele>
        <time>2026-08-31T11:36:49Z</time>
      </trkpt>
      <trkpt lat="44.67913" lon="7.06926">
        <ele>2790.8</ele>
        <time>2026-08-31T11:36:54Z</time>
      </trkpt>
      <trkpt lat="44.67913" lon="7.06926">
        <ele>2790.8</ele>
        <time>2026-08-31T11:37:00Z</time>
      </trkpt>
      <trkpt lat="44.67913" lon="7.06926">
        <ele>2790.8</ele>
        <time>2026-08-31T11:37:05Z</time>
      </trkpt>
      <trkpt lat="44.67913" lon="7.06926">
        <ele>2790.8</ele>
        <time>2026-08-31T11:37:10Z</time>
      </trkpt>
      <trkpt lat="44.67913" lon="7.06926">
        <ele>2790.8</ele>
        <time>2026-08-31T11:37:16Z</time>
      </trkpt>
      <trkpt lat="44.67913" lon="7.06926">
        <ele>2790.8</ele>
        <time>2026-08-31T11:37:21Z</time>
      </trkpt>
      <trkpt lat="44.67913" lon="7.06926">
        <ele>2790.8</ele>
        <time>2026-08-31T11:37:26Z</time>
      </trkpt>
      <trkpt lat="44.67913" lon="7.06926">
        <ele>2790.8</ele>
        <time>2026-08-31T11:37:32Z</time>
      </trkpt>
      <trkpt lat="44.67913" lon="7.06926">
        <ele>2790.8</ele>
        <time>2026-08-31T11:37:37Z</time>
      </trkpt>
      <trkpt lat="44.67909" lon="7.06915">
        <ele>2788.3</ele>
        <time>2026-08-31T11:37:42Z</time>
      </trkpt>
      <trkpt lat="44.67909" lon="7.06915">
        <ele>2788.3</ele>
        <time>2026-08-31T11:37:48Z</time>
      </trkpt>
      <trkpt lat="44.6791" lon="7.06911">
        <ele>2789.1</ele>
        <time>2026-08-31T11:37:53Z</time>
      </trkpt>
      <trkpt lat="44.67909" lon="7.06906">
        <ele>2789.5</ele>
        <time>2026-08-31T11:37:58Z</time>
      </trkpt>
      <trkpt lat="44.67906" lon="7.06901">
        <ele>2789.4</ele>
        <time>2026-08-31T11:38:04Z</time>
      </trkpt>
      <trkpt lat="44.67906" lon="7.069">
        <ele>2789.6</ele>
        <time>2026-08-31T11:38:09Z</time>
      </trkpt>
      <trkpt lat="44.67905" lon="7.069">
        <ele>2789.3</ele>
        <time>2026-08-31T11:38:14Z</time>
      </trkpt>
      <trkpt lat="44.67901" lon="7.06895">
        <ele>2789</ele>
        <time>2026-08-31T11:38:20Z</time>
      </trkpt>
      <trkpt lat="44.679" lon="7.06894">
        <ele>2788.9</ele>
        <time>2026-08-31T11:38:25Z</time>
      </trkpt>
      <trkpt lat="44.67899" lon="7.06894">
        <ele>2788.7</ele>
        <time>2026-08-31T11:38:30Z</time>
      </trkpt>
      <trkpt lat="44.67898" lon="7.06892">
        <ele>2788.7</ele>
        <time>2026-08-31T11:38:36Z</time>
      </trkpt>
      <trkpt lat="44.67898" lon="7.06889">
        <ele>2789.1</ele>
        <time>2026-08-31T11:38:41Z</time>
      </trkpt>
      <trkpt lat="44.67895" lon="7.06886">
        <ele>2788.8</ele>
        <time>2026-08-31T11:38:46Z</time>
      </trkpt>
      <trkpt lat="44.67894" lon="7.06883">
        <ele>2789</ele>
        <time>2026-08-31T11:38:52Z</time>
      </trkpt>
      <trkpt lat="44.67894" lon="7.06883">
        <ele>2789</ele>
        <time>2026-08-31T11:38:57Z</time>
      </trkpt>
      <trkpt lat="44.67893" lon="7.06877">
        <ele>2789.5</ele>
        <time>2026-08-31T11:39:02Z</time>
      </trkpt>
      <trkpt lat="44.6789" lon="7.06871">
        <ele>2789.7</ele>
        <time>2026-08-31T11:39:08Z</time>
      </trkpt>
      <trkpt lat="44.67888" lon="7.06869">
        <ele>2789.5</ele>
        <time>2026-08-31T11:39:13Z</time>
      </trkpt>
      <trkpt lat="44.67885" lon="7.06866">
        <ele>2789.2</ele>
        <time>2026-08-31T11:39:18Z</time>
      </trkpt>
      <trkpt lat="44.67884" lon="7.06866">
        <ele>2788.9</ele>
        <time>2026-08-31T11:39:24Z</time>
      </trkpt>
      <trkpt lat="44.67883" lon="7.06862">
        <ele>2789.3</ele>
        <time>2026-08-31T11:39:29Z</time>
      </trkpt>
      <trkpt lat="44.6788" lon="7.06859">
        <ele>2789</ele>
        <time>2026-08-31T11:39:34Z</time>
      </trkpt>
      <trkpt lat="44.67879" lon="7.06854">
        <ele>2789.5</ele>
        <time>2026-08-31T11:39:40Z</time>
      </trkpt>
      <trkpt lat="44.67876" lon="7.06851">
        <ele>2789.2</ele>
        <time>2026-08-31T11:39:45Z</time>
      </trkpt>
      <trkpt lat="44.67874" lon="7.06849">
        <ele>2789</ele>
        <time>2026-08-31T11:39:50Z</time>
      </trkpt>
      <trkpt lat="44.67873" lon="7.06846">
        <ele>2789.2</ele>
        <time>2026-08-31T11:39:56Z</time>
      </trkpt>
      <trkpt lat="44.67873" lon="7.06846">
        <ele>2789.2</ele>
        <time>2026-08-31T11:40:01Z</time>
      </trkpt>
      <trkpt lat="44.6787" lon="7.06844">
        <ele>2788.8</ele>
        <time>2026-08-31T11:40:06Z</time>
      </trkpt>
      <trkpt lat="44.67869" lon="7.06838">
        <ele>2789.5</ele>
        <time>2026-08-31T11:40:12Z</time>
      </trkpt>
      <trkpt lat="44.67867" lon="7.06835">
        <ele>2789.4</ele>
        <time>2026-08-31T11:40:17Z</time>
      </trkpt>
      <trkpt lat="44.67864" lon="7.06835">
        <ele>2788.7</ele>
        <time>2026-08-31T11:40:22Z</time>
      </trkpt>
      <trkpt lat="44.67859" lon="7.06836">
        <ele>2787.5</ele>
        <time>2026-08-31T11:40:28Z</time>
      </trkpt>
      <trkpt lat="44.67859" lon="7.06834">
        <ele>2787.8</ele>
        <time>2026-08-31T11:40:33Z</time>
      </trkpt>
      <trkpt lat="44.67859" lon="7.06834">
        <ele>2787.8</ele>
        <time>2026-08-31T11:40:38Z</time>
      </trkpt>
      <trkpt lat="44.67859" lon="7.06834">
        <ele>2787.8</ele>
        <time>2026-08-31T11:40:44Z</time>
      </trkpt>
      <trkpt lat="44.67859" lon="7.06834">
        <ele>2787.8</ele>
        <time>2026-08-31T11:40:49Z</time>
      </trkpt>
      <trkpt lat="44.67859" lon="7.06834">
        <ele>2787.8</ele>
        <time>2026-08-31T11:40:54Z</time>
      </trkpt>
      <trkpt lat="44.67859" lon="7.06834">
        <ele>2787.8</ele>
        <time>2026-08-31T11:41:00Z</time>
      </trkpt>
      <trkpt lat="44.67855" lon="7.06831">
        <ele>2787.1</ele>
        <time>2026-08-31T11:41:05Z</time>
      </trkpt>
      <trkpt lat="44.67852" lon="7.06831">
        <ele>2786.4</ele>
        <time>2026-08-31T11:41:10Z</time>
      </trkpt>
      <trkpt lat="44.67848" lon="7.06832">
        <ele>2785.4</ele>
        <time>2026-08-31T11:41:16Z</time>
      </trkpt>
      <trkpt lat="44.67846" lon="7.06831">
        <ele>2785</ele>
        <time>2026-08-31T11:41:21Z</time>
      </trkpt>
      <trkpt lat="44.67842" lon="7.0683">
        <ele>2784.1</ele>
        <time>2026-08-31T11:41:26Z</time>
      </trkpt>
      <trkpt lat="44.67838" lon="7.06829">
        <ele>2783.3</ele>
        <time>2026-08-31T11:41:32Z</time>
      </trkpt>
      <trkpt lat="44.67832" lon="7.06829">
        <ele>2781.9</ele>
        <time>2026-08-31T11:41:37Z</time>
      </trkpt>
      <trkpt lat="44.67825" lon="7.06831">
        <ele>2780</ele>
        <time>2026-08-31T11:41:42Z</time>
      </trkpt>
      <trkpt lat="44.6782" lon="7.0683">
        <ele>2778.9</ele>
        <time>2026-08-31T11:41:48Z</time>
      </trkpt>
      <trkpt lat="44.67814" lon="7.0683">
        <ele>2777.4</ele>
        <time>2026-08-31T11:41:53Z</time>
      </trkpt>
      <trkpt lat="44.67811" lon="7.06829">
        <ele>2776.7</ele>
        <time>2026-08-31T11:41:58Z</time>
      </trkpt>
      <trkpt lat="44.67806" lon="7.06827">
        <ele>2775.6</ele>
        <time>2026-08-31T11:42:04Z</time>
      </trkpt>
      <trkpt lat="44.67799" lon="7.06828">
        <ele>2773.8</ele>
        <time>2026-08-31T11:42:09Z</time>
      </trkpt>
      <trkpt lat="44.67793" lon="7.06827">
        <ele>2772.4</ele>
        <time>2026-08-31T11:42:14Z</time>
      </trkpt>
      <trkpt lat="44.67788" lon="7.06827">
        <ele>2771.2</ele>
        <time>2026-08-31T11:42:20Z</time>
      </trkpt>
      <trkpt lat="44.67783" lon="7.06829">
        <ele>2769.8</ele>
        <time>2026-08-31T11:42:25Z</time>
      </trkpt>
      <trkpt lat="44.67776" lon="7.06828">
        <ele>2768.2</ele>
        <time>2026-08-31T11:42:30Z</time>
      </trkpt>
      <trkpt lat="44.67771" lon="7.06825">
        <ele>2767.3</ele>
        <time>2026-08-31T11:42:36Z</time>
      </trkpt>
      <trkpt lat="44.67767" lon="7.06822">
        <ele>2766.7</ele>
        <time>2026-08-31T11:42:41Z</time>
      </trkpt>
      <trkpt lat="44.67762" lon="7.06818">
        <ele>2766</ele>
        <time>2026-08-31T11:42:46Z</time>
      </trkpt>
      <trkpt lat="44.67759" lon="7.06816">
        <ele>2765.6</ele>
        <time>2026-08-31T11:42:52Z</time>
      </trkpt>
      <trkpt lat="44.67757" lon="7.06816">
        <ele>2765.1</ele>
        <time>2026-08-31T11:42:57Z</time>
      </trkpt>
      <trkpt lat="44.67757" lon="7.06816">
        <ele>2765.1</ele>
        <time>2026-08-31T11:43:02Z</time>
      </trkpt>
      <trkpt lat="44.67753" lon="7.06819">
        <ele>2763.8</ele>
        <time>2026-08-31T11:43:08Z</time>
      </trkpt>
      <trkpt lat="44.67753" lon="7.06819">
        <ele>2763.8</ele>
        <time>2026-08-31T11:43:13Z</time>
      </trkpt>
      <trkpt lat="44.67753" lon="7.06819">
        <ele>2763.8</ele>
        <time>2026-08-31T11:43:18Z</time>
      </trkpt>
      <trkpt lat="44.67753" lon="7.06819">
        <ele>2763.8</ele>
        <time>2026-08-31T11:43:24Z</time>
      </trkpt>
      <trkpt lat="44.67753" lon="7.06819">
        <ele>2763.8</ele>
        <time>2026-08-31T11:43:29Z</time>
      </trkpt>
      <trkpt lat="44.67753" lon="7.06819">
        <ele>2763.8</ele>
        <time>2026-08-31T11:43:34Z</time>
      </trkpt>
      <trkpt lat="44.67753" lon="7.06819">
        <ele>2763.8</ele>
        <time>2026-08-31T11:43:40Z</time>
      </trkpt>
      <trkpt lat="44.67753" lon="7.06819">
        <ele>2763.8</ele>
        <time>2026-08-31T11:43:45Z</time>
      </trkpt>
      <trkpt lat="44.67749" lon="7.06818">
        <ele>2762.9</ele>
        <time>2026-08-31T11:43:50Z</time>
      </trkpt>
      <trkpt lat="44.67746" lon="7.06817">
        <ele>2762</ele>
        <time>2026-08-31T11:43:56Z</time>
      </trkpt>
      <trkpt lat="44.6774" lon="7.06817">
        <ele>2760</ele>
        <time>2026-08-31T11:44:01Z</time>
      </trkpt>
      <trkpt lat="44.67737" lon="7.06818">
        <ele>2758.9</ele>
        <time>2026-08-31T11:44:06Z</time>
      </trkpt>
      <trkpt lat="44.67732" lon="7.06819">
        <ele>2757</ele>
        <time>2026-08-31T11:44:12Z</time>
      </trkpt>
      <trkpt lat="44.67728" lon="7.06819">
        <ele>2755.7</ele>
        <time>2026-08-31T11:44:17Z</time>
      </trkpt>
      <trkpt lat="44.67724" lon="7.06819">
        <ele>2754.3</ele>
        <time>2026-08-31T11:44:22Z</time>
      </trkpt>
      <trkpt lat="44.6772" lon="7.06818">
        <ele>2753.2</ele>
        <time>2026-08-31T11:44:28Z</time>
      </trkpt>
      <trkpt lat="44.67718" lon="7.06818">
        <ele>2752.5</ele>
        <time>2026-08-31T11:44:33Z</time>
      </trkpt>
      <trkpt lat="44.67713" lon="7.06819">
        <ele>2750.7</ele>
        <time>2026-08-31T11:44:38Z</time>
      </trkpt>
      <trkpt lat="44.67709" lon="7.06817">
        <ele>2749.7</ele>
        <time>2026-08-31T11:44:44Z</time>
      </trkpt>
      <trkpt lat="44.67705" lon="7.06817">
        <ele>2748.4</ele>
        <time>2026-08-31T11:44:49Z</time>
      </trkpt>
      <trkpt lat="44.67703" lon="7.06817">
        <ele>2747.8</ele>
        <time>2026-08-31T11:44:54Z</time>
      </trkpt>
      <trkpt lat="44.67701" lon="7.06815">
        <ele>2747.6</ele>
        <time>2026-08-31T11:45:00Z</time>
      </trkpt>
      <trkpt lat="44.67696" lon="7.06819">
        <ele>2745</ele>
        <time>2026-08-31T11:45:05Z</time>
      </trkpt>
      <trkpt lat="44.67693" lon="7.0682">
        <ele>2743.7</ele>
        <time>2026-08-31T11:45:10Z</time>
      </trkpt>
      <trkpt lat="44.6769" lon="7.06821">
        <ele>2742.5</ele>
        <time>2026-08-31T11:45:16Z</time>
      </trkpt>
      <trkpt lat="44.67688" lon="7.06821">
        <ele>2741.8</ele>
        <time>2026-08-31T11:45:21Z</time>
      </trkpt>
      <trkpt lat="44.67684" lon="7.06819">
        <ele>2740.9</ele>
        <time>2026-08-31T11:45:26Z</time>
      </trkpt>
      <trkpt lat="44.67679" lon="7.06822">
        <ele>2738.5</ele>
        <time>2026-08-31T11:45:32Z</time>
      </trkpt>
      <trkpt lat="44.67675" lon="7.06824">
        <ele>2736.6</ele>
        <time>2026-08-31T11:45:37Z</time>
      </trkpt>
      <trkpt lat="44.67671" lon="7.06826">
        <ele>2734.6</ele>
        <time>2026-08-31T11:45:42Z</time>
      </trkpt>
      <trkpt lat="44.67666" lon="7.06828">
        <ele>2732.3</ele>
        <time>2026-08-31T11:45:48Z</time>
      </trkpt>
      <trkpt lat="44.67664" lon="7.06829">
        <ele>2731.4</ele>
        <time>2026-08-31T11:45:53Z</time>
      </trkpt>
      <trkpt lat="44.67659" lon="7.0683">
        <ele>2729.5</ele>
        <time>2026-08-31T11:45:58Z</time>
      </trkpt>
      <trkpt lat="44.67654" lon="7.06829">
        <ele>2728.2</ele>
        <time>2026-08-31T11:46:04Z</time>
      </trkpt>
      <trkpt lat="44.67652" lon="7.06837">
        <ele>2726</ele>
        <time>2026-08-31T11:46:09Z</time>
      </trkpt>
      <trkpt lat="44.67656" lon="7.06845">
        <ele>2726.3</ele>
        <time>2026-08-31T11:46:14Z</time>
      </trkpt>
      <trkpt lat="44.6766" lon="7.06845">
        <ele>2727.5</ele>
        <time>2026-08-31T11:46:20Z</time>
      </trkpt>
      <trkpt lat="44.6766" lon="7.06845">
        <ele>2727.5</ele>
        <time>2026-08-31T11:46:25Z</time>
      </trkpt>
      <trkpt lat="44.6766" lon="7.06845">
        <ele>2727.5</ele>
        <time>2026-08-31T11:46:30Z</time>
      </trkpt>
      <trkpt lat="44.67661" lon="7.0685">
        <ele>2727.1</ele>
        <time>2026-08-31T11:46:36Z</time>
      </trkpt>
      <trkpt lat="44.67664" lon="7.06853">
        <ele>2727.5</ele>
        <time>2026-08-31T11:46:41Z</time>
      </trkpt>
      <trkpt lat="44.67667" lon="7.06851">
        <ele>2728.6</ele>
        <time>2026-08-31T11:46:46Z</time>
      </trkpt>
      <trkpt lat="44.67671" lon="7.06846">
        <ele>2730.7</ele>
        <time>2026-08-31T11:46:52Z</time>
      </trkpt>
      <trkpt lat="44.67674" lon="7.06848">
        <ele>2731.5</ele>
        <time>2026-08-31T11:46:57Z</time>
      </trkpt>
      <trkpt lat="44.67677" lon="7.06852">
        <ele>2731.9</ele>
        <time>2026-08-31T11:47:02Z</time>
      </trkpt>
      <trkpt lat="44.67681" lon="7.06854">
        <ele>2733</ele>
        <time>2026-08-31T11:47:08Z</time>
      </trkpt>
      <trkpt lat="44.67682" lon="7.06857">
        <ele>2732.9</ele>
        <time>2026-08-31T11:47:13Z</time>
      </trkpt>
      <trkpt lat="44.67682" lon="7.06857">
        <ele>2732.9</ele>
        <time>2026-08-31T11:47:18Z</time>
      </trkpt>
      <trkpt lat="44.67682" lon="7.06857">
        <ele>2732.9</ele>
        <time>2026-08-31T11:47:24Z</time>
      </trkpt>
      <trkpt lat="44.67682" lon="7.06857">
        <ele>2732.9</ele>
        <time>2026-08-31T11:47:29Z</time>
      </trkpt>
      <trkpt lat="44.67682" lon="7.06857">
        <ele>2732.9</ele>
        <time>2026-08-31T11:47:34Z</time>
      </trkpt>
      <trkpt lat="44.67682" lon="7.06857">
        <ele>2732.9</ele>
        <time>2026-08-31T11:47:40Z</time>
      </trkpt>
      <trkpt lat="44.67682" lon="7.06857">
        <ele>2732.9</ele>
        <time>2026-08-31T11:47:45Z</time>
      </trkpt>
      <trkpt lat="44.67675" lon="7.06856">
        <ele>2730.6</ele>
        <time>2026-08-31T11:47:50Z</time>
      </trkpt>
      <trkpt lat="44.67675" lon="7.06856">
        <ele>2730.6</ele>
        <time>2026-08-31T11:47:56Z</time>
      </trkpt>
      <trkpt lat="44.67675" lon="7.06856">
        <ele>2730.6</ele>
        <time>2026-08-31T11:48:01Z</time>
      </trkpt>
      <trkpt lat="44.67675" lon="7.06856">
        <ele>2730.6</ele>
        <time>2026-08-31T11:48:06Z</time>
      </trkpt>
      <trkpt lat="44.67672" lon="7.06857">
        <ele>2729.4</ele>
        <time>2026-08-31T11:48:12Z</time>
      </trkpt>
      <trkpt lat="44.67667" lon="7.06859">
        <ele>2727.4</ele>
        <time>2026-08-31T11:48:17Z</time>
      </trkpt>
      <trkpt lat="44.67663" lon="7.06861">
        <ele>2726.1</ele>
        <time>2026-08-31T11:48:22Z</time>
      </trkpt>
      <trkpt lat="44.67657" lon="7.06863">
        <ele>2724.5</ele>
        <time>2026-08-31T11:48:28Z</time>
      </trkpt>
      <trkpt lat="44.67653" lon="7.06862">
        <ele>2723.7</ele>
        <time>2026-08-31T11:48:33Z</time>
      </trkpt>
      <trkpt lat="44.67649" lon="7.06862">
        <ele>2722.7</ele>
        <time>2026-08-31T11:48:38Z</time>
      </trkpt>
      <trkpt lat="44.67644" lon="7.06859">
        <ele>2721.8</ele>
        <time>2026-08-31T11:48:44Z</time>
      </trkpt>
      <trkpt lat="44.67638" lon="7.0686">
        <ele>2720.3</ele>
        <time>2026-08-31T11:48:49Z</time>
      </trkpt>
      <trkpt lat="44.67633" lon="7.0686">
        <ele>2719.1</ele>
        <time>2026-08-31T11:48:54Z</time>
      </trkpt>
      <trkpt lat="44.67629" lon="7.06861">
        <ele>2718.1</ele>
        <time>2026-08-31T11:49:00Z</time>
      </trkpt>
      <trkpt lat="44.67627" lon="7.0686">
        <ele>2717.7</ele>
        <time>2026-08-31T11:49:05Z</time>
      </trkpt>
      <trkpt lat="44.67624" lon="7.06858">
        <ele>2717</ele>
        <time>2026-08-31T11:49:10Z</time>
      </trkpt>
      <trkpt lat="44.67621" lon="7.06857">
        <ele>2716.3</ele>
        <time>2026-08-31T11:49:16Z</time>
      </trkpt>
      <trkpt lat="44.67621" lon="7.06857">
        <ele>2716.3</ele>
        <time>2026-08-31T11:49:21Z</time>
      </trkpt>
      <trkpt lat="44.67621" lon="7.06857">
        <ele>2716.3</ele>
        <time>2026-08-31T11:49:26Z</time>
      </trkpt>
      <trkpt lat="44.67621" lon="7.06857">
        <ele>2716.3</ele>
        <time>2026-08-31T11:49:32Z</time>
      </trkpt>
      <trkpt lat="44.67621" lon="7.06857">
        <ele>2716.3</ele>
        <time>2026-08-31T11:49:37Z</time>
      </trkpt>
      <trkpt lat="44.67621" lon="7.06857">
        <ele>2716.3</ele>
        <time>2026-08-31T11:49:42Z</time>
      </trkpt>
      <trkpt lat="44.67621" lon="7.06857">
        <ele>2716.3</ele>
        <time>2026-08-31T11:49:48Z</time>
      </trkpt>
      <trkpt lat="44.67618" lon="7.0685">
        <ele>2715.6</ele>
        <time>2026-08-31T11:49:53Z</time>
      </trkpt>
      <trkpt lat="44.67616" lon="7.06851">
        <ele>2715.1</ele>
        <time>2026-08-31T11:49:58Z</time>
      </trkpt>
      <trkpt lat="44.67609" lon="7.06852">
        <ele>2713.3</ele>
        <time>2026-08-31T11:50:04Z</time>
      </trkpt>
      <trkpt lat="44.67605" lon="7.06849">
        <ele>2712.1</ele>
        <time>2026-08-31T11:50:09Z</time>
      </trkpt>
      <trkpt lat="44.67601" lon="7.06844">
        <ele>2710.9</ele>
        <time>2026-08-31T11:50:14Z</time>
      </trkpt>
      <trkpt lat="44.67596" lon="7.06839">
        <ele>2709.2</ele>
        <time>2026-08-31T11:50:20Z</time>
      </trkpt>
      <trkpt lat="44.67591" lon="7.06836">
        <ele>2707.6</ele>
        <time>2026-08-31T11:50:25Z</time>
      </trkpt>
      <trkpt lat="44.6759" lon="7.06829">
        <ele>2707.7</ele>
        <time>2026-08-31T11:50:30Z</time>
      </trkpt>
      <trkpt lat="44.67589" lon="7.06823">
        <ele>2708.2</ele>
        <time>2026-08-31T11:50:36Z</time>
      </trkpt>
      <trkpt lat="44.67587" lon="7.06819">
        <ele>2708.1</ele>
        <time>2026-08-31T11:50:41Z</time>
      </trkpt>
      <trkpt lat="44.67584" lon="7.06817">
        <ele>2707.4</ele>
        <time>2026-08-31T11:50:46Z</time>
      </trkpt>
      <trkpt lat="44.67581" lon="7.06813">
        <ele>2707.1</ele>
        <time>2026-08-31T11:50:52Z</time>
      </trkpt>
      <trkpt lat="44.67577" lon="7.06813">
        <ele>2706</ele>
        <time>2026-08-31T11:50:57Z</time>
      </trkpt>
      <trkpt lat="44.67573" lon="7.06812">
        <ele>2705</ele>
        <time>2026-08-31T11:51:02Z</time>
      </trkpt>
      <trkpt lat="44.67569" lon="7.0681">
        <ele>2704</ele>
        <time>2026-08-31T11:51:08Z</time>
      </trkpt>
      <trkpt lat="44.67566" lon="7.06811">
        <ele>2703.1</ele>
        <time>2026-08-31T11:51:13Z</time>
      </trkpt>
      <trkpt lat="44.67562" lon="7.06805">
        <ele>2702.4</ele>
        <time>2026-08-31T11:51:18Z</time>
      </trkpt>
      <trkpt lat="44.67557" lon="7.068">
        <ele>2701.1</ele>
        <time>2026-08-31T11:51:24Z</time>
      </trkpt>
      <trkpt lat="44.67551" lon="7.06797">
        <ele>2699.3</ele>
        <time>2026-08-31T11:51:29Z</time>
      </trkpt>
      <trkpt lat="44.67548" lon="7.06791">
        <ele>2698.4</ele>
        <time>2026-08-31T11:51:34Z</time>
      </trkpt>
      <trkpt lat="44.67548" lon="7.06791">
        <ele>2698.4</ele>
        <time>2026-08-31T11:51:40Z</time>
      </trkpt>
      <trkpt lat="44.67548" lon="7.06791">
        <ele>2698.4</ele>
        <time>2026-08-31T11:51:45Z</time>
      </trkpt>
      <trkpt lat="44.67548" lon="7.06791">
        <ele>2698.4</ele>
        <time>2026-08-31T11:51:50Z</time>
      </trkpt>
      <trkpt lat="44.67542" lon="7.0679">
        <ele>2696.4</ele>
        <time>2026-08-31T11:51:56Z</time>
      </trkpt>
      <trkpt lat="44.67539" lon="7.06787">
        <ele>2695.3</ele>
        <time>2026-08-31T11:52:01Z</time>
      </trkpt>
      <trkpt lat="44.67538" lon="7.06787">
        <ele>2694.9</ele>
        <time>2026-08-31T11:52:06Z</time>
      </trkpt>
      <trkpt lat="44.67537" lon="7.06788">
        <ele>2694.6</ele>
        <time>2026-08-31T11:52:12Z</time>
      </trkpt>
      <trkpt lat="44.67537" lon="7.06788">
        <ele>2694.6</ele>
        <time>2026-08-31T11:52:17Z</time>
      </trkpt>
      <trkpt lat="44.67535" lon="7.06795">
        <ele>2694.1</ele>
        <time>2026-08-31T11:52:22Z</time>
      </trkpt>
      <trkpt lat="44.67532" lon="7.06792">
        <ele>2693</ele>
        <time>2026-08-31T11:52:28Z</time>
      </trkpt>
      <trkpt lat="44.67528" lon="7.06787">
        <ele>2691.3</ele>
        <time>2026-08-31T11:52:33Z</time>
      </trkpt>
      <trkpt lat="44.67525" lon="7.06782">
        <ele>2690</ele>
        <time>2026-08-31T11:52:38Z</time>
      </trkpt>
      <trkpt lat="44.67523" lon="7.06776">
        <ele>2688.8</ele>
        <time>2026-08-31T11:52:44Z</time>
      </trkpt>
      <trkpt lat="44.67521" lon="7.0677">
        <ele>2687.6</ele>
        <time>2026-08-31T11:52:49Z</time>
      </trkpt>
      <trkpt lat="44.6752" lon="7.06765">
        <ele>2686.8</ele>
        <time>2026-08-31T11:52:54Z</time>
      </trkpt>
      <trkpt lat="44.67519" lon="7.06763">
        <ele>2686.2</ele>
        <time>2026-08-31T11:53:00Z</time>
      </trkpt>
      <trkpt lat="44.67516" lon="7.06764">
        <ele>2685</ele>
        <time>2026-08-31T11:53:05Z</time>
      </trkpt>
      <trkpt lat="44.67513" lon="7.06762">
        <ele>2683.5</ele>
        <time>2026-08-31T11:53:10Z</time>
      </trkpt>
      <trkpt lat="44.6751" lon="7.06758">
        <ele>2681.7</ele>
        <time>2026-08-31T11:53:16Z</time>
      </trkpt>
      <trkpt lat="44.67506" lon="7.06755">
        <ele>2679.5</ele>
        <time>2026-08-31T11:53:21Z</time>
      </trkpt>
      <trkpt lat="44.67503" lon="7.06753">
        <ele>2677.8</ele>
        <time>2026-08-31T11:53:26Z</time>
      </trkpt>
      <trkpt lat="44.67502" lon="7.06751">
        <ele>2677.1</ele>
        <time>2026-08-31T11:53:32Z</time>
      </trkpt>
      <trkpt lat="44.67502" lon="7.06751">
        <ele>2677.1</ele>
        <time>2026-08-31T11:53:37Z</time>
      </trkpt>
      <trkpt lat="44.67502" lon="7.06751">
        <ele>2677.1</ele>
        <time>2026-08-31T11:53:42Z</time>
      </trkpt>
      <trkpt lat="44.67502" lon="7.06751">
        <ele>2677.1</ele>
        <time>2026-08-31T11:53:48Z</time>
      </trkpt>
      <trkpt lat="44.67502" lon="7.06751">
        <ele>2677.1</ele>
        <time>2026-08-31T11:53:53Z</time>
      </trkpt>
      <trkpt lat="44.67502" lon="7.06751">
        <ele>2677.1</ele>
        <time>2026-08-31T11:53:58Z</time>
      </trkpt>
      <trkpt lat="44.67495" lon="7.0675">
        <ele>2674.5</ele>
        <time>2026-08-31T11:54:04Z</time>
      </trkpt>
      <trkpt lat="44.67494" lon="7.06745">
        <ele>2675.4</ele>
        <time>2026-08-31T11:54:09Z</time>
      </trkpt>
      <trkpt lat="44.67493" lon="7.06743">
        <ele>2675.6</ele>
        <time>2026-08-31T11:54:14Z</time>
      </trkpt>
      <trkpt lat="44.67491" lon="7.0674">
        <ele>2675.6</ele>
        <time>2026-08-31T11:54:20Z</time>
      </trkpt>
      <trkpt lat="44.6749" lon="7.06736">
        <ele>2676.1</ele>
        <time>2026-08-31T11:54:25Z</time>
      </trkpt>
      <trkpt lat="44.67487" lon="7.06734">
        <ele>2675.4</ele>
        <time>2026-08-31T11:54:30Z</time>
      </trkpt>
      <trkpt lat="44.67484" lon="7.06729">
        <ele>2675.2</ele>
        <time>2026-08-31T11:54:36Z</time>
      </trkpt>
      <trkpt lat="44.67479" lon="7.06733">
        <ele>2672.4</ele>
        <time>2026-08-31T11:54:41Z</time>
      </trkpt>
      <trkpt lat="44.67483" lon="7.06739">
        <ele>2672.9</ele>
        <time>2026-08-31T11:54:46Z</time>
      </trkpt>
      <trkpt lat="44.67486" lon="7.0675">
        <ele>2671.8</ele>
        <time>2026-08-31T11:54:52Z</time>
      </trkpt>
      <trkpt lat="44.6749" lon="7.0676">
        <ele>2674.5</ele>
        <time>2026-08-31T11:54:57Z</time>
      </trkpt>
      <trkpt lat="44.67492" lon="7.06767">
        <ele>2676.1</ele>
        <time>2026-08-31T11:55:02Z</time>
      </trkpt>
      <trkpt lat="44.67493" lon="7.06778">
        <ele>2678</ele>
        <time>2026-08-31T11:55:08Z</time>
      </trkpt>
      <trkpt lat="44.67494" lon="7.06781">
        <ele>2678.7</ele>
        <time>2026-08-31T11:55:13Z</time>
      </trkpt>
      <trkpt lat="44.67492" lon="7.06779">
        <ele>2677.8</ele>
        <time>2026-08-31T11:55:18Z</time>
      </trkpt>
      <trkpt lat="44.67488" lon="7.06773">
        <ele>2675.8</ele>
        <time>2026-08-31T11:55:24Z</time>
      </trkpt>
      <trkpt lat="44.67484" lon="7.06769">
        <ele>2674</ele>
        <time>2026-08-31T11:55:29Z</time>
      </trkpt>
      <trkpt lat="44.67482" lon="7.06766">
        <ele>2673</ele>
        <time>2026-08-31T11:55:34Z</time>
      </trkpt>
      <trkpt lat="44.6748" lon="7.06765">
        <ele>2672.2</ele>
        <time>2026-08-31T11:55:40Z</time>
      </trkpt>
      <trkpt lat="44.67478" lon="7.06765">
        <ele>2671.7</ele>
        <time>2026-08-31T11:55:45Z</time>
      </trkpt>
      <trkpt lat="44.67476" lon="7.06762">
        <ele>2670.6</ele>
        <time>2026-08-31T11:55:50Z</time>
      </trkpt>
      <trkpt lat="44.67473" lon="7.06758">
        <ele>2669.1</ele>
        <time>2026-08-31T11:55:56Z</time>
      </trkpt>
      <trkpt lat="44.67471" lon="7.06755">
        <ele>2668.1</ele>
        <time>2026-08-31T11:56:01Z</time>
      </trkpt>
      <trkpt lat="44.67469" lon="7.06751">
        <ele>2666.9</ele>
        <time>2026-08-31T11:56:06Z</time>
      </trkpt>
      <trkpt lat="44.67467" lon="7.06747">
        <ele>2666.4</ele>
        <time>2026-08-31T11:56:12Z</time>
      </trkpt>
      <trkpt lat="44.67466" lon="7.06742">
        <ele>2666.5</ele>
        <time>2026-08-31T11:56:17Z</time>
      </trkpt>
      <trkpt lat="44.67464" lon="7.06739">
        <ele>2666.1</ele>
        <time>2026-08-31T11:56:22Z</time>
      </trkpt>
      <trkpt lat="44.67464" lon="7.06737">
        <ele>2666.2</ele>
        <time>2026-08-31T11:56:28Z</time>
      </trkpt>
      <trkpt lat="44.67461" lon="7.06734">
        <ele>2665.3</ele>
        <time>2026-08-31T11:56:33Z</time>
      </trkpt>
      <trkpt lat="44.67456" lon="7.06733">
        <ele>2663.4</ele>
        <time>2026-08-31T11:56:38Z</time>
      </trkpt>
      <trkpt lat="44.67453" lon="7.0673">
        <ele>2662.3</ele>
        <time>2026-08-31T11:56:44Z</time>
      </trkpt>
      <trkpt lat="44.6745" lon="7.06726">
        <ele>2661.1</ele>
        <time>2026-08-31T11:56:49Z</time>
      </trkpt>
      <trkpt lat="44.67448" lon="7.06726">
        <ele>2660.2</ele>
        <time>2026-08-31T11:56:54Z</time>
      </trkpt>
      <trkpt lat="44.67445" lon="7.06719">
        <ele>2658.7</ele>
        <time>2026-08-31T11:57:00Z</time>
      </trkpt>
      <trkpt lat="44.67442" lon="7.06716">
        <ele>2657.2</ele>
        <time>2026-08-31T11:57:05Z</time>
      </trkpt>
      <trkpt lat="44.67438" lon="7.06714">
        <ele>2655.1</ele>
        <time>2026-08-31T11:57:10Z</time>
      </trkpt>
      <trkpt lat="44.67437" lon="7.06709">
        <ele>2654.3</ele>
        <time>2026-08-31T11:57:16Z</time>
      </trkpt>
      <trkpt lat="44.67434" lon="7.06706">
        <ele>2652.5</ele>
        <time>2026-08-31T11:57:21Z</time>
      </trkpt>
      <trkpt lat="44.67432" lon="7.06704">
        <ele>2651.2</ele>
        <time>2026-08-31T11:57:26Z</time>
      </trkpt>
      <trkpt lat="44.67429" lon="7.06702">
        <ele>2649.3</ele>
        <time>2026-08-31T11:57:32Z</time>
      </trkpt>
      <trkpt lat="44.67427" lon="7.06698">
        <ele>2647.7</ele>
        <time>2026-08-31T11:57:37Z</time>
      </trkpt>
      <trkpt lat="44.67424" lon="7.06695">
        <ele>2645.5</ele>
        <time>2026-08-31T11:57:42Z</time>
      </trkpt>
      <trkpt lat="44.67421" lon="7.06694">
        <ele>2643.5</ele>
        <time>2026-08-31T11:57:48Z</time>
      </trkpt>
      <trkpt lat="44.67419" lon="7.06694">
        <ele>2642.3</ele>
        <time>2026-08-31T11:57:53Z</time>
      </trkpt>
      <trkpt lat="44.67416" lon="7.06695">
        <ele>2640.6</ele>
        <time>2026-08-31T11:57:58Z</time>
      </trkpt>
      <trkpt lat="44.67412" lon="7.06693">
        <ele>2637.5</ele>
        <time>2026-08-31T11:58:04Z</time>
      </trkpt>
      <trkpt lat="44.67408" lon="7.06691">
        <ele>2634.3</ele>
        <time>2026-08-31T11:58:09Z</time>
      </trkpt>
      <trkpt lat="44.67406" lon="7.06688">
        <ele>2632.4</ele>
        <time>2026-08-31T11:58:14Z</time>
      </trkpt>
      <trkpt lat="44.67403" lon="7.06687">
        <ele>2630.2</ele>
        <time>2026-08-31T11:58:20Z</time>
      </trkpt>
      <trkpt lat="44.67399" lon="7.06686">
        <ele>2627.3</ele>
        <time>2026-08-31T11:58:25Z</time>
      </trkpt>
      <trkpt lat="44.67396" lon="7.06685">
        <ele>2625</ele>
        <time>2026-08-31T11:58:30Z</time>
      </trkpt>
      <trkpt lat="44.67392" lon="7.06684">
        <ele>2622.1</ele>
        <time>2026-08-31T11:58:36Z</time>
      </trkpt>
      <trkpt lat="44.67391" lon="7.06681">
        <ele>2621</ele>
        <time>2026-08-31T11:58:41Z</time>
      </trkpt>
      <trkpt lat="44.67392" lon="7.06681">
        <ele>2621.6</ele>
        <time>2026-08-31T11:58:46Z</time>
      </trkpt>
      <trkpt lat="44.67392" lon="7.06681">
        <ele>2621.6</ele>
        <time>2026-08-31T11:58:52Z</time>
      </trkpt>
      <trkpt lat="44.67392" lon="7.06681">
        <ele>2621.6</ele>
        <time>2026-08-31T11:58:57Z</time>
      </trkpt>
      <trkpt lat="44.67392" lon="7.06681">
        <ele>2621.6</ele>
        <time>2026-08-31T11:59:02Z</time>
      </trkpt>
      <trkpt lat="44.67392" lon="7.06681">
        <ele>2621.6</ele>
        <time>2026-08-31T11:59:08Z</time>
      </trkpt>
      <trkpt lat="44.67392" lon="7.06681">
        <ele>2621.6</ele>
        <time>2026-08-31T11:59:13Z</time>
      </trkpt>
      <trkpt lat="44.67392" lon="7.06681">
        <ele>2621.6</ele>
        <time>2026-08-31T11:59:18Z</time>
      </trkpt>
      <trkpt lat="44.67392" lon="7.06681">
        <ele>2621.6</ele>
        <time>2026-08-31T11:59:24Z</time>
      </trkpt>
      <trkpt lat="44.67392" lon="7.06681">
        <ele>2621.6</ele>
        <time>2026-08-31T11:59:29Z</time>
      </trkpt>
      <trkpt lat="44.67386" lon="7.06675">
        <ele>2616.6</ele>
        <time>2026-08-31T11:59:34Z</time>
      </trkpt>
      <trkpt lat="44.67383" lon="7.06673">
        <ele>2614.3</ele>
        <time>2026-08-31T11:59:40Z</time>
      </trkpt>
      <trkpt lat="44.6738" lon="7.06674">
        <ele>2612.4</ele>
        <time>2026-08-31T11:59:45Z</time>
      </trkpt>
      <trkpt lat="44.67374" lon="7.06675">
        <ele>2608.5</ele>
        <time>2026-08-31T11:59:50Z</time>
      </trkpt>
      <trkpt lat="44.67374" lon="7.06675">
        <ele>2608.5</ele>
        <time>2026-08-31T11:59:56Z</time>
      </trkpt>
      <trkpt lat="44.67374" lon="7.06675">
        <ele>2608.5</ele>
        <time>2026-08-31T12:00:01Z</time>
      </trkpt>
      <trkpt lat="44.67374" lon="7.06675">
        <ele>2608.5</ele>
        <time>2026-08-31T12:00:06Z</time>
      </trkpt>
      <trkpt lat="44.67374" lon="7.06675">
        <ele>2608.5</ele>
        <time>2026-08-31T12:00:12Z</time>
      </trkpt>
      <trkpt lat="44.67374" lon="7.06675">
        <ele>2608.5</ele>
        <time>2026-08-31T12:00:17Z</time>
      </trkpt>
      <trkpt lat="44.67374" lon="7.06675">
        <ele>2608.5</ele>
        <time>2026-08-31T12:00:22Z</time>
      </trkpt>
      <trkpt lat="44.67374" lon="7.06675">
        <ele>2608.5</ele>
        <time>2026-08-31T12:00:28Z</time>
      </trkpt>
      <trkpt lat="44.67374" lon="7.06675">
        <ele>2608.5</ele>
        <time>2026-08-31T12:00:33Z</time>
      </trkpt>
      <trkpt lat="44.67374" lon="7.06675">
        <ele>2608.5</ele>
        <time>2026-08-31T12:00:38Z</time>
      </trkpt>
      <trkpt lat="44.67364" lon="7.06678">
        <ele>2602</ele>
        <time>2026-08-31T12:00:44Z</time>
      </trkpt>
      <trkpt lat="44.67361" lon="7.06676">
        <ele>2599.7</ele>
        <time>2026-08-31T12:00:49Z</time>
      </trkpt>
      <trkpt lat="44.6736" lon="7.06672">
        <ele>2598.6</ele>
        <time>2026-08-31T12:00:54Z</time>
      </trkpt>
      <trkpt lat="44.67359" lon="7.06669">
        <ele>2597.5</ele>
        <time>2026-08-31T12:01:00Z</time>
      </trkpt>
      <trkpt lat="44.67356" lon="7.06668">
        <ele>2595.4</ele>
        <time>2026-08-31T12:01:05Z</time>
      </trkpt>
      <trkpt lat="44.67353" lon="7.06668">
        <ele>2593.4</ele>
        <time>2026-08-31T12:01:10Z</time>
      </trkpt>
      <trkpt lat="44.67351" lon="7.06667">
        <ele>2591.9</ele>
        <time>2026-08-31T12:01:16Z</time>
      </trkpt>
      <trkpt lat="44.67351" lon="7.06664">
        <ele>2592.4</ele>
        <time>2026-08-31T12:01:21Z</time>
      </trkpt>
      <trkpt lat="44.67349" lon="7.06662">
        <ele>2591.5</ele>
        <time>2026-08-31T12:01:26Z</time>
      </trkpt>
      <trkpt lat="44.67348" lon="7.06657">
        <ele>2591.8</ele>
        <time>2026-08-31T12:01:32Z</time>
      </trkpt>
      <trkpt lat="44.67345" lon="7.06656">
        <ele>2589.9</ele>
        <time>2026-08-31T12:01:37Z</time>
      </trkpt>
      <trkpt lat="44.67343" lon="7.06652">
        <ele>2589.3</ele>
        <time>2026-08-31T12:01:42Z</time>
      </trkpt>
      <trkpt lat="44.6734" lon="7.06648">
        <ele>2587.9</ele>
        <time>2026-08-31T12:01:48Z</time>
      </trkpt>
      <trkpt lat="44.67339" lon="7.06647">
        <ele>2587.4</ele>
        <time>2026-08-31T12:01:53Z</time>
      </trkpt>
      <trkpt lat="44.67338" lon="7.06644">
        <ele>2587.2</ele>
        <time>2026-08-31T12:01:58Z</time>
      </trkpt>
      <trkpt lat="44.67336" lon="7.06644">
        <ele>2585.7</ele>
        <time>2026-08-31T12:02:04Z</time>
      </trkpt>
      <trkpt lat="44.67332" lon="7.06644">
        <ele>2583</ele>
        <time>2026-08-31T12:02:09Z</time>
      </trkpt>
      <trkpt lat="44.6733" lon="7.06647">
        <ele>2581.3</ele>
        <time>2026-08-31T12:02:14Z</time>
      </trkpt>
      <trkpt lat="44.6733" lon="7.06647">
        <ele>2581.3</ele>
        <time>2026-08-31T12:02:20Z</time>
      </trkpt>
      <trkpt lat="44.6733" lon="7.06647">
        <ele>2581.3</ele>
        <time>2026-08-31T12:02:25Z</time>
      </trkpt>
      <trkpt lat="44.6733" lon="7.06647">
        <ele>2581.3</ele>
        <time>2026-08-31T12:02:30Z</time>
      </trkpt>
      <trkpt lat="44.6733" lon="7.06647">
        <ele>2581.3</ele>
        <time>2026-08-31T12:02:36Z</time>
      </trkpt>
      <trkpt lat="44.6733" lon="7.06647">
        <ele>2581.3</ele>
        <time>2026-08-31T12:02:41Z</time>
      </trkpt>
      <trkpt lat="44.6733" lon="7.06647">
        <ele>2581.3</ele>
        <time>2026-08-31T12:02:46Z</time>
      </trkpt>
      <trkpt lat="44.6733" lon="7.06647">
        <ele>2581.3</ele>
        <time>2026-08-31T12:02:52Z</time>
      </trkpt>
      <trkpt lat="44.6733" lon="7.06647">
        <ele>2581.3</ele>
        <time>2026-08-31T12:02:57Z</time>
      </trkpt>
      <trkpt lat="44.6733" lon="7.06647">
        <ele>2581.3</ele>
        <time>2026-08-31T12:03:02Z</time>
      </trkpt>
      <trkpt lat="44.6733" lon="7.06647">
        <ele>2581.3</ele>
        <time>2026-08-31T12:03:08Z</time>
      </trkpt>
      <trkpt lat="44.6733" lon="7.06647">
        <ele>2581.3</ele>
        <time>2026-08-31T12:03:13Z</time>
      </trkpt>
      <trkpt lat="44.6733" lon="7.06647">
        <ele>2581.3</ele>
        <time>2026-08-31T12:03:18Z</time>
      </trkpt>
      <trkpt lat="44.6733" lon="7.06647">
        <ele>2581.3</ele>
        <time>2026-08-31T12:03:24Z</time>
      </trkpt>
      <trkpt lat="44.6733" lon="7.06647">
        <ele>2581.3</ele>
        <time>2026-08-31T12:03:29Z</time>
      </trkpt>
      <trkpt lat="44.6733" lon="7.06647">
        <ele>2581.3</ele>
        <time>2026-08-31T12:03:34Z</time>
      </trkpt>
      <trkpt lat="44.6733" lon="7.06647">
        <ele>2581.3</ele>
        <time>2026-08-31T12:03:40Z</time>
      </trkpt>
      <trkpt lat="44.6733" lon="7.06647">
        <ele>2581.3</ele>
        <time>2026-08-31T12:03:45Z</time>
      </trkpt>
      <trkpt lat="44.67332" lon="7.0666">
        <ele>2580.3</ele>
        <time>2026-08-31T12:03:50Z</time>
      </trkpt>
      <trkpt lat="44.67332" lon="7.0666">
        <ele>2580.3</ele>
        <time>2026-08-31T12:03:56Z</time>
      </trkpt>
      <trkpt lat="44.67332" lon="7.0666">
        <ele>2580.3</ele>
        <time>2026-08-31T12:04:01Z</time>
      </trkpt>
      <trkpt lat="44.67332" lon="7.0666">
        <ele>2580.3</ele>
        <time>2026-08-31T12:04:06Z</time>
      </trkpt>
      <trkpt lat="44.67332" lon="7.0666">
        <ele>2580.3</ele>
        <time>2026-08-31T12:04:12Z</time>
      </trkpt>
      <trkpt lat="44.67332" lon="7.0666">
        <ele>2580.3</ele>
        <time>2026-08-31T12:04:17Z</time>
      </trkpt>
      <trkpt lat="44.67332" lon="7.0666">
        <ele>2580.3</ele>
        <time>2026-08-31T12:04:22Z</time>
      </trkpt>
      <trkpt lat="44.67332" lon="7.0666">
        <ele>2580.3</ele>
        <time>2026-08-31T12:04:28Z</time>
      </trkpt>
      <trkpt lat="44.67323" lon="7.0665">
        <ele>2576.7</ele>
        <time>2026-08-31T12:04:33Z</time>
      </trkpt>
      <trkpt lat="44.67323" lon="7.0665">
        <ele>2576.7</ele>
        <time>2026-08-31T12:04:38Z</time>
      </trkpt>
      <trkpt lat="44.67318" lon="7.06648">
        <ele>2574.1</ele>
        <time>2026-08-31T12:04:44Z</time>
      </trkpt>
      <trkpt lat="44.67318" lon="7.06648">
        <ele>2574.1</ele>
        <time>2026-08-31T12:04:49Z</time>
      </trkpt>
      <trkpt lat="44.67318" lon="7.06648">
        <ele>2574.1</ele>
        <time>2026-08-31T12:04:54Z</time>
      </trkpt>
      <trkpt lat="44.67318" lon="7.06648">
        <ele>2574.1</ele>
        <time>2026-08-31T12:05:00Z</time>
      </trkpt>
      <trkpt lat="44.67315" lon="7.0664">
        <ele>2573.8</ele>
        <time>2026-08-31T12:05:05Z</time>
      </trkpt>
      <trkpt lat="44.67312" lon="7.06641">
        <ele>2571.8</ele>
        <time>2026-08-31T12:05:10Z</time>
      </trkpt>
      <trkpt lat="44.67312" lon="7.06641">
        <ele>2571.8</ele>
        <time>2026-08-31T12:05:16Z</time>
      </trkpt>
      <trkpt lat="44.67312" lon="7.06641">
        <ele>2571.8</ele>
        <time>2026-08-31T12:05:21Z</time>
      </trkpt>
      <trkpt lat="44.67312" lon="7.06641">
        <ele>2571.8</ele>
        <time>2026-08-31T12:05:26Z</time>
      </trkpt>
      <trkpt lat="44.67312" lon="7.06641">
        <ele>2571.8</ele>
        <time>2026-08-31T12:05:32Z</time>
      </trkpt>
      <trkpt lat="44.67312" lon="7.06641">
        <ele>2571.8</ele>
        <time>2026-08-31T12:05:37Z</time>
      </trkpt>
      <trkpt lat="44.67312" lon="7.06641">
        <ele>2571.8</ele>
        <time>2026-08-31T12:05:42Z</time>
      </trkpt>
      <trkpt lat="44.67312" lon="7.06641">
        <ele>2571.8</ele>
        <time>2026-08-31T12:05:48Z</time>
      </trkpt>
      <trkpt lat="44.67312" lon="7.06641">
        <ele>2571.8</ele>
        <time>2026-08-31T12:05:53Z</time>
      </trkpt>
      <trkpt lat="44.67312" lon="7.06641">
        <ele>2571.8</ele>
        <time>2026-08-31T12:05:58Z</time>
      </trkpt>
      <trkpt lat="44.67312" lon="7.06641">
        <ele>2571.8</ele>
        <time>2026-08-31T12:06:04Z</time>
      </trkpt>
      <trkpt lat="44.67312" lon="7.06641">
        <ele>2571.8</ele>
        <time>2026-08-31T12:06:09Z</time>
      </trkpt>
      <trkpt lat="44.67312" lon="7.06641">
        <ele>2571.8</ele>
        <time>2026-08-31T12:06:14Z</time>
      </trkpt>
      <trkpt lat="44.67312" lon="7.06641">
        <ele>2571.8</ele>
        <time>2026-08-31T12:06:20Z</time>
      </trkpt>
      <trkpt lat="44.67311" lon="7.0665">
        <ele>2569.6</ele>
        <time>2026-08-31T12:06:25Z</time>
      </trkpt>
      <trkpt lat="44.67313" lon="7.06656">
        <ele>2569.7</ele>
        <time>2026-08-31T12:06:30Z</time>
      </trkpt>
      <trkpt lat="44.67314" lon="7.06669">
        <ele>2568.4</ele>
        <time>2026-08-31T12:06:36Z</time>
      </trkpt>
      <trkpt lat="44.67312" lon="7.06669">
        <ele>2567.2</ele>
        <time>2026-08-31T12:06:41Z</time>
      </trkpt>
      <trkpt lat="44.67309" lon="7.06662">
        <ele>2566.2</ele>
        <time>2026-08-31T12:06:46Z</time>
      </trkpt>
      <trkpt lat="44.67308" lon="7.06655">
        <ele>2566.9</ele>
        <time>2026-08-31T12:06:52Z</time>
      </trkpt>
      <trkpt lat="44.67305" lon="7.06652">
        <ele>2565.7</ele>
        <time>2026-08-31T12:06:57Z</time>
      </trkpt>
      <trkpt lat="44.67301" lon="7.06648">
        <ele>2564.1</ele>
        <time>2026-08-31T12:07:02Z</time>
      </trkpt>
      <trkpt lat="44.67298" lon="7.06644">
        <ele>2563.1</ele>
        <time>2026-08-31T12:07:08Z</time>
      </trkpt>
      <trkpt lat="44.67298" lon="7.06644">
        <ele>2563.1</ele>
        <time>2026-08-31T12:07:13Z</time>
      </trkpt>
      <trkpt lat="44.67298" lon="7.06644">
        <ele>2563.1</ele>
        <time>2026-08-31T12:07:18Z</time>
      </trkpt>
      <trkpt lat="44.67298" lon="7.06644">
        <ele>2563.1</ele>
        <time>2026-08-31T12:07:24Z</time>
      </trkpt>
      <trkpt lat="44.67298" lon="7.06644">
        <ele>2563.1</ele>
        <time>2026-08-31T12:07:29Z</time>
      </trkpt>
      <trkpt lat="44.67296" lon="7.06654">
        <ele>2560</ele>
        <time>2026-08-31T12:07:34Z</time>
      </trkpt>
      <trkpt lat="44.67294" lon="7.06657">
        <ele>2558.2</ele>
        <time>2026-08-31T12:07:40Z</time>
      </trkpt>
      <trkpt lat="44.67293" lon="7.06657">
        <ele>2557.6</ele>
        <time>2026-08-31T12:07:45Z</time>
      </trkpt>
      <trkpt lat="44.67291" lon="7.06654">
        <ele>2557</ele>
        <time>2026-08-31T12:07:50Z</time>
      </trkpt>
      <trkpt lat="44.67291" lon="7.0665">
        <ele>2557.8</ele>
        <time>2026-08-31T12:07:56Z</time>
      </trkpt>
      <trkpt lat="44.67288" lon="7.06646">
        <ele>2556.8</ele>
        <time>2026-08-31T12:08:01Z</time>
      </trkpt>
      <trkpt lat="44.67286" lon="7.06644">
        <ele>2556</ele>
        <time>2026-08-31T12:08:06Z</time>
      </trkpt>
      <trkpt lat="44.67286" lon="7.06641">
        <ele>2556.6</ele>
        <time>2026-08-31T12:08:12Z</time>
      </trkpt>
      <trkpt lat="44.67288" lon="7.06635">
        <ele>2558.9</ele>
        <time>2026-08-31T12:08:17Z</time>
      </trkpt>
      <trkpt lat="44.67285" lon="7.06631">
        <ele>2558</ele>
        <time>2026-08-31T12:08:22Z</time>
      </trkpt>
      <trkpt lat="44.67283" lon="7.06626">
        <ele>2557.8</ele>
        <time>2026-08-31T12:08:28Z</time>
      </trkpt>
      <trkpt lat="44.67283" lon="7.06622">
        <ele>2558.6</ele>
        <time>2026-08-31T12:08:33Z</time>
      </trkpt>
      <trkpt lat="44.67282" lon="7.06616">
        <ele>2559.2</ele>
        <time>2026-08-31T12:08:38Z</time>
      </trkpt>
      <trkpt lat="44.67282" lon="7.06609">
        <ele>2560.6</ele>
        <time>2026-08-31T12:08:44Z</time>
      </trkpt>
      <trkpt lat="44.67279" lon="7.0661">
        <ele>2558.7</ele>
        <time>2026-08-31T12:08:49Z</time>
      </trkpt>
      <trkpt lat="44.67278" lon="7.06617">
        <ele>2556.7</ele>
        <time>2026-08-31T12:08:54Z</time>
      </trkpt>
      <trkpt lat="44.67278" lon="7.06624">
        <ele>2555.3</ele>
        <time>2026-08-31T12:09:00Z</time>
      </trkpt>
      <trkpt lat="44.67276" lon="7.06628">
        <ele>2553.4</ele>
        <time>2026-08-31T12:09:05Z</time>
      </trkpt>
      <trkpt lat="44.67278" lon="7.06629">
        <ele>2554.3</ele>
        <time>2026-08-31T12:09:10Z</time>
      </trkpt>
      <trkpt lat="44.67279" lon="7.06636">
        <ele>2553.5</ele>
        <time>2026-08-31T12:09:16Z</time>
      </trkpt>
      <trkpt lat="44.67276" lon="7.06643">
        <ele>2550.4</ele>
        <time>2026-08-31T12:09:21Z</time>
      </trkpt>
      <trkpt lat="44.67273" lon="7.06646">
        <ele>2548</ele>
        <time>2026-08-31T12:09:26Z</time>
      </trkpt>
      <trkpt lat="44.67271" lon="7.06649">
        <ele>2546.2</ele>
        <time>2026-08-31T12:09:32Z</time>
      </trkpt>
      <trkpt lat="44.67271" lon="7.06653">
        <ele>2545.4</ele>
        <time>2026-08-31T12:09:37Z</time>
      </trkpt>
      <trkpt lat="44.67272" lon="7.06658">
        <ele>2545</ele>
        <time>2026-08-31T12:09:42Z</time>
      </trkpt>
      <trkpt lat="44.6727" lon="7.06663">
        <ele>2542.7</ele>
        <time>2026-08-31T12:09:48Z</time>
      </trkpt>
      <trkpt lat="44.67269" lon="7.06661">
        <ele>2542.6</ele>
        <time>2026-08-31T12:09:53Z</time>
      </trkpt>
      <trkpt lat="44.67267" lon="7.06656">
        <ele>2542.4</ele>
        <time>2026-08-31T12:09:58Z</time>
      </trkpt>
      <trkpt lat="44.67266" lon="7.06649">
        <ele>2543.3</ele>
        <time>2026-08-31T12:10:04Z</time>
      </trkpt>
      <trkpt lat="44.67264" lon="7.06644">
        <ele>2543.1</ele>
        <time>2026-08-31T12:10:09Z</time>
      </trkpt>
      <trkpt lat="44.67265" lon="7.0664">
        <ele>2544.5</ele>
        <time>2026-08-31T12:10:14Z</time>
      </trkpt>
      <trkpt lat="44.67265" lon="7.06641">
        <ele>2544.3</ele>
        <time>2026-08-31T12:10:20Z</time>
      </trkpt>
      <trkpt lat="44.67265" lon="7.06641">
        <ele>2544.3</ele>
        <time>2026-08-31T12:10:25Z</time>
      </trkpt>
      <trkpt lat="44.67265" lon="7.06641">
        <ele>2544.3</ele>
        <time>2026-08-31T12:10:30Z</time>
      </trkpt>
      <trkpt lat="44.6725" lon="7.0664">
        <ele>2535.8</ele>
        <time>2026-08-31T12:10:36Z</time>
      </trkpt>
      <trkpt lat="44.67254" lon="7.06644">
        <ele>2537.2</ele>
        <time>2026-08-31T12:10:41Z</time>
      </trkpt>
      <trkpt lat="44.6726" lon="7.06649">
        <ele>2539.7</ele>
        <time>2026-08-31T12:10:46Z</time>
      </trkpt>
      <trkpt lat="44.67263" lon="7.06649">
        <ele>2541.5</ele>
        <time>2026-08-31T12:10:52Z</time>
      </trkpt>
      <trkpt lat="44.67263" lon="7.06645">
        <ele>2542.3</ele>
        <time>2026-08-31T12:10:57Z</time>
      </trkpt>
      <trkpt lat="44.67264" lon="7.06639">
        <ele>2544.2</ele>
        <time>2026-08-31T12:11:02Z</time>
      </trkpt>
      <trkpt lat="44.67264" lon="7.06637">
        <ele>2544.6</ele>
        <time>2026-08-31T12:11:08Z</time>
      </trkpt>
      <trkpt lat="44.67265" lon="7.06633">
        <ele>2546</ele>
        <time>2026-08-31T12:11:13Z</time>
      </trkpt>
      <trkpt lat="44.67265" lon="7.06629">
        <ele>2546.8</ele>
        <time>2026-08-31T12:11:18Z</time>
      </trkpt>
      <trkpt lat="44.67263" lon="7.06626">
        <ele>2546.3</ele>
        <time>2026-08-31T12:11:24Z</time>
      </trkpt>
      <trkpt lat="44.67262" lon="7.06623">
        <ele>2546.3</ele>
        <time>2026-08-31T12:11:29Z</time>
      </trkpt>
      <trkpt lat="44.67261" lon="7.0662">
        <ele>2546.4</ele>
        <time>2026-08-31T12:11:34Z</time>
      </trkpt>
      <trkpt lat="44.67255" lon="7.0662">
        <ele>2542.9</ele>
        <time>2026-08-31T12:11:40Z</time>
      </trkpt>
      <trkpt lat="44.67254" lon="7.06623">
        <ele>2541.7</ele>
        <time>2026-08-31T12:11:45Z</time>
      </trkpt>
      <trkpt lat="44.67255" lon="7.06626">
        <ele>2541.7</ele>
        <time>2026-08-31T12:11:50Z</time>
      </trkpt>
      <trkpt lat="44.67255" lon="7.06629">
        <ele>2541</ele>
        <time>2026-08-31T12:11:56Z</time>
      </trkpt>
      <trkpt lat="44.67255" lon="7.06629">
        <ele>2541</ele>
        <time>2026-08-31T12:12:01Z</time>
      </trkpt>
      <trkpt lat="44.67255" lon="7.06629">
        <ele>2541</ele>
        <time>2026-08-31T12:12:06Z</time>
      </trkpt>
      <trkpt lat="44.6725" lon="7.06633">
        <ele>2537.3</ele>
        <time>2026-08-31T12:12:12Z</time>
      </trkpt>
      <trkpt lat="44.6725" lon="7.06633">
        <ele>2537.3</ele>
        <time>2026-08-31T12:12:17Z</time>
      </trkpt>
      <trkpt lat="44.6725" lon="7.06633">
        <ele>2537.3</ele>
        <time>2026-08-31T12:12:22Z</time>
      </trkpt>
      <trkpt lat="44.6725" lon="7.06633">
        <ele>2537.3</ele>
        <time>2026-08-31T12:12:28Z</time>
      </trkpt>
      <trkpt lat="44.6725" lon="7.06633">
        <ele>2537.3</ele>
        <time>2026-08-31T12:12:33Z</time>
      </trkpt>
      <trkpt lat="44.6725" lon="7.06633">
        <ele>2537.3</ele>
        <time>2026-08-31T12:12:38Z</time>
      </trkpt>
      <trkpt lat="44.6725" lon="7.06633">
        <ele>2537.3</ele>
        <time>2026-08-31T12:12:44Z</time>
      </trkpt>
      <trkpt lat="44.6725" lon="7.06633">
        <ele>2537.3</ele>
        <time>2026-08-31T12:12:49Z</time>
      </trkpt>
      <trkpt lat="44.6725" lon="7.06633">
        <ele>2537.3</ele>
        <time>2026-08-31T12:12:54Z</time>
      </trkpt>
      <trkpt lat="44.6725" lon="7.06633">
        <ele>2537.3</ele>
        <time>2026-08-31T12:13:00Z</time>
      </trkpt>
      <trkpt lat="44.6725" lon="7.06633">
        <ele>2537.3</ele>
        <time>2026-08-31T12:13:05Z</time>
      </trkpt>
      <trkpt lat="44.6725" lon="7.06633">
        <ele>2537.3</ele>
        <time>2026-08-31T12:13:10Z</time>
      </trkpt>
      <trkpt lat="44.6725" lon="7.06633">
        <ele>2537.3</ele>
        <time>2026-08-31T12:13:16Z</time>
      </trkpt>
      <trkpt lat="44.6725" lon="7.06633">
        <ele>2537.3</ele>
        <time>2026-08-31T12:13:21Z</time>
      </trkpt>
      <trkpt lat="44.6725" lon="7.06633">
        <ele>2537.3</ele>
        <time>2026-08-31T12:13:26Z</time>
      </trkpt>
      <trkpt lat="44.67242" lon="7.06626">
        <ele>2535.2</ele>
        <time>2026-08-31T12:13:32Z</time>
      </trkpt>
      <trkpt lat="44.67242" lon="7.06626">
        <ele>2535.2</ele>
        <time>2026-08-31T12:13:37Z</time>
      </trkpt>
      <trkpt lat="44.67242" lon="7.06626">
        <ele>2535.2</ele>
        <time>2026-08-31T12:13:42Z</time>
      </trkpt>
      <trkpt lat="44.67242" lon="7.06626">
        <ele>2535.2</ele>
        <time>2026-08-31T12:13:48Z</time>
      </trkpt>
      <trkpt lat="44.67234" lon="7.06625">
        <ele>2531.9</ele>
        <time>2026-08-31T12:13:53Z</time>
      </trkpt>
      <trkpt lat="44.67232" lon="7.06623">
        <ele>2531.5</ele>
        <time>2026-08-31T12:13:58Z</time>
      </trkpt>
      <trkpt lat="44.67229" lon="7.06617">
        <ele>2531.6</ele>
        <time>2026-08-31T12:14:04Z</time>
      </trkpt>
      <trkpt lat="44.67228" lon="7.06614">
        <ele>2532</ele>
        <time>2026-08-31T12:14:09Z</time>
      </trkpt>
      <trkpt lat="44.67225" lon="7.06612">
        <ele>2531.2</ele>
        <time>2026-08-31T12:14:14Z</time>
      </trkpt>
      <trkpt lat="44.67221" lon="7.06607">
        <ele>2530.8</ele>
        <time>2026-08-31T12:14:20Z</time>
      </trkpt>
      <trkpt lat="44.67218" lon="7.06607">
        <ele>2529.5</ele>
        <time>2026-08-31T12:14:25Z</time>
      </trkpt>
      <trkpt lat="44.67215" lon="7.06606">
        <ele>2528.5</ele>
        <time>2026-08-31T12:14:30Z</time>
      </trkpt>
      <trkpt lat="44.67213" lon="7.06604">
        <ele>2528.2</ele>
        <time>2026-08-31T12:14:36Z</time>
      </trkpt>
      <trkpt lat="44.67213" lon="7.066">
        <ele>2529.3</ele>
        <time>2026-08-31T12:14:41Z</time>
      </trkpt>
      <trkpt lat="44.67211" lon="7.06598">
        <ele>2529</ele>
        <time>2026-08-31T12:14:46Z</time>
      </trkpt>
      <trkpt lat="44.6721" lon="7.06601">
        <ele>2527.8</ele>
        <time>2026-08-31T12:14:52Z</time>
      </trkpt>
      <trkpt lat="44.67209" lon="7.06602">
        <ele>2527.1</ele>
        <time>2026-08-31T12:14:57Z</time>
      </trkpt>
      <trkpt lat="44.67205" lon="7.06604">
        <ele>2524.9</ele>
        <time>2026-08-31T12:15:02Z</time>
      </trkpt>
      <trkpt lat="44.672" lon="7.06604">
        <ele>2522.8</ele>
        <time>2026-08-31T12:15:08Z</time>
      </trkpt>
      <trkpt lat="44.67199" lon="7.06601">
        <ele>2523.3</ele>
        <time>2026-08-31T12:15:13Z</time>
      </trkpt>
      <trkpt lat="44.67197" lon="7.066">
        <ele>2522.8</ele>
        <time>2026-08-31T12:15:18Z</time>
      </trkpt>
      <trkpt lat="44.67195" lon="7.06603">
        <ele>2521.1</ele>
        <time>2026-08-31T12:15:24Z</time>
      </trkpt>
      <trkpt lat="44.67191" lon="7.06607">
        <ele>2518.2</ele>
        <time>2026-08-31T12:15:29Z</time>
      </trkpt>
      <trkpt lat="44.67188" lon="7.06606">
        <ele>2517.3</ele>
        <time>2026-08-31T12:15:34Z</time>
      </trkpt>
      <trkpt lat="44.6719" lon="7.06601">
        <ele>2519.6</ele>
        <time>2026-08-31T12:15:40Z</time>
      </trkpt>
      <trkpt lat="44.67192" lon="7.06596">
        <ele>2521.9</ele>
        <time>2026-08-31T12:15:45Z</time>
      </trkpt>
      <trkpt lat="44.67189" lon="7.06593">
        <ele>2521.6</ele>
        <time>2026-08-31T12:15:50Z</time>
      </trkpt>
      <trkpt lat="44.67187" lon="7.06592">
        <ele>2521.1</ele>
        <time>2026-08-31T12:15:56Z</time>
      </trkpt>
      <trkpt lat="44.67183" lon="7.0659">
        <ele>2520.2</ele>
        <time>2026-08-31T12:16:01Z</time>
      </trkpt>
      <trkpt lat="44.6718" lon="7.06588">
        <ele>2519.6</ele>
        <time>2026-08-31T12:16:06Z</time>
      </trkpt>
      <trkpt lat="44.67175" lon="7.06586">
        <ele>2518.3</ele>
        <time>2026-08-31T12:16:12Z</time>
      </trkpt>
      <trkpt lat="44.67173" lon="7.06578">
        <ele>2519.6</ele>
        <time>2026-08-31T12:16:17Z</time>
      </trkpt>
      <trkpt lat="44.67174" lon="7.0657">
        <ele>2521.8</ele>
        <time>2026-08-31T12:16:22Z</time>
      </trkpt>
      <trkpt lat="44.67173" lon="7.06566">
        <ele>2522.3</ele>
        <time>2026-08-31T12:16:28Z</time>
      </trkpt>
      <trkpt lat="44.67172" lon="7.0656">
        <ele>2523.2</ele>
        <time>2026-08-31T12:16:33Z</time>
      </trkpt>
      <trkpt lat="44.67169" lon="7.06553">
        <ele>2523.5</ele>
        <time>2026-08-31T12:16:38Z</time>
      </trkpt>
      <trkpt lat="44.67168" lon="7.06543">
        <ele>2525.3</ele>
        <time>2026-08-31T12:16:44Z</time>
      </trkpt>
      <trkpt lat="44.67166" lon="7.06537">
        <ele>2525.7</ele>
        <time>2026-08-31T12:16:49Z</time>
      </trkpt>
      <trkpt lat="44.67164" lon="7.06531">
        <ele>2526.2</ele>
        <time>2026-08-31T12:16:54Z</time>
      </trkpt>
      <trkpt lat="44.6716" lon="7.06529">
        <ele>2524.9</ele>
        <time>2026-08-31T12:17:00Z</time>
      </trkpt>
      <trkpt lat="44.6716" lon="7.06529">
        <ele>2524.9</ele>
        <time>2026-08-31T12:17:05Z</time>
      </trkpt>
      <trkpt lat="44.6716" lon="7.06529">
        <ele>2524.9</ele>
        <time>2026-08-31T12:17:10Z</time>
      </trkpt>
      <trkpt lat="44.6716" lon="7.06529">
        <ele>2524.9</ele>
        <time>2026-08-31T12:17:16Z</time>
      </trkpt>
      <trkpt lat="44.6716" lon="7.06529">
        <ele>2524.9</ele>
        <time>2026-08-31T12:17:21Z</time>
      </trkpt>
      <trkpt lat="44.67156" lon="7.06523">
        <ele>2524.5</ele>
        <time>2026-08-31T12:17:26Z</time>
      </trkpt>
      <trkpt lat="44.67152" lon="7.06517">
        <ele>2524.1</ele>
        <time>2026-08-31T12:17:32Z</time>
      </trkpt>
      <trkpt lat="44.67148" lon="7.06512">
        <ele>2523.5</ele>
        <time>2026-08-31T12:17:37Z</time>
      </trkpt>
      <trkpt lat="44.67144" lon="7.06514">
        <ele>2521.4</ele>
        <time>2026-08-31T12:17:42Z</time>
      </trkpt>
      <trkpt lat="44.67137" lon="7.06511">
        <ele>2519.1</ele>
        <time>2026-08-31T12:17:48Z</time>
      </trkpt>
      <trkpt lat="44.67135" lon="7.0651">
        <ele>2518.4</ele>
        <time>2026-08-31T12:17:53Z</time>
      </trkpt>
      <trkpt lat="44.67135" lon="7.0651">
        <ele>2518.4</ele>
        <time>2026-08-31T12:17:58Z</time>
      </trkpt>
      <trkpt lat="44.67135" lon="7.06508">
        <ele>2518.9</ele>
        <time>2026-08-31T12:18:04Z</time>
      </trkpt>
      <trkpt lat="44.67132" lon="7.06502">
        <ele>2519</ele>
        <time>2026-08-31T12:18:09Z</time>
      </trkpt>
      <trkpt lat="44.6713" lon="7.06499">
        <ele>2519.1</ele>
        <time>2026-08-31T12:18:14Z</time>
      </trkpt>
      <trkpt lat="44.67129" lon="7.065">
        <ele>2518.2</ele>
        <time>2026-08-31T12:18:20Z</time>
      </trkpt>
      <trkpt lat="44.67129" lon="7.065">
        <ele>2518.2</ele>
        <time>2026-08-31T12:18:25Z</time>
      </trkpt>
      <trkpt lat="44.67129" lon="7.06499">
        <ele>2518.7</ele>
        <time>2026-08-31T12:18:30Z</time>
      </trkpt>
      <trkpt lat="44.67126" lon="7.06498">
        <ele>2517.9</ele>
        <time>2026-08-31T12:18:36Z</time>
      </trkpt>
      <trkpt lat="44.67121" lon="7.06496">
        <ele>2516.8</ele>
        <time>2026-08-31T12:18:41Z</time>
      </trkpt>
      <trkpt lat="44.67116" lon="7.06493">
        <ele>2516.3</ele>
        <time>2026-08-31T12:18:46Z</time>
      </trkpt>
      <trkpt lat="44.67111" lon="7.06486">
        <ele>2518</ele>
        <time>2026-08-31T12:18:52Z</time>
      </trkpt>
      <trkpt lat="44.67106" lon="7.06484">
        <ele>2517.1</ele>
        <time>2026-08-31T12:18:57Z</time>
      </trkpt>
      <trkpt lat="44.671" lon="7.06482">
        <ele>2515.9</ele>
        <time>2026-08-31T12:19:02Z</time>
      </trkpt>
      <trkpt lat="44.67093" lon="7.06478">
        <ele>2515.5</ele>
        <time>2026-08-31T12:19:08Z</time>
      </trkpt>
      <trkpt lat="44.67087" lon="7.06477">
        <ele>2513.9</ele>
        <time>2026-08-31T12:19:13Z</time>
      </trkpt>
      <trkpt lat="44.67083" lon="7.06471">
        <ele>2515.9</ele>
        <time>2026-08-31T12:19:18Z</time>
      </trkpt>
      <trkpt lat="44.67077" lon="7.06469">
        <ele>2514.1</ele>
        <time>2026-08-31T12:19:24Z</time>
      </trkpt>
      <trkpt lat="44.67074" lon="7.06469">
        <ele>2512.7</ele>
        <time>2026-08-31T12:19:29Z</time>
      </trkpt>
      <trkpt lat="44.6707" lon="7.0647">
        <ele>2510.1</ele>
        <time>2026-08-31T12:19:34Z</time>
      </trkpt>
      <trkpt lat="44.67063" lon="7.06473">
        <ele>2504.9</ele>
        <time>2026-08-31T12:19:40Z</time>
      </trkpt>
      <trkpt lat="44.67059" lon="7.06473">
        <ele>2502.9</ele>
        <time>2026-08-31T12:19:45Z</time>
      </trkpt>
      <trkpt lat="44.67052" lon="7.06474">
        <ele>2498.8</ele>
        <time>2026-08-31T12:19:50Z</time>
      </trkpt>
      <trkpt lat="44.67046" lon="7.06477">
        <ele>2494</ele>
        <time>2026-08-31T12:19:56Z</time>
      </trkpt>
      <trkpt lat="44.67043" lon="7.06477">
        <ele>2492.5</ele>
        <time>2026-08-31T12:20:01Z</time>
      </trkpt>
      <trkpt lat="44.6704" lon="7.06476">
        <ele>2491.7</ele>
        <time>2026-08-31T12:20:06Z</time>
      </trkpt>
      <trkpt lat="44.67036" lon="7.06475">
        <ele>2490.3</ele>
        <time>2026-08-31T12:20:12Z</time>
      </trkpt>
      <trkpt lat="44.67034" lon="7.06475">
        <ele>2489.3</ele>
        <time>2026-08-31T12:20:17Z</time>
      </trkpt>
      <trkpt lat="44.67033" lon="7.06472">
        <ele>2490.7</ele>
        <time>2026-08-31T12:20:22Z</time>
      </trkpt>
      <trkpt lat="44.67031" lon="7.06471">
        <ele>2490.4</ele>
        <time>2026-08-31T12:20:28Z</time>
      </trkpt>
      <trkpt lat="44.67029" lon="7.06468">
        <ele>2491.3</ele>
        <time>2026-08-31T12:20:33Z</time>
      </trkpt>
      <trkpt lat="44.67028" lon="7.06466">
        <ele>2492.1</ele>
        <time>2026-08-31T12:20:38Z</time>
      </trkpt>
      <trkpt lat="44.67027" lon="7.06466">
        <ele>2491.6</ele>
        <time>2026-08-31T12:20:44Z</time>
      </trkpt>
      <trkpt lat="44.67027" lon="7.06466">
        <ele>2491.6</ele>
        <time>2026-08-31T12:20:49Z</time>
      </trkpt>
      <trkpt lat="44.67027" lon="7.06466">
        <ele>2491.6</ele>
        <time>2026-08-31T12:20:54Z</time>
      </trkpt>
      <trkpt lat="44.67027" lon="7.06466">
        <ele>2491.6</ele>
        <time>2026-08-31T12:21:00Z</time>
      </trkpt>
      <trkpt lat="44.67027" lon="7.06466">
        <ele>2491.6</ele>
        <time>2026-08-31T12:21:05Z</time>
      </trkpt>
      <trkpt lat="44.67025" lon="7.0646">
        <ele>2494.4</ele>
        <time>2026-08-31T12:21:10Z</time>
      </trkpt>
      <trkpt lat="44.67025" lon="7.0646">
        <ele>2494.4</ele>
        <time>2026-08-31T12:21:16Z</time>
      </trkpt>
      <trkpt lat="44.67021" lon="7.06456">
        <ele>2495.1</ele>
        <time>2026-08-31T12:21:21Z</time>
      </trkpt>
      <trkpt lat="44.67019" lon="7.06453">
        <ele>2496.1</ele>
        <time>2026-08-31T12:21:26Z</time>
      </trkpt>
      <trkpt lat="44.67013" lon="7.06452">
        <ele>2493.8</ele>
        <time>2026-08-31T12:21:32Z</time>
      </trkpt>
      <trkpt lat="44.67009" lon="7.0645">
        <ele>2493.3</ele>
        <time>2026-08-31T12:21:37Z</time>
      </trkpt>
      <trkpt lat="44.67005" lon="7.06449">
        <ele>2492</ele>
        <time>2026-08-31T12:21:42Z</time>
      </trkpt>
      <trkpt lat="44.66999" lon="7.06447">
        <ele>2490.6</ele>
        <time>2026-08-31T12:21:48Z</time>
      </trkpt>
      <trkpt lat="44.66997" lon="7.06444">
        <ele>2491.7</ele>
        <time>2026-08-31T12:21:53Z</time>
      </trkpt>
      <trkpt lat="44.66994" lon="7.06445">
        <ele>2489.9</ele>
        <time>2026-08-31T12:21:58Z</time>
      </trkpt>
      <trkpt lat="44.66992" lon="7.06445">
        <ele>2489.1</ele>
        <time>2026-08-31T12:22:04Z</time>
      </trkpt>
      <trkpt lat="44.6699" lon="7.06441">
        <ele>2490.7</ele>
        <time>2026-08-31T12:22:09Z</time>
      </trkpt>
      <trkpt lat="44.66987" lon="7.0644">
        <ele>2490.1</ele>
        <time>2026-08-31T12:22:14Z</time>
      </trkpt>
      <trkpt lat="44.66983" lon="7.06441">
        <ele>2487.8</ele>
        <time>2026-08-31T12:22:20Z</time>
      </trkpt>
      <trkpt lat="44.66979" lon="7.06441">
        <ele>2486.1</ele>
        <time>2026-08-31T12:22:25Z</time>
      </trkpt>
      <trkpt lat="44.66975" lon="7.06437">
        <ele>2486.7</ele>
        <time>2026-08-31T12:22:30Z</time>
      </trkpt>
      <trkpt lat="44.66969" lon="7.06435">
        <ele>2485.2</ele>
        <time>2026-08-31T12:22:36Z</time>
      </trkpt>
      <trkpt lat="44.66967" lon="7.06434">
        <ele>2484.9</ele>
        <time>2026-08-31T12:22:41Z</time>
      </trkpt>
      <trkpt lat="44.66963" lon="7.06432">
        <ele>2484.2</ele>
        <time>2026-08-31T12:22:46Z</time>
      </trkpt>
      <trkpt lat="44.66958" lon="7.06426">
        <ele>2485</ele>
        <time>2026-08-31T12:22:52Z</time>
      </trkpt>
      <trkpt lat="44.66953" lon="7.06425">
        <ele>2483.2</ele>
        <time>2026-08-31T12:22:57Z</time>
      </trkpt>
      <trkpt lat="44.6695" lon="7.06424">
        <ele>2482.2</ele>
        <time>2026-08-31T12:23:02Z</time>
      </trkpt>
      <trkpt lat="44.66946" lon="7.06423">
        <ele>2480.8</ele>
        <time>2026-08-31T12:23:08Z</time>
      </trkpt>
      <trkpt lat="44.66942" lon="7.06421">
        <ele>2479.8</ele>
        <time>2026-08-31T12:23:13Z</time>
      </trkpt>
      <trkpt lat="44.66939" lon="7.0642">
        <ele>2478.8</ele>
        <time>2026-08-31T12:23:18Z</time>
      </trkpt>
      <trkpt lat="44.66937" lon="7.06418">
        <ele>2478.7</ele>
        <time>2026-08-31T12:23:24Z</time>
      </trkpt>
      <trkpt lat="44.66937" lon="7.06418">
        <ele>2478.7</ele>
        <time>2026-08-31T12:23:29Z</time>
      </trkpt>
      <trkpt lat="44.66937" lon="7.06418">
        <ele>2478.7</ele>
        <time>2026-08-31T12:23:34Z</time>
      </trkpt>
      <trkpt lat="44.66937" lon="7.06418">
        <ele>2478.7</ele>
        <time>2026-08-31T12:23:40Z</time>
      </trkpt>
      <trkpt lat="44.66934" lon="7.06419">
        <ele>2476.7</ele>
        <time>2026-08-31T12:23:45Z</time>
      </trkpt>
      <trkpt lat="44.66931" lon="7.06416">
        <ele>2476.7</ele>
        <time>2026-08-31T12:23:50Z</time>
      </trkpt>
      <trkpt lat="44.66928" lon="7.06415">
        <ele>2475.9</ele>
        <time>2026-08-31T12:23:56Z</time>
      </trkpt>
      <trkpt lat="44.66928" lon="7.06411">
        <ele>2478.9</ele>
        <time>2026-08-31T12:24:01Z</time>
      </trkpt>
      <trkpt lat="44.66927" lon="7.06408">
        <ele>2480.7</ele>
        <time>2026-08-31T12:24:06Z</time>
      </trkpt>
      <trkpt lat="44.66921" lon="7.06407">
        <ele>2478.6</ele>
        <time>2026-08-31T12:24:12Z</time>
      </trkpt>
      <trkpt lat="44.66913" lon="7.0641">
        <ele>2472.8</ele>
        <time>2026-08-31T12:24:17Z</time>
      </trkpt>
      <trkpt lat="44.66905" lon="7.06413">
        <ele>2467.5</ele>
        <time>2026-08-31T12:24:22Z</time>
      </trkpt>
      <trkpt lat="44.66897" lon="7.06413">
        <ele>2464.4</ele>
        <time>2026-08-31T12:24:28Z</time>
      </trkpt>
      <trkpt lat="44.66892" lon="7.06413">
        <ele>2462.5</ele>
        <time>2026-08-31T12:24:33Z</time>
      </trkpt>
      <trkpt lat="44.66887" lon="7.06414">
        <ele>2459.9</ele>
        <time>2026-08-31T12:24:38Z</time>
      </trkpt>
      <trkpt lat="44.6688" lon="7.06415">
        <ele>2456.6</ele>
        <time>2026-08-31T12:24:44Z</time>
      </trkpt>
      <trkpt lat="44.66876" lon="7.06415">
        <ele>2455.1</ele>
        <time>2026-08-31T12:24:49Z</time>
      </trkpt>
      <trkpt lat="44.66872" lon="7.06414">
        <ele>2454.3</ele>
        <time>2026-08-31T12:24:54Z</time>
      </trkpt>
      <trkpt lat="44.66868" lon="7.06413">
        <ele>2453.5</ele>
        <time>2026-08-31T12:25:00Z</time>
      </trkpt>
      <trkpt lat="44.66862" lon="7.06412">
        <ele>2451.9</ele>
        <time>2026-08-31T12:25:05Z</time>
      </trkpt>
      <trkpt lat="44.66857" lon="7.06411">
        <ele>2450.7</ele>
        <time>2026-08-31T12:25:10Z</time>
      </trkpt>
      <trkpt lat="44.6685" lon="7.06409">
        <ele>2449.4</ele>
        <time>2026-08-31T12:25:16Z</time>
      </trkpt>
      <trkpt lat="44.66845" lon="7.0641">
        <ele>2446.8</ele>
        <time>2026-08-31T12:25:21Z</time>
      </trkpt>
      <trkpt lat="44.66843" lon="7.06411">
        <ele>2445.4</ele>
        <time>2026-08-31T12:25:26Z</time>
      </trkpt>
      <trkpt lat="44.6684" lon="7.06413">
        <ele>2442.9</ele>
        <time>2026-08-31T12:25:32Z</time>
      </trkpt>
      <trkpt lat="44.66834" lon="7.06413">
        <ele>2440.6</ele>
        <time>2026-08-31T12:25:37Z</time>
      </trkpt>
      <trkpt lat="44.66828" lon="7.06412">
        <ele>2441.9</ele>
        <time>2026-08-31T12:25:42Z</time>
      </trkpt>
      <trkpt lat="44.66823" lon="7.06408">
        <ele>2445.1</ele>
        <time>2026-08-31T12:25:48Z</time>
      </trkpt>
      <trkpt lat="44.66818" lon="7.06406">
        <ele>2447</ele>
        <time>2026-08-31T12:25:53Z</time>
      </trkpt>
      <trkpt lat="44.66818" lon="7.06403">
        <ele>2448.7</ele>
        <time>2026-08-31T12:25:58Z</time>
      </trkpt>
      <trkpt lat="44.66817" lon="7.06402">
        <ele>2449.4</ele>
        <time>2026-08-31T12:26:04Z</time>
      </trkpt>
      <trkpt lat="44.66814" lon="7.06402">
        <ele>2449.8</ele>
        <time>2026-08-31T12:26:09Z</time>
      </trkpt>
      <trkpt lat="44.66814" lon="7.06402">
        <ele>2449.8</ele>
        <time>2026-08-31T12:26:14Z</time>
      </trkpt>
      <trkpt lat="44.66814" lon="7.06402">
        <ele>2449.8</ele>
        <time>2026-08-31T12:26:20Z</time>
      </trkpt>
      <trkpt lat="44.66814" lon="7.06402">
        <ele>2449.8</ele>
        <time>2026-08-31T12:26:25Z</time>
      </trkpt>
      <trkpt lat="44.66807" lon="7.06408">
        <ele>2447.5</ele>
        <time>2026-08-31T12:26:30Z</time>
      </trkpt>
      <trkpt lat="44.66801" lon="7.06404">
        <ele>2450.4</ele>
        <time>2026-08-31T12:26:36Z</time>
      </trkpt>
      <trkpt lat="44.66801" lon="7.06404">
        <ele>2450.4</ele>
        <time>2026-08-31T12:26:41Z</time>
      </trkpt>
      <trkpt lat="44.66801" lon="7.06404">
        <ele>2450.4</ele>
        <time>2026-08-31T12:26:46Z</time>
      </trkpt>
      <trkpt lat="44.66798" lon="7.06406">
        <ele>2449.8</ele>
        <time>2026-08-31T12:26:52Z</time>
      </trkpt>
      <trkpt lat="44.66795" lon="7.06402">
        <ele>2452</ele>
        <time>2026-08-31T12:26:57Z</time>
      </trkpt>
      <trkpt lat="44.66792" lon="7.06404">
        <ele>2451.5</ele>
        <time>2026-08-31T12:27:02Z</time>
      </trkpt>
      <trkpt lat="44.66787" lon="7.06401">
        <ele>2453.4</ele>
        <time>2026-08-31T12:27:08Z</time>
      </trkpt>
      <trkpt lat="44.66782" lon="7.06402">
        <ele>2453.6</ele>
        <time>2026-08-31T12:27:13Z</time>
      </trkpt>
      <trkpt lat="44.66778" lon="7.06398">
        <ele>2455.5</ele>
        <time>2026-08-31T12:27:18Z</time>
      </trkpt>
      <trkpt lat="44.66771" lon="7.06399">
        <ele>2455.9</ele>
        <time>2026-08-31T12:27:24Z</time>
      </trkpt>
      <trkpt lat="44.66766" lon="7.06399">
        <ele>2456.4</ele>
        <time>2026-08-31T12:27:29Z</time>
      </trkpt>
      <trkpt lat="44.66761" lon="7.06399">
        <ele>2456.9</ele>
        <time>2026-08-31T12:27:34Z</time>
      </trkpt>
      <trkpt lat="44.66756" lon="7.06399">
        <ele>2457.4</ele>
        <time>2026-08-31T12:27:40Z</time>
      </trkpt>
      <trkpt lat="44.66754" lon="7.064">
        <ele>2457.4</ele>
        <time>2026-08-31T12:27:45Z</time>
      </trkpt>
      <trkpt lat="44.66751" lon="7.06399">
        <ele>2457.9</ele>
        <time>2026-08-31T12:27:50Z</time>
      </trkpt>
      <trkpt lat="44.66743" lon="7.06402">
        <ele>2455.6</ele>
        <time>2026-08-31T12:27:56Z</time>
      </trkpt>
      <trkpt lat="44.66739" lon="7.06403">
        <ele>2454.5</ele>
        <time>2026-08-31T12:28:01Z</time>
      </trkpt>
      <trkpt lat="44.66733" lon="7.06401">
        <ele>2453.4</ele>
        <time>2026-08-31T12:28:06Z</time>
      </trkpt>
      <trkpt lat="44.66728" lon="7.06401">
        <ele>2452.2</ele>
        <time>2026-08-31T12:28:12Z</time>
      </trkpt>
      <trkpt lat="44.66728" lon="7.06401">
        <ele>2452.2</ele>
        <time>2026-08-31T12:28:17Z</time>
      </trkpt>
      <trkpt lat="44.66728" lon="7.06401">
        <ele>2452.2</ele>
        <time>2026-08-31T12:28:22Z</time>
      </trkpt>
      <trkpt lat="44.66728" lon="7.06401">
        <ele>2452.2</ele>
        <time>2026-08-31T12:28:28Z</time>
      </trkpt>
      <trkpt lat="44.66725" lon="7.06406">
        <ele>2450.7</ele>
        <time>2026-08-31T12:28:33Z</time>
      </trkpt>
      <trkpt lat="44.66723" lon="7.06404">
        <ele>2450.5</ele>
        <time>2026-08-31T12:28:38Z</time>
      </trkpt>
      <trkpt lat="44.66717" lon="7.06401">
        <ele>2449.4</ele>
        <time>2026-08-31T12:28:44Z</time>
      </trkpt>
      <trkpt lat="44.66714" lon="7.06401">
        <ele>2448.7</ele>
        <time>2026-08-31T12:28:49Z</time>
      </trkpt>
      <trkpt lat="44.6671" lon="7.06403">
        <ele>2447.5</ele>
        <time>2026-08-31T12:28:54Z</time>
      </trkpt>
      <trkpt lat="44.66706" lon="7.064">
        <ele>2446.8</ele>
        <time>2026-08-31T12:29:00Z</time>
      </trkpt>
      <trkpt lat="44.66702" lon="7.06402">
        <ele>2445.7</ele>
        <time>2026-08-31T12:29:05Z</time>
      </trkpt>
      <trkpt lat="44.66699" lon="7.06403">
        <ele>2444.9</ele>
        <time>2026-08-31T12:29:10Z</time>
      </trkpt>
      <trkpt lat="44.66693" lon="7.06404">
        <ele>2443.4</ele>
        <time>2026-08-31T12:29:16Z</time>
      </trkpt>
      <trkpt lat="44.66689" lon="7.06405">
        <ele>2442.5</ele>
        <time>2026-08-31T12:29:21Z</time>
      </trkpt>
      <trkpt lat="44.66688" lon="7.06404">
        <ele>2442.3</ele>
        <time>2026-08-31T12:29:26Z</time>
      </trkpt>
      <trkpt lat="44.66685" lon="7.06405">
        <ele>2441.6</ele>
        <time>2026-08-31T12:29:32Z</time>
      </trkpt>
      <trkpt lat="44.66683" lon="7.06406">
        <ele>2441.1</ele>
        <time>2026-08-31T12:29:37Z</time>
      </trkpt>
      <trkpt lat="44.6668" lon="7.06408">
        <ele>2440.4</ele>
        <time>2026-08-31T12:29:42Z</time>
      </trkpt>
      <trkpt lat="44.66675" lon="7.06407">
        <ele>2439.3</ele>
        <time>2026-08-31T12:29:48Z</time>
      </trkpt>
      <trkpt lat="44.66668" lon="7.06404">
        <ele>2437.6</ele>
        <time>2026-08-31T12:29:53Z</time>
      </trkpt>
      <trkpt lat="44.66664" lon="7.06401">
        <ele>2436.5</ele>
        <time>2026-08-31T12:29:58Z</time>
      </trkpt>
      <trkpt lat="44.66663" lon="7.06397">
        <ele>2436</ele>
        <time>2026-08-31T12:30:04Z</time>
      </trkpt>
      <trkpt lat="44.66663" lon="7.06396">
        <ele>2436</ele>
        <time>2026-08-31T12:30:09Z</time>
      </trkpt>
      <trkpt lat="44.6666" lon="7.06399">
        <ele>2435.6</ele>
        <time>2026-08-31T12:30:14Z</time>
      </trkpt>
      <trkpt lat="44.66659" lon="7.06406">
        <ele>2435.9</ele>
        <time>2026-08-31T12:30:20Z</time>
      </trkpt>
      <trkpt lat="44.6666" lon="7.06411">
        <ele>2436.4</ele>
        <time>2026-08-31T12:30:25Z</time>
      </trkpt>
      <trkpt lat="44.6666" lon="7.06412">
        <ele>2436.5</ele>
        <time>2026-08-31T12:30:30Z</time>
      </trkpt>
      <trkpt lat="44.6666" lon="7.06412">
        <ele>2436.5</ele>
        <time>2026-08-31T12:30:36Z</time>
      </trkpt>
      <trkpt lat="44.66654" lon="7.06419">
        <ele>2435.7</ele>
        <time>2026-08-31T12:30:41Z</time>
      </trkpt>
      <trkpt lat="44.66649" lon="7.06425">
        <ele>2434.8</ele>
        <time>2026-08-31T12:30:46Z</time>
      </trkpt>
      <trkpt lat="44.6665" lon="7.06428">
        <ele>2435</ele>
        <time>2026-08-31T12:30:52Z</time>
      </trkpt>
      <trkpt lat="44.66651" lon="7.06431">
        <ele>2435.2</ele>
        <time>2026-08-31T12:30:57Z</time>
      </trkpt>
      <trkpt lat="44.6665" lon="7.06437">
        <ele>2435</ele>
        <time>2026-08-31T12:31:02Z</time>
      </trkpt>
      <trkpt lat="44.6665" lon="7.06438">
        <ele>2435</ele>
        <time>2026-08-31T12:31:08Z</time>
      </trkpt>
      <trkpt lat="44.66648" lon="7.06439">
        <ele>2434.7</ele>
        <time>2026-08-31T12:31:13Z</time>
      </trkpt>
      <trkpt lat="44.66648" lon="7.06439">
        <ele>2434.7</ele>
        <time>2026-08-31T12:31:18Z</time>
      </trkpt>
      <trkpt lat="44.66644" lon="7.06447">
        <ele>2434.2</ele>
        <time>2026-08-31T12:31:24Z</time>
      </trkpt>
      <trkpt lat="44.66641" lon="7.06448">
        <ele>2433.8</ele>
        <time>2026-08-31T12:31:29Z</time>
      </trkpt>
      <trkpt lat="44.66641" lon="7.0645">
        <ele>2433.8</ele>
        <time>2026-08-31T12:31:34Z</time>
      </trkpt>
      <trkpt lat="44.66641" lon="7.0645">
        <ele>2433.8</ele>
        <time>2026-08-31T12:31:40Z</time>
      </trkpt>
      <trkpt lat="44.66641" lon="7.0645">
        <ele>2433.8</ele>
        <time>2026-08-31T12:31:45Z</time>
      </trkpt>
      <trkpt lat="44.66641" lon="7.0645">
        <ele>2433.8</ele>
        <time>2026-08-31T12:31:50Z</time>
      </trkpt>
      <trkpt lat="44.66641" lon="7.0645">
        <ele>2433.8</ele>
        <time>2026-08-31T12:31:56Z</time>
      </trkpt>
      <trkpt lat="44.66641" lon="7.0645">
        <ele>2433.8</ele>
        <time>2026-08-31T12:32:01Z</time>
      </trkpt>
      <trkpt lat="44.6663" lon="7.06451">
        <ele>2432.4</ele>
        <time>2026-08-31T12:32:06Z</time>
      </trkpt>
      <trkpt lat="44.66625" lon="7.06443">
        <ele>2431.4</ele>
        <time>2026-08-31T12:32:12Z</time>
      </trkpt>
      <trkpt lat="44.66623" lon="7.06436">
        <ele>2430.9</ele>
        <time>2026-08-31T12:32:17Z</time>
      </trkpt>
      <trkpt lat="44.6662" lon="7.0643">
        <ele>2430.2</ele>
        <time>2026-08-31T12:32:22Z</time>
      </trkpt>
      <trkpt lat="44.66618" lon="7.06422">
        <ele>2429.5</ele>
        <time>2026-08-31T12:32:28Z</time>
      </trkpt>
      <trkpt lat="44.66612" lon="7.06418">
        <ele>2428.2</ele>
        <time>2026-08-31T12:32:33Z</time>
      </trkpt>
      <trkpt lat="44.6661" lon="7.06416">
        <ele>2427.7</ele>
        <time>2026-08-31T12:32:38Z</time>
      </trkpt>
      <trkpt lat="44.66605" lon="7.06418">
        <ele>2427</ele>
        <time>2026-08-31T12:32:44Z</time>
      </trkpt>
      <trkpt lat="44.66599" lon="7.06423">
        <ele>2426.3</ele>
        <time>2026-08-31T12:32:49Z</time>
      </trkpt>
      <trkpt lat="44.66594" lon="7.06427">
        <ele>2425.8</ele>
        <time>2026-08-31T12:32:54Z</time>
      </trkpt>
      <trkpt lat="44.66588" lon="7.06428">
        <ele>2424.9</ele>
        <time>2026-08-31T12:33:00Z</time>
      </trkpt>
      <trkpt lat="44.66582" lon="7.0643">
        <ele>2424.2</ele>
        <time>2026-08-31T12:33:05Z</time>
      </trkpt>
      <trkpt lat="44.66578" lon="7.06432">
        <ele>2424.1</ele>
        <time>2026-08-31T12:33:10Z</time>
      </trkpt>
      <trkpt lat="44.66571" lon="7.06434">
        <ele>2423.8</ele>
        <time>2026-08-31T12:33:16Z</time>
      </trkpt>
      <trkpt lat="44.66569" lon="7.06436">
        <ele>2423.8</ele>
        <time>2026-08-31T12:33:21Z</time>
      </trkpt>
      <trkpt lat="44.66566" lon="7.06439">
        <ele>2423.9</ele>
        <time>2026-08-31T12:33:26Z</time>
      </trkpt>
      <trkpt lat="44.66565" lon="7.06441">
        <ele>2424.1</ele>
        <time>2026-08-31T12:33:32Z</time>
      </trkpt>
      <trkpt lat="44.66565" lon="7.06441">
        <ele>2424.1</ele>
        <time>2026-08-31T12:33:37Z</time>
      </trkpt>
      <trkpt lat="44.66565" lon="7.06441">
        <ele>2424.1</ele>
        <time>2026-08-31T12:33:42Z</time>
      </trkpt>
      <trkpt lat="44.66565" lon="7.06441">
        <ele>2424.1</ele>
        <time>2026-08-31T12:33:48Z</time>
      </trkpt>
      <trkpt lat="44.66565" lon="7.06441">
        <ele>2424.1</ele>
        <time>2026-08-31T12:33:53Z</time>
      </trkpt>
      <trkpt lat="44.66565" lon="7.06441">
        <ele>2424.1</ele>
        <time>2026-08-31T12:33:58Z</time>
      </trkpt>
      <trkpt lat="44.66565" lon="7.06441">
        <ele>2424.1</ele>
        <time>2026-08-31T12:34:04Z</time>
      </trkpt>
      <trkpt lat="44.66565" lon="7.06441">
        <ele>2424.1</ele>
        <time>2026-08-31T12:34:09Z</time>
      </trkpt>
      <trkpt lat="44.66565" lon="7.06441">
        <ele>2424.1</ele>
        <time>2026-08-31T12:34:14Z</time>
      </trkpt>
      <trkpt lat="44.66565" lon="7.06441">
        <ele>2424.1</ele>
        <time>2026-08-31T12:34:20Z</time>
      </trkpt>
      <trkpt lat="44.66565" lon="7.06441">
        <ele>2424.1</ele>
        <time>2026-08-31T12:34:25Z</time>
      </trkpt>
    </trkseg>
  </trk>
</gpx>